<?xml version="1.0" encoding="UTF-8" standalone="no" ?>
<gpx xmlns="http://www.topografix.com/GPX/1/1" xmlns:xsi="http://www.w3.org/2001/XMLSchema-instance" xsi:schemaLocation="http://www.topografix.com/GPX/1/1 http://www.topografix.com/GPX/1/1/gpx.xsd" version="1.1" creator="VisuGPX - https://www.visugpx.com">
  <metadata>
    <name>Baisse de Peira Cava en boucle depuis Moulinet</name>
    <desc><![CDATA[Belle randonnée de printemps au départ de Moulinet. Une grande partie du parcours se fait dans la forêt. Vue dégagée au sommet.
]]></desc>
  </metadata>
  <trk>
    <name><![CDATA[Baisse de Peira Cava en boucle depuis Moulinet_1]]></name>
    <trkseg>
      <trkpt lat="43.94158" lon="7.412">
        <ele>811</ele>
        <time>2018-04-22T10:15:47Z</time>
      </trkpt>
      <trkpt lat="43.94159" lon="7.41199">
        <ele>811</ele>
        <time>2018-04-22T10:15:47Z</time>
      </trkpt>
      <trkpt lat="43.94162" lon="7.412">
        <ele>811</ele>
        <time>2018-04-22T10:15:47Z</time>
      </trkpt>
      <trkpt lat="43.94163" lon="7.41201">
        <ele>811</ele>
        <time>2018-04-22T10:15:47Z</time>
      </trkpt>
      <trkpt lat="43.94192" lon="7.4121">
        <ele>806</ele>
        <time>2018-04-22T10:15:47Z</time>
      </trkpt>
      <trkpt lat="43.94194" lon="7.41215">
        <ele>806</ele>
        <time>2018-04-22T10:16:03Z</time>
      </trkpt>
      <trkpt lat="43.94193" lon="7.4122">
        <ele>806</ele>
        <time>2018-04-22T10:16:03Z</time>
      </trkpt>
      <trkpt lat="43.94195" lon="7.41221">
        <ele>806</ele>
        <time>2018-04-22T10:16:03Z</time>
      </trkpt>
      <trkpt lat="43.942" lon="7.41229">
        <ele>806</ele>
        <time>2018-04-22T10:16:03Z</time>
      </trkpt>
      <trkpt lat="43.94192" lon="7.4124">
        <ele>806</ele>
        <time>2018-04-22T10:16:35Z</time>
      </trkpt>
      <trkpt lat="43.94195" lon="7.41248">
        <ele>806</ele>
        <time>2018-04-22T10:16:35Z</time>
      </trkpt>
      <trkpt lat="43.94198" lon="7.41253">
        <ele>806</ele>
        <time>2018-04-22T10:16:35Z</time>
      </trkpt>
      <trkpt lat="43.942" lon="7.41261">
        <ele>806</ele>
        <time>2018-04-22T10:16:35Z</time>
      </trkpt>
      <trkpt lat="43.94202" lon="7.41267">
        <ele>806</ele>
        <time>2018-04-22T10:16:35Z</time>
      </trkpt>
      <trkpt lat="43.94205" lon="7.41278">
        <ele>806</ele>
        <time>2018-04-22T10:16:51Z</time>
      </trkpt>
      <trkpt lat="43.94204" lon="7.41289">
        <ele>806</ele>
        <time>2018-04-22T10:16:51Z</time>
      </trkpt>
      <trkpt lat="43.94203" lon="7.4129">
        <ele>806</ele>
        <time>2018-04-22T10:16:51Z</time>
      </trkpt>
      <trkpt lat="43.94203" lon="7.41298">
        <ele>802</ele>
        <time>2018-04-22T10:16:51Z</time>
      </trkpt>
      <trkpt lat="43.94201" lon="7.41311">
        <ele>802</ele>
        <time>2018-04-22T10:17:07Z</time>
      </trkpt>
      <trkpt lat="43.94202" lon="7.4132">
        <ele>802</ele>
        <time>2018-04-22T10:17:07Z</time>
      </trkpt>
      <trkpt lat="43.94202" lon="7.41328">
        <ele>802</ele>
        <time>2018-04-22T10:17:07Z</time>
      </trkpt>
      <trkpt lat="43.942" lon="7.41333">
        <ele>802</ele>
        <time>2018-04-22T10:17:07Z</time>
      </trkpt>
      <trkpt lat="43.94199" lon="7.41336">
        <ele>802</ele>
        <time>2018-04-22T10:17:23Z</time>
      </trkpt>
      <trkpt lat="43.942" lon="7.41341">
        <ele>802</ele>
        <time>2018-04-22T10:17:23Z</time>
      </trkpt>
      <trkpt lat="43.94201" lon="7.41347">
        <ele>802</ele>
        <time>2018-04-22T10:17:23Z</time>
      </trkpt>
      <trkpt lat="43.94202" lon="7.41352">
        <ele>802</ele>
        <time>2018-04-22T10:17:23Z</time>
      </trkpt>
      <trkpt lat="43.94204" lon="7.41358">
        <ele>802</ele>
        <time>2018-04-22T10:17:39Z</time>
      </trkpt>
      <trkpt lat="43.94206" lon="7.41363">
        <ele>802</ele>
        <time>2018-04-22T10:17:39Z</time>
      </trkpt>
      <trkpt lat="43.94208" lon="7.41368">
        <ele>802</ele>
        <time>2018-04-22T10:17:39Z</time>
      </trkpt>
      <trkpt lat="43.9421" lon="7.41373">
        <ele>824</ele>
        <time>2018-04-22T10:17:39Z</time>
      </trkpt>
      <trkpt lat="43.94211" lon="7.41378">
        <ele>815</ele>
        <time>2018-04-22T10:17:55Z</time>
      </trkpt>
      <trkpt lat="43.94213" lon="7.41382">
        <ele>815</ele>
        <time>2018-04-22T10:17:55Z</time>
      </trkpt>
      <trkpt lat="43.94217" lon="7.41387">
        <ele>815</ele>
        <time>2018-04-22T10:17:55Z</time>
      </trkpt>
      <trkpt lat="43.9422" lon="7.41392">
        <ele>815</ele>
        <time>2018-04-22T10:17:55Z</time>
      </trkpt>
      <trkpt lat="43.94222" lon="7.41396">
        <ele>815</ele>
        <time>2018-04-22T10:18:11Z</time>
      </trkpt>
      <trkpt lat="43.94224" lon="7.41397">
        <ele>815</ele>
        <time>2018-04-22T10:18:11Z</time>
      </trkpt>
      <trkpt lat="43.94227" lon="7.41401">
        <ele>815</ele>
        <time>2018-04-22T10:18:11Z</time>
      </trkpt>
      <trkpt lat="43.94232" lon="7.41406">
        <ele>815</ele>
        <time>2018-04-22T10:18:11Z</time>
      </trkpt>
      <trkpt lat="43.94233" lon="7.41404">
        <ele>815</ele>
        <time>2018-04-22T10:18:31Z</time>
      </trkpt>
      <trkpt lat="43.94233" lon="7.41401">
        <ele>815</ele>
        <time>2018-04-22T10:18:31Z</time>
      </trkpt>
      <trkpt lat="43.94233" lon="7.41397">
        <ele>815</ele>
        <time>2018-04-22T10:18:31Z</time>
      </trkpt>
      <trkpt lat="43.94235" lon="7.41396">
        <ele>815</ele>
        <time>2018-04-22T10:18:31Z</time>
      </trkpt>
      <trkpt lat="43.94238" lon="7.41393">
        <ele>815</ele>
        <time>2018-04-22T10:18:31Z</time>
      </trkpt>
      <trkpt lat="43.94241" lon="7.41392">
        <ele>815</ele>
        <time>2018-04-22T10:18:47Z</time>
      </trkpt>
      <trkpt lat="43.94242" lon="7.41391">
        <ele>815</ele>
        <time>2018-04-22T10:18:47Z</time>
      </trkpt>
      <trkpt lat="43.94245" lon="7.41391">
        <ele>815</ele>
        <time>2018-04-22T10:18:47Z</time>
      </trkpt>
      <trkpt lat="43.9425" lon="7.41393">
        <ele>815</ele>
        <time>2018-04-22T10:18:47Z</time>
      </trkpt>
      <trkpt lat="43.94255" lon="7.41395">
        <ele>815</ele>
        <time>2018-04-22T10:19:07Z</time>
      </trkpt>
      <trkpt lat="43.94259" lon="7.41397">
        <ele>815</ele>
        <time>2018-04-22T10:19:07Z</time>
      </trkpt>
      <trkpt lat="43.94261" lon="7.41398">
        <ele>815</ele>
        <time>2018-04-22T10:19:07Z</time>
      </trkpt>
      <trkpt lat="43.94262" lon="7.414">
        <ele>815</ele>
        <time>2018-04-22T10:19:07Z</time>
      </trkpt>
      <trkpt lat="43.94264" lon="7.41401">
        <ele>815</ele>
        <time>2018-04-22T10:19:07Z</time>
      </trkpt>
      <trkpt lat="43.94277" lon="7.41395">
        <ele>815</ele>
        <time>2018-04-22T10:20:11Z</time>
      </trkpt>
      <trkpt lat="43.9428" lon="7.41399">
        <ele>815</ele>
        <time>2018-04-22T10:20:11Z</time>
      </trkpt>
      <trkpt lat="43.94285" lon="7.41403">
        <ele>815</ele>
        <time>2018-04-22T10:20:11Z</time>
      </trkpt>
      <trkpt lat="43.94289" lon="7.41405">
        <ele>815</ele>
        <time>2018-04-22T10:20:11Z</time>
      </trkpt>
      <trkpt lat="43.94296" lon="7.41407">
        <ele>840</ele>
        <time>2018-04-22T10:20:11Z</time>
      </trkpt>
      <trkpt lat="43.943" lon="7.41405">
        <ele>840</ele>
        <time>2018-04-22T10:20:27Z</time>
      </trkpt>
      <trkpt lat="43.94303" lon="7.41406">
        <ele>840</ele>
        <time>2018-04-22T10:20:27Z</time>
      </trkpt>
      <trkpt lat="43.94306" lon="7.41405">
        <ele>840</ele>
        <time>2018-04-22T10:20:27Z</time>
      </trkpt>
      <trkpt lat="43.94311" lon="7.41405">
        <ele>840</ele>
        <time>2018-04-22T10:20:27Z</time>
      </trkpt>
      <trkpt lat="43.94315" lon="7.41406">
        <ele>840</ele>
        <time>2018-04-22T10:20:43Z</time>
      </trkpt>
      <trkpt lat="43.94319" lon="7.41407">
        <ele>840</ele>
        <time>2018-04-22T10:20:43Z</time>
      </trkpt>
      <trkpt lat="43.94322" lon="7.41408">
        <ele>840</ele>
        <time>2018-04-22T10:20:43Z</time>
      </trkpt>
      <trkpt lat="43.94328" lon="7.41409">
        <ele>840</ele>
        <time>2018-04-22T10:20:43Z</time>
      </trkpt>
      <trkpt lat="43.94331" lon="7.41409">
        <ele>840</ele>
        <time>2018-04-22T10:20:59Z</time>
      </trkpt>
      <trkpt lat="43.94335" lon="7.4141">
        <ele>840</ele>
        <time>2018-04-22T10:20:59Z</time>
      </trkpt>
      <trkpt lat="43.94339" lon="7.4141">
        <ele>840</ele>
        <time>2018-04-22T10:20:59Z</time>
      </trkpt>
      <trkpt lat="43.94342" lon="7.41411">
        <ele>840</ele>
        <time>2018-04-22T10:20:59Z</time>
      </trkpt>
      <trkpt lat="43.94342" lon="7.41411">
        <ele>840</ele>
        <time>2018-04-22T10:21:15Z</time>
      </trkpt>
      <trkpt lat="43.94345" lon="7.4141">
        <ele>840</ele>
        <time>2018-04-22T10:21:15Z</time>
      </trkpt>
      <trkpt lat="43.94348" lon="7.4141">
        <ele>840</ele>
        <time>2018-04-22T10:21:15Z</time>
      </trkpt>
      <trkpt lat="43.94353" lon="7.41409">
        <ele>840</ele>
        <time>2018-04-22T10:21:15Z</time>
      </trkpt>
      <trkpt lat="43.94358" lon="7.41407">
        <ele>840</ele>
        <time>2018-04-22T10:21:31Z</time>
      </trkpt>
      <trkpt lat="43.94362" lon="7.41406">
        <ele>840</ele>
        <time>2018-04-22T10:21:31Z</time>
      </trkpt>
      <trkpt lat="43.94366" lon="7.41402">
        <ele>840</ele>
        <time>2018-04-22T10:21:31Z</time>
      </trkpt>
      <trkpt lat="43.94369" lon="7.41401">
        <ele>840</ele>
        <time>2018-04-22T10:21:31Z</time>
      </trkpt>
      <trkpt lat="43.9437" lon="7.41401">
        <ele>840</ele>
        <time>2018-04-22T10:21:47Z</time>
      </trkpt>
      <trkpt lat="43.94374" lon="7.41398">
        <ele>840</ele>
        <time>2018-04-22T10:21:47Z</time>
      </trkpt>
      <trkpt lat="43.94377" lon="7.41395">
        <ele>866</ele>
        <time>2018-04-22T10:21:47Z</time>
      </trkpt>
      <trkpt lat="43.94378" lon="7.41395">
        <ele>866</ele>
        <time>2018-04-22T10:21:47Z</time>
      </trkpt>
      <trkpt lat="43.94381" lon="7.41394">
        <ele>866</ele>
        <time>2018-04-22T10:22:07Z</time>
      </trkpt>
      <trkpt lat="43.94383" lon="7.41393">
        <ele>866</ele>
        <time>2018-04-22T10:22:07Z</time>
      </trkpt>
      <trkpt lat="43.94387" lon="7.41391">
        <ele>866</ele>
        <time>2018-04-22T10:22:07Z</time>
      </trkpt>
      <trkpt lat="43.94387" lon="7.4139">
        <ele>866</ele>
        <time>2018-04-22T10:22:07Z</time>
      </trkpt>
      <trkpt lat="43.9439" lon="7.41387">
        <ele>866</ele>
        <time>2018-04-22T10:22:07Z</time>
      </trkpt>
      <trkpt lat="43.94394" lon="7.41383">
        <ele>866</ele>
        <time>2018-04-22T10:22:27Z</time>
      </trkpt>
      <trkpt lat="43.94396" lon="7.4138">
        <ele>866</ele>
        <time>2018-04-22T10:22:27Z</time>
      </trkpt>
      <trkpt lat="43.94397" lon="7.41377">
        <ele>866</ele>
        <time>2018-04-22T10:22:27Z</time>
      </trkpt>
      <trkpt lat="43.94398" lon="7.41376">
        <ele>866</ele>
        <time>2018-04-22T10:22:27Z</time>
      </trkpt>
      <trkpt lat="43.944" lon="7.41373">
        <ele>881</ele>
        <time>2018-04-22T10:22:27Z</time>
      </trkpt>
      <trkpt lat="43.94403" lon="7.41372">
        <ele>881</ele>
        <time>2018-04-22T10:22:59Z</time>
      </trkpt>
      <trkpt lat="43.94405" lon="7.41369">
        <ele>881</ele>
        <time>2018-04-22T10:22:59Z</time>
      </trkpt>
      <trkpt lat="43.94408" lon="7.41367">
        <ele>881</ele>
        <time>2018-04-22T10:22:59Z</time>
      </trkpt>
      <trkpt lat="43.9441" lon="7.41366">
        <ele>881</ele>
        <time>2018-04-22T10:22:59Z</time>
      </trkpt>
      <trkpt lat="43.94412" lon="7.41365">
        <ele>881</ele>
        <time>2018-04-22T10:22:59Z</time>
      </trkpt>
      <trkpt lat="43.9442" lon="7.41359">
        <ele>881</ele>
        <time>2018-04-22T10:23:55Z</time>
      </trkpt>
      <trkpt lat="43.94421" lon="7.41354">
        <ele>881</ele>
        <time>2018-04-22T10:23:55Z</time>
      </trkpt>
      <trkpt lat="43.94422" lon="7.4135">
        <ele>881</ele>
        <time>2018-04-22T10:23:55Z</time>
      </trkpt>
      <trkpt lat="43.94423" lon="7.41351">
        <ele>881</ele>
        <time>2018-04-22T10:23:55Z</time>
      </trkpt>
      <trkpt lat="43.94424" lon="7.41352">
        <ele>881</ele>
        <time>2018-04-22T10:23:55Z</time>
      </trkpt>
      <trkpt lat="43.94427" lon="7.41359">
        <ele>881</ele>
        <time>2018-04-22T10:24:27Z</time>
      </trkpt>
      <trkpt lat="43.94426" lon="7.41359">
        <ele>881</ele>
        <time>2018-04-22T10:24:27Z</time>
      </trkpt>
      <trkpt lat="43.94428" lon="7.41359">
        <ele>881</ele>
        <time>2018-04-22T10:24:27Z</time>
      </trkpt>
      <trkpt lat="43.94431" lon="7.41361">
        <ele>881</ele>
        <time>2018-04-22T10:24:27Z</time>
      </trkpt>
      <trkpt lat="43.94433" lon="7.41364">
        <ele>881</ele>
        <time>2018-04-22T10:24:27Z</time>
      </trkpt>
      <trkpt lat="43.94433" lon="7.41365">
        <ele>881</ele>
        <time>2018-04-22T10:24:43Z</time>
      </trkpt>
      <trkpt lat="43.94436" lon="7.4137">
        <ele>881</ele>
        <time>2018-04-22T10:24:43Z</time>
      </trkpt>
      <trkpt lat="43.94438" lon="7.41373">
        <ele>881</ele>
        <time>2018-04-22T10:24:43Z</time>
      </trkpt>
      <trkpt lat="43.9444" lon="7.41376">
        <ele>866</ele>
        <time>2018-04-22T10:24:43Z</time>
      </trkpt>
      <trkpt lat="43.94455" lon="7.41386">
        <ele>866</ele>
        <time>2018-04-22T10:25:39Z</time>
      </trkpt>
      <trkpt lat="43.94455" lon="7.41387">
        <ele>866</ele>
        <time>2018-04-22T10:25:39Z</time>
      </trkpt>
      <trkpt lat="43.94458" lon="7.41388">
        <ele>866</ele>
        <time>2018-04-22T10:25:39Z</time>
      </trkpt>
      <trkpt lat="43.9446" lon="7.41389">
        <ele>900</ele>
        <time>2018-04-22T10:25:39Z</time>
      </trkpt>
      <trkpt lat="43.94463" lon="7.41393">
        <ele>900</ele>
        <time>2018-04-22T10:25:39Z</time>
      </trkpt>
      <trkpt lat="43.94465" lon="7.41395">
        <ele>900</ele>
        <time>2018-04-22T10:25:59Z</time>
      </trkpt>
      <trkpt lat="43.94467" lon="7.41399">
        <ele>900</ele>
        <time>2018-04-22T10:25:59Z</time>
      </trkpt>
      <trkpt lat="43.94469" lon="7.41402">
        <ele>900</ele>
        <time>2018-04-22T10:25:59Z</time>
      </trkpt>
      <trkpt lat="43.9447" lon="7.41404">
        <ele>900</ele>
        <time>2018-04-22T10:25:59Z</time>
      </trkpt>
      <trkpt lat="43.94471" lon="7.41406">
        <ele>900</ele>
        <time>2018-04-22T10:25:59Z</time>
      </trkpt>
      <trkpt lat="43.94474" lon="7.41408">
        <ele>900</ele>
        <time>2018-04-22T10:26:19Z</time>
      </trkpt>
      <trkpt lat="43.94478" lon="7.4141">
        <ele>900</ele>
        <time>2018-04-22T10:26:19Z</time>
      </trkpt>
      <trkpt lat="43.9448" lon="7.41411">
        <ele>900</ele>
        <time>2018-04-22T10:26:19Z</time>
      </trkpt>
      <trkpt lat="43.94482" lon="7.41413">
        <ele>900</ele>
        <time>2018-04-22T10:26:19Z</time>
      </trkpt>
      <trkpt lat="43.94485" lon="7.41416">
        <ele>900</ele>
        <time>2018-04-22T10:26:19Z</time>
      </trkpt>
      <trkpt lat="43.94488" lon="7.41418">
        <ele>900</ele>
        <time>2018-04-22T10:26:47Z</time>
      </trkpt>
      <trkpt lat="43.94488" lon="7.41418">
        <ele>900</ele>
        <time>2018-04-22T10:26:47Z</time>
      </trkpt>
      <trkpt lat="43.94491" lon="7.41422">
        <ele>900</ele>
        <time>2018-04-22T10:26:47Z</time>
      </trkpt>
      <trkpt lat="43.94493" lon="7.41423">
        <ele>900</ele>
        <time>2018-04-22T10:26:47Z</time>
      </trkpt>
      <trkpt lat="43.94494" lon="7.41425">
        <ele>900</ele>
        <time>2018-04-22T10:26:47Z</time>
      </trkpt>
      <trkpt lat="43.94496" lon="7.41427">
        <ele>900</ele>
        <time>2018-04-22T10:27:07Z</time>
      </trkpt>
      <trkpt lat="43.94498" lon="7.4143">
        <ele>900</ele>
        <time>2018-04-22T10:27:07Z</time>
      </trkpt>
      <trkpt lat="43.94501" lon="7.41434">
        <ele>900</ele>
        <time>2018-04-22T10:27:07Z</time>
      </trkpt>
      <trkpt lat="43.94502" lon="7.41437">
        <ele>900</ele>
        <time>2018-04-22T10:27:07Z</time>
      </trkpt>
      <trkpt lat="43.94503" lon="7.41439">
        <ele>900</ele>
        <time>2018-04-22T10:27:07Z</time>
      </trkpt>
      <trkpt lat="43.94504" lon="7.41438">
        <ele>900</ele>
        <time>2018-04-22T10:27:27Z</time>
      </trkpt>
      <trkpt lat="43.94506" lon="7.41438">
        <ele>900</ele>
        <time>2018-04-22T10:27:27Z</time>
      </trkpt>
      <trkpt lat="43.94509" lon="7.4144">
        <ele>900</ele>
        <time>2018-04-22T10:27:27Z</time>
      </trkpt>
      <trkpt lat="43.94512" lon="7.4144">
        <ele>900</ele>
        <time>2018-04-22T10:27:27Z</time>
      </trkpt>
      <trkpt lat="43.94514" lon="7.4144">
        <ele>900</ele>
        <time>2018-04-22T10:27:27Z</time>
      </trkpt>
      <trkpt lat="43.94517" lon="7.41443">
        <ele>900</ele>
        <time>2018-04-22T10:27:51Z</time>
      </trkpt>
      <trkpt lat="43.94518" lon="7.41443">
        <ele>900</ele>
        <time>2018-04-22T10:27:51Z</time>
      </trkpt>
      <trkpt lat="43.94521" lon="7.41446">
        <ele>900</ele>
        <time>2018-04-22T10:27:51Z</time>
      </trkpt>
      <trkpt lat="43.94523" lon="7.41447">
        <ele>900</ele>
        <time>2018-04-22T10:27:51Z</time>
      </trkpt>
      <trkpt lat="43.94524" lon="7.41448">
        <ele>900</ele>
        <time>2018-04-22T10:27:51Z</time>
      </trkpt>
      <trkpt lat="43.94527" lon="7.4145">
        <ele>900</ele>
        <time>2018-04-22T10:28:15Z</time>
      </trkpt>
      <trkpt lat="43.94529" lon="7.41452">
        <ele>900</ele>
        <time>2018-04-22T10:28:15Z</time>
      </trkpt>
      <trkpt lat="43.94531" lon="7.41453">
        <ele>900</ele>
        <time>2018-04-22T10:28:15Z</time>
      </trkpt>
      <trkpt lat="43.94533" lon="7.41455">
        <ele>900</ele>
        <time>2018-04-22T10:28:15Z</time>
      </trkpt>
      <trkpt lat="43.94534" lon="7.41457">
        <ele>900</ele>
        <time>2018-04-22T10:28:15Z</time>
      </trkpt>
      <trkpt lat="43.9454" lon="7.41462">
        <ele>887</ele>
        <time>2018-04-22T10:28:43Z</time>
      </trkpt>
      <trkpt lat="43.9454" lon="7.41463">
        <ele>887</ele>
        <time>2018-04-22T10:28:43Z</time>
      </trkpt>
      <trkpt lat="43.94542" lon="7.41467">
        <ele>887</ele>
        <time>2018-04-22T10:28:43Z</time>
      </trkpt>
      <trkpt lat="43.94542" lon="7.4147">
        <ele>906</ele>
        <time>2018-04-22T10:28:43Z</time>
      </trkpt>
      <trkpt lat="43.94543" lon="7.41471">
        <ele>906</ele>
        <time>2018-04-22T10:28:43Z</time>
      </trkpt>
      <trkpt lat="43.94544" lon="7.41473">
        <ele>906</ele>
        <time>2018-04-22T10:29:03Z</time>
      </trkpt>
      <trkpt lat="43.94545" lon="7.41475">
        <ele>906</ele>
        <time>2018-04-22T10:29:03Z</time>
      </trkpt>
      <trkpt lat="43.94548" lon="7.41477">
        <ele>906</ele>
        <time>2018-04-22T10:29:03Z</time>
      </trkpt>
      <trkpt lat="43.9455" lon="7.41479">
        <ele>906</ele>
        <time>2018-04-22T10:29:03Z</time>
      </trkpt>
      <trkpt lat="43.94553" lon="7.41482">
        <ele>906</ele>
        <time>2018-04-22T10:29:03Z</time>
      </trkpt>
      <trkpt lat="43.94556" lon="7.41481">
        <ele>906</ele>
        <time>2018-04-22T10:29:23Z</time>
      </trkpt>
      <trkpt lat="43.94559" lon="7.41479">
        <ele>906</ele>
        <time>2018-04-22T10:29:23Z</time>
      </trkpt>
      <trkpt lat="43.9456" lon="7.41476">
        <ele>906</ele>
        <time>2018-04-22T10:29:23Z</time>
      </trkpt>
      <trkpt lat="43.94561" lon="7.41474">
        <ele>906</ele>
        <time>2018-04-22T10:29:23Z</time>
      </trkpt>
      <trkpt lat="43.94562" lon="7.41472">
        <ele>906</ele>
        <time>2018-04-22T10:29:23Z</time>
      </trkpt>
      <trkpt lat="43.94568" lon="7.41469">
        <ele>906</ele>
        <time>2018-04-22T10:29:47Z</time>
      </trkpt>
      <trkpt lat="43.9457" lon="7.41468">
        <ele>906</ele>
        <time>2018-04-22T10:29:47Z</time>
      </trkpt>
      <trkpt lat="43.9457" lon="7.41465">
        <ele>906</ele>
        <time>2018-04-22T10:29:47Z</time>
      </trkpt>
      <trkpt lat="43.9457" lon="7.41459">
        <ele>906</ele>
        <time>2018-04-22T10:29:47Z</time>
      </trkpt>
      <trkpt lat="43.94571" lon="7.41454">
        <ele>929</ele>
        <time>2018-04-22T10:29:47Z</time>
      </trkpt>
      <trkpt lat="43.9457" lon="7.4145">
        <ele>929</ele>
        <time>2018-04-22T10:30:07Z</time>
      </trkpt>
      <trkpt lat="43.94569" lon="7.41447">
        <ele>929</ele>
        <time>2018-04-22T10:30:07Z</time>
      </trkpt>
      <trkpt lat="43.94567" lon="7.41447">
        <ele>929</ele>
        <time>2018-04-22T10:30:07Z</time>
      </trkpt>
      <trkpt lat="43.94565" lon="7.41444">
        <ele>929</ele>
        <time>2018-04-22T10:30:07Z</time>
      </trkpt>
      <trkpt lat="43.94563" lon="7.4144">
        <ele>929</ele>
        <time>2018-04-22T10:30:07Z</time>
      </trkpt>
      <trkpt lat="43.94565" lon="7.41434">
        <ele>929</ele>
        <time>2018-04-22T10:30:35Z</time>
      </trkpt>
      <trkpt lat="43.94561" lon="7.41433">
        <ele>929</ele>
        <time>2018-04-22T10:30:35Z</time>
      </trkpt>
      <trkpt lat="43.94559" lon="7.41431">
        <ele>929</ele>
        <time>2018-04-22T10:30:35Z</time>
      </trkpt>
      <trkpt lat="43.9456" lon="7.41428">
        <ele>929</ele>
        <time>2018-04-22T10:30:35Z</time>
      </trkpt>
      <trkpt lat="43.9456" lon="7.41426">
        <ele>929</ele>
        <time>2018-04-22T10:30:35Z</time>
      </trkpt>
      <trkpt lat="43.94558" lon="7.41424">
        <ele>929</ele>
        <time>2018-04-22T10:30:59Z</time>
      </trkpt>
      <trkpt lat="43.94558" lon="7.41423">
        <ele>929</ele>
        <time>2018-04-22T10:30:59Z</time>
      </trkpt>
      <trkpt lat="43.94557" lon="7.41422">
        <ele>929</ele>
        <time>2018-04-22T10:30:59Z</time>
      </trkpt>
      <trkpt lat="43.94555" lon="7.41417">
        <ele>929</ele>
        <time>2018-04-22T10:30:59Z</time>
      </trkpt>
      <trkpt lat="43.94554" lon="7.41414">
        <ele>929</ele>
        <time>2018-04-22T10:30:59Z</time>
      </trkpt>
      <trkpt lat="43.94554" lon="7.41411">
        <ele>929</ele>
        <time>2018-04-22T10:31:23Z</time>
      </trkpt>
      <trkpt lat="43.94554" lon="7.41409">
        <ele>929</ele>
        <time>2018-04-22T10:31:23Z</time>
      </trkpt>
      <trkpt lat="43.94556" lon="7.41406">
        <ele>929</ele>
        <time>2018-04-22T10:31:23Z</time>
      </trkpt>
      <trkpt lat="43.94558" lon="7.41403">
        <ele>929</ele>
        <time>2018-04-22T10:31:23Z</time>
      </trkpt>
      <trkpt lat="43.94559" lon="7.41399">
        <ele>929</ele>
        <time>2018-04-22T10:31:23Z</time>
      </trkpt>
      <trkpt lat="43.94563" lon="7.41378">
        <ele>929</ele>
        <time>2018-04-22T10:32:23Z</time>
      </trkpt>
      <trkpt lat="43.94563" lon="7.41377">
        <ele>929</ele>
        <time>2018-04-22T10:32:23Z</time>
      </trkpt>
      <trkpt lat="43.94563" lon="7.41374">
        <ele>950</ele>
        <time>2018-04-22T10:32:23Z</time>
      </trkpt>
      <trkpt lat="43.94563" lon="7.41368">
        <ele>950</ele>
        <time>2018-04-22T10:32:23Z</time>
      </trkpt>
      <trkpt lat="43.94565" lon="7.41365">
        <ele>950</ele>
        <time>2018-04-22T10:32:23Z</time>
      </trkpt>
      <trkpt lat="43.94568" lon="7.41362">
        <ele>950</ele>
        <time>2018-04-22T10:32:43Z</time>
      </trkpt>
      <trkpt lat="43.9457" lon="7.4136">
        <ele>950</ele>
        <time>2018-04-22T10:32:43Z</time>
      </trkpt>
      <trkpt lat="43.94572" lon="7.41357">
        <ele>950</ele>
        <time>2018-04-22T10:32:43Z</time>
      </trkpt>
      <trkpt lat="43.94572" lon="7.41354">
        <ele>950</ele>
        <time>2018-04-22T10:32:43Z</time>
      </trkpt>
      <trkpt lat="43.94573" lon="7.41351">
        <ele>950</ele>
        <time>2018-04-22T10:32:43Z</time>
      </trkpt>
      <trkpt lat="43.94575" lon="7.41345">
        <ele>950</ele>
        <time>2018-04-22T10:33:07Z</time>
      </trkpt>
      <trkpt lat="43.94575" lon="7.41342">
        <ele>950</ele>
        <time>2018-04-22T10:33:07Z</time>
      </trkpt>
      <trkpt lat="43.94576" lon="7.41339">
        <ele>950</ele>
        <time>2018-04-22T10:33:07Z</time>
      </trkpt>
      <trkpt lat="43.94577" lon="7.41337">
        <ele>950</ele>
        <time>2018-04-22T10:33:07Z</time>
      </trkpt>
      <trkpt lat="43.94579" lon="7.41333">
        <ele>950</ele>
        <time>2018-04-22T10:33:07Z</time>
      </trkpt>
      <trkpt lat="43.9458" lon="7.4133">
        <ele>950</ele>
        <time>2018-04-22T10:33:27Z</time>
      </trkpt>
      <trkpt lat="43.9458" lon="7.41327">
        <ele>950</ele>
        <time>2018-04-22T10:33:27Z</time>
      </trkpt>
      <trkpt lat="43.94581" lon="7.41322">
        <ele>950</ele>
        <time>2018-04-22T10:33:27Z</time>
      </trkpt>
      <trkpt lat="43.9458" lon="7.41319">
        <ele>950</ele>
        <time>2018-04-22T10:33:27Z</time>
      </trkpt>
      <trkpt lat="43.94581" lon="7.41314">
        <ele>950</ele>
        <time>2018-04-22T10:33:27Z</time>
      </trkpt>
      <trkpt lat="43.94585" lon="7.4131">
        <ele>950</ele>
        <time>2018-04-22T10:33:51Z</time>
      </trkpt>
      <trkpt lat="43.94586" lon="7.41306">
        <ele>950</ele>
        <time>2018-04-22T10:33:51Z</time>
      </trkpt>
      <trkpt lat="43.94587" lon="7.41304">
        <ele>950</ele>
        <time>2018-04-22T10:33:51Z</time>
      </trkpt>
      <trkpt lat="43.94587" lon="7.41302">
        <ele>950</ele>
        <time>2018-04-22T10:33:51Z</time>
      </trkpt>
      <trkpt lat="43.94585" lon="7.41299">
        <ele>950</ele>
        <time>2018-04-22T10:33:51Z</time>
      </trkpt>
      <trkpt lat="43.94582" lon="7.41297">
        <ele>950</ele>
        <time>2018-04-22T10:34:23Z</time>
      </trkpt>
      <trkpt lat="43.94581" lon="7.41293">
        <ele>950</ele>
        <time>2018-04-22T10:34:23Z</time>
      </trkpt>
      <trkpt lat="43.9458" lon="7.41288">
        <ele>966</ele>
        <time>2018-04-22T10:34:23Z</time>
      </trkpt>
      <trkpt lat="43.9458" lon="7.41284">
        <ele>966</ele>
        <time>2018-04-22T10:34:23Z</time>
      </trkpt>
      <trkpt lat="43.94579" lon="7.41281">
        <ele>966</ele>
        <time>2018-04-22T10:34:23Z</time>
      </trkpt>
      <trkpt lat="43.94581" lon="7.41277">
        <ele>966</ele>
        <time>2018-04-22T10:34:43Z</time>
      </trkpt>
      <trkpt lat="43.94581" lon="7.41276">
        <ele>966</ele>
        <time>2018-04-22T10:34:43Z</time>
      </trkpt>
      <trkpt lat="43.94582" lon="7.41272">
        <ele>966</ele>
        <time>2018-04-22T10:34:43Z</time>
      </trkpt>
      <trkpt lat="43.94581" lon="7.41265">
        <ele>966</ele>
        <time>2018-04-22T10:34:43Z</time>
      </trkpt>
      <trkpt lat="43.94583" lon="7.4126">
        <ele>966</ele>
        <time>2018-04-22T10:34:43Z</time>
      </trkpt>
      <trkpt lat="43.94585" lon="7.41247">
        <ele>966</ele>
        <time>2018-04-22T10:35:11Z</time>
      </trkpt>
      <trkpt lat="43.94586" lon="7.41247">
        <ele>966</ele>
        <time>2018-04-22T10:35:11Z</time>
      </trkpt>
      <trkpt lat="43.94588" lon="7.41249">
        <ele>966</ele>
        <time>2018-04-22T10:35:11Z</time>
      </trkpt>
      <trkpt lat="43.9459" lon="7.41252">
        <ele>966</ele>
        <time>2018-04-22T10:35:11Z</time>
      </trkpt>
      <trkpt lat="43.94592" lon="7.41252">
        <ele>966</ele>
        <time>2018-04-22T10:35:11Z</time>
      </trkpt>
      <trkpt lat="43.94592" lon="7.41249">
        <ele>966</ele>
        <time>2018-04-22T10:35:27Z</time>
      </trkpt>
      <trkpt lat="43.94591" lon="7.4124">
        <ele>966</ele>
        <time>2018-04-22T10:35:27Z</time>
      </trkpt>
      <trkpt lat="43.94592" lon="7.41232">
        <ele>966</ele>
        <time>2018-04-22T10:35:27Z</time>
      </trkpt>
      <trkpt lat="43.94593" lon="7.41227">
        <ele>966</ele>
        <time>2018-04-22T10:35:27Z</time>
      </trkpt>
      <trkpt lat="43.94594" lon="7.41221">
        <ele>966</ele>
        <time>2018-04-22T10:35:43Z</time>
      </trkpt>
      <trkpt lat="43.94595" lon="7.41215">
        <ele>966</ele>
        <time>2018-04-22T10:35:43Z</time>
      </trkpt>
      <trkpt lat="43.94595" lon="7.41209">
        <ele>966</ele>
        <time>2018-04-22T10:35:43Z</time>
      </trkpt>
      <trkpt lat="43.94594" lon="7.41206">
        <ele>986</ele>
        <time>2018-04-22T10:35:43Z</time>
      </trkpt>
      <trkpt lat="43.94595" lon="7.41205">
        <ele>986</ele>
        <time>2018-04-22T10:36:15Z</time>
      </trkpt>
      <trkpt lat="43.94596" lon="7.41206">
        <ele>986</ele>
        <time>2018-04-22T10:36:15Z</time>
      </trkpt>
      <trkpt lat="43.94598" lon="7.41207">
        <ele>986</ele>
        <time>2018-04-22T10:36:15Z</time>
      </trkpt>
      <trkpt lat="43.94602" lon="7.41209">
        <ele>966</ele>
        <time>2018-04-22T10:36:15Z</time>
      </trkpt>
      <trkpt lat="43.94606" lon="7.41207">
        <ele>986</ele>
        <time>2018-04-22T10:36:15Z</time>
      </trkpt>
      <trkpt lat="43.94609" lon="7.41201">
        <ele>986</ele>
        <time>2018-04-22T10:36:31Z</time>
      </trkpt>
      <trkpt lat="43.94611" lon="7.41196">
        <ele>986</ele>
        <time>2018-04-22T10:36:31Z</time>
      </trkpt>
      <trkpt lat="43.94612" lon="7.41192">
        <ele>986</ele>
        <time>2018-04-22T10:36:31Z</time>
      </trkpt>
      <trkpt lat="43.94613" lon="7.41189">
        <ele>986</ele>
        <time>2018-04-22T10:36:31Z</time>
      </trkpt>
      <trkpt lat="43.94615" lon="7.41183">
        <ele>986</ele>
        <time>2018-04-22T10:36:51Z</time>
      </trkpt>
      <trkpt lat="43.94615" lon="7.41179">
        <ele>986</ele>
        <time>2018-04-22T10:36:51Z</time>
      </trkpt>
      <trkpt lat="43.94615" lon="7.41177">
        <ele>986</ele>
        <time>2018-04-22T10:36:51Z</time>
      </trkpt>
      <trkpt lat="43.94616" lon="7.41173">
        <ele>986</ele>
        <time>2018-04-22T10:36:51Z</time>
      </trkpt>
      <trkpt lat="43.94617" lon="7.41169">
        <ele>986</ele>
        <time>2018-04-22T10:36:51Z</time>
      </trkpt>
      <trkpt lat="43.94618" lon="7.41162">
        <ele>986</ele>
        <time>2018-04-22T10:37:15Z</time>
      </trkpt>
      <trkpt lat="43.94616" lon="7.41161">
        <ele>986</ele>
        <time>2018-04-22T10:37:15Z</time>
      </trkpt>
      <trkpt lat="43.94615" lon="7.41159">
        <ele>986</ele>
        <time>2018-04-22T10:37:15Z</time>
      </trkpt>
      <trkpt lat="43.94614" lon="7.41156">
        <ele>986</ele>
        <time>2018-04-22T10:37:15Z</time>
      </trkpt>
      <trkpt lat="43.94615" lon="7.41154">
        <ele>986</ele>
        <time>2018-04-22T10:37:15Z</time>
      </trkpt>
      <trkpt lat="43.94619" lon="7.41148">
        <ele>986</ele>
        <time>2018-04-22T10:37:39Z</time>
      </trkpt>
      <trkpt lat="43.94621" lon="7.41146">
        <ele>986</ele>
        <time>2018-04-22T10:37:39Z</time>
      </trkpt>
      <trkpt lat="43.94622" lon="7.41144">
        <ele>986</ele>
        <time>2018-04-22T10:37:39Z</time>
      </trkpt>
      <trkpt lat="43.94622" lon="7.41142">
        <ele>986</ele>
        <time>2018-04-22T10:37:39Z</time>
      </trkpt>
      <trkpt lat="43.94622" lon="7.41137">
        <ele>986</ele>
        <time>2018-04-22T10:37:39Z</time>
      </trkpt>
      <trkpt lat="43.94623" lon="7.41136">
        <ele>986</ele>
        <time>2018-04-22T10:37:59Z</time>
      </trkpt>
      <trkpt lat="43.94624" lon="7.41132">
        <ele>986</ele>
        <time>2018-04-22T10:37:59Z</time>
      </trkpt>
      <trkpt lat="43.94625" lon="7.41128">
        <ele>986</ele>
        <time>2018-04-22T10:37:59Z</time>
      </trkpt>
      <trkpt lat="43.94625" lon="7.41126">
        <ele>966</ele>
        <time>2018-04-22T10:37:59Z</time>
      </trkpt>
      <trkpt lat="43.94627" lon="7.41123">
        <ele>991</ele>
        <time>2018-04-22T10:37:59Z</time>
      </trkpt>
      <trkpt lat="43.94631" lon="7.41117">
        <ele>991</ele>
        <time>2018-04-22T10:38:31Z</time>
      </trkpt>
      <trkpt lat="43.94631" lon="7.41114">
        <ele>991</ele>
        <time>2018-04-22T10:38:31Z</time>
      </trkpt>
      <trkpt lat="43.94629" lon="7.4111">
        <ele>991</ele>
        <time>2018-04-22T10:38:31Z</time>
      </trkpt>
      <trkpt lat="43.94628" lon="7.41106">
        <ele>991</ele>
        <time>2018-04-22T10:38:31Z</time>
      </trkpt>
      <trkpt lat="43.94629" lon="7.41102">
        <ele>991</ele>
        <time>2018-04-22T10:38:31Z</time>
      </trkpt>
      <trkpt lat="43.94629" lon="7.41099">
        <ele>991</ele>
        <time>2018-04-22T10:38:51Z</time>
      </trkpt>
      <trkpt lat="43.94629" lon="7.41095">
        <ele>991</ele>
        <time>2018-04-22T10:38:51Z</time>
      </trkpt>
      <trkpt lat="43.9463" lon="7.41091">
        <ele>991</ele>
        <time>2018-04-22T10:38:51Z</time>
      </trkpt>
      <trkpt lat="43.94631" lon="7.41088">
        <ele>991</ele>
        <time>2018-04-22T10:38:51Z</time>
      </trkpt>
      <trkpt lat="43.94633" lon="7.41083">
        <ele>991</ele>
        <time>2018-04-22T10:38:51Z</time>
      </trkpt>
      <trkpt lat="43.94634" lon="7.4108">
        <ele>991</ele>
        <time>2018-04-22T10:39:11Z</time>
      </trkpt>
      <trkpt lat="43.94635" lon="7.41077">
        <ele>991</ele>
        <time>2018-04-22T10:39:11Z</time>
      </trkpt>
      <trkpt lat="43.94637" lon="7.41072">
        <ele>991</ele>
        <time>2018-04-22T10:39:11Z</time>
      </trkpt>
      <trkpt lat="43.94637" lon="7.41068">
        <ele>991</ele>
        <time>2018-04-22T10:39:11Z</time>
      </trkpt>
      <trkpt lat="43.94638" lon="7.41063">
        <ele>991</ele>
        <time>2018-04-22T10:39:11Z</time>
      </trkpt>
      <trkpt lat="43.94639" lon="7.41057">
        <ele>991</ele>
        <time>2018-04-22T10:39:35Z</time>
      </trkpt>
      <trkpt lat="43.94639" lon="7.41055">
        <ele>991</ele>
        <time>2018-04-22T10:39:35Z</time>
      </trkpt>
      <trkpt lat="43.9464" lon="7.41053">
        <ele>991</ele>
        <time>2018-04-22T10:39:35Z</time>
      </trkpt>
      <trkpt lat="43.9464" lon="7.41048">
        <ele>991</ele>
        <time>2018-04-22T10:39:35Z</time>
      </trkpt>
      <trkpt lat="43.9464" lon="7.41044">
        <ele>991</ele>
        <time>2018-04-22T10:39:35Z</time>
      </trkpt>
      <trkpt lat="43.94641" lon="7.41039">
        <ele>1017</ele>
        <time>2018-04-22T10:39:51Z</time>
      </trkpt>
      <trkpt lat="43.94643" lon="7.41037">
        <ele>1017</ele>
        <time>2018-04-22T10:39:51Z</time>
      </trkpt>
      <trkpt lat="43.94645" lon="7.41031">
        <ele>1017</ele>
        <time>2018-04-22T10:39:51Z</time>
      </trkpt>
      <trkpt lat="43.94645" lon="7.41027">
        <ele>1017</ele>
        <time>2018-04-22T10:39:51Z</time>
      </trkpt>
      <trkpt lat="43.94646" lon="7.41021">
        <ele>1017</ele>
        <time>2018-04-22T10:40:07Z</time>
      </trkpt>
      <trkpt lat="43.94647" lon="7.41017">
        <ele>1017</ele>
        <time>2018-04-22T10:40:07Z</time>
      </trkpt>
      <trkpt lat="43.94648" lon="7.41013">
        <ele>1017</ele>
        <time>2018-04-22T10:40:07Z</time>
      </trkpt>
      <trkpt lat="43.94649" lon="7.41008">
        <ele>1017</ele>
        <time>2018-04-22T10:40:07Z</time>
      </trkpt>
      <trkpt lat="43.9465" lon="7.41003">
        <ele>1017</ele>
        <time>2018-04-22T10:40:23Z</time>
      </trkpt>
      <trkpt lat="43.94652" lon="7.40998">
        <ele>1017</ele>
        <time>2018-04-22T10:40:23Z</time>
      </trkpt>
      <trkpt lat="43.94654" lon="7.40994">
        <ele>1017</ele>
        <time>2018-04-22T10:40:23Z</time>
      </trkpt>
      <trkpt lat="43.94655" lon="7.4099">
        <ele>1017</ele>
        <time>2018-04-22T10:40:23Z</time>
      </trkpt>
      <trkpt lat="43.94656" lon="7.40986">
        <ele>1017</ele>
        <time>2018-04-22T10:40:43Z</time>
      </trkpt>
      <trkpt lat="43.94657" lon="7.40983">
        <ele>1017</ele>
        <time>2018-04-22T10:40:43Z</time>
      </trkpt>
      <trkpt lat="43.94659" lon="7.4098">
        <ele>1017</ele>
        <time>2018-04-22T10:40:43Z</time>
      </trkpt>
      <trkpt lat="43.9466" lon="7.40976">
        <ele>1017</ele>
        <time>2018-04-22T10:40:43Z</time>
      </trkpt>
      <trkpt lat="43.94661" lon="7.40971">
        <ele>1017</ele>
        <time>2018-04-22T10:40:43Z</time>
      </trkpt>
      <trkpt lat="43.94663" lon="7.40966">
        <ele>1017</ele>
        <time>2018-04-22T10:41:03Z</time>
      </trkpt>
      <trkpt lat="43.94665" lon="7.40963">
        <ele>1017</ele>
        <time>2018-04-22T10:41:03Z</time>
      </trkpt>
      <trkpt lat="43.94666" lon="7.4096">
        <ele>1017</ele>
        <time>2018-04-22T10:41:03Z</time>
      </trkpt>
      <trkpt lat="43.94666" lon="7.40957">
        <ele>1044</ele>
        <time>2018-04-22T10:41:03Z</time>
      </trkpt>
      <trkpt lat="43.94668" lon="7.40953">
        <ele>1044</ele>
        <time>2018-04-22T10:41:03Z</time>
      </trkpt>
      <trkpt lat="43.94669" lon="7.40951">
        <ele>1044</ele>
        <time>2018-04-22T10:41:23Z</time>
      </trkpt>
      <trkpt lat="43.94669" lon="7.40949">
        <ele>1044</ele>
        <time>2018-04-22T10:41:23Z</time>
      </trkpt>
      <trkpt lat="43.9467" lon="7.40944">
        <ele>1044</ele>
        <time>2018-04-22T10:41:23Z</time>
      </trkpt>
      <trkpt lat="43.94671" lon="7.40941">
        <ele>1044</ele>
        <time>2018-04-22T10:41:23Z</time>
      </trkpt>
      <trkpt lat="43.94673" lon="7.40938">
        <ele>1044</ele>
        <time>2018-04-22T10:41:23Z</time>
      </trkpt>
      <trkpt lat="43.94674" lon="7.40934">
        <ele>1044</ele>
        <time>2018-04-22T10:41:39Z</time>
      </trkpt>
      <trkpt lat="43.94675" lon="7.40931">
        <ele>1044</ele>
        <time>2018-04-22T10:41:39Z</time>
      </trkpt>
      <trkpt lat="43.94676" lon="7.40926">
        <ele>1044</ele>
        <time>2018-04-22T10:41:39Z</time>
      </trkpt>
      <trkpt lat="43.94678" lon="7.40923">
        <ele>1044</ele>
        <time>2018-04-22T10:41:39Z</time>
      </trkpt>
      <trkpt lat="43.94678" lon="7.40919">
        <ele>1044</ele>
        <time>2018-04-22T10:41:55Z</time>
      </trkpt>
      <trkpt lat="43.9468" lon="7.40916">
        <ele>1044</ele>
        <time>2018-04-22T10:41:55Z</time>
      </trkpt>
      <trkpt lat="43.94682" lon="7.40912">
        <ele>1044</ele>
        <time>2018-04-22T10:41:55Z</time>
      </trkpt>
      <trkpt lat="43.94684" lon="7.40909">
        <ele>1044</ele>
        <time>2018-04-22T10:41:55Z</time>
      </trkpt>
      <trkpt lat="43.94687" lon="7.40906">
        <ele>1044</ele>
        <time>2018-04-22T10:42:15Z</time>
      </trkpt>
      <trkpt lat="43.94688" lon="7.40904">
        <ele>1044</ele>
        <time>2018-04-22T10:42:15Z</time>
      </trkpt>
      <trkpt lat="43.9469" lon="7.40901">
        <ele>1044</ele>
        <time>2018-04-22T10:42:15Z</time>
      </trkpt>
      <trkpt lat="43.94692" lon="7.40898">
        <ele>1044</ele>
        <time>2018-04-22T10:42:15Z</time>
      </trkpt>
      <trkpt lat="43.94694" lon="7.40895">
        <ele>1044</ele>
        <time>2018-04-22T10:42:15Z</time>
      </trkpt>
      <trkpt lat="43.94696" lon="7.40892">
        <ele>1044</ele>
        <time>2018-04-22T10:42:35Z</time>
      </trkpt>
      <trkpt lat="43.94698" lon="7.40888">
        <ele>1044</ele>
        <time>2018-04-22T10:42:35Z</time>
      </trkpt>
      <trkpt lat="43.94699" lon="7.40886">
        <ele>1044</ele>
        <time>2018-04-22T10:42:35Z</time>
      </trkpt>
      <trkpt lat="43.947" lon="7.40884">
        <ele>1044</ele>
        <time>2018-04-22T10:42:35Z</time>
      </trkpt>
      <trkpt lat="43.94702" lon="7.40882">
        <ele>1044</ele>
        <time>2018-04-22T10:42:35Z</time>
      </trkpt>
      <trkpt lat="43.94705" lon="7.40878">
        <ele>1044</ele>
        <time>2018-04-22T10:42:55Z</time>
      </trkpt>
      <trkpt lat="43.94706" lon="7.40876">
        <ele>1044</ele>
        <time>2018-04-22T10:42:55Z</time>
      </trkpt>
      <trkpt lat="43.94708" lon="7.40873">
        <ele>1078</ele>
        <time>2018-04-22T10:42:55Z</time>
      </trkpt>
      <trkpt lat="43.94709" lon="7.4087">
        <ele>1020</ele>
        <time>2018-04-22T10:42:55Z</time>
      </trkpt>
      <trkpt lat="43.94711" lon="7.40867">
        <ele>1020</ele>
        <time>2018-04-22T10:42:55Z</time>
      </trkpt>
      <trkpt lat="43.94712" lon="7.40865">
        <ele>1020</ele>
        <time>2018-04-22T10:43:11Z</time>
      </trkpt>
      <trkpt lat="43.94716" lon="7.40861">
        <ele>1020</ele>
        <time>2018-04-22T10:43:11Z</time>
      </trkpt>
      <trkpt lat="43.94716" lon="7.4086">
        <ele>1020</ele>
        <time>2018-04-22T10:43:11Z</time>
      </trkpt>
      <trkpt lat="43.94719" lon="7.40856">
        <ele>1020</ele>
        <time>2018-04-22T10:43:11Z</time>
      </trkpt>
      <trkpt lat="43.94722" lon="7.40853">
        <ele>1020</ele>
        <time>2018-04-22T10:43:27Z</time>
      </trkpt>
      <trkpt lat="43.94724" lon="7.40852">
        <ele>1020</ele>
        <time>2018-04-22T10:43:27Z</time>
      </trkpt>
      <trkpt lat="43.94727" lon="7.40846">
        <ele>1020</ele>
        <time>2018-04-22T10:43:27Z</time>
      </trkpt>
      <trkpt lat="43.94729" lon="7.40844">
        <ele>1020</ele>
        <time>2018-04-22T10:43:27Z</time>
      </trkpt>
      <trkpt lat="43.94731" lon="7.40841">
        <ele>1020</ele>
        <time>2018-04-22T10:43:47Z</time>
      </trkpt>
      <trkpt lat="43.94733" lon="7.40838">
        <ele>1020</ele>
        <time>2018-04-22T10:43:47Z</time>
      </trkpt>
      <trkpt lat="43.94734" lon="7.40836">
        <ele>1020</ele>
        <time>2018-04-22T10:43:47Z</time>
      </trkpt>
      <trkpt lat="43.94735" lon="7.40832">
        <ele>1020</ele>
        <time>2018-04-22T10:43:47Z</time>
      </trkpt>
      <trkpt lat="43.94736" lon="7.40828">
        <ele>1020</ele>
        <time>2018-04-22T10:43:47Z</time>
      </trkpt>
      <trkpt lat="43.94737" lon="7.40815">
        <ele>1020</ele>
        <time>2018-04-22T10:44:15Z</time>
      </trkpt>
      <trkpt lat="43.94737" lon="7.40814">
        <ele>1020</ele>
        <time>2018-04-22T10:44:15Z</time>
      </trkpt>
      <trkpt lat="43.94737" lon="7.40811">
        <ele>1020</ele>
        <time>2018-04-22T10:44:15Z</time>
      </trkpt>
      <trkpt lat="43.94736" lon="7.40808">
        <ele>1020</ele>
        <time>2018-04-22T10:44:15Z</time>
      </trkpt>
      <trkpt lat="43.94736" lon="7.40806">
        <ele>1020</ele>
        <time>2018-04-22T10:44:15Z</time>
      </trkpt>
      <trkpt lat="43.94736" lon="7.40803">
        <ele>1020</ele>
        <time>2018-04-22T10:44:35Z</time>
      </trkpt>
      <trkpt lat="43.94736" lon="7.40799">
        <ele>1020</ele>
        <time>2018-04-22T10:44:35Z</time>
      </trkpt>
      <trkpt lat="43.94735" lon="7.40795">
        <ele>1020</ele>
        <time>2018-04-22T10:44:35Z</time>
      </trkpt>
      <trkpt lat="43.94734" lon="7.40792">
        <ele>1020</ele>
        <time>2018-04-22T10:44:35Z</time>
      </trkpt>
      <trkpt lat="43.94733" lon="7.40789">
        <ele>1021</ele>
        <time>2018-04-22T10:44:35Z</time>
      </trkpt>
      <trkpt lat="43.94728" lon="7.4078">
        <ele>1021</ele>
        <time>2018-04-22T10:45:07Z</time>
      </trkpt>
      <trkpt lat="43.94726" lon="7.40778">
        <ele>1021</ele>
        <time>2018-04-22T10:45:07Z</time>
      </trkpt>
      <trkpt lat="43.94725" lon="7.40777">
        <ele>1021</ele>
        <time>2018-04-22T10:45:07Z</time>
      </trkpt>
      <trkpt lat="43.94723" lon="7.40775">
        <ele>1021</ele>
        <time>2018-04-22T10:45:07Z</time>
      </trkpt>
      <trkpt lat="43.94722" lon="7.40774">
        <ele>1021</ele>
        <time>2018-04-22T10:45:07Z</time>
      </trkpt>
      <trkpt lat="43.94721" lon="7.40772">
        <ele>1021</ele>
        <time>2018-04-22T10:45:23Z</time>
      </trkpt>
      <trkpt lat="43.94719" lon="7.40768">
        <ele>1021</ele>
        <time>2018-04-22T10:45:23Z</time>
      </trkpt>
      <trkpt lat="43.94718" lon="7.40765">
        <ele>1021</ele>
        <time>2018-04-22T10:45:23Z</time>
      </trkpt>
      <trkpt lat="43.94717" lon="7.40759">
        <ele>1021</ele>
        <time>2018-04-22T10:45:23Z</time>
      </trkpt>
      <trkpt lat="43.94717" lon="7.40751">
        <ele>1021</ele>
        <time>2018-04-22T10:45:47Z</time>
      </trkpt>
      <trkpt lat="43.94716" lon="7.40751">
        <ele>1021</ele>
        <time>2018-04-22T10:45:47Z</time>
      </trkpt>
      <trkpt lat="43.94716" lon="7.4075">
        <ele>1021</ele>
        <time>2018-04-22T10:45:47Z</time>
      </trkpt>
      <trkpt lat="43.94715" lon="7.40746">
        <ele>1021</ele>
        <time>2018-04-22T10:45:47Z</time>
      </trkpt>
      <trkpt lat="43.94715" lon="7.4074">
        <ele>1021</ele>
        <time>2018-04-22T10:45:47Z</time>
      </trkpt>
      <trkpt lat="43.94713" lon="7.40738">
        <ele>1021</ele>
        <time>2018-04-22T10:46:07Z</time>
      </trkpt>
      <trkpt lat="43.94712" lon="7.40736">
        <ele>1021</ele>
        <time>2018-04-22T10:46:07Z</time>
      </trkpt>
      <trkpt lat="43.94712" lon="7.40733">
        <ele>1021</ele>
        <time>2018-04-22T10:46:07Z</time>
      </trkpt>
      <trkpt lat="43.9471" lon="7.4073">
        <ele>1021</ele>
        <time>2018-04-22T10:46:07Z</time>
      </trkpt>
      <trkpt lat="43.9471" lon="7.40726">
        <ele>1021</ele>
        <time>2018-04-22T10:46:07Z</time>
      </trkpt>
      <trkpt lat="43.94709" lon="7.40723">
        <ele>1021</ele>
        <time>2018-04-22T10:46:27Z</time>
      </trkpt>
      <trkpt lat="43.94709" lon="7.40719">
        <ele>1021</ele>
        <time>2018-04-22T10:46:27Z</time>
      </trkpt>
      <trkpt lat="43.94709" lon="7.40716">
        <ele>1021</ele>
        <time>2018-04-22T10:46:27Z</time>
      </trkpt>
      <trkpt lat="43.94708" lon="7.40713">
        <ele>1021</ele>
        <time>2018-04-22T10:46:27Z</time>
      </trkpt>
      <trkpt lat="43.94709" lon="7.40709">
        <ele>1021</ele>
        <time>2018-04-22T10:46:27Z</time>
      </trkpt>
      <trkpt lat="43.94705" lon="7.40703">
        <ele>1117</ele>
        <time>2018-04-22T10:46:59Z</time>
      </trkpt>
      <trkpt lat="43.94704" lon="7.407">
        <ele>1117</ele>
        <time>2018-04-22T10:46:59Z</time>
      </trkpt>
      <trkpt lat="43.94703" lon="7.40698">
        <ele>1117</ele>
        <time>2018-04-22T10:46:59Z</time>
      </trkpt>
      <trkpt lat="43.94702" lon="7.40697">
        <ele>1117</ele>
        <time>2018-04-22T10:46:59Z</time>
      </trkpt>
      <trkpt lat="43.94701" lon="7.40693">
        <ele>1117</ele>
        <time>2018-04-22T10:46:59Z</time>
      </trkpt>
      <trkpt lat="43.947" lon="7.40686">
        <ele>1117</ele>
        <time>2018-04-22T10:47:23Z</time>
      </trkpt>
      <trkpt lat="43.94699" lon="7.40683">
        <ele>1117</ele>
        <time>2018-04-22T10:47:23Z</time>
      </trkpt>
      <trkpt lat="43.94698" lon="7.40682">
        <ele>1117</ele>
        <time>2018-04-22T10:47:23Z</time>
      </trkpt>
      <trkpt lat="43.94697" lon="7.40679">
        <ele>1117</ele>
        <time>2018-04-22T10:47:23Z</time>
      </trkpt>
      <trkpt lat="43.94696" lon="7.40676">
        <ele>1117</ele>
        <time>2018-04-22T10:47:23Z</time>
      </trkpt>
      <trkpt lat="43.94695" lon="7.40674">
        <ele>1117</ele>
        <time>2018-04-22T10:47:39Z</time>
      </trkpt>
      <trkpt lat="43.94695" lon="7.40669">
        <ele>1117</ele>
        <time>2018-04-22T10:47:39Z</time>
      </trkpt>
      <trkpt lat="43.94694" lon="7.40665">
        <ele>1117</ele>
        <time>2018-04-22T10:47:39Z</time>
      </trkpt>
      <trkpt lat="43.94693" lon="7.4066">
        <ele>1117</ele>
        <time>2018-04-22T10:47:39Z</time>
      </trkpt>
      <trkpt lat="43.94693" lon="7.40658">
        <ele>1117</ele>
        <time>2018-04-22T10:47:55Z</time>
      </trkpt>
      <trkpt lat="43.94692" lon="7.40656">
        <ele>1117</ele>
        <time>2018-04-22T10:47:55Z</time>
      </trkpt>
      <trkpt lat="43.94691" lon="7.40653">
        <ele>1117</ele>
        <time>2018-04-22T10:47:55Z</time>
      </trkpt>
      <trkpt lat="43.94689" lon="7.40645">
        <ele>1117</ele>
        <time>2018-04-22T10:47:55Z</time>
      </trkpt>
      <trkpt lat="43.94688" lon="7.40639">
        <ele>1117</ele>
        <time>2018-04-22T10:48:19Z</time>
      </trkpt>
      <trkpt lat="43.94688" lon="7.40636">
        <ele>1117</ele>
        <time>2018-04-22T10:48:19Z</time>
      </trkpt>
      <trkpt lat="43.94688" lon="7.40635">
        <ele>1117</ele>
        <time>2018-04-22T10:48:19Z</time>
      </trkpt>
      <trkpt lat="43.94687" lon="7.40632">
        <ele>1117</ele>
        <time>2018-04-22T10:48:19Z</time>
      </trkpt>
      <trkpt lat="43.94687" lon="7.40627">
        <ele>1117</ele>
        <time>2018-04-22T10:48:19Z</time>
      </trkpt>
      <trkpt lat="43.94687" lon="7.40616">
        <ele>1148</ele>
        <time>2018-04-22T10:49:07Z</time>
      </trkpt>
      <trkpt lat="43.94689" lon="7.40613">
        <ele>1148</ele>
        <time>2018-04-22T10:49:07Z</time>
      </trkpt>
      <trkpt lat="43.94693" lon="7.40608">
        <ele>1148</ele>
        <time>2018-04-22T10:49:07Z</time>
      </trkpt>
      <trkpt lat="43.94695" lon="7.40606">
        <ele>1148</ele>
        <time>2018-04-22T10:49:07Z</time>
      </trkpt>
      <trkpt lat="43.94697" lon="7.40603">
        <ele>1148</ele>
        <time>2018-04-22T10:49:07Z</time>
      </trkpt>
      <trkpt lat="43.94698" lon="7.40602">
        <ele>1148</ele>
        <time>2018-04-22T10:49:23Z</time>
      </trkpt>
      <trkpt lat="43.94701" lon="7.40597">
        <ele>1148</ele>
        <time>2018-04-22T10:49:23Z</time>
      </trkpt>
      <trkpt lat="43.94704" lon="7.40594">
        <ele>1148</ele>
        <time>2018-04-22T10:49:23Z</time>
      </trkpt>
      <trkpt lat="43.94706" lon="7.40592">
        <ele>1148</ele>
        <time>2018-04-22T10:49:23Z</time>
      </trkpt>
      <trkpt lat="43.94706" lon="7.4059">
        <ele>1148</ele>
        <time>2018-04-22T10:49:39Z</time>
      </trkpt>
      <trkpt lat="43.94708" lon="7.40584">
        <ele>1148</ele>
        <time>2018-04-22T10:49:39Z</time>
      </trkpt>
      <trkpt lat="43.94709" lon="7.40581">
        <ele>1074</ele>
        <time>2018-04-22T10:49:39Z</time>
      </trkpt>
      <trkpt lat="43.94711" lon="7.40577">
        <ele>1074</ele>
        <time>2018-04-22T10:49:39Z</time>
      </trkpt>
      <trkpt lat="43.94713" lon="7.40573">
        <ele>1074</ele>
        <time>2018-04-22T10:49:59Z</time>
      </trkpt>
      <trkpt lat="43.94714" lon="7.4057">
        <ele>1074</ele>
        <time>2018-04-22T10:49:59Z</time>
      </trkpt>
      <trkpt lat="43.94715" lon="7.40567">
        <ele>1074</ele>
        <time>2018-04-22T10:49:59Z</time>
      </trkpt>
      <trkpt lat="43.94717" lon="7.40563">
        <ele>1074</ele>
        <time>2018-04-22T10:49:59Z</time>
      </trkpt>
      <trkpt lat="43.94717" lon="7.40559">
        <ele>1074</ele>
        <time>2018-04-22T10:49:59Z</time>
      </trkpt>
      <trkpt lat="43.94718" lon="7.40556">
        <ele>1074</ele>
        <time>2018-04-22T10:50:19Z</time>
      </trkpt>
      <trkpt lat="43.94717" lon="7.40552">
        <ele>1074</ele>
        <time>2018-04-22T10:50:19Z</time>
      </trkpt>
      <trkpt lat="43.94716" lon="7.4055">
        <ele>1074</ele>
        <time>2018-04-22T10:50:19Z</time>
      </trkpt>
      <trkpt lat="43.94716" lon="7.40547">
        <ele>1074</ele>
        <time>2018-04-22T10:50:19Z</time>
      </trkpt>
      <trkpt lat="43.94718" lon="7.40542">
        <ele>1074</ele>
        <time>2018-04-22T10:50:19Z</time>
      </trkpt>
      <trkpt lat="43.94719" lon="7.40537">
        <ele>1110</ele>
        <time>2018-04-22T10:50:35Z</time>
      </trkpt>
      <trkpt lat="43.94719" lon="7.40535">
        <ele>1110</ele>
        <time>2018-04-22T10:50:35Z</time>
      </trkpt>
      <trkpt lat="43.94719" lon="7.40531">
        <ele>1110</ele>
        <time>2018-04-22T10:50:35Z</time>
      </trkpt>
      <trkpt lat="43.9472" lon="7.40524">
        <ele>1110</ele>
        <time>2018-04-22T10:50:35Z</time>
      </trkpt>
      <trkpt lat="43.94721" lon="7.40517">
        <ele>1110</ele>
        <time>2018-04-22T10:50:55Z</time>
      </trkpt>
      <trkpt lat="43.94721" lon="7.40512">
        <ele>1110</ele>
        <time>2018-04-22T10:50:55Z</time>
      </trkpt>
      <trkpt lat="43.94722" lon="7.40509">
        <ele>1110</ele>
        <time>2018-04-22T10:50:55Z</time>
      </trkpt>
      <trkpt lat="43.94722" lon="7.40506">
        <ele>1110</ele>
        <time>2018-04-22T10:50:55Z</time>
      </trkpt>
      <trkpt lat="43.94722" lon="7.40502">
        <ele>1110</ele>
        <time>2018-04-22T10:50:55Z</time>
      </trkpt>
      <trkpt lat="43.94723" lon="7.40499">
        <ele>1110</ele>
        <time>2018-04-22T10:51:11Z</time>
      </trkpt>
      <trkpt lat="43.94724" lon="7.40495">
        <ele>1110</ele>
        <time>2018-04-22T10:51:11Z</time>
      </trkpt>
      <trkpt lat="43.94725" lon="7.40489">
        <ele>1110</ele>
        <time>2018-04-22T10:51:11Z</time>
      </trkpt>
      <trkpt lat="43.94725" lon="7.40486">
        <ele>1110</ele>
        <time>2018-04-22T10:51:11Z</time>
      </trkpt>
      <trkpt lat="43.94726" lon="7.40483">
        <ele>1110</ele>
        <time>2018-04-22T10:51:35Z</time>
      </trkpt>
      <trkpt lat="43.94726" lon="7.40481">
        <ele>1110</ele>
        <time>2018-04-22T10:51:35Z</time>
      </trkpt>
      <trkpt lat="43.94727" lon="7.40478">
        <ele>1110</ele>
        <time>2018-04-22T10:51:35Z</time>
      </trkpt>
      <trkpt lat="43.94728" lon="7.40474">
        <ele>1110</ele>
        <time>2018-04-22T10:51:35Z</time>
      </trkpt>
      <trkpt lat="43.94729" lon="7.40471">
        <ele>1110</ele>
        <time>2018-04-22T10:51:35Z</time>
      </trkpt>
      <trkpt lat="43.94729" lon="7.40466">
        <ele>1110</ele>
        <time>2018-04-22T10:51:51Z</time>
      </trkpt>
      <trkpt lat="43.94731" lon="7.40462">
        <ele>1110</ele>
        <time>2018-04-22T10:51:51Z</time>
      </trkpt>
      <trkpt lat="43.94733" lon="7.40458">
        <ele>1171</ele>
        <time>2018-04-22T10:51:51Z</time>
      </trkpt>
      <trkpt lat="43.94734" lon="7.40455">
        <ele>1171</ele>
        <time>2018-04-22T10:51:51Z</time>
      </trkpt>
      <trkpt lat="43.94735" lon="7.40453">
        <ele>1171</ele>
        <time>2018-04-22T10:52:15Z</time>
      </trkpt>
      <trkpt lat="43.94737" lon="7.40452">
        <ele>1171</ele>
        <time>2018-04-22T10:52:15Z</time>
      </trkpt>
      <trkpt lat="43.94739" lon="7.4045">
        <ele>1171</ele>
        <time>2018-04-22T10:52:15Z</time>
      </trkpt>
      <trkpt lat="43.9474" lon="7.40448">
        <ele>1171</ele>
        <time>2018-04-22T10:52:15Z</time>
      </trkpt>
      <trkpt lat="43.94742" lon="7.40446">
        <ele>1171</ele>
        <time>2018-04-22T10:52:15Z</time>
      </trkpt>
      <trkpt lat="43.94744" lon="7.40444">
        <ele>1171</ele>
        <time>2018-04-22T10:52:31Z</time>
      </trkpt>
      <trkpt lat="43.94747" lon="7.40441">
        <ele>1171</ele>
        <time>2018-04-22T10:52:31Z</time>
      </trkpt>
      <trkpt lat="43.9475" lon="7.4044">
        <ele>1171</ele>
        <time>2018-04-22T10:52:31Z</time>
      </trkpt>
      <trkpt lat="43.94754" lon="7.40439">
        <ele>1171</ele>
        <time>2018-04-22T10:52:31Z</time>
      </trkpt>
      <trkpt lat="43.94756" lon="7.40438">
        <ele>1171</ele>
        <time>2018-04-22T10:52:51Z</time>
      </trkpt>
      <trkpt lat="43.94759" lon="7.40437">
        <ele>1171</ele>
        <time>2018-04-22T10:52:51Z</time>
      </trkpt>
      <trkpt lat="43.94761" lon="7.40437">
        <ele>1171</ele>
        <time>2018-04-22T10:52:51Z</time>
      </trkpt>
      <trkpt lat="43.94765" lon="7.40437">
        <ele>1171</ele>
        <time>2018-04-22T10:52:51Z</time>
      </trkpt>
      <trkpt lat="43.94766" lon="7.40438">
        <ele>1171</ele>
        <time>2018-04-22T10:52:51Z</time>
      </trkpt>
      <trkpt lat="43.9477" lon="7.40439">
        <ele>1171</ele>
        <time>2018-04-22T10:53:11Z</time>
      </trkpt>
      <trkpt lat="43.94773" lon="7.40439">
        <ele>1171</ele>
        <time>2018-04-22T10:53:11Z</time>
      </trkpt>
      <trkpt lat="43.94774" lon="7.40439">
        <ele>1171</ele>
        <time>2018-04-22T10:53:11Z</time>
      </trkpt>
      <trkpt lat="43.94777" lon="7.40436">
        <ele>1171</ele>
        <time>2018-04-22T10:53:11Z</time>
      </trkpt>
      <trkpt lat="43.94783" lon="7.40434">
        <ele>1171</ele>
        <time>2018-04-22T10:53:11Z</time>
      </trkpt>
      <trkpt lat="43.94788" lon="7.40432">
        <ele>1171</ele>
        <time>2018-04-22T10:53:27Z</time>
      </trkpt>
      <trkpt lat="43.94792" lon="7.40429">
        <ele>1113</ele>
        <time>2018-04-22T10:53:27Z</time>
      </trkpt>
      <trkpt lat="43.94795" lon="7.40426">
        <ele>1113</ele>
        <time>2018-04-22T10:53:27Z</time>
      </trkpt>
      <trkpt lat="43.94798" lon="7.40423">
        <ele>1113</ele>
        <time>2018-04-22T10:53:27Z</time>
      </trkpt>
      <trkpt lat="43.94801" lon="7.40421">
        <ele>1113</ele>
        <time>2018-04-22T10:53:47Z</time>
      </trkpt>
      <trkpt lat="43.94803" lon="7.40417">
        <ele>1113</ele>
        <time>2018-04-22T10:53:47Z</time>
      </trkpt>
      <trkpt lat="43.94806" lon="7.40414">
        <ele>1113</ele>
        <time>2018-04-22T10:53:47Z</time>
      </trkpt>
      <trkpt lat="43.94807" lon="7.40411">
        <ele>1113</ele>
        <time>2018-04-22T10:53:47Z</time>
      </trkpt>
      <trkpt lat="43.94808" lon="7.40409">
        <ele>1113</ele>
        <time>2018-04-22T10:53:47Z</time>
      </trkpt>
      <trkpt lat="43.94809" lon="7.40406">
        <ele>1113</ele>
        <time>2018-04-22T10:54:07Z</time>
      </trkpt>
      <trkpt lat="43.9481" lon="7.40404">
        <ele>1113</ele>
        <time>2018-04-22T10:54:07Z</time>
      </trkpt>
      <trkpt lat="43.94811" lon="7.40401">
        <ele>1113</ele>
        <time>2018-04-22T10:54:07Z</time>
      </trkpt>
      <trkpt lat="43.94812" lon="7.40398">
        <ele>1113</ele>
        <time>2018-04-22T10:54:07Z</time>
      </trkpt>
      <trkpt lat="43.94814" lon="7.40393">
        <ele>1113</ele>
        <time>2018-04-22T10:54:07Z</time>
      </trkpt>
      <trkpt lat="43.94816" lon="7.40389">
        <ele>1113</ele>
        <time>2018-04-22T10:54:23Z</time>
      </trkpt>
      <trkpt lat="43.94817" lon="7.40386">
        <ele>1113</ele>
        <time>2018-04-22T10:54:23Z</time>
      </trkpt>
      <trkpt lat="43.94819" lon="7.40383">
        <ele>1113</ele>
        <time>2018-04-22T10:54:23Z</time>
      </trkpt>
      <trkpt lat="43.94821" lon="7.40379">
        <ele>1113</ele>
        <time>2018-04-22T10:54:23Z</time>
      </trkpt>
      <trkpt lat="43.94822" lon="7.40375">
        <ele>1137</ele>
        <time>2018-04-22T10:54:39Z</time>
      </trkpt>
      <trkpt lat="43.94823" lon="7.40372">
        <ele>1137</ele>
        <time>2018-04-22T10:54:39Z</time>
      </trkpt>
      <trkpt lat="43.94824" lon="7.40366">
        <ele>1137</ele>
        <time>2018-04-22T10:54:39Z</time>
      </trkpt>
      <trkpt lat="43.94826" lon="7.40359">
        <ele>1137</ele>
        <time>2018-04-22T10:54:39Z</time>
      </trkpt>
      <trkpt lat="43.94829" lon="7.40348">
        <ele>1137</ele>
        <time>2018-04-22T10:55:03Z</time>
      </trkpt>
      <trkpt lat="43.94829" lon="7.40348">
        <ele>1137</ele>
        <time>2018-04-22T10:55:03Z</time>
      </trkpt>
      <trkpt lat="43.9483" lon="7.40346">
        <ele>1137</ele>
        <time>2018-04-22T10:55:03Z</time>
      </trkpt>
      <trkpt lat="43.94832" lon="7.40341">
        <ele>1137</ele>
        <time>2018-04-22T10:55:03Z</time>
      </trkpt>
      <trkpt lat="43.94835" lon="7.40338">
        <ele>1137</ele>
        <time>2018-04-22T10:55:03Z</time>
      </trkpt>
      <trkpt lat="43.94836" lon="7.40335">
        <ele>1137</ele>
        <time>2018-04-22T10:55:19Z</time>
      </trkpt>
      <trkpt lat="43.94838" lon="7.40332">
        <ele>1137</ele>
        <time>2018-04-22T10:55:19Z</time>
      </trkpt>
      <trkpt lat="43.94839" lon="7.40329">
        <ele>1137</ele>
        <time>2018-04-22T10:55:19Z</time>
      </trkpt>
      <trkpt lat="43.94843" lon="7.40323">
        <ele>1137</ele>
        <time>2018-04-22T10:55:19Z</time>
      </trkpt>
      <trkpt lat="43.94845" lon="7.40317">
        <ele>1137</ele>
        <time>2018-04-22T10:55:35Z</time>
      </trkpt>
      <trkpt lat="43.94846" lon="7.40313">
        <ele>1137</ele>
        <time>2018-04-22T10:55:35Z</time>
      </trkpt>
      <trkpt lat="43.94846" lon="7.4031">
        <ele>1137</ele>
        <time>2018-04-22T10:55:35Z</time>
      </trkpt>
      <trkpt lat="43.94846" lon="7.40302">
        <ele>1137</ele>
        <time>2018-04-22T10:55:35Z</time>
      </trkpt>
      <trkpt lat="43.94847" lon="7.40298">
        <ele>1137</ele>
        <time>2018-04-22T10:55:51Z</time>
      </trkpt>
      <trkpt lat="43.94849" lon="7.4029">
        <ele>1151</ele>
        <time>2018-04-22T10:55:51Z</time>
      </trkpt>
      <trkpt lat="43.94851" lon="7.40286">
        <ele>1151</ele>
        <time>2018-04-22T10:55:51Z</time>
      </trkpt>
      <trkpt lat="43.94851" lon="7.40282">
        <ele>1151</ele>
        <time>2018-04-22T10:55:51Z</time>
      </trkpt>
      <trkpt lat="43.94853" lon="7.40274">
        <ele>1151</ele>
        <time>2018-04-22T10:56:15Z</time>
      </trkpt>
      <trkpt lat="43.94854" lon="7.4027">
        <ele>1151</ele>
        <time>2018-04-22T10:56:15Z</time>
      </trkpt>
      <trkpt lat="43.94853" lon="7.40269">
        <ele>1151</ele>
        <time>2018-04-22T10:56:15Z</time>
      </trkpt>
      <trkpt lat="43.94854" lon="7.40265">
        <ele>1151</ele>
        <time>2018-04-22T10:56:15Z</time>
      </trkpt>
      <trkpt lat="43.94853" lon="7.40262">
        <ele>1151</ele>
        <time>2018-04-22T10:56:15Z</time>
      </trkpt>
      <trkpt lat="43.94855" lon="7.40258">
        <ele>1151</ele>
        <time>2018-04-22T10:56:31Z</time>
      </trkpt>
      <trkpt lat="43.94855" lon="7.40251">
        <ele>1151</ele>
        <time>2018-04-22T10:56:31Z</time>
      </trkpt>
      <trkpt lat="43.94856" lon="7.40244">
        <ele>1151</ele>
        <time>2018-04-22T10:56:31Z</time>
      </trkpt>
      <trkpt lat="43.94856" lon="7.40241">
        <ele>1151</ele>
        <time>2018-04-22T10:56:31Z</time>
      </trkpt>
      <trkpt lat="43.94856" lon="7.40239">
        <ele>1151</ele>
        <time>2018-04-22T10:56:47Z</time>
      </trkpt>
      <trkpt lat="43.94855" lon="7.40233">
        <ele>1151</ele>
        <time>2018-04-22T10:56:47Z</time>
      </trkpt>
      <trkpt lat="43.94855" lon="7.40229">
        <ele>1151</ele>
        <time>2018-04-22T10:56:47Z</time>
      </trkpt>
      <trkpt lat="43.94856" lon="7.40221">
        <ele>1151</ele>
        <time>2018-04-22T10:56:47Z</time>
      </trkpt>
      <trkpt lat="43.94852" lon="7.4021">
        <ele>1151</ele>
        <time>2018-04-22T10:57:31Z</time>
      </trkpt>
      <trkpt lat="43.9485" lon="7.40211">
        <ele>1151</ele>
        <time>2018-04-22T10:57:31Z</time>
      </trkpt>
      <trkpt lat="43.94851" lon="7.40209">
        <ele>1151</ele>
        <time>2018-04-22T10:57:31Z</time>
      </trkpt>
      <trkpt lat="43.9485" lon="7.40209">
        <ele>1151</ele>
        <time>2018-04-22T10:57:31Z</time>
      </trkpt>
      <trkpt lat="43.94851" lon="7.40206">
        <ele>1169</ele>
        <time>2018-04-22T10:57:31Z</time>
      </trkpt>
      <trkpt lat="43.94853" lon="7.40205">
        <ele>1169</ele>
        <time>2018-04-22T10:58:03Z</time>
      </trkpt>
      <trkpt lat="43.94853" lon="7.40205">
        <ele>1169</ele>
        <time>2018-04-22T10:58:03Z</time>
      </trkpt>
      <trkpt lat="43.94855" lon="7.40204">
        <ele>1169</ele>
        <time>2018-04-22T10:58:03Z</time>
      </trkpt>
      <trkpt lat="43.94858" lon="7.40206">
        <ele>1169</ele>
        <time>2018-04-22T10:58:03Z</time>
      </trkpt>
      <trkpt lat="43.94862" lon="7.40207">
        <ele>1169</ele>
        <time>2018-04-22T10:58:03Z</time>
      </trkpt>
      <trkpt lat="43.94865" lon="7.40208">
        <ele>1169</ele>
        <time>2018-04-22T10:58:23Z</time>
      </trkpt>
      <trkpt lat="43.94867" lon="7.40207">
        <ele>1169</ele>
        <time>2018-04-22T10:58:23Z</time>
      </trkpt>
      <trkpt lat="43.9487" lon="7.40208">
        <ele>1169</ele>
        <time>2018-04-22T10:58:23Z</time>
      </trkpt>
      <trkpt lat="43.94873" lon="7.40209">
        <ele>1151</ele>
        <time>2018-04-22T10:58:23Z</time>
      </trkpt>
      <trkpt lat="43.94877" lon="7.40208">
        <ele>1151</ele>
        <time>2018-04-22T10:58:23Z</time>
      </trkpt>
      <trkpt lat="43.94882" lon="7.40207">
        <ele>1151</ele>
        <time>2018-04-22T10:58:39Z</time>
      </trkpt>
      <trkpt lat="43.94891" lon="7.40204">
        <ele>1151</ele>
        <time>2018-04-22T10:58:39Z</time>
      </trkpt>
      <trkpt lat="43.94898" lon="7.40201">
        <ele>1151</ele>
        <time>2018-04-22T10:58:39Z</time>
      </trkpt>
      <trkpt lat="43.94906" lon="7.40197">
        <ele>1151</ele>
        <time>2018-04-22T10:58:39Z</time>
      </trkpt>
      <trkpt lat="43.94912" lon="7.40192">
        <ele>1151</ele>
        <time>2018-04-22T10:58:55Z</time>
      </trkpt>
      <trkpt lat="43.94915" lon="7.4019">
        <ele>1151</ele>
        <time>2018-04-22T10:58:55Z</time>
      </trkpt>
      <trkpt lat="43.94917" lon="7.40187">
        <ele>1151</ele>
        <time>2018-04-22T10:58:55Z</time>
      </trkpt>
      <trkpt lat="43.9492" lon="7.40182">
        <ele>1151</ele>
        <time>2018-04-22T10:58:55Z</time>
      </trkpt>
      <trkpt lat="43.94923" lon="7.40179">
        <ele>1151</ele>
        <time>2018-04-22T10:59:11Z</time>
      </trkpt>
      <trkpt lat="43.94925" lon="7.40176">
        <ele>1151</ele>
        <time>2018-04-22T10:59:11Z</time>
      </trkpt>
      <trkpt lat="43.94927" lon="7.40171">
        <ele>1151</ele>
        <time>2018-04-22T10:59:11Z</time>
      </trkpt>
      <trkpt lat="43.94929" lon="7.40169">
        <ele>1151</ele>
        <time>2018-04-22T10:59:11Z</time>
      </trkpt>
      <trkpt lat="43.94932" lon="7.40164">
        <ele>1151</ele>
        <time>2018-04-22T10:59:27Z</time>
      </trkpt>
      <trkpt lat="43.94936" lon="7.40157">
        <ele>1151</ele>
        <time>2018-04-22T10:59:27Z</time>
      </trkpt>
      <trkpt lat="43.94939" lon="7.4015">
        <ele>1151</ele>
        <time>2018-04-22T10:59:27Z</time>
      </trkpt>
      <trkpt lat="43.94941" lon="7.40146">
        <ele>1151</ele>
        <time>2018-04-22T10:59:27Z</time>
      </trkpt>
      <trkpt lat="43.94942" lon="7.40143">
        <ele>1151</ele>
        <time>2018-04-22T10:59:43Z</time>
      </trkpt>
      <trkpt lat="43.94946" lon="7.40139">
        <ele>1151</ele>
        <time>2018-04-22T10:59:43Z</time>
      </trkpt>
      <trkpt lat="43.94949" lon="7.40136">
        <ele>1151</ele>
        <time>2018-04-22T10:59:43Z</time>
      </trkpt>
      <trkpt lat="43.94953" lon="7.4013">
        <ele>1151</ele>
        <time>2018-04-22T10:59:43Z</time>
      </trkpt>
      <trkpt lat="43.94955" lon="7.40126">
        <ele>1151</ele>
        <time>2018-04-22T10:59:59Z</time>
      </trkpt>
      <trkpt lat="43.94958" lon="7.40121">
        <ele>1172</ele>
        <time>2018-04-22T10:59:59Z</time>
      </trkpt>
      <trkpt lat="43.94961" lon="7.40116">
        <ele>1136</ele>
        <time>2018-04-22T10:59:59Z</time>
      </trkpt>
      <trkpt lat="43.94964" lon="7.40111">
        <ele>1136</ele>
        <time>2018-04-22T10:59:59Z</time>
      </trkpt>
      <trkpt lat="43.94967" lon="7.40106">
        <ele>1136</ele>
        <time>2018-04-22T11:00:15Z</time>
      </trkpt>
      <trkpt lat="43.94971" lon="7.401">
        <ele>1136</ele>
        <time>2018-04-22T11:00:15Z</time>
      </trkpt>
      <trkpt lat="43.94973" lon="7.40096">
        <ele>1136</ele>
        <time>2018-04-22T11:00:15Z</time>
      </trkpt>
      <trkpt lat="43.94974" lon="7.40093">
        <ele>1136</ele>
        <time>2018-04-22T11:00:15Z</time>
      </trkpt>
      <trkpt lat="43.94974" lon="7.40091">
        <ele>1136</ele>
        <time>2018-04-22T11:00:31Z</time>
      </trkpt>
      <trkpt lat="43.94978" lon="7.40087">
        <ele>1136</ele>
        <time>2018-04-22T11:00:31Z</time>
      </trkpt>
      <trkpt lat="43.9498" lon="7.40084">
        <ele>1136</ele>
        <time>2018-04-22T11:00:31Z</time>
      </trkpt>
      <trkpt lat="43.94982" lon="7.4008">
        <ele>1136</ele>
        <time>2018-04-22T11:00:31Z</time>
      </trkpt>
      <trkpt lat="43.94986" lon="7.40074">
        <ele>1136</ele>
        <time>2018-04-22T11:00:47Z</time>
      </trkpt>
      <trkpt lat="43.9499" lon="7.40067">
        <ele>1136</ele>
        <time>2018-04-22T11:00:47Z</time>
      </trkpt>
      <trkpt lat="43.94993" lon="7.40061">
        <ele>1136</ele>
        <time>2018-04-22T11:00:47Z</time>
      </trkpt>
      <trkpt lat="43.94996" lon="7.40057">
        <ele>1136</ele>
        <time>2018-04-22T11:00:47Z</time>
      </trkpt>
      <trkpt lat="43.94999" lon="7.40051">
        <ele>1136</ele>
        <time>2018-04-22T11:01:07Z</time>
      </trkpt>
      <trkpt lat="43.95" lon="7.40047">
        <ele>1136</ele>
        <time>2018-04-22T11:01:07Z</time>
      </trkpt>
      <trkpt lat="43.95002" lon="7.40043">
        <ele>1136</ele>
        <time>2018-04-22T11:01:07Z</time>
      </trkpt>
      <trkpt lat="43.95003" lon="7.40041">
        <ele>1173</ele>
        <time>2018-04-22T11:01:07Z</time>
      </trkpt>
      <trkpt lat="43.95003" lon="7.40038">
        <ele>1173</ele>
        <time>2018-04-22T11:01:07Z</time>
      </trkpt>
      <trkpt lat="43.95009" lon="7.40031">
        <ele>1173</ele>
        <time>2018-04-22T11:01:39Z</time>
      </trkpt>
      <trkpt lat="43.95009" lon="7.40029">
        <ele>1173</ele>
        <time>2018-04-22T11:01:39Z</time>
      </trkpt>
      <trkpt lat="43.9501" lon="7.40027">
        <ele>1173</ele>
        <time>2018-04-22T11:01:39Z</time>
      </trkpt>
      <trkpt lat="43.9501" lon="7.40026">
        <ele>1173</ele>
        <time>2018-04-22T11:01:39Z</time>
      </trkpt>
      <trkpt lat="43.95011" lon="7.40023">
        <ele>1173</ele>
        <time>2018-04-22T11:01:39Z</time>
      </trkpt>
      <trkpt lat="43.95012" lon="7.4002">
        <ele>1173</ele>
        <time>2018-04-22T11:01:59Z</time>
      </trkpt>
      <trkpt lat="43.95012" lon="7.40017">
        <ele>1173</ele>
        <time>2018-04-22T11:01:59Z</time>
      </trkpt>
      <trkpt lat="43.95014" lon="7.40015">
        <ele>1173</ele>
        <time>2018-04-22T11:01:59Z</time>
      </trkpt>
      <trkpt lat="43.95017" lon="7.40013">
        <ele>1173</ele>
        <time>2018-04-22T11:01:59Z</time>
      </trkpt>
      <trkpt lat="43.95008" lon="7.40008">
        <ele>1173</ele>
        <time>2018-04-22T11:01:59Z</time>
      </trkpt>
      <trkpt lat="43.95005" lon="7.40004">
        <ele>1173</ele>
        <time>2018-04-22T11:02:15Z</time>
      </trkpt>
      <trkpt lat="43.95007" lon="7.40001">
        <ele>1173</ele>
        <time>2018-04-22T11:02:15Z</time>
      </trkpt>
      <trkpt lat="43.9501" lon="7.4">
        <ele>1173</ele>
        <time>2018-04-22T11:02:15Z</time>
      </trkpt>
      <trkpt lat="43.95016" lon="7.39997">
        <ele>1173</ele>
        <time>2018-04-22T11:02:15Z</time>
      </trkpt>
      <trkpt lat="43.9502" lon="7.39996">
        <ele>1173</ele>
        <time>2018-04-22T11:02:35Z</time>
      </trkpt>
      <trkpt lat="43.95023" lon="7.39993">
        <ele>1173</ele>
        <time>2018-04-22T11:02:35Z</time>
      </trkpt>
      <trkpt lat="43.95026" lon="7.39992">
        <ele>1173</ele>
        <time>2018-04-22T11:02:35Z</time>
      </trkpt>
      <trkpt lat="43.95027" lon="7.3999">
        <ele>1173</ele>
        <time>2018-04-22T11:02:35Z</time>
      </trkpt>
      <trkpt lat="43.95031" lon="7.39989">
        <ele>1173</ele>
        <time>2018-04-22T11:02:35Z</time>
      </trkpt>
      <trkpt lat="43.95033" lon="7.39982">
        <ele>1173</ele>
        <time>2018-04-22T11:03:07Z</time>
      </trkpt>
      <trkpt lat="43.95039" lon="7.39979">
        <ele>1173</ele>
        <time>2018-04-22T11:03:07Z</time>
      </trkpt>
      <trkpt lat="43.95042" lon="7.39977">
        <ele>1148</ele>
        <time>2018-04-22T11:03:07Z</time>
      </trkpt>
      <trkpt lat="43.95046" lon="7.39976">
        <ele>1148</ele>
        <time>2018-04-22T11:03:07Z</time>
      </trkpt>
      <trkpt lat="43.95054" lon="7.39974">
        <ele>1148</ele>
        <time>2018-04-22T11:03:07Z</time>
      </trkpt>
      <trkpt lat="43.95058" lon="7.39972">
        <ele>1148</ele>
        <time>2018-04-22T11:03:23Z</time>
      </trkpt>
      <trkpt lat="43.95063" lon="7.3997">
        <ele>1148</ele>
        <time>2018-04-22T11:03:23Z</time>
      </trkpt>
      <trkpt lat="43.95069" lon="7.39967">
        <ele>1148</ele>
        <time>2018-04-22T11:03:23Z</time>
      </trkpt>
      <trkpt lat="43.95074" lon="7.39964">
        <ele>1148</ele>
        <time>2018-04-22T11:03:23Z</time>
      </trkpt>
      <trkpt lat="43.95078" lon="7.39961">
        <ele>1148</ele>
        <time>2018-04-22T11:03:39Z</time>
      </trkpt>
      <trkpt lat="43.95079" lon="7.39961">
        <ele>1148</ele>
        <time>2018-04-22T11:03:39Z</time>
      </trkpt>
      <trkpt lat="43.95084" lon="7.39958">
        <ele>1175</ele>
        <time>2018-04-22T11:03:39Z</time>
      </trkpt>
      <trkpt lat="43.9509" lon="7.39953">
        <ele>1175</ele>
        <time>2018-04-22T11:03:39Z</time>
      </trkpt>
      <trkpt lat="43.95094" lon="7.39949">
        <ele>1175</ele>
        <time>2018-04-22T11:03:55Z</time>
      </trkpt>
      <trkpt lat="43.95097" lon="7.39947">
        <ele>1175</ele>
        <time>2018-04-22T11:03:55Z</time>
      </trkpt>
      <trkpt lat="43.95104" lon="7.39942">
        <ele>1175</ele>
        <time>2018-04-22T11:03:55Z</time>
      </trkpt>
      <trkpt lat="43.95107" lon="7.39939">
        <ele>1175</ele>
        <time>2018-04-22T11:03:55Z</time>
      </trkpt>
      <trkpt lat="43.9511" lon="7.39936">
        <ele>1175</ele>
        <time>2018-04-22T11:04:15Z</time>
      </trkpt>
      <trkpt lat="43.95112" lon="7.39932">
        <ele>1175</ele>
        <time>2018-04-22T11:04:15Z</time>
      </trkpt>
      <trkpt lat="43.95113" lon="7.3993">
        <ele>1175</ele>
        <time>2018-04-22T11:04:15Z</time>
      </trkpt>
      <trkpt lat="43.95115" lon="7.39927">
        <ele>1175</ele>
        <time>2018-04-22T11:04:15Z</time>
      </trkpt>
      <trkpt lat="43.95117" lon="7.39924">
        <ele>1175</ele>
        <time>2018-04-22T11:04:15Z</time>
      </trkpt>
      <trkpt lat="43.95122" lon="7.39916">
        <ele>1175</ele>
        <time>2018-04-22T11:04:43Z</time>
      </trkpt>
      <trkpt lat="43.95124" lon="7.39913">
        <ele>1175</ele>
        <time>2018-04-22T11:04:43Z</time>
      </trkpt>
      <trkpt lat="43.95125" lon="7.39912">
        <ele>1175</ele>
        <time>2018-04-22T11:04:43Z</time>
      </trkpt>
      <trkpt lat="43.95125" lon="7.39911">
        <ele>1139</ele>
        <time>2018-04-22T11:04:43Z</time>
      </trkpt>
      <trkpt lat="43.95126" lon="7.39909">
        <ele>1139</ele>
        <time>2018-04-22T11:04:43Z</time>
      </trkpt>
      <trkpt lat="43.95128" lon="7.39904">
        <ele>1139</ele>
        <time>2018-04-22T11:05:07Z</time>
      </trkpt>
      <trkpt lat="43.95128" lon="7.39902">
        <ele>1139</ele>
        <time>2018-04-22T11:05:07Z</time>
      </trkpt>
      <trkpt lat="43.95129" lon="7.39898">
        <ele>1139</ele>
        <time>2018-04-22T11:05:07Z</time>
      </trkpt>
      <trkpt lat="43.95129" lon="7.39896">
        <ele>1139</ele>
        <time>2018-04-22T11:05:07Z</time>
      </trkpt>
      <trkpt lat="43.95129" lon="7.39892">
        <ele>1139</ele>
        <time>2018-04-22T11:05:07Z</time>
      </trkpt>
      <trkpt lat="43.95131" lon="7.39884">
        <ele>1139</ele>
        <time>2018-04-22T11:05:31Z</time>
      </trkpt>
      <trkpt lat="43.95131" lon="7.39883">
        <ele>1139</ele>
        <time>2018-04-22T11:05:31Z</time>
      </trkpt>
      <trkpt lat="43.95132" lon="7.39881">
        <ele>1139</ele>
        <time>2018-04-22T11:05:31Z</time>
      </trkpt>
      <trkpt lat="43.95133" lon="7.39877">
        <ele>1139</ele>
        <time>2018-04-22T11:05:31Z</time>
      </trkpt>
      <trkpt lat="43.95134" lon="7.39874">
        <ele>1126</ele>
        <time>2018-04-22T11:05:31Z</time>
      </trkpt>
      <trkpt lat="43.9513" lon="7.39867">
        <ele>1126</ele>
        <time>2018-04-22T11:06:07Z</time>
      </trkpt>
      <trkpt lat="43.9512" lon="7.39865">
        <ele>1170</ele>
        <time>2018-04-22T11:06:07Z</time>
      </trkpt>
      <trkpt lat="43.95112" lon="7.39861">
        <ele>1170</ele>
        <time>2018-04-22T11:06:07Z</time>
      </trkpt>
      <trkpt lat="43.95096" lon="7.39859">
        <ele>1170</ele>
        <time>2018-04-22T11:06:07Z</time>
      </trkpt>
      <trkpt lat="43.95089" lon="7.39851">
        <ele>1170</ele>
        <time>2018-04-22T11:06:07Z</time>
      </trkpt>
      <trkpt lat="43.95085" lon="7.39847">
        <ele>1170</ele>
        <time>2018-04-22T11:06:23Z</time>
      </trkpt>
      <trkpt lat="43.95066" lon="7.39847">
        <ele>1170</ele>
        <time>2018-04-22T11:06:23Z</time>
      </trkpt>
      <trkpt lat="43.95064" lon="7.39842">
        <ele>1170</ele>
        <time>2018-04-22T11:06:23Z</time>
      </trkpt>
      <trkpt lat="43.95057" lon="7.39841">
        <ele>1170</ele>
        <time>2018-04-22T11:06:23Z</time>
      </trkpt>
      <trkpt lat="43.95049" lon="7.39838">
        <ele>1170</ele>
        <time>2018-04-22T11:06:39Z</time>
      </trkpt>
      <trkpt lat="43.95043" lon="7.39836">
        <ele>1170</ele>
        <time>2018-04-22T11:06:39Z</time>
      </trkpt>
      <trkpt lat="43.95022" lon="7.39831">
        <ele>1211</ele>
        <time>2018-04-22T11:06:39Z</time>
      </trkpt>
      <trkpt lat="43.95017" lon="7.39828">
        <ele>1211</ele>
        <time>2018-04-22T11:06:39Z</time>
      </trkpt>
      <trkpt lat="43.95013" lon="7.39827">
        <ele>1211</ele>
        <time>2018-04-22T11:06:55Z</time>
      </trkpt>
      <trkpt lat="43.95013" lon="7.39826">
        <ele>1211</ele>
        <time>2018-04-22T11:06:55Z</time>
      </trkpt>
      <trkpt lat="43.95009" lon="7.39821">
        <ele>1211</ele>
        <time>2018-04-22T11:06:55Z</time>
      </trkpt>
      <trkpt lat="43.95004" lon="7.39813">
        <ele>1211</ele>
        <time>2018-04-22T11:06:55Z</time>
      </trkpt>
      <trkpt lat="43.95002" lon="7.39811">
        <ele>1211</ele>
        <time>2018-04-22T11:07:19Z</time>
      </trkpt>
      <trkpt lat="43.95001" lon="7.39811">
        <ele>1211</ele>
        <time>2018-04-22T11:07:19Z</time>
      </trkpt>
      <trkpt lat="43.94998" lon="7.39806">
        <ele>1211</ele>
        <time>2018-04-22T11:07:19Z</time>
      </trkpt>
      <trkpt lat="43.94995" lon="7.39803">
        <ele>1211</ele>
        <time>2018-04-22T11:07:19Z</time>
      </trkpt>
      <trkpt lat="43.94994" lon="7.39801">
        <ele>1211</ele>
        <time>2018-04-22T11:07:19Z</time>
      </trkpt>
      <trkpt lat="43.9499" lon="7.39795">
        <ele>1211</ele>
        <time>2018-04-22T11:07:51Z</time>
      </trkpt>
      <trkpt lat="43.94988" lon="7.39792">
        <ele>1211</ele>
        <time>2018-04-22T11:07:51Z</time>
      </trkpt>
      <trkpt lat="43.94987" lon="7.39792">
        <ele>1211</ele>
        <time>2018-04-22T11:07:51Z</time>
      </trkpt>
      <trkpt lat="43.94984" lon="7.3979">
        <ele>1194</ele>
        <time>2018-04-22T11:07:51Z</time>
      </trkpt>
      <trkpt lat="43.94982" lon="7.39792">
        <ele>1211</ele>
        <time>2018-04-22T11:07:51Z</time>
      </trkpt>
      <trkpt lat="43.94975" lon="7.39788">
        <ele>1194</ele>
        <time>2018-04-22T11:08:23Z</time>
      </trkpt>
      <trkpt lat="43.94973" lon="7.39786">
        <ele>1194</ele>
        <time>2018-04-22T11:08:23Z</time>
      </trkpt>
      <trkpt lat="43.94971" lon="7.39785">
        <ele>1194</ele>
        <time>2018-04-22T11:08:23Z</time>
      </trkpt>
      <trkpt lat="43.94971" lon="7.39784">
        <ele>1194</ele>
        <time>2018-04-22T11:08:23Z</time>
      </trkpt>
      <trkpt lat="43.94969" lon="7.39782">
        <ele>1194</ele>
        <time>2018-04-22T11:08:23Z</time>
      </trkpt>
      <trkpt lat="43.94966" lon="7.3978">
        <ele>1194</ele>
        <time>2018-04-22T11:08:43Z</time>
      </trkpt>
      <trkpt lat="43.94963" lon="7.39778">
        <ele>1194</ele>
        <time>2018-04-22T11:08:43Z</time>
      </trkpt>
      <trkpt lat="43.94961" lon="7.39776">
        <ele>1194</ele>
        <time>2018-04-22T11:08:43Z</time>
      </trkpt>
      <trkpt lat="43.9496" lon="7.39775">
        <ele>1194</ele>
        <time>2018-04-22T11:08:43Z</time>
      </trkpt>
      <trkpt lat="43.94958" lon="7.39774">
        <ele>1234</ele>
        <time>2018-04-22T11:08:43Z</time>
      </trkpt>
      <trkpt lat="43.94954" lon="7.39774">
        <ele>1234</ele>
        <time>2018-04-22T11:08:59Z</time>
      </trkpt>
      <trkpt lat="43.9495" lon="7.39773">
        <ele>1234</ele>
        <time>2018-04-22T11:08:59Z</time>
      </trkpt>
      <trkpt lat="43.94948" lon="7.39772">
        <ele>1234</ele>
        <time>2018-04-22T11:08:59Z</time>
      </trkpt>
      <trkpt lat="43.94945" lon="7.3977">
        <ele>1234</ele>
        <time>2018-04-22T11:08:59Z</time>
      </trkpt>
      <trkpt lat="43.94934" lon="7.39769">
        <ele>1234</ele>
        <time>2018-04-22T11:09:23Z</time>
      </trkpt>
      <trkpt lat="43.94932" lon="7.39767">
        <ele>1234</ele>
        <time>2018-04-22T11:09:23Z</time>
      </trkpt>
      <trkpt lat="43.94931" lon="7.39767">
        <ele>1234</ele>
        <time>2018-04-22T11:09:23Z</time>
      </trkpt>
      <trkpt lat="43.9493" lon="7.39766">
        <ele>1234</ele>
        <time>2018-04-22T11:09:23Z</time>
      </trkpt>
      <trkpt lat="43.94925" lon="7.3976">
        <ele>1234</ele>
        <time>2018-04-22T11:09:23Z</time>
      </trkpt>
      <trkpt lat="43.94918" lon="7.39751">
        <ele>1234</ele>
        <time>2018-04-22T11:09:47Z</time>
      </trkpt>
      <trkpt lat="43.94918" lon="7.39751">
        <ele>1234</ele>
        <time>2018-04-22T11:09:47Z</time>
      </trkpt>
      <trkpt lat="43.94915" lon="7.39747">
        <ele>1234</ele>
        <time>2018-04-22T11:09:47Z</time>
      </trkpt>
      <trkpt lat="43.94915" lon="7.39747">
        <ele>1234</ele>
        <time>2018-04-22T11:09:47Z</time>
      </trkpt>
      <trkpt lat="43.94913" lon="7.39745">
        <ele>1234</ele>
        <time>2018-04-22T11:09:47Z</time>
      </trkpt>
      <trkpt lat="43.9491" lon="7.39742">
        <ele>1234</ele>
        <time>2018-04-22T11:10:03Z</time>
      </trkpt>
      <trkpt lat="43.94904" lon="7.39734">
        <ele>1234</ele>
        <time>2018-04-22T11:10:03Z</time>
      </trkpt>
      <trkpt lat="43.94904" lon="7.39733">
        <ele>1234</ele>
        <time>2018-04-22T11:10:03Z</time>
      </trkpt>
      <trkpt lat="43.94903" lon="7.39732">
        <ele>1234</ele>
        <time>2018-04-22T11:10:03Z</time>
      </trkpt>
      <trkpt lat="43.94902" lon="7.39728">
        <ele>1234</ele>
        <time>2018-04-22T11:10:23Z</time>
      </trkpt>
      <trkpt lat="43.94901" lon="7.39725">
        <ele>1234</ele>
        <time>2018-04-22T11:10:23Z</time>
      </trkpt>
      <trkpt lat="43.94899" lon="7.3972">
        <ele>1234</ele>
        <time>2018-04-22T11:10:23Z</time>
      </trkpt>
      <trkpt lat="43.94898" lon="7.39718">
        <ele>1234</ele>
        <time>2018-04-22T11:10:23Z</time>
      </trkpt>
      <trkpt lat="43.94897" lon="7.39715">
        <ele>1234</ele>
        <time>2018-04-22T11:10:23Z</time>
      </trkpt>
      <trkpt lat="43.94893" lon="7.39708">
        <ele>1241</ele>
        <time>2018-04-22T11:10:39Z</time>
      </trkpt>
      <trkpt lat="43.94891" lon="7.39704">
        <ele>1241</ele>
        <time>2018-04-22T11:10:39Z</time>
      </trkpt>
      <trkpt lat="43.94887" lon="7.39695">
        <ele>1241</ele>
        <time>2018-04-22T11:10:39Z</time>
      </trkpt>
      <trkpt lat="43.94885" lon="7.3969">
        <ele>1241</ele>
        <time>2018-04-22T11:10:39Z</time>
      </trkpt>
      <trkpt lat="43.94883" lon="7.39681">
        <ele>1241</ele>
        <time>2018-04-22T11:10:55Z</time>
      </trkpt>
      <trkpt lat="43.94881" lon="7.39676">
        <ele>1241</ele>
        <time>2018-04-22T11:10:55Z</time>
      </trkpt>
      <trkpt lat="43.9488" lon="7.39671">
        <ele>1241</ele>
        <time>2018-04-22T11:10:55Z</time>
      </trkpt>
      <trkpt lat="43.94879" lon="7.39665">
        <ele>1241</ele>
        <time>2018-04-22T11:10:55Z</time>
      </trkpt>
      <trkpt lat="43.94884" lon="7.39661">
        <ele>1241</ele>
        <time>2018-04-22T11:11:55Z</time>
      </trkpt>
      <trkpt lat="43.94886" lon="7.39662">
        <ele>1241</ele>
        <time>2018-04-22T11:11:55Z</time>
      </trkpt>
      <trkpt lat="43.94886" lon="7.39662">
        <ele>1241</ele>
        <time>2018-04-22T11:11:55Z</time>
      </trkpt>
      <trkpt lat="43.94888" lon="7.39664">
        <ele>1241</ele>
        <time>2018-04-22T11:11:55Z</time>
      </trkpt>
      <trkpt lat="43.94889" lon="7.39666">
        <ele>1241</ele>
        <time>2018-04-22T11:11:55Z</time>
      </trkpt>
      <trkpt lat="43.94899" lon="7.39673">
        <ele>1241</ele>
        <time>2018-04-22T11:14:59Z</time>
      </trkpt>
      <trkpt lat="43.949" lon="7.3967">
        <ele>1241</ele>
        <time>2018-04-22T11:14:59Z</time>
      </trkpt>
      <trkpt lat="43.949" lon="7.3967">
        <ele>1241</ele>
        <time>2018-04-22T11:14:59Z</time>
      </trkpt>
      <trkpt lat="43.94902" lon="7.39672">
        <ele>1241</ele>
        <time>2018-04-22T11:14:59Z</time>
      </trkpt>
      <trkpt lat="43.94902" lon="7.39672">
        <ele>1241</ele>
        <time>2018-04-22T11:14:59Z</time>
      </trkpt>
      <trkpt lat="43.94902" lon="7.39662">
        <ele>1241</ele>
        <time>2018-04-22T11:15:39Z</time>
      </trkpt>
      <trkpt lat="43.94903" lon="7.3966">
        <ele>1241</ele>
        <time>2018-04-22T11:15:39Z</time>
      </trkpt>
      <trkpt lat="43.94904" lon="7.39655">
        <ele>1241</ele>
        <time>2018-04-22T11:15:39Z</time>
      </trkpt>
      <trkpt lat="43.94904" lon="7.39653">
        <ele>1241</ele>
        <time>2018-04-22T11:15:39Z</time>
      </trkpt>
      <trkpt lat="43.94905" lon="7.3965">
        <ele>1241</ele>
        <time>2018-04-22T11:15:39Z</time>
      </trkpt>
      <trkpt lat="43.94908" lon="7.39641">
        <ele>1241</ele>
        <time>2018-04-22T11:16:03Z</time>
      </trkpt>
      <trkpt lat="43.94908" lon="7.39639">
        <ele>1241</ele>
        <time>2018-04-22T11:16:03Z</time>
      </trkpt>
      <trkpt lat="43.9491" lon="7.39638">
        <ele>1241</ele>
        <time>2018-04-22T11:16:03Z</time>
      </trkpt>
      <trkpt lat="43.94911" lon="7.39635">
        <ele>1241</ele>
        <time>2018-04-22T11:16:03Z</time>
      </trkpt>
      <trkpt lat="43.94913" lon="7.39633">
        <ele>1241</ele>
        <time>2018-04-22T11:16:03Z</time>
      </trkpt>
      <trkpt lat="43.94915" lon="7.39631">
        <ele>1241</ele>
        <time>2018-04-22T11:16:19Z</time>
      </trkpt>
      <trkpt lat="43.94917" lon="7.39629">
        <ele>1241</ele>
        <time>2018-04-22T11:16:19Z</time>
      </trkpt>
      <trkpt lat="43.94919" lon="7.39628">
        <ele>1241</ele>
        <time>2018-04-22T11:16:19Z</time>
      </trkpt>
      <trkpt lat="43.94922" lon="7.39624">
        <ele>1255</ele>
        <time>2018-04-22T11:16:19Z</time>
      </trkpt>
      <trkpt lat="43.94924" lon="7.39624">
        <ele>1255</ele>
        <time>2018-04-22T11:16:35Z</time>
      </trkpt>
      <trkpt lat="43.94927" lon="7.39621">
        <ele>1255</ele>
        <time>2018-04-22T11:16:35Z</time>
      </trkpt>
      <trkpt lat="43.9493" lon="7.39617">
        <ele>1255</ele>
        <time>2018-04-22T11:16:35Z</time>
      </trkpt>
      <trkpt lat="43.94932" lon="7.39615">
        <ele>1255</ele>
        <time>2018-04-22T11:16:35Z</time>
      </trkpt>
      <trkpt lat="43.94935" lon="7.39612">
        <ele>1255</ele>
        <time>2018-04-22T11:16:55Z</time>
      </trkpt>
      <trkpt lat="43.94937" lon="7.39608">
        <ele>1255</ele>
        <time>2018-04-22T11:16:55Z</time>
      </trkpt>
      <trkpt lat="43.94938" lon="7.39607">
        <ele>1255</ele>
        <time>2018-04-22T11:16:55Z</time>
      </trkpt>
      <trkpt lat="43.9494" lon="7.39605">
        <ele>1255</ele>
        <time>2018-04-22T11:16:55Z</time>
      </trkpt>
      <trkpt lat="43.94942" lon="7.39602">
        <ele>1255</ele>
        <time>2018-04-22T11:16:55Z</time>
      </trkpt>
      <trkpt lat="43.94944" lon="7.39597">
        <ele>1255</ele>
        <time>2018-04-22T11:17:11Z</time>
      </trkpt>
      <trkpt lat="43.94947" lon="7.39593">
        <ele>1255</ele>
        <time>2018-04-22T11:17:11Z</time>
      </trkpt>
      <trkpt lat="43.94951" lon="7.39588">
        <ele>1255</ele>
        <time>2018-04-22T11:17:11Z</time>
      </trkpt>
      <trkpt lat="43.94952" lon="7.39587">
        <ele>1255</ele>
        <time>2018-04-22T11:17:11Z</time>
      </trkpt>
      <trkpt lat="43.94953" lon="7.39585">
        <ele>1255</ele>
        <time>2018-04-22T11:17:27Z</time>
      </trkpt>
      <trkpt lat="43.94953" lon="7.39583">
        <ele>1255</ele>
        <time>2018-04-22T11:17:27Z</time>
      </trkpt>
      <trkpt lat="43.94957" lon="7.39576">
        <ele>1255</ele>
        <time>2018-04-22T11:17:27Z</time>
      </trkpt>
      <trkpt lat="43.94959" lon="7.39572">
        <ele>1214</ele>
        <time>2018-04-22T11:17:27Z</time>
      </trkpt>
      <trkpt lat="43.9496" lon="7.39568">
        <ele>1214</ele>
        <time>2018-04-22T11:17:47Z</time>
      </trkpt>
      <trkpt lat="43.94961" lon="7.39566">
        <ele>1214</ele>
        <time>2018-04-22T11:17:47Z</time>
      </trkpt>
      <trkpt lat="43.94961" lon="7.39563">
        <ele>1214</ele>
        <time>2018-04-22T11:17:47Z</time>
      </trkpt>
      <trkpt lat="43.94963" lon="7.39559">
        <ele>1214</ele>
        <time>2018-04-22T11:17:47Z</time>
      </trkpt>
      <trkpt lat="43.94964" lon="7.39553">
        <ele>1214</ele>
        <time>2018-04-22T11:17:47Z</time>
      </trkpt>
      <trkpt lat="43.94965" lon="7.39549">
        <ele>1214</ele>
        <time>2018-04-22T11:18:07Z</time>
      </trkpt>
      <trkpt lat="43.94965" lon="7.39547">
        <ele>1214</ele>
        <time>2018-04-22T11:18:07Z</time>
      </trkpt>
      <trkpt lat="43.94965" lon="7.39542">
        <ele>1214</ele>
        <time>2018-04-22T11:18:07Z</time>
      </trkpt>
      <trkpt lat="43.94965" lon="7.39539">
        <ele>1236</ele>
        <time>2018-04-22T11:18:07Z</time>
      </trkpt>
      <trkpt lat="43.94966" lon="7.39535">
        <ele>1236</ele>
        <time>2018-04-22T11:18:07Z</time>
      </trkpt>
      <trkpt lat="43.94966" lon="7.3953">
        <ele>1236</ele>
        <time>2018-04-22T11:18:23Z</time>
      </trkpt>
      <trkpt lat="43.94967" lon="7.39527">
        <ele>1236</ele>
        <time>2018-04-22T11:18:23Z</time>
      </trkpt>
      <trkpt lat="43.94966" lon="7.39524">
        <ele>1236</ele>
        <time>2018-04-22T11:18:23Z</time>
      </trkpt>
      <trkpt lat="43.94968" lon="7.39518">
        <ele>1236</ele>
        <time>2018-04-22T11:18:23Z</time>
      </trkpt>
      <trkpt lat="43.9497" lon="7.39512">
        <ele>1236</ele>
        <time>2018-04-22T11:18:39Z</time>
      </trkpt>
      <trkpt lat="43.94972" lon="7.39506">
        <ele>1236</ele>
        <time>2018-04-22T11:18:39Z</time>
      </trkpt>
      <trkpt lat="43.94972" lon="7.39503">
        <ele>1236</ele>
        <time>2018-04-22T11:18:39Z</time>
      </trkpt>
      <trkpt lat="43.94973" lon="7.39499">
        <ele>1236</ele>
        <time>2018-04-22T11:18:39Z</time>
      </trkpt>
      <trkpt lat="43.9497" lon="7.395">
        <ele>1236</ele>
        <time>2018-04-22T11:18:59Z</time>
      </trkpt>
      <trkpt lat="43.9497" lon="7.39497">
        <ele>1236</ele>
        <time>2018-04-22T11:18:59Z</time>
      </trkpt>
      <trkpt lat="43.94969" lon="7.39495">
        <ele>1236</ele>
        <time>2018-04-22T11:18:59Z</time>
      </trkpt>
      <trkpt lat="43.94968" lon="7.39489">
        <ele>1236</ele>
        <time>2018-04-22T11:18:59Z</time>
      </trkpt>
      <trkpt lat="43.9497" lon="7.39483">
        <ele>1236</ele>
        <time>2018-04-22T11:18:59Z</time>
      </trkpt>
      <trkpt lat="43.94972" lon="7.39478">
        <ele>1236</ele>
        <time>2018-04-22T11:19:15Z</time>
      </trkpt>
      <trkpt lat="43.94973" lon="7.39474">
        <ele>1236</ele>
        <time>2018-04-22T11:19:15Z</time>
      </trkpt>
      <trkpt lat="43.94973" lon="7.39471">
        <ele>1236</ele>
        <time>2018-04-22T11:19:15Z</time>
      </trkpt>
      <trkpt lat="43.94975" lon="7.39466">
        <ele>1236</ele>
        <time>2018-04-22T11:19:15Z</time>
      </trkpt>
      <trkpt lat="43.94976" lon="7.39463">
        <ele>1236</ele>
        <time>2018-04-22T11:19:35Z</time>
      </trkpt>
      <trkpt lat="43.94977" lon="7.39461">
        <ele>1236</ele>
        <time>2018-04-22T11:19:35Z</time>
      </trkpt>
      <trkpt lat="43.94979" lon="7.39457">
        <ele>1273</ele>
        <time>2018-04-22T11:19:35Z</time>
      </trkpt>
      <trkpt lat="43.9498" lon="7.39454">
        <ele>1273</ele>
        <time>2018-04-22T11:19:35Z</time>
      </trkpt>
      <trkpt lat="43.94983" lon="7.39452">
        <ele>1273</ele>
        <time>2018-04-22T11:19:35Z</time>
      </trkpt>
      <trkpt lat="43.94988" lon="7.39437">
        <ele>1273</ele>
        <time>2018-04-22T11:20:11Z</time>
      </trkpt>
      <trkpt lat="43.94989" lon="7.39434">
        <ele>1273</ele>
        <time>2018-04-22T11:20:11Z</time>
      </trkpt>
      <trkpt lat="43.9499" lon="7.39429">
        <ele>1273</ele>
        <time>2018-04-22T11:20:11Z</time>
      </trkpt>
      <trkpt lat="43.94991" lon="7.39426">
        <ele>1273</ele>
        <time>2018-04-22T11:20:11Z</time>
      </trkpt>
      <trkpt lat="43.94995" lon="7.39421">
        <ele>1273</ele>
        <time>2018-04-22T11:20:11Z</time>
      </trkpt>
      <trkpt lat="43.94996" lon="7.39418">
        <ele>1273</ele>
        <time>2018-04-22T11:20:31Z</time>
      </trkpt>
      <trkpt lat="43.94996" lon="7.39416">
        <ele>1273</ele>
        <time>2018-04-22T11:20:31Z</time>
      </trkpt>
      <trkpt lat="43.94997" lon="7.39412">
        <ele>1273</ele>
        <time>2018-04-22T11:20:31Z</time>
      </trkpt>
      <trkpt lat="43.94999" lon="7.39408">
        <ele>1273</ele>
        <time>2018-04-22T11:20:31Z</time>
      </trkpt>
      <trkpt lat="43.95001" lon="7.39405">
        <ele>1273</ele>
        <time>2018-04-22T11:20:31Z</time>
      </trkpt>
      <trkpt lat="43.95003" lon="7.39403">
        <ele>1273</ele>
        <time>2018-04-22T11:20:51Z</time>
      </trkpt>
      <trkpt lat="43.95005" lon="7.39399">
        <ele>1273</ele>
        <time>2018-04-22T11:20:51Z</time>
      </trkpt>
      <trkpt lat="43.95006" lon="7.39397">
        <ele>1273</ele>
        <time>2018-04-22T11:20:51Z</time>
      </trkpt>
      <trkpt lat="43.95007" lon="7.39394">
        <ele>1273</ele>
        <time>2018-04-22T11:20:51Z</time>
      </trkpt>
      <trkpt lat="43.95009" lon="7.39391">
        <ele>1273</ele>
        <time>2018-04-22T11:20:51Z</time>
      </trkpt>
      <trkpt lat="43.95011" lon="7.39388">
        <ele>1273</ele>
        <time>2018-04-22T11:21:11Z</time>
      </trkpt>
      <trkpt lat="43.95011" lon="7.39385">
        <ele>1273</ele>
        <time>2018-04-22T11:21:11Z</time>
      </trkpt>
      <trkpt lat="43.95014" lon="7.39382">
        <ele>1273</ele>
        <time>2018-04-22T11:21:11Z</time>
      </trkpt>
      <trkpt lat="43.95016" lon="7.39378">
        <ele>1273</ele>
        <time>2018-04-22T11:21:11Z</time>
      </trkpt>
      <trkpt lat="43.95018" lon="7.39374">
        <ele>1304</ele>
        <time>2018-04-22T11:21:11Z</time>
      </trkpt>
      <trkpt lat="43.95018" lon="7.39369">
        <ele>1304</ele>
        <time>2018-04-22T11:21:39Z</time>
      </trkpt>
      <trkpt lat="43.9502" lon="7.39367">
        <ele>1304</ele>
        <time>2018-04-22T11:21:39Z</time>
      </trkpt>
      <trkpt lat="43.95022" lon="7.39363">
        <ele>1304</ele>
        <time>2018-04-22T11:21:39Z</time>
      </trkpt>
      <trkpt lat="43.95023" lon="7.39361">
        <ele>1304</ele>
        <time>2018-04-22T11:21:39Z</time>
      </trkpt>
      <trkpt lat="43.95023" lon="7.39359">
        <ele>1304</ele>
        <time>2018-04-22T11:21:39Z</time>
      </trkpt>
      <trkpt lat="43.95024" lon="7.39354">
        <ele>1304</ele>
        <time>2018-04-22T11:22:03Z</time>
      </trkpt>
      <trkpt lat="43.95023" lon="7.39353">
        <ele>1304</ele>
        <time>2018-04-22T11:22:03Z</time>
      </trkpt>
      <trkpt lat="43.95024" lon="7.39352">
        <ele>1304</ele>
        <time>2018-04-22T11:22:03Z</time>
      </trkpt>
      <trkpt lat="43.95025" lon="7.39348">
        <ele>1304</ele>
        <time>2018-04-22T11:22:03Z</time>
      </trkpt>
      <trkpt lat="43.95023" lon="7.3934">
        <ele>1304</ele>
        <time>2018-04-22T11:22:03Z</time>
      </trkpt>
      <trkpt lat="43.95026" lon="7.39333">
        <ele>1304</ele>
        <time>2018-04-22T11:22:27Z</time>
      </trkpt>
      <trkpt lat="43.95027" lon="7.39331">
        <ele>1304</ele>
        <time>2018-04-22T11:22:27Z</time>
      </trkpt>
      <trkpt lat="43.95026" lon="7.39328">
        <ele>1304</ele>
        <time>2018-04-22T11:22:27Z</time>
      </trkpt>
      <trkpt lat="43.95029" lon="7.39325">
        <ele>1304</ele>
        <time>2018-04-22T11:22:27Z</time>
      </trkpt>
      <trkpt lat="43.95029" lon="7.39322">
        <ele>1304</ele>
        <time>2018-04-22T11:22:27Z</time>
      </trkpt>
      <trkpt lat="43.95029" lon="7.39317">
        <ele>1304</ele>
        <time>2018-04-22T11:22:51Z</time>
      </trkpt>
      <trkpt lat="43.95029" lon="7.39314">
        <ele>1304</ele>
        <time>2018-04-22T11:22:51Z</time>
      </trkpt>
      <trkpt lat="43.9503" lon="7.39311">
        <ele>1304</ele>
        <time>2018-04-22T11:22:51Z</time>
      </trkpt>
      <trkpt lat="43.95028" lon="7.39309">
        <ele>1304</ele>
        <time>2018-04-22T11:22:51Z</time>
      </trkpt>
      <trkpt lat="43.9503" lon="7.39306">
        <ele>1304</ele>
        <time>2018-04-22T11:22:51Z</time>
      </trkpt>
      <trkpt lat="43.95031" lon="7.39303">
        <ele>1304</ele>
        <time>2018-04-22T11:23:11Z</time>
      </trkpt>
      <trkpt lat="43.95033" lon="7.393">
        <ele>1304</ele>
        <time>2018-04-22T11:23:11Z</time>
      </trkpt>
      <trkpt lat="43.95036" lon="7.39297">
        <ele>1304</ele>
        <time>2018-04-22T11:23:11Z</time>
      </trkpt>
      <trkpt lat="43.95036" lon="7.39294">
        <ele>1304</ele>
        <time>2018-04-22T11:23:11Z</time>
      </trkpt>
      <trkpt lat="43.95037" lon="7.3929">
        <ele>1320</ele>
        <time>2018-04-22T11:23:11Z</time>
      </trkpt>
      <trkpt lat="43.95039" lon="7.39287">
        <ele>1320</ele>
        <time>2018-04-22T11:23:31Z</time>
      </trkpt>
      <trkpt lat="43.95038" lon="7.39286">
        <ele>1320</ele>
        <time>2018-04-22T11:23:31Z</time>
      </trkpt>
      <trkpt lat="43.95041" lon="7.39284">
        <ele>1320</ele>
        <time>2018-04-22T11:23:31Z</time>
      </trkpt>
      <trkpt lat="43.95042" lon="7.39283">
        <ele>1334</ele>
        <time>2018-04-22T11:23:31Z</time>
      </trkpt>
      <trkpt lat="43.95047" lon="7.3928">
        <ele>1334</ele>
        <time>2018-04-22T11:23:31Z</time>
      </trkpt>
      <trkpt lat="43.9505" lon="7.39278">
        <ele>1334</ele>
        <time>2018-04-22T11:23:51Z</time>
      </trkpt>
      <trkpt lat="43.9505" lon="7.39277">
        <ele>1334</ele>
        <time>2018-04-22T11:23:51Z</time>
      </trkpt>
      <trkpt lat="43.95053" lon="7.39276">
        <ele>1334</ele>
        <time>2018-04-22T11:23:51Z</time>
      </trkpt>
      <trkpt lat="43.95057" lon="7.39273">
        <ele>1334</ele>
        <time>2018-04-22T11:23:51Z</time>
      </trkpt>
      <trkpt lat="43.95058" lon="7.39272">
        <ele>1334</ele>
        <time>2018-04-22T11:23:51Z</time>
      </trkpt>
      <trkpt lat="43.95059" lon="7.3927">
        <ele>1334</ele>
        <time>2018-04-22T11:24:23Z</time>
      </trkpt>
      <trkpt lat="43.95057" lon="7.3927">
        <ele>1334</ele>
        <time>2018-04-22T11:24:23Z</time>
      </trkpt>
      <trkpt lat="43.95055" lon="7.3927">
        <ele>1334</ele>
        <time>2018-04-22T11:24:23Z</time>
      </trkpt>
      <trkpt lat="43.95054" lon="7.39269">
        <ele>1334</ele>
        <time>2018-04-22T11:24:23Z</time>
      </trkpt>
      <trkpt lat="43.95049" lon="7.39272">
        <ele>1334</ele>
        <time>2018-04-22T11:24:23Z</time>
      </trkpt>
      <trkpt lat="43.95045" lon="7.39275">
        <ele>1334</ele>
        <time>2018-04-22T11:24:47Z</time>
      </trkpt>
      <trkpt lat="43.95046" lon="7.39272">
        <ele>1334</ele>
        <time>2018-04-22T11:24:47Z</time>
      </trkpt>
      <trkpt lat="43.95047" lon="7.39268">
        <ele>1334</ele>
        <time>2018-04-22T11:24:47Z</time>
      </trkpt>
      <trkpt lat="43.95049" lon="7.39265">
        <ele>1334</ele>
        <time>2018-04-22T11:24:47Z</time>
      </trkpt>
      <trkpt lat="43.95052" lon="7.3926">
        <ele>1334</ele>
        <time>2018-04-22T11:24:47Z</time>
      </trkpt>
      <trkpt lat="43.95054" lon="7.39257">
        <ele>1334</ele>
        <time>2018-04-22T11:25:07Z</time>
      </trkpt>
      <trkpt lat="43.95055" lon="7.39254">
        <ele>1334</ele>
        <time>2018-04-22T11:25:07Z</time>
      </trkpt>
      <trkpt lat="43.95056" lon="7.39253">
        <ele>1334</ele>
        <time>2018-04-22T11:25:07Z</time>
      </trkpt>
      <trkpt lat="43.95059" lon="7.39249">
        <ele>1334</ele>
        <time>2018-04-22T11:25:07Z</time>
      </trkpt>
      <trkpt lat="43.95061" lon="7.39247">
        <ele>1334</ele>
        <time>2018-04-22T11:25:07Z</time>
      </trkpt>
      <trkpt lat="43.95067" lon="7.39241">
        <ele>1334</ele>
        <time>2018-04-22T11:25:35Z</time>
      </trkpt>
      <trkpt lat="43.95067" lon="7.3924">
        <ele>1334</ele>
        <time>2018-04-22T11:25:35Z</time>
      </trkpt>
      <trkpt lat="43.95069" lon="7.39238">
        <ele>1334</ele>
        <time>2018-04-22T11:25:35Z</time>
      </trkpt>
      <trkpt lat="43.95072" lon="7.39238">
        <ele>1334</ele>
        <time>2018-04-22T11:25:35Z</time>
      </trkpt>
      <trkpt lat="43.95074" lon="7.39237">
        <ele>1334</ele>
        <time>2018-04-22T11:25:35Z</time>
      </trkpt>
      <trkpt lat="43.95078" lon="7.39234">
        <ele>1334</ele>
        <time>2018-04-22T11:25:51Z</time>
      </trkpt>
      <trkpt lat="43.95082" lon="7.39233">
        <ele>1334</ele>
        <time>2018-04-22T11:25:51Z</time>
      </trkpt>
      <trkpt lat="43.95085" lon="7.39231">
        <ele>1334</ele>
        <time>2018-04-22T11:25:51Z</time>
      </trkpt>
      <trkpt lat="43.95088" lon="7.39229">
        <ele>1334</ele>
        <time>2018-04-22T11:25:51Z</time>
      </trkpt>
      <trkpt lat="43.9509" lon="7.39229">
        <ele>1334</ele>
        <time>2018-04-22T11:26:11Z</time>
      </trkpt>
      <trkpt lat="43.95091" lon="7.39228">
        <ele>1334</ele>
        <time>2018-04-22T11:26:11Z</time>
      </trkpt>
      <trkpt lat="43.95092" lon="7.39227">
        <ele>1334</ele>
        <time>2018-04-22T11:26:11Z</time>
      </trkpt>
      <trkpt lat="43.95095" lon="7.39225">
        <ele>1334</ele>
        <time>2018-04-22T11:26:11Z</time>
      </trkpt>
      <trkpt lat="43.95098" lon="7.39224">
        <ele>1334</ele>
        <time>2018-04-22T11:26:11Z</time>
      </trkpt>
      <trkpt lat="43.951" lon="7.39222">
        <ele>1334</ele>
        <time>2018-04-22T11:26:31Z</time>
      </trkpt>
      <trkpt lat="43.95103" lon="7.39221">
        <ele>1334</ele>
        <time>2018-04-22T11:26:31Z</time>
      </trkpt>
      <trkpt lat="43.95106" lon="7.3922">
        <ele>1334</ele>
        <time>2018-04-22T11:26:31Z</time>
      </trkpt>
      <trkpt lat="43.95108" lon="7.39218">
        <ele>1334</ele>
        <time>2018-04-22T11:26:31Z</time>
      </trkpt>
      <trkpt lat="43.9511" lon="7.39216">
        <ele>1334</ele>
        <time>2018-04-22T11:26:31Z</time>
      </trkpt>
      <trkpt lat="43.95112" lon="7.39215">
        <ele>1334</ele>
        <time>2018-04-22T11:26:47Z</time>
      </trkpt>
      <trkpt lat="43.95116" lon="7.39212">
        <ele>1334</ele>
        <time>2018-04-22T11:26:47Z</time>
      </trkpt>
      <trkpt lat="43.95117" lon="7.3921">
        <ele>1334</ele>
        <time>2018-04-22T11:26:47Z</time>
      </trkpt>
      <trkpt lat="43.9512" lon="7.39208">
        <ele>1369</ele>
        <time>2018-04-22T11:26:47Z</time>
      </trkpt>
      <trkpt lat="43.95122" lon="7.39205">
        <ele>1369</ele>
        <time>2018-04-22T11:27:07Z</time>
      </trkpt>
      <trkpt lat="43.95124" lon="7.39203">
        <ele>1369</ele>
        <time>2018-04-22T11:27:07Z</time>
      </trkpt>
      <trkpt lat="43.95124" lon="7.39202">
        <ele>1369</ele>
        <time>2018-04-22T11:27:07Z</time>
      </trkpt>
      <trkpt lat="43.95128" lon="7.39199">
        <ele>1325</ele>
        <time>2018-04-22T11:27:07Z</time>
      </trkpt>
      <trkpt lat="43.95129" lon="7.39196">
        <ele>1325</ele>
        <time>2018-04-22T11:27:07Z</time>
      </trkpt>
      <trkpt lat="43.95131" lon="7.39192">
        <ele>1325</ele>
        <time>2018-04-22T11:27:31Z</time>
      </trkpt>
      <trkpt lat="43.95134" lon="7.39188">
        <ele>1325</ele>
        <time>2018-04-22T11:27:31Z</time>
      </trkpt>
      <trkpt lat="43.95133" lon="7.39187">
        <ele>1325</ele>
        <time>2018-04-22T11:27:31Z</time>
      </trkpt>
      <trkpt lat="43.95133" lon="7.39185">
        <ele>1325</ele>
        <time>2018-04-22T11:27:31Z</time>
      </trkpt>
      <trkpt lat="43.95136" lon="7.39181">
        <ele>1325</ele>
        <time>2018-04-22T11:27:31Z</time>
      </trkpt>
      <trkpt lat="43.95137" lon="7.39179">
        <ele>1325</ele>
        <time>2018-04-22T11:27:51Z</time>
      </trkpt>
      <trkpt lat="43.95138" lon="7.39177">
        <ele>1325</ele>
        <time>2018-04-22T11:27:51Z</time>
      </trkpt>
      <trkpt lat="43.95139" lon="7.39174">
        <ele>1325</ele>
        <time>2018-04-22T11:27:51Z</time>
      </trkpt>
      <trkpt lat="43.95142" lon="7.39171">
        <ele>1325</ele>
        <time>2018-04-22T11:27:51Z</time>
      </trkpt>
      <trkpt lat="43.95143" lon="7.39169">
        <ele>1325</ele>
        <time>2018-04-22T11:27:51Z</time>
      </trkpt>
      <trkpt lat="43.95144" lon="7.39163">
        <ele>1325</ele>
        <time>2018-04-22T11:28:15Z</time>
      </trkpt>
      <trkpt lat="43.95145" lon="7.3916">
        <ele>1325</ele>
        <time>2018-04-22T11:28:15Z</time>
      </trkpt>
      <trkpt lat="43.95145" lon="7.39158">
        <ele>1325</ele>
        <time>2018-04-22T11:28:15Z</time>
      </trkpt>
      <trkpt lat="43.95146" lon="7.39154">
        <ele>1325</ele>
        <time>2018-04-22T11:28:15Z</time>
      </trkpt>
      <trkpt lat="43.95145" lon="7.39153">
        <ele>1325</ele>
        <time>2018-04-22T11:28:15Z</time>
      </trkpt>
      <trkpt lat="43.95146" lon="7.39149">
        <ele>1325</ele>
        <time>2018-04-22T11:28:39Z</time>
      </trkpt>
      <trkpt lat="43.95145" lon="7.39148">
        <ele>1325</ele>
        <time>2018-04-22T11:28:39Z</time>
      </trkpt>
      <trkpt lat="43.95147" lon="7.39145">
        <ele>1325</ele>
        <time>2018-04-22T11:28:39Z</time>
      </trkpt>
      <trkpt lat="43.95146" lon="7.39143">
        <ele>1325</ele>
        <time>2018-04-22T11:28:39Z</time>
      </trkpt>
      <trkpt lat="43.95147" lon="7.39139">
        <ele>1325</ele>
        <time>2018-04-22T11:28:39Z</time>
      </trkpt>
      <trkpt lat="43.95148" lon="7.39136">
        <ele>1325</ele>
        <time>2018-04-22T11:28:55Z</time>
      </trkpt>
      <trkpt lat="43.9515" lon="7.39129">
        <ele>1325</ele>
        <time>2018-04-22T11:28:55Z</time>
      </trkpt>
      <trkpt lat="43.95151" lon="7.39124">
        <ele>1351</ele>
        <time>2018-04-22T11:28:55Z</time>
      </trkpt>
      <trkpt lat="43.95151" lon="7.39123">
        <ele>1351</ele>
        <time>2018-04-22T11:28:55Z</time>
      </trkpt>
      <trkpt lat="43.95152" lon="7.39119">
        <ele>1351</ele>
        <time>2018-04-22T11:29:15Z</time>
      </trkpt>
      <trkpt lat="43.95153" lon="7.39115">
        <ele>1351</ele>
        <time>2018-04-22T11:29:15Z</time>
      </trkpt>
      <trkpt lat="43.95153" lon="7.39112">
        <ele>1351</ele>
        <time>2018-04-22T11:29:15Z</time>
      </trkpt>
      <trkpt lat="43.95154" lon="7.39109">
        <ele>1351</ele>
        <time>2018-04-22T11:29:15Z</time>
      </trkpt>
      <trkpt lat="43.95155" lon="7.39106">
        <ele>1351</ele>
        <time>2018-04-22T11:29:15Z</time>
      </trkpt>
      <trkpt lat="43.95156" lon="7.39103">
        <ele>1351</ele>
        <time>2018-04-22T11:29:35Z</time>
      </trkpt>
      <trkpt lat="43.95158" lon="7.39098">
        <ele>1351</ele>
        <time>2018-04-22T11:29:35Z</time>
      </trkpt>
      <trkpt lat="43.95159" lon="7.39094">
        <ele>1351</ele>
        <time>2018-04-22T11:29:35Z</time>
      </trkpt>
      <trkpt lat="43.95159" lon="7.39091">
        <ele>1351</ele>
        <time>2018-04-22T11:29:35Z</time>
      </trkpt>
      <trkpt lat="43.9516" lon="7.39089">
        <ele>1351</ele>
        <time>2018-04-22T11:29:35Z</time>
      </trkpt>
      <trkpt lat="43.9516" lon="7.39082">
        <ele>1351</ele>
        <time>2018-04-22T11:30:07Z</time>
      </trkpt>
      <trkpt lat="43.95162" lon="7.39076">
        <ele>1351</ele>
        <time>2018-04-22T11:30:07Z</time>
      </trkpt>
      <trkpt lat="43.95163" lon="7.39072">
        <ele>1351</ele>
        <time>2018-04-22T11:30:07Z</time>
      </trkpt>
      <trkpt lat="43.95164" lon="7.39064">
        <ele>1351</ele>
        <time>2018-04-22T11:30:07Z</time>
      </trkpt>
      <trkpt lat="43.95163" lon="7.39063">
        <ele>1351</ele>
        <time>2018-04-22T11:30:07Z</time>
      </trkpt>
      <trkpt lat="43.95162" lon="7.39063">
        <ele>1351</ele>
        <time>2018-04-22T11:30:27Z</time>
      </trkpt>
      <trkpt lat="43.95162" lon="7.3906">
        <ele>1351</ele>
        <time>2018-04-22T11:30:27Z</time>
      </trkpt>
      <trkpt lat="43.95162" lon="7.39055">
        <ele>1351</ele>
        <time>2018-04-22T11:30:27Z</time>
      </trkpt>
      <trkpt lat="43.95162" lon="7.39051">
        <ele>1351</ele>
        <time>2018-04-22T11:30:27Z</time>
      </trkpt>
      <trkpt lat="43.95162" lon="7.39049">
        <ele>1351</ele>
        <time>2018-04-22T11:30:27Z</time>
      </trkpt>
      <trkpt lat="43.95161" lon="7.39047">
        <ele>1351</ele>
        <time>2018-04-22T11:30:43Z</time>
      </trkpt>
      <trkpt lat="43.95161" lon="7.39046">
        <ele>1351</ele>
        <time>2018-04-22T11:30:43Z</time>
      </trkpt>
      <trkpt lat="43.95161" lon="7.39041">
        <ele>1380</ele>
        <time>2018-04-22T11:30:43Z</time>
      </trkpt>
      <trkpt lat="43.95162" lon="7.39034">
        <ele>1380</ele>
        <time>2018-04-22T11:30:43Z</time>
      </trkpt>
      <trkpt lat="43.95161" lon="7.39033">
        <ele>1380</ele>
        <time>2018-04-22T11:31:03Z</time>
      </trkpt>
      <trkpt lat="43.95161" lon="7.39031">
        <ele>1380</ele>
        <time>2018-04-22T11:31:03Z</time>
      </trkpt>
      <trkpt lat="43.9516" lon="7.39028">
        <ele>1380</ele>
        <time>2018-04-22T11:31:03Z</time>
      </trkpt>
      <trkpt lat="43.95161" lon="7.39024">
        <ele>1380</ele>
        <time>2018-04-22T11:31:03Z</time>
      </trkpt>
      <trkpt lat="43.95161" lon="7.3902">
        <ele>1380</ele>
        <time>2018-04-22T11:31:03Z</time>
      </trkpt>
      <trkpt lat="43.95161" lon="7.39017">
        <ele>1380</ele>
        <time>2018-04-22T11:31:19Z</time>
      </trkpt>
      <trkpt lat="43.9516" lon="7.39015">
        <ele>1380</ele>
        <time>2018-04-22T11:31:19Z</time>
      </trkpt>
      <trkpt lat="43.95162" lon="7.39008">
        <ele>1380</ele>
        <time>2018-04-22T11:31:19Z</time>
      </trkpt>
      <trkpt lat="43.95163" lon="7.39002">
        <ele>1380</ele>
        <time>2018-04-22T11:31:19Z</time>
      </trkpt>
      <trkpt lat="43.95163" lon="7.39001">
        <ele>1380</ele>
        <time>2018-04-22T11:31:35Z</time>
      </trkpt>
      <trkpt lat="43.95164" lon="7.38996">
        <ele>1380</ele>
        <time>2018-04-22T11:31:35Z</time>
      </trkpt>
      <trkpt lat="43.95165" lon="7.3899">
        <ele>1380</ele>
        <time>2018-04-22T11:31:35Z</time>
      </trkpt>
      <trkpt lat="43.95165" lon="7.38988">
        <ele>1380</ele>
        <time>2018-04-22T11:31:35Z</time>
      </trkpt>
      <trkpt lat="43.95167" lon="7.38985">
        <ele>1380</ele>
        <time>2018-04-22T11:31:55Z</time>
      </trkpt>
      <trkpt lat="43.95167" lon="7.38983">
        <ele>1380</ele>
        <time>2018-04-22T11:31:55Z</time>
      </trkpt>
      <trkpt lat="43.95169" lon="7.38979">
        <ele>1380</ele>
        <time>2018-04-22T11:31:55Z</time>
      </trkpt>
      <trkpt lat="43.9517" lon="7.38977">
        <ele>1380</ele>
        <time>2018-04-22T11:31:55Z</time>
      </trkpt>
      <trkpt lat="43.95173" lon="7.38972">
        <ele>1380</ele>
        <time>2018-04-22T11:31:55Z</time>
      </trkpt>
      <trkpt lat="43.95175" lon="7.38965">
        <ele>1380</ele>
        <time>2018-04-22T11:32:19Z</time>
      </trkpt>
      <trkpt lat="43.95175" lon="7.38961">
        <ele>1380</ele>
        <time>2018-04-22T11:32:19Z</time>
      </trkpt>
      <trkpt lat="43.95175" lon="7.38959">
        <ele>1380</ele>
        <time>2018-04-22T11:32:19Z</time>
      </trkpt>
      <trkpt lat="43.95175" lon="7.38956">
        <ele>1414</ele>
        <time>2018-04-22T11:32:19Z</time>
      </trkpt>
      <trkpt lat="43.95176" lon="7.38951">
        <ele>1414</ele>
        <time>2018-04-22T11:32:19Z</time>
      </trkpt>
      <trkpt lat="43.95179" lon="7.38943">
        <ele>1414</ele>
        <time>2018-04-22T11:32:43Z</time>
      </trkpt>
      <trkpt lat="43.95179" lon="7.3894">
        <ele>1414</ele>
        <time>2018-04-22T11:32:43Z</time>
      </trkpt>
      <trkpt lat="43.95179" lon="7.38938">
        <ele>1414</ele>
        <time>2018-04-22T11:32:43Z</time>
      </trkpt>
      <trkpt lat="43.95181" lon="7.38935">
        <ele>1414</ele>
        <time>2018-04-22T11:32:43Z</time>
      </trkpt>
      <trkpt lat="43.95185" lon="7.38931">
        <ele>1414</ele>
        <time>2018-04-22T11:32:43Z</time>
      </trkpt>
      <trkpt lat="43.95186" lon="7.38927">
        <ele>1414</ele>
        <time>2018-04-22T11:33:03Z</time>
      </trkpt>
      <trkpt lat="43.95185" lon="7.38926">
        <ele>1414</ele>
        <time>2018-04-22T11:33:03Z</time>
      </trkpt>
      <trkpt lat="43.95187" lon="7.38921">
        <ele>1414</ele>
        <time>2018-04-22T11:33:03Z</time>
      </trkpt>
      <trkpt lat="43.95188" lon="7.38917">
        <ele>1414</ele>
        <time>2018-04-22T11:33:03Z</time>
      </trkpt>
      <trkpt lat="43.9519" lon="7.38915">
        <ele>1414</ele>
        <time>2018-04-22T11:33:03Z</time>
      </trkpt>
      <trkpt lat="43.9519" lon="7.38901">
        <ele>1414</ele>
        <time>2018-04-22T11:33:43Z</time>
      </trkpt>
      <trkpt lat="43.95187" lon="7.38902">
        <ele>1414</ele>
        <time>2018-04-22T11:33:43Z</time>
      </trkpt>
      <trkpt lat="43.95188" lon="7.389">
        <ele>1414</ele>
        <time>2018-04-22T11:33:43Z</time>
      </trkpt>
      <trkpt lat="43.95188" lon="7.389">
        <ele>1414</ele>
        <time>2018-04-22T11:33:43Z</time>
      </trkpt>
      <trkpt lat="43.95185" lon="7.389">
        <ele>1414</ele>
        <time>2018-04-22T11:33:43Z</time>
      </trkpt>
      <trkpt lat="43.95188" lon="7.38897">
        <ele>1414</ele>
        <time>2018-04-22T11:35:07Z</time>
      </trkpt>
      <trkpt lat="43.95189" lon="7.38895">
        <ele>1414</ele>
        <time>2018-04-22T11:35:07Z</time>
      </trkpt>
      <trkpt lat="43.95189" lon="7.38895">
        <ele>1414</ele>
        <time>2018-04-22T11:35:07Z</time>
      </trkpt>
      <trkpt lat="43.95191" lon="7.38893">
        <ele>1414</ele>
        <time>2018-04-22T11:35:07Z</time>
      </trkpt>
      <trkpt lat="43.95192" lon="7.38892">
        <ele>1414</ele>
        <time>2018-04-22T11:35:07Z</time>
      </trkpt>
      <trkpt lat="43.95194" lon="7.38889">
        <ele>1414</ele>
        <time>2018-04-22T11:35:31Z</time>
      </trkpt>
      <trkpt lat="43.95195" lon="7.38887">
        <ele>1414</ele>
        <time>2018-04-22T11:35:31Z</time>
      </trkpt>
      <trkpt lat="43.95196" lon="7.38886">
        <ele>1414</ele>
        <time>2018-04-22T11:35:31Z</time>
      </trkpt>
      <trkpt lat="43.95199" lon="7.38884">
        <ele>1414</ele>
        <time>2018-04-22T11:35:31Z</time>
      </trkpt>
      <trkpt lat="43.95203" lon="7.3888">
        <ele>1414</ele>
        <time>2018-04-22T11:35:31Z</time>
      </trkpt>
      <trkpt lat="43.95209" lon="7.38875">
        <ele>1426</ele>
        <time>2018-04-22T11:35:55Z</time>
      </trkpt>
      <trkpt lat="43.9521" lon="7.38872">
        <ele>1426</ele>
        <time>2018-04-22T11:35:55Z</time>
      </trkpt>
      <trkpt lat="43.95212" lon="7.3887">
        <ele>1426</ele>
        <time>2018-04-22T11:35:55Z</time>
      </trkpt>
      <trkpt lat="43.95213" lon="7.38869">
        <ele>1426</ele>
        <time>2018-04-22T11:35:55Z</time>
      </trkpt>
      <trkpt lat="43.95216" lon="7.38865">
        <ele>1426</ele>
        <time>2018-04-22T11:35:55Z</time>
      </trkpt>
      <trkpt lat="43.95221" lon="7.3886">
        <ele>1426</ele>
        <time>2018-04-22T11:36:15Z</time>
      </trkpt>
      <trkpt lat="43.95223" lon="7.38858">
        <ele>1426</ele>
        <time>2018-04-22T11:36:15Z</time>
      </trkpt>
      <trkpt lat="43.95225" lon="7.38856">
        <ele>1426</ele>
        <time>2018-04-22T11:36:15Z</time>
      </trkpt>
      <trkpt lat="43.95228" lon="7.38853">
        <ele>1426</ele>
        <time>2018-04-22T11:36:15Z</time>
      </trkpt>
      <trkpt lat="43.95229" lon="7.38851">
        <ele>1426</ele>
        <time>2018-04-22T11:36:15Z</time>
      </trkpt>
      <trkpt lat="43.95231" lon="7.38848">
        <ele>1426</ele>
        <time>2018-04-22T11:36:31Z</time>
      </trkpt>
      <trkpt lat="43.95233" lon="7.38845">
        <ele>1426</ele>
        <time>2018-04-22T11:36:31Z</time>
      </trkpt>
      <trkpt lat="43.95237" lon="7.38843">
        <ele>1426</ele>
        <time>2018-04-22T11:36:31Z</time>
      </trkpt>
      <trkpt lat="43.95239" lon="7.38841">
        <ele>1426</ele>
        <time>2018-04-22T11:36:31Z</time>
      </trkpt>
      <trkpt lat="43.95242" lon="7.38838">
        <ele>1426</ele>
        <time>2018-04-22T11:36:51Z</time>
      </trkpt>
      <trkpt lat="43.95245" lon="7.38837">
        <ele>1426</ele>
        <time>2018-04-22T11:36:51Z</time>
      </trkpt>
      <trkpt lat="43.95246" lon="7.38834">
        <ele>1426</ele>
        <time>2018-04-22T11:36:51Z</time>
      </trkpt>
      <trkpt lat="43.95249" lon="7.38832">
        <ele>1426</ele>
        <time>2018-04-22T11:36:51Z</time>
      </trkpt>
      <trkpt lat="43.95252" lon="7.38831">
        <ele>1426</ele>
        <time>2018-04-22T11:36:51Z</time>
      </trkpt>
      <trkpt lat="43.95253" lon="7.38829">
        <ele>1426</ele>
        <time>2018-04-22T11:37:11Z</time>
      </trkpt>
      <trkpt lat="43.95256" lon="7.38828">
        <ele>1426</ele>
        <time>2018-04-22T11:37:11Z</time>
      </trkpt>
      <trkpt lat="43.95258" lon="7.38826">
        <ele>1426</ele>
        <time>2018-04-22T11:37:11Z</time>
      </trkpt>
      <trkpt lat="43.9526" lon="7.38825">
        <ele>1426</ele>
        <time>2018-04-22T11:37:11Z</time>
      </trkpt>
      <trkpt lat="43.95263" lon="7.38823">
        <ele>1426</ele>
        <time>2018-04-22T11:37:11Z</time>
      </trkpt>
      <trkpt lat="43.95263" lon="7.38821">
        <ele>1426</ele>
        <time>2018-04-22T11:37:27Z</time>
      </trkpt>
      <trkpt lat="43.95268" lon="7.38819">
        <ele>1426</ele>
        <time>2018-04-22T11:37:27Z</time>
      </trkpt>
      <trkpt lat="43.95274" lon="7.38818">
        <ele>1426</ele>
        <time>2018-04-22T11:37:27Z</time>
      </trkpt>
      <trkpt lat="43.95279" lon="7.38817">
        <ele>1426</ele>
        <time>2018-04-22T11:37:27Z</time>
      </trkpt>
      <trkpt lat="43.95283" lon="7.38816">
        <ele>1426</ele>
        <time>2018-04-22T11:37:43Z</time>
      </trkpt>
      <trkpt lat="43.95288" lon="7.38816">
        <ele>1426</ele>
        <time>2018-04-22T11:37:43Z</time>
      </trkpt>
      <trkpt lat="43.95291" lon="7.38816">
        <ele>1426</ele>
        <time>2018-04-22T11:37:43Z</time>
      </trkpt>
      <trkpt lat="43.95295" lon="7.38815">
        <ele>1421</ele>
        <time>2018-04-22T11:37:43Z</time>
      </trkpt>
      <trkpt lat="43.95298" lon="7.38813">
        <ele>1421</ele>
        <time>2018-04-22T11:38:07Z</time>
      </trkpt>
      <trkpt lat="43.95301" lon="7.3881">
        <ele>1421</ele>
        <time>2018-04-22T11:38:07Z</time>
      </trkpt>
      <trkpt lat="43.95304" lon="7.38808">
        <ele>1421</ele>
        <time>2018-04-22T11:38:07Z</time>
      </trkpt>
      <trkpt lat="43.95305" lon="7.38809">
        <ele>1421</ele>
        <time>2018-04-22T11:38:07Z</time>
      </trkpt>
      <trkpt lat="43.95308" lon="7.38808">
        <ele>1421</ele>
        <time>2018-04-22T11:38:07Z</time>
      </trkpt>
      <trkpt lat="43.95312" lon="7.38807">
        <ele>1421</ele>
        <time>2018-04-22T11:38:31Z</time>
      </trkpt>
      <trkpt lat="43.95312" lon="7.38804">
        <ele>1421</ele>
        <time>2018-04-22T11:38:31Z</time>
      </trkpt>
      <trkpt lat="43.95314" lon="7.38803">
        <ele>1421</ele>
        <time>2018-04-22T11:38:31Z</time>
      </trkpt>
      <trkpt lat="43.95316" lon="7.38804">
        <ele>1421</ele>
        <time>2018-04-22T11:38:31Z</time>
      </trkpt>
      <trkpt lat="43.95326" lon="7.38812">
        <ele>1421</ele>
        <time>2018-04-22T11:38:31Z</time>
      </trkpt>
      <trkpt lat="43.95328" lon="7.38812">
        <ele>1421</ele>
        <time>2018-04-22T11:39:03Z</time>
      </trkpt>
      <trkpt lat="43.95331" lon="7.38813">
        <ele>1421</ele>
        <time>2018-04-22T11:39:03Z</time>
      </trkpt>
      <trkpt lat="43.95333" lon="7.38812">
        <ele>1421</ele>
        <time>2018-04-22T11:39:03Z</time>
      </trkpt>
      <trkpt lat="43.95335" lon="7.3881">
        <ele>1421</ele>
        <time>2018-04-22T11:39:03Z</time>
      </trkpt>
      <trkpt lat="43.95343" lon="7.38809">
        <ele>1421</ele>
        <time>2018-04-22T11:39:03Z</time>
      </trkpt>
      <trkpt lat="43.95345" lon="7.38806">
        <ele>1421</ele>
        <time>2018-04-22T11:39:19Z</time>
      </trkpt>
      <trkpt lat="43.95353" lon="7.38804">
        <ele>1421</ele>
        <time>2018-04-22T11:39:19Z</time>
      </trkpt>
      <trkpt lat="43.9536" lon="7.38804">
        <ele>1421</ele>
        <time>2018-04-22T11:39:19Z</time>
      </trkpt>
      <trkpt lat="43.95362" lon="7.388">
        <ele>1421</ele>
        <time>2018-04-22T11:39:19Z</time>
      </trkpt>
      <trkpt lat="43.95362" lon="7.38796">
        <ele>1421</ele>
        <time>2018-04-22T11:39:35Z</time>
      </trkpt>
      <trkpt lat="43.95368" lon="7.38794">
        <ele>1421</ele>
        <time>2018-04-22T11:39:35Z</time>
      </trkpt>
      <trkpt lat="43.95373" lon="7.38792">
        <ele>1421</ele>
        <time>2018-04-22T11:39:35Z</time>
      </trkpt>
      <trkpt lat="43.95378" lon="7.3879">
        <ele>1437</ele>
        <time>2018-04-22T11:39:35Z</time>
      </trkpt>
      <trkpt lat="43.95382" lon="7.38786">
        <ele>1437</ele>
        <time>2018-04-22T11:39:51Z</time>
      </trkpt>
      <trkpt lat="43.95384" lon="7.38783">
        <ele>1437</ele>
        <time>2018-04-22T11:39:51Z</time>
      </trkpt>
      <trkpt lat="43.95389" lon="7.38777">
        <ele>1437</ele>
        <time>2018-04-22T11:39:51Z</time>
      </trkpt>
      <trkpt lat="43.95391" lon="7.38773">
        <ele>1437</ele>
        <time>2018-04-22T11:39:51Z</time>
      </trkpt>
      <trkpt lat="43.95392" lon="7.38769">
        <ele>1437</ele>
        <time>2018-04-22T11:40:07Z</time>
      </trkpt>
      <trkpt lat="43.95393" lon="7.38765">
        <ele>1437</ele>
        <time>2018-04-22T11:40:07Z</time>
      </trkpt>
      <trkpt lat="43.95395" lon="7.3876">
        <ele>1437</ele>
        <time>2018-04-22T11:40:07Z</time>
      </trkpt>
      <trkpt lat="43.95396" lon="7.38755">
        <ele>1437</ele>
        <time>2018-04-22T11:40:07Z</time>
      </trkpt>
      <trkpt lat="43.95399" lon="7.38749">
        <ele>1437</ele>
        <time>2018-04-22T11:40:23Z</time>
      </trkpt>
      <trkpt lat="43.95402" lon="7.38742">
        <ele>1437</ele>
        <time>2018-04-22T11:40:23Z</time>
      </trkpt>
      <trkpt lat="43.95403" lon="7.3874">
        <ele>1437</ele>
        <time>2018-04-22T11:40:23Z</time>
      </trkpt>
      <trkpt lat="43.95404" lon="7.38737">
        <ele>1437</ele>
        <time>2018-04-22T11:40:23Z</time>
      </trkpt>
      <trkpt lat="43.95405" lon="7.38732">
        <ele>1437</ele>
        <time>2018-04-22T11:40:43Z</time>
      </trkpt>
      <trkpt lat="43.95406" lon="7.38728">
        <ele>1437</ele>
        <time>2018-04-22T11:40:43Z</time>
      </trkpt>
      <trkpt lat="43.95406" lon="7.38726">
        <ele>1437</ele>
        <time>2018-04-22T11:40:43Z</time>
      </trkpt>
      <trkpt lat="43.95406" lon="7.38721">
        <ele>1437</ele>
        <time>2018-04-22T11:40:43Z</time>
      </trkpt>
      <trkpt lat="43.95408" lon="7.38716">
        <ele>1437</ele>
        <time>2018-04-22T11:40:43Z</time>
      </trkpt>
      <trkpt lat="43.95412" lon="7.38713">
        <ele>1437</ele>
        <time>2018-04-22T11:40:59Z</time>
      </trkpt>
      <trkpt lat="43.95415" lon="7.3871">
        <ele>1437</ele>
        <time>2018-04-22T11:40:59Z</time>
      </trkpt>
      <trkpt lat="43.95418" lon="7.38705">
        <ele>1462</ele>
        <time>2018-04-22T11:40:59Z</time>
      </trkpt>
      <trkpt lat="43.95419" lon="7.38698">
        <ele>1462</ele>
        <time>2018-04-22T11:40:59Z</time>
      </trkpt>
      <trkpt lat="43.95424" lon="7.38691">
        <ele>1462</ele>
        <time>2018-04-22T11:41:15Z</time>
      </trkpt>
      <trkpt lat="43.95426" lon="7.38684">
        <ele>1462</ele>
        <time>2018-04-22T11:41:15Z</time>
      </trkpt>
      <trkpt lat="43.95427" lon="7.3868">
        <ele>1462</ele>
        <time>2018-04-22T11:41:15Z</time>
      </trkpt>
      <trkpt lat="43.95426" lon="7.38678">
        <ele>1462</ele>
        <time>2018-04-22T11:41:15Z</time>
      </trkpt>
      <trkpt lat="43.95427" lon="7.38676">
        <ele>1462</ele>
        <time>2018-04-22T11:41:35Z</time>
      </trkpt>
      <trkpt lat="43.95428" lon="7.38672">
        <ele>1462</ele>
        <time>2018-04-22T11:41:35Z</time>
      </trkpt>
      <trkpt lat="43.95427" lon="7.38667">
        <ele>1462</ele>
        <time>2018-04-22T11:41:35Z</time>
      </trkpt>
      <trkpt lat="43.95425" lon="7.38665">
        <ele>1462</ele>
        <time>2018-04-22T11:41:35Z</time>
      </trkpt>
      <trkpt lat="43.95423" lon="7.38662">
        <ele>1462</ele>
        <time>2018-04-22T11:41:35Z</time>
      </trkpt>
      <trkpt lat="43.95425" lon="7.38659">
        <ele>1462</ele>
        <time>2018-04-22T11:41:55Z</time>
      </trkpt>
      <trkpt lat="43.95424" lon="7.38657">
        <ele>1462</ele>
        <time>2018-04-22T11:41:55Z</time>
      </trkpt>
      <trkpt lat="43.95425" lon="7.38654">
        <ele>1462</ele>
        <time>2018-04-22T11:41:55Z</time>
      </trkpt>
      <trkpt lat="43.95426" lon="7.38653">
        <ele>1462</ele>
        <time>2018-04-22T11:41:55Z</time>
      </trkpt>
      <trkpt lat="43.9543" lon="7.38648">
        <ele>1462</ele>
        <time>2018-04-22T11:41:55Z</time>
      </trkpt>
      <trkpt lat="43.95433" lon="7.38643">
        <ele>1462</ele>
        <time>2018-04-22T11:42:15Z</time>
      </trkpt>
      <trkpt lat="43.95435" lon="7.38642">
        <ele>1462</ele>
        <time>2018-04-22T11:42:15Z</time>
      </trkpt>
      <trkpt lat="43.95438" lon="7.38642">
        <ele>1462</ele>
        <time>2018-04-22T11:42:15Z</time>
      </trkpt>
      <trkpt lat="43.9544" lon="7.3864">
        <ele>1462</ele>
        <time>2018-04-22T11:42:15Z</time>
      </trkpt>
      <trkpt lat="43.95444" lon="7.38639">
        <ele>1462</ele>
        <time>2018-04-22T11:42:15Z</time>
      </trkpt>
      <trkpt lat="43.95445" lon="7.38638">
        <ele>1462</ele>
        <time>2018-04-22T11:42:35Z</time>
      </trkpt>
      <trkpt lat="43.95447" lon="7.38634">
        <ele>1462</ele>
        <time>2018-04-22T11:42:35Z</time>
      </trkpt>
      <trkpt lat="43.95451" lon="7.38632">
        <ele>1462</ele>
        <time>2018-04-22T11:42:35Z</time>
      </trkpt>
      <trkpt lat="43.95451" lon="7.38631">
        <ele>1462</ele>
        <time>2018-04-22T11:42:35Z</time>
      </trkpt>
      <trkpt lat="43.95455" lon="7.38628">
        <ele>1462</ele>
        <time>2018-04-22T11:42:35Z</time>
      </trkpt>
      <trkpt lat="43.95459" lon="7.38623">
        <ele>1463</ele>
        <time>2018-04-22T11:42:51Z</time>
      </trkpt>
      <trkpt lat="43.95465" lon="7.3862">
        <ele>1463</ele>
        <time>2018-04-22T11:42:51Z</time>
      </trkpt>
      <trkpt lat="43.95467" lon="7.38616">
        <ele>1463</ele>
        <time>2018-04-22T11:42:51Z</time>
      </trkpt>
      <trkpt lat="43.95467" lon="7.38613">
        <ele>1463</ele>
        <time>2018-04-22T11:42:51Z</time>
      </trkpt>
      <trkpt lat="43.95471" lon="7.3861">
        <ele>1463</ele>
        <time>2018-04-22T11:43:07Z</time>
      </trkpt>
      <trkpt lat="43.95474" lon="7.38606">
        <ele>1463</ele>
        <time>2018-04-22T11:43:07Z</time>
      </trkpt>
      <trkpt lat="43.95476" lon="7.38601">
        <ele>1463</ele>
        <time>2018-04-22T11:43:07Z</time>
      </trkpt>
      <trkpt lat="43.95478" lon="7.38597">
        <ele>1463</ele>
        <time>2018-04-22T11:43:07Z</time>
      </trkpt>
      <trkpt lat="43.9548" lon="7.38591">
        <ele>1463</ele>
        <time>2018-04-22T11:43:23Z</time>
      </trkpt>
      <trkpt lat="43.95484" lon="7.38585">
        <ele>1463</ele>
        <time>2018-04-22T11:43:23Z</time>
      </trkpt>
      <trkpt lat="43.95488" lon="7.38579">
        <ele>1463</ele>
        <time>2018-04-22T11:43:23Z</time>
      </trkpt>
      <trkpt lat="43.95489" lon="7.38575">
        <ele>1463</ele>
        <time>2018-04-22T11:43:23Z</time>
      </trkpt>
      <trkpt lat="43.95492" lon="7.38571">
        <ele>1463</ele>
        <time>2018-04-22T11:43:43Z</time>
      </trkpt>
      <trkpt lat="43.95491" lon="7.38566">
        <ele>1463</ele>
        <time>2018-04-22T11:43:43Z</time>
      </trkpt>
      <trkpt lat="43.95492" lon="7.38563">
        <ele>1463</ele>
        <time>2018-04-22T11:43:43Z</time>
      </trkpt>
      <trkpt lat="43.95492" lon="7.3856">
        <ele>1463</ele>
        <time>2018-04-22T11:43:43Z</time>
      </trkpt>
      <trkpt lat="43.95497" lon="7.38554">
        <ele>1463</ele>
        <time>2018-04-22T11:43:43Z</time>
      </trkpt>
      <trkpt lat="43.95501" lon="7.38548">
        <ele>1463</ele>
        <time>2018-04-22T11:43:59Z</time>
      </trkpt>
      <trkpt lat="43.95502" lon="7.38543">
        <ele>1463</ele>
        <time>2018-04-22T11:43:59Z</time>
      </trkpt>
      <trkpt lat="43.95504" lon="7.38539">
        <ele>1486</ele>
        <time>2018-04-22T11:43:59Z</time>
      </trkpt>
      <trkpt lat="43.95506" lon="7.38536">
        <ele>1486</ele>
        <time>2018-04-22T11:43:59Z</time>
      </trkpt>
      <trkpt lat="43.95509" lon="7.38532">
        <ele>1486</ele>
        <time>2018-04-22T11:44:15Z</time>
      </trkpt>
      <trkpt lat="43.9551" lon="7.38529">
        <ele>1486</ele>
        <time>2018-04-22T11:44:15Z</time>
      </trkpt>
      <trkpt lat="43.95508" lon="7.38522">
        <ele>1486</ele>
        <time>2018-04-22T11:44:15Z</time>
      </trkpt>
      <trkpt lat="43.95511" lon="7.38519">
        <ele>1486</ele>
        <time>2018-04-22T11:44:15Z</time>
      </trkpt>
      <trkpt lat="43.95514" lon="7.38513">
        <ele>1486</ele>
        <time>2018-04-22T11:44:31Z</time>
      </trkpt>
      <trkpt lat="43.95513" lon="7.38506">
        <ele>1486</ele>
        <time>2018-04-22T11:44:31Z</time>
      </trkpt>
      <trkpt lat="43.95515" lon="7.38504">
        <ele>1486</ele>
        <time>2018-04-22T11:44:31Z</time>
      </trkpt>
      <trkpt lat="43.95516" lon="7.385">
        <ele>1486</ele>
        <time>2018-04-22T11:44:31Z</time>
      </trkpt>
      <trkpt lat="43.95518" lon="7.38497">
        <ele>1486</ele>
        <time>2018-04-22T11:44:47Z</time>
      </trkpt>
      <trkpt lat="43.9552" lon="7.38495">
        <ele>1486</ele>
        <time>2018-04-22T11:44:47Z</time>
      </trkpt>
      <trkpt lat="43.95522" lon="7.38489">
        <ele>1486</ele>
        <time>2018-04-22T11:44:47Z</time>
      </trkpt>
      <trkpt lat="43.95524" lon="7.38485">
        <ele>1486</ele>
        <time>2018-04-22T11:44:47Z</time>
      </trkpt>
      <trkpt lat="43.95526" lon="7.38481">
        <ele>1486</ele>
        <time>2018-04-22T11:45:03Z</time>
      </trkpt>
      <trkpt lat="43.95529" lon="7.38478">
        <ele>1486</ele>
        <time>2018-04-22T11:45:03Z</time>
      </trkpt>
      <trkpt lat="43.95533" lon="7.38476">
        <ele>1486</ele>
        <time>2018-04-22T11:45:03Z</time>
      </trkpt>
      <trkpt lat="43.95539" lon="7.38473">
        <ele>1486</ele>
        <time>2018-04-22T11:45:03Z</time>
      </trkpt>
      <trkpt lat="43.95543" lon="7.3847">
        <ele>1443</ele>
        <time>2018-04-22T11:45:23Z</time>
      </trkpt>
      <trkpt lat="43.95545" lon="7.38468">
        <ele>1443</ele>
        <time>2018-04-22T11:45:23Z</time>
      </trkpt>
      <trkpt lat="43.95549" lon="7.38466">
        <ele>1443</ele>
        <time>2018-04-22T11:45:23Z</time>
      </trkpt>
      <trkpt lat="43.95551" lon="7.38467">
        <ele>1443</ele>
        <time>2018-04-22T11:45:23Z</time>
      </trkpt>
      <trkpt lat="43.95558" lon="7.38464">
        <ele>1443</ele>
        <time>2018-04-22T11:45:23Z</time>
      </trkpt>
      <trkpt lat="43.95563" lon="7.3846">
        <ele>1443</ele>
        <time>2018-04-22T11:45:39Z</time>
      </trkpt>
      <trkpt lat="43.95566" lon="7.38458">
        <ele>1455</ele>
        <time>2018-04-22T11:45:39Z</time>
      </trkpt>
      <trkpt lat="43.95571" lon="7.38456">
        <ele>1455</ele>
        <time>2018-04-22T11:45:39Z</time>
      </trkpt>
      <trkpt lat="43.95572" lon="7.38455">
        <ele>1455</ele>
        <time>2018-04-22T11:45:39Z</time>
      </trkpt>
      <trkpt lat="43.95576" lon="7.38453">
        <ele>1455</ele>
        <time>2018-04-22T11:45:59Z</time>
      </trkpt>
      <trkpt lat="43.95578" lon="7.3845">
        <ele>1455</ele>
        <time>2018-04-22T11:45:59Z</time>
      </trkpt>
      <trkpt lat="43.95579" lon="7.38449">
        <ele>1455</ele>
        <time>2018-04-22T11:45:59Z</time>
      </trkpt>
      <trkpt lat="43.95582" lon="7.38448">
        <ele>1455</ele>
        <time>2018-04-22T11:45:59Z</time>
      </trkpt>
      <trkpt lat="43.95583" lon="7.3844">
        <ele>1455</ele>
        <time>2018-04-22T11:45:59Z</time>
      </trkpt>
      <trkpt lat="43.95585" lon="7.38433">
        <ele>1455</ele>
        <time>2018-04-22T11:46:15Z</time>
      </trkpt>
      <trkpt lat="43.95586" lon="7.38427">
        <ele>1455</ele>
        <time>2018-04-22T11:46:15Z</time>
      </trkpt>
      <trkpt lat="43.95589" lon="7.38421">
        <ele>1455</ele>
        <time>2018-04-22T11:46:15Z</time>
      </trkpt>
      <trkpt lat="43.95589" lon="7.38419">
        <ele>1455</ele>
        <time>2018-04-22T11:46:15Z</time>
      </trkpt>
      <trkpt lat="43.95589" lon="7.38412">
        <ele>1455</ele>
        <time>2018-04-22T11:46:31Z</time>
      </trkpt>
      <trkpt lat="43.95588" lon="7.38408">
        <ele>1455</ele>
        <time>2018-04-22T11:46:31Z</time>
      </trkpt>
      <trkpt lat="43.95589" lon="7.38404">
        <ele>1455</ele>
        <time>2018-04-22T11:46:31Z</time>
      </trkpt>
      <trkpt lat="43.95592" lon="7.38397">
        <ele>1455</ele>
        <time>2018-04-22T11:46:31Z</time>
      </trkpt>
      <trkpt lat="43.95589" lon="7.38394">
        <ele>1455</ele>
        <time>2018-04-22T11:46:59Z</time>
      </trkpt>
      <trkpt lat="43.95587" lon="7.38394">
        <ele>1455</ele>
        <time>2018-04-22T11:46:59Z</time>
      </trkpt>
      <trkpt lat="43.95587" lon="7.38392">
        <ele>1455</ele>
        <time>2018-04-22T11:46:59Z</time>
      </trkpt>
      <trkpt lat="43.95588" lon="7.38386">
        <ele>1455</ele>
        <time>2018-04-22T11:46:59Z</time>
      </trkpt>
      <trkpt lat="43.95589" lon="7.38382">
        <ele>1455</ele>
        <time>2018-04-22T11:46:59Z</time>
      </trkpt>
      <trkpt lat="43.9559" lon="7.38372">
        <ele>1468</ele>
        <time>2018-04-22T11:47:23Z</time>
      </trkpt>
      <trkpt lat="43.95587" lon="7.38373">
        <ele>1468</ele>
        <time>2018-04-22T11:47:23Z</time>
      </trkpt>
      <trkpt lat="43.95585" lon="7.38373">
        <ele>1468</ele>
        <time>2018-04-22T11:47:23Z</time>
      </trkpt>
      <trkpt lat="43.95586" lon="7.38371">
        <ele>1468</ele>
        <time>2018-04-22T11:47:23Z</time>
      </trkpt>
      <trkpt lat="43.95587" lon="7.38367">
        <ele>1468</ele>
        <time>2018-04-22T11:47:23Z</time>
      </trkpt>
      <trkpt lat="43.95585" lon="7.38357">
        <ele>1468</ele>
        <time>2018-04-22T11:47:51Z</time>
      </trkpt>
      <trkpt lat="43.95584" lon="7.38357">
        <ele>1468</ele>
        <time>2018-04-22T11:47:51Z</time>
      </trkpt>
      <trkpt lat="43.95582" lon="7.38355">
        <ele>1468</ele>
        <time>2018-04-22T11:47:51Z</time>
      </trkpt>
      <trkpt lat="43.95583" lon="7.38354">
        <ele>1468</ele>
        <time>2018-04-22T11:47:51Z</time>
      </trkpt>
      <trkpt lat="43.95584" lon="7.38348">
        <ele>1468</ele>
        <time>2018-04-22T11:47:51Z</time>
      </trkpt>
      <trkpt lat="43.95585" lon="7.38338">
        <ele>1468</ele>
        <time>2018-04-22T11:48:07Z</time>
      </trkpt>
      <trkpt lat="43.95584" lon="7.38332">
        <ele>1468</ele>
        <time>2018-04-22T11:48:07Z</time>
      </trkpt>
      <trkpt lat="43.95583" lon="7.38327">
        <ele>1468</ele>
        <time>2018-04-22T11:48:07Z</time>
      </trkpt>
      <trkpt lat="43.95579" lon="7.38325">
        <ele>1468</ele>
        <time>2018-04-22T11:48:07Z</time>
      </trkpt>
      <trkpt lat="43.95581" lon="7.3832">
        <ele>1468</ele>
        <time>2018-04-22T11:48:23Z</time>
      </trkpt>
      <trkpt lat="43.95583" lon="7.38312">
        <ele>1468</ele>
        <time>2018-04-22T11:48:23Z</time>
      </trkpt>
      <trkpt lat="43.95583" lon="7.38307">
        <ele>1468</ele>
        <time>2018-04-22T11:48:23Z</time>
      </trkpt>
      <trkpt lat="43.95583" lon="7.38303">
        <ele>1468</ele>
        <time>2018-04-22T11:48:23Z</time>
      </trkpt>
      <trkpt lat="43.95586" lon="7.38299">
        <ele>1468</ele>
        <time>2018-04-22T11:48:39Z</time>
      </trkpt>
      <trkpt lat="43.9559" lon="7.38292">
        <ele>1468</ele>
        <time>2018-04-22T11:48:39Z</time>
      </trkpt>
      <trkpt lat="43.95595" lon="7.38285">
        <ele>1487</ele>
        <time>2018-04-22T11:48:39Z</time>
      </trkpt>
      <trkpt lat="43.95595" lon="7.3828">
        <ele>1487</ele>
        <time>2018-04-22T11:48:39Z</time>
      </trkpt>
      <trkpt lat="43.95596" lon="7.38275">
        <ele>1487</ele>
        <time>2018-04-22T11:48:55Z</time>
      </trkpt>
      <trkpt lat="43.95599" lon="7.38271">
        <ele>1487</ele>
        <time>2018-04-22T11:48:55Z</time>
      </trkpt>
      <trkpt lat="43.95598" lon="7.38267">
        <ele>1487</ele>
        <time>2018-04-22T11:48:55Z</time>
      </trkpt>
      <trkpt lat="43.95595" lon="7.38262">
        <ele>1487</ele>
        <time>2018-04-22T11:48:55Z</time>
      </trkpt>
      <trkpt lat="43.95592" lon="7.38263">
        <ele>1487</ele>
        <time>2018-04-22T11:49:11Z</time>
      </trkpt>
      <trkpt lat="43.95589" lon="7.38262">
        <ele>1487</ele>
        <time>2018-04-22T11:49:11Z</time>
      </trkpt>
      <trkpt lat="43.95587" lon="7.38259">
        <ele>1487</ele>
        <time>2018-04-22T11:49:11Z</time>
      </trkpt>
      <trkpt lat="43.95583" lon="7.38259">
        <ele>1487</ele>
        <time>2018-04-22T11:49:11Z</time>
      </trkpt>
      <trkpt lat="43.95574" lon="7.38261">
        <ele>1487</ele>
        <time>2018-04-22T11:49:51Z</time>
      </trkpt>
      <trkpt lat="43.95573" lon="7.38261">
        <ele>1487</ele>
        <time>2018-04-22T11:49:51Z</time>
      </trkpt>
      <trkpt lat="43.95573" lon="7.3826">
        <ele>1487</ele>
        <time>2018-04-22T11:49:51Z</time>
      </trkpt>
      <trkpt lat="43.95573" lon="7.38256">
        <ele>1487</ele>
        <time>2018-04-22T11:49:51Z</time>
      </trkpt>
      <trkpt lat="43.95572" lon="7.38252">
        <ele>1487</ele>
        <time>2018-04-22T11:49:51Z</time>
      </trkpt>
      <trkpt lat="43.95573" lon="7.38252">
        <ele>1487</ele>
        <time>2018-04-22T11:51:19Z</time>
      </trkpt>
      <trkpt lat="43.95575" lon="7.38247">
        <ele>1487</ele>
        <time>2018-04-22T11:51:19Z</time>
      </trkpt>
      <trkpt lat="43.95575" lon="7.38244">
        <ele>1487</ele>
        <time>2018-04-22T11:51:19Z</time>
      </trkpt>
      <trkpt lat="43.95575" lon="7.38242">
        <ele>1487</ele>
        <time>2018-04-22T11:51:19Z</time>
      </trkpt>
      <trkpt lat="43.95578" lon="7.38237">
        <ele>1487</ele>
        <time>2018-04-22T11:51:19Z</time>
      </trkpt>
      <trkpt lat="43.95579" lon="7.38233">
        <ele>1487</ele>
        <time>2018-04-22T11:51:43Z</time>
      </trkpt>
      <trkpt lat="43.95581" lon="7.38232">
        <ele>1487</ele>
        <time>2018-04-22T11:51:43Z</time>
      </trkpt>
      <trkpt lat="43.95581" lon="7.3823">
        <ele>1487</ele>
        <time>2018-04-22T11:51:43Z</time>
      </trkpt>
      <trkpt lat="43.95583" lon="7.38225">
        <ele>1487</ele>
        <time>2018-04-22T11:51:43Z</time>
      </trkpt>
      <trkpt lat="43.95584" lon="7.38223">
        <ele>1487</ele>
        <time>2018-04-22T11:51:43Z</time>
      </trkpt>
      <trkpt lat="43.95588" lon="7.38217">
        <ele>1487</ele>
        <time>2018-04-22T11:52:03Z</time>
      </trkpt>
      <trkpt lat="43.9559" lon="7.38214">
        <ele>1487</ele>
        <time>2018-04-22T11:52:03Z</time>
      </trkpt>
      <trkpt lat="43.95591" lon="7.38211">
        <ele>1487</ele>
        <time>2018-04-22T11:52:03Z</time>
      </trkpt>
      <trkpt lat="43.95592" lon="7.38209">
        <ele>1487</ele>
        <time>2018-04-22T11:52:03Z</time>
      </trkpt>
      <trkpt lat="43.95593" lon="7.38204">
        <ele>1503</ele>
        <time>2018-04-22T11:52:03Z</time>
      </trkpt>
      <trkpt lat="43.95595" lon="7.38199">
        <ele>1503</ele>
        <time>2018-04-22T11:52:23Z</time>
      </trkpt>
      <trkpt lat="43.95596" lon="7.38197">
        <ele>1503</ele>
        <time>2018-04-22T11:52:23Z</time>
      </trkpt>
      <trkpt lat="43.95599" lon="7.38195">
        <ele>1503</ele>
        <time>2018-04-22T11:52:23Z</time>
      </trkpt>
      <trkpt lat="43.95602" lon="7.38192">
        <ele>1503</ele>
        <time>2018-04-22T11:52:23Z</time>
      </trkpt>
      <trkpt lat="43.95606" lon="7.38187">
        <ele>1503</ele>
        <time>2018-04-22T11:52:23Z</time>
      </trkpt>
      <trkpt lat="43.95608" lon="7.38183">
        <ele>1503</ele>
        <time>2018-04-22T11:52:39Z</time>
      </trkpt>
      <trkpt lat="43.9561" lon="7.38179">
        <ele>1503</ele>
        <time>2018-04-22T11:52:39Z</time>
      </trkpt>
      <trkpt lat="43.95613" lon="7.38175">
        <ele>1503</ele>
        <time>2018-04-22T11:52:39Z</time>
      </trkpt>
      <trkpt lat="43.95614" lon="7.38173">
        <ele>1503</ele>
        <time>2018-04-22T11:52:39Z</time>
      </trkpt>
      <trkpt lat="43.95617" lon="7.38168">
        <ele>1503</ele>
        <time>2018-04-22T11:52:55Z</time>
      </trkpt>
      <trkpt lat="43.9562" lon="7.38161">
        <ele>1503</ele>
        <time>2018-04-22T11:52:55Z</time>
      </trkpt>
      <trkpt lat="43.95622" lon="7.38157">
        <ele>1503</ele>
        <time>2018-04-22T11:52:55Z</time>
      </trkpt>
      <trkpt lat="43.95624" lon="7.38152">
        <ele>1503</ele>
        <time>2018-04-22T11:52:55Z</time>
      </trkpt>
      <trkpt lat="43.95626" lon="7.38144">
        <ele>1454</ele>
        <time>2018-04-22T11:53:19Z</time>
      </trkpt>
      <trkpt lat="43.95625" lon="7.3814">
        <ele>1503</ele>
        <time>2018-04-22T11:53:19Z</time>
      </trkpt>
      <trkpt lat="43.95625" lon="7.38136">
        <ele>1503</ele>
        <time>2018-04-22T11:53:19Z</time>
      </trkpt>
      <trkpt lat="43.95623" lon="7.38136">
        <ele>1503</ele>
        <time>2018-04-22T11:53:19Z</time>
      </trkpt>
      <trkpt lat="43.95624" lon="7.38128">
        <ele>1503</ele>
        <time>2018-04-22T11:53:19Z</time>
      </trkpt>
      <trkpt lat="43.95627" lon="7.38119">
        <ele>1470</ele>
        <time>2018-04-22T11:53:35Z</time>
      </trkpt>
      <trkpt lat="43.95628" lon="7.38112">
        <ele>1470</ele>
        <time>2018-04-22T11:53:35Z</time>
      </trkpt>
      <trkpt lat="43.95625" lon="7.38106">
        <ele>1520</ele>
        <time>2018-04-22T11:53:35Z</time>
      </trkpt>
      <trkpt lat="43.95623" lon="7.38101">
        <ele>1520</ele>
        <time>2018-04-22T11:53:35Z</time>
      </trkpt>
      <trkpt lat="43.95625" lon="7.38094">
        <ele>1520</ele>
        <time>2018-04-22T11:53:55Z</time>
      </trkpt>
      <trkpt lat="43.95626" lon="7.38089">
        <ele>1470</ele>
        <time>2018-04-22T11:53:55Z</time>
      </trkpt>
      <trkpt lat="43.95623" lon="7.38087">
        <ele>1520</ele>
        <time>2018-04-22T11:53:55Z</time>
      </trkpt>
      <trkpt lat="43.95624" lon="7.38085">
        <ele>1520</ele>
        <time>2018-04-22T11:53:55Z</time>
      </trkpt>
      <trkpt lat="43.95624" lon="7.3808">
        <ele>1520</ele>
        <time>2018-04-22T11:53:55Z</time>
      </trkpt>
      <trkpt lat="43.95624" lon="7.38075">
        <ele>1520</ele>
        <time>2018-04-22T11:54:15Z</time>
      </trkpt>
      <trkpt lat="43.95622" lon="7.38075">
        <ele>1520</ele>
        <time>2018-04-22T11:54:15Z</time>
      </trkpt>
      <trkpt lat="43.95619" lon="7.38076">
        <ele>1520</ele>
        <time>2018-04-22T11:54:15Z</time>
      </trkpt>
      <trkpt lat="43.95616" lon="7.38077">
        <ele>1520</ele>
        <time>2018-04-22T11:54:15Z</time>
      </trkpt>
      <trkpt lat="43.95615" lon="7.38074">
        <ele>1520</ele>
        <time>2018-04-22T11:54:15Z</time>
      </trkpt>
      <trkpt lat="43.95608" lon="7.3807">
        <ele>1520</ele>
        <time>2018-04-22T11:56:51Z</time>
      </trkpt>
      <trkpt lat="43.9561" lon="7.38066">
        <ele>1520</ele>
        <time>2018-04-22T11:56:51Z</time>
      </trkpt>
      <trkpt lat="43.95612" lon="7.38058">
        <ele>1520</ele>
        <time>2018-04-22T11:56:51Z</time>
      </trkpt>
      <trkpt lat="43.95613" lon="7.38052">
        <ele>1520</ele>
        <time>2018-04-22T11:56:51Z</time>
      </trkpt>
      <trkpt lat="43.95614" lon="7.38048">
        <ele>1520</ele>
        <time>2018-04-22T11:56:51Z</time>
      </trkpt>
      <trkpt lat="43.95615" lon="7.38046">
        <ele>1520</ele>
        <time>2018-04-22T11:57:11Z</time>
      </trkpt>
      <trkpt lat="43.95615" lon="7.38045">
        <ele>1520</ele>
        <time>2018-04-22T11:57:11Z</time>
      </trkpt>
      <trkpt lat="43.95618" lon="7.38041">
        <ele>1541</ele>
        <time>2018-04-22T11:57:11Z</time>
      </trkpt>
      <trkpt lat="43.95619" lon="7.3804">
        <ele>1541</ele>
        <time>2018-04-22T11:57:11Z</time>
      </trkpt>
      <trkpt lat="43.95621" lon="7.38037">
        <ele>1541</ele>
        <time>2018-04-22T11:57:11Z</time>
      </trkpt>
      <trkpt lat="43.95624" lon="7.38032">
        <ele>1541</ele>
        <time>2018-04-22T11:57:31Z</time>
      </trkpt>
      <trkpt lat="43.95627" lon="7.38029">
        <ele>1491</ele>
        <time>2018-04-22T11:57:31Z</time>
      </trkpt>
      <trkpt lat="43.95629" lon="7.38026">
        <ele>1491</ele>
        <time>2018-04-22T11:57:31Z</time>
      </trkpt>
      <trkpt lat="43.95628" lon="7.38025">
        <ele>1491</ele>
        <time>2018-04-22T11:57:31Z</time>
      </trkpt>
      <trkpt lat="43.95632" lon="7.38021">
        <ele>1491</ele>
        <time>2018-04-22T11:57:31Z</time>
      </trkpt>
      <trkpt lat="43.95635" lon="7.38013">
        <ele>1491</ele>
        <time>2018-04-22T11:57:59Z</time>
      </trkpt>
      <trkpt lat="43.95636" lon="7.38011">
        <ele>1491</ele>
        <time>2018-04-22T11:57:59Z</time>
      </trkpt>
      <trkpt lat="43.95636" lon="7.38009">
        <ele>1491</ele>
        <time>2018-04-22T11:57:59Z</time>
      </trkpt>
      <trkpt lat="43.95636" lon="7.38006">
        <ele>1491</ele>
        <time>2018-04-22T11:57:59Z</time>
      </trkpt>
      <trkpt lat="43.95637" lon="7.38002">
        <ele>1491</ele>
        <time>2018-04-22T11:57:59Z</time>
      </trkpt>
      <trkpt lat="43.95637" lon="7.37997">
        <ele>1491</ele>
        <time>2018-04-22T11:58:19Z</time>
      </trkpt>
      <trkpt lat="43.95636" lon="7.37992">
        <ele>1491</ele>
        <time>2018-04-22T11:58:19Z</time>
      </trkpt>
      <trkpt lat="43.95636" lon="7.37989">
        <ele>1491</ele>
        <time>2018-04-22T11:58:19Z</time>
      </trkpt>
      <trkpt lat="43.95635" lon="7.37987">
        <ele>1491</ele>
        <time>2018-04-22T11:58:19Z</time>
      </trkpt>
      <trkpt lat="43.95634" lon="7.37984">
        <ele>1491</ele>
        <time>2018-04-22T11:58:19Z</time>
      </trkpt>
      <trkpt lat="43.95633" lon="7.37973">
        <ele>1491</ele>
        <time>2018-04-22T11:58:43Z</time>
      </trkpt>
      <trkpt lat="43.95633" lon="7.37972">
        <ele>1491</ele>
        <time>2018-04-22T11:58:43Z</time>
      </trkpt>
      <trkpt lat="43.95633" lon="7.37968">
        <ele>1491</ele>
        <time>2018-04-22T11:58:43Z</time>
      </trkpt>
      <trkpt lat="43.95633" lon="7.37966">
        <ele>1491</ele>
        <time>2018-04-22T11:58:43Z</time>
      </trkpt>
      <trkpt lat="43.95633" lon="7.37962">
        <ele>1491</ele>
        <time>2018-04-22T11:58:43Z</time>
      </trkpt>
      <trkpt lat="43.95633" lon="7.37958">
        <ele>1524</ele>
        <time>2018-04-22T11:58:59Z</time>
      </trkpt>
      <trkpt lat="43.95634" lon="7.37953">
        <ele>1524</ele>
        <time>2018-04-22T11:58:59Z</time>
      </trkpt>
      <trkpt lat="43.95635" lon="7.37948">
        <ele>1524</ele>
        <time>2018-04-22T11:58:59Z</time>
      </trkpt>
      <trkpt lat="43.95635" lon="7.37943">
        <ele>1524</ele>
        <time>2018-04-22T11:58:59Z</time>
      </trkpt>
      <trkpt lat="43.95632" lon="7.37935">
        <ele>1524</ele>
        <time>2018-04-22T11:59:51Z</time>
      </trkpt>
      <trkpt lat="43.95626" lon="7.37938">
        <ele>1524</ele>
        <time>2018-04-22T11:59:51Z</time>
      </trkpt>
      <trkpt lat="43.95621" lon="7.37943">
        <ele>1556</ele>
        <time>2018-04-22T11:59:51Z</time>
      </trkpt>
      <trkpt lat="43.95618" lon="7.37946">
        <ele>1556</ele>
        <time>2018-04-22T11:59:51Z</time>
      </trkpt>
      <trkpt lat="43.95616" lon="7.37949">
        <ele>1556</ele>
        <time>2018-04-22T11:59:51Z</time>
      </trkpt>
      <trkpt lat="43.95609" lon="7.37957">
        <ele>1556</ele>
        <time>2018-04-22T12:00:07Z</time>
      </trkpt>
      <trkpt lat="43.95605" lon="7.37964">
        <ele>1541</ele>
        <time>2018-04-22T12:00:07Z</time>
      </trkpt>
      <trkpt lat="43.95603" lon="7.37968">
        <ele>1541</ele>
        <time>2018-04-22T12:00:07Z</time>
      </trkpt>
      <trkpt lat="43.95601" lon="7.37971">
        <ele>1541</ele>
        <time>2018-04-22T12:00:07Z</time>
      </trkpt>
      <trkpt lat="43.95601" lon="7.37974">
        <ele>1541</ele>
        <time>2018-04-22T12:00:27Z</time>
      </trkpt>
      <trkpt lat="43.95601" lon="7.37977">
        <ele>1541</ele>
        <time>2018-04-22T12:00:27Z</time>
      </trkpt>
      <trkpt lat="43.95601" lon="7.37977">
        <ele>1541</ele>
        <time>2018-04-22T12:00:27Z</time>
      </trkpt>
      <trkpt lat="43.956" lon="7.37982">
        <ele>1541</ele>
        <time>2018-04-22T12:00:27Z</time>
      </trkpt>
      <trkpt lat="43.95598" lon="7.37988">
        <ele>1541</ele>
        <time>2018-04-22T12:00:27Z</time>
      </trkpt>
      <trkpt lat="43.95598" lon="7.37989">
        <ele>1541</ele>
        <time>2018-04-22T12:00:43Z</time>
      </trkpt>
      <trkpt lat="43.95597" lon="7.37994">
        <ele>1541</ele>
        <time>2018-04-22T12:00:43Z</time>
      </trkpt>
      <trkpt lat="43.95596" lon="7.37999">
        <ele>1541</ele>
        <time>2018-04-22T12:00:43Z</time>
      </trkpt>
      <trkpt lat="43.95595" lon="7.38002">
        <ele>1541</ele>
        <time>2018-04-22T12:00:43Z</time>
      </trkpt>
      <trkpt lat="43.95594" lon="7.38005">
        <ele>1541</ele>
        <time>2018-04-22T12:00:59Z</time>
      </trkpt>
      <trkpt lat="43.95593" lon="7.3801">
        <ele>1541</ele>
        <time>2018-04-22T12:00:59Z</time>
      </trkpt>
      <trkpt lat="43.95593" lon="7.38013">
        <ele>1541</ele>
        <time>2018-04-22T12:00:59Z</time>
      </trkpt>
      <trkpt lat="43.95591" lon="7.38018">
        <ele>1541</ele>
        <time>2018-04-22T12:00:59Z</time>
      </trkpt>
      <trkpt lat="43.9559" lon="7.3802">
        <ele>1541</ele>
        <time>2018-04-22T12:01:15Z</time>
      </trkpt>
      <trkpt lat="43.95587" lon="7.38025">
        <ele>1541</ele>
        <time>2018-04-22T12:01:15Z</time>
      </trkpt>
      <trkpt lat="43.95585" lon="7.38029">
        <ele>1541</ele>
        <time>2018-04-22T12:01:15Z</time>
      </trkpt>
      <trkpt lat="43.95582" lon="7.38035">
        <ele>1541</ele>
        <time>2018-04-22T12:01:15Z</time>
      </trkpt>
      <trkpt lat="43.9558" lon="7.38039">
        <ele>1541</ele>
        <time>2018-04-22T12:01:31Z</time>
      </trkpt>
      <trkpt lat="43.95578" lon="7.38041">
        <ele>1541</ele>
        <time>2018-04-22T12:01:31Z</time>
      </trkpt>
      <trkpt lat="43.95577" lon="7.38046">
        <ele>1520</ele>
        <time>2018-04-22T12:01:31Z</time>
      </trkpt>
      <trkpt lat="43.95574" lon="7.3805">
        <ele>1520</ele>
        <time>2018-04-22T12:01:31Z</time>
      </trkpt>
      <trkpt lat="43.95573" lon="7.38053">
        <ele>1520</ele>
        <time>2018-04-22T12:01:51Z</time>
      </trkpt>
      <trkpt lat="43.95571" lon="7.38055">
        <ele>1520</ele>
        <time>2018-04-22T12:01:51Z</time>
      </trkpt>
      <trkpt lat="43.95569" lon="7.38059">
        <ele>1520</ele>
        <time>2018-04-22T12:01:51Z</time>
      </trkpt>
      <trkpt lat="43.95567" lon="7.3806">
        <ele>1520</ele>
        <time>2018-04-22T12:01:51Z</time>
      </trkpt>
      <trkpt lat="43.95565" lon="7.38062">
        <ele>1520</ele>
        <time>2018-04-22T12:01:51Z</time>
      </trkpt>
      <trkpt lat="43.95561" lon="7.3807">
        <ele>1520</ele>
        <time>2018-04-22T12:02:15Z</time>
      </trkpt>
      <trkpt lat="43.95559" lon="7.38072">
        <ele>1520</ele>
        <time>2018-04-22T12:02:15Z</time>
      </trkpt>
      <trkpt lat="43.95558" lon="7.38074">
        <ele>1520</ele>
        <time>2018-04-22T12:02:15Z</time>
      </trkpt>
      <trkpt lat="43.95558" lon="7.38075">
        <ele>1520</ele>
        <time>2018-04-22T12:02:15Z</time>
      </trkpt>
      <trkpt lat="43.95556" lon="7.38077">
        <ele>1520</ele>
        <time>2018-04-22T12:02:15Z</time>
      </trkpt>
      <trkpt lat="43.95555" lon="7.38079">
        <ele>1520</ele>
        <time>2018-04-22T12:02:31Z</time>
      </trkpt>
      <trkpt lat="43.95553" lon="7.38082">
        <ele>1520</ele>
        <time>2018-04-22T12:02:31Z</time>
      </trkpt>
      <trkpt lat="43.95552" lon="7.38084">
        <ele>1520</ele>
        <time>2018-04-22T12:02:31Z</time>
      </trkpt>
      <trkpt lat="43.95548" lon="7.38088">
        <ele>1520</ele>
        <time>2018-04-22T12:02:31Z</time>
      </trkpt>
      <trkpt lat="43.95545" lon="7.38091">
        <ele>1520</ele>
        <time>2018-04-22T12:02:47Z</time>
      </trkpt>
      <trkpt lat="43.95541" lon="7.38095">
        <ele>1573</ele>
        <time>2018-04-22T12:02:47Z</time>
      </trkpt>
      <trkpt lat="43.95538" lon="7.38097">
        <ele>1573</ele>
        <time>2018-04-22T12:02:47Z</time>
      </trkpt>
      <trkpt lat="43.95534" lon="7.38102">
        <ele>1573</ele>
        <time>2018-04-22T12:02:47Z</time>
      </trkpt>
      <trkpt lat="43.95525" lon="7.38113">
        <ele>1573</ele>
        <time>2018-04-22T12:03:19Z</time>
      </trkpt>
      <trkpt lat="43.95524" lon="7.38114">
        <ele>1573</ele>
        <time>2018-04-22T12:03:19Z</time>
      </trkpt>
      <trkpt lat="43.95523" lon="7.38114">
        <ele>1573</ele>
        <time>2018-04-22T12:03:19Z</time>
      </trkpt>
      <trkpt lat="43.95523" lon="7.38115">
        <ele>1573</ele>
        <time>2018-04-22T12:03:19Z</time>
      </trkpt>
      <trkpt lat="43.95523" lon="7.38116">
        <ele>1573</ele>
        <time>2018-04-22T12:03:19Z</time>
      </trkpt>
      <trkpt lat="43.95522" lon="7.38119">
        <ele>1573</ele>
        <time>2018-04-22T12:03:39Z</time>
      </trkpt>
      <trkpt lat="43.9552" lon="7.38121">
        <ele>1573</ele>
        <time>2018-04-22T12:03:39Z</time>
      </trkpt>
      <trkpt lat="43.95517" lon="7.38125">
        <ele>1557</ele>
        <time>2018-04-22T12:03:39Z</time>
      </trkpt>
      <trkpt lat="43.95516" lon="7.38127">
        <ele>1557</ele>
        <time>2018-04-22T12:03:39Z</time>
      </trkpt>
      <trkpt lat="43.95514" lon="7.38129">
        <ele>1557</ele>
        <time>2018-04-22T12:03:39Z</time>
      </trkpt>
      <trkpt lat="43.95513" lon="7.38131">
        <ele>1557</ele>
        <time>2018-04-22T12:03:59Z</time>
      </trkpt>
      <trkpt lat="43.9551" lon="7.38134">
        <ele>1557</ele>
        <time>2018-04-22T12:03:59Z</time>
      </trkpt>
      <trkpt lat="43.9551" lon="7.38134">
        <ele>1557</ele>
        <time>2018-04-22T12:03:59Z</time>
      </trkpt>
      <trkpt lat="43.95507" lon="7.38137">
        <ele>1557</ele>
        <time>2018-04-22T12:03:59Z</time>
      </trkpt>
      <trkpt lat="43.95505" lon="7.38139">
        <ele>1557</ele>
        <time>2018-04-22T12:03:59Z</time>
      </trkpt>
      <trkpt lat="43.95504" lon="7.38142">
        <ele>1557</ele>
        <time>2018-04-22T12:04:19Z</time>
      </trkpt>
      <trkpt lat="43.95503" lon="7.38144">
        <ele>1557</ele>
        <time>2018-04-22T12:04:19Z</time>
      </trkpt>
      <trkpt lat="43.95501" lon="7.38146">
        <ele>1557</ele>
        <time>2018-04-22T12:04:19Z</time>
      </trkpt>
      <trkpt lat="43.95498" lon="7.38148">
        <ele>1557</ele>
        <time>2018-04-22T12:04:19Z</time>
      </trkpt>
      <trkpt lat="43.95493" lon="7.38152">
        <ele>1557</ele>
        <time>2018-04-22T12:04:19Z</time>
      </trkpt>
      <trkpt lat="43.95493" lon="7.38154">
        <ele>1557</ele>
        <time>2018-04-22T12:04:35Z</time>
      </trkpt>
      <trkpt lat="43.95493" lon="7.38161">
        <ele>1557</ele>
        <time>2018-04-22T12:04:35Z</time>
      </trkpt>
      <trkpt lat="43.95493" lon="7.38164">
        <ele>1557</ele>
        <time>2018-04-22T12:04:35Z</time>
      </trkpt>
      <trkpt lat="43.95494" lon="7.38167">
        <ele>1557</ele>
        <time>2018-04-22T12:04:35Z</time>
      </trkpt>
      <trkpt lat="43.95493" lon="7.38169">
        <ele>1557</ele>
        <time>2018-04-22T12:04:51Z</time>
      </trkpt>
      <trkpt lat="43.95493" lon="7.38174">
        <ele>1557</ele>
        <time>2018-04-22T12:04:51Z</time>
      </trkpt>
      <trkpt lat="43.95492" lon="7.38179">
        <ele>1557</ele>
        <time>2018-04-22T12:04:51Z</time>
      </trkpt>
      <trkpt lat="43.9549" lon="7.38184">
        <ele>1557</ele>
        <time>2018-04-22T12:04:51Z</time>
      </trkpt>
      <trkpt lat="43.95488" lon="7.3819">
        <ele>1557</ele>
        <time>2018-04-22T12:05:07Z</time>
      </trkpt>
      <trkpt lat="43.95486" lon="7.38193">
        <ele>1557</ele>
        <time>2018-04-22T12:05:07Z</time>
      </trkpt>
      <trkpt lat="43.95483" lon="7.38196">
        <ele>1557</ele>
        <time>2018-04-22T12:05:07Z</time>
      </trkpt>
      <trkpt lat="43.9548" lon="7.38198">
        <ele>1557</ele>
        <time>2018-04-22T12:05:07Z</time>
      </trkpt>
      <trkpt lat="43.95478" lon="7.38201">
        <ele>1557</ele>
        <time>2018-04-22T12:05:23Z</time>
      </trkpt>
      <trkpt lat="43.95476" lon="7.38206">
        <ele>1557</ele>
        <time>2018-04-22T12:05:23Z</time>
      </trkpt>
      <trkpt lat="43.95474" lon="7.38208">
        <ele>1557</ele>
        <time>2018-04-22T12:05:23Z</time>
      </trkpt>
      <trkpt lat="43.95472" lon="7.3821">
        <ele>1542</ele>
        <time>2018-04-22T12:05:23Z</time>
      </trkpt>
      <trkpt lat="43.95469" lon="7.38214">
        <ele>1542</ele>
        <time>2018-04-22T12:05:39Z</time>
      </trkpt>
      <trkpt lat="43.95466" lon="7.38217">
        <ele>1542</ele>
        <time>2018-04-22T12:05:39Z</time>
      </trkpt>
      <trkpt lat="43.95462" lon="7.38221">
        <ele>1542</ele>
        <time>2018-04-22T12:05:39Z</time>
      </trkpt>
      <trkpt lat="43.95459" lon="7.38223">
        <ele>1542</ele>
        <time>2018-04-22T12:05:39Z</time>
      </trkpt>
      <trkpt lat="43.95458" lon="7.38224">
        <ele>1563</ele>
        <time>2018-04-22T12:05:59Z</time>
      </trkpt>
      <trkpt lat="43.95456" lon="7.38227">
        <ele>1563</ele>
        <time>2018-04-22T12:05:59Z</time>
      </trkpt>
      <trkpt lat="43.95454" lon="7.38229">
        <ele>1563</ele>
        <time>2018-04-22T12:05:59Z</time>
      </trkpt>
      <trkpt lat="43.95451" lon="7.38232">
        <ele>1563</ele>
        <time>2018-04-22T12:05:59Z</time>
      </trkpt>
      <trkpt lat="43.95447" lon="7.38236">
        <ele>1563</ele>
        <time>2018-04-22T12:05:59Z</time>
      </trkpt>
      <trkpt lat="43.95445" lon="7.38239">
        <ele>1563</ele>
        <time>2018-04-22T12:06:19Z</time>
      </trkpt>
      <trkpt lat="43.95442" lon="7.38243">
        <ele>1563</ele>
        <time>2018-04-22T12:06:19Z</time>
      </trkpt>
      <trkpt lat="43.9544" lon="7.38244">
        <ele>1563</ele>
        <time>2018-04-22T12:06:19Z</time>
      </trkpt>
      <trkpt lat="43.95438" lon="7.38247">
        <ele>1563</ele>
        <time>2018-04-22T12:06:19Z</time>
      </trkpt>
      <trkpt lat="43.95433" lon="7.38254">
        <ele>1563</ele>
        <time>2018-04-22T12:06:19Z</time>
      </trkpt>
      <trkpt lat="43.95428" lon="7.38261">
        <ele>1563</ele>
        <time>2018-04-22T12:06:43Z</time>
      </trkpt>
      <trkpt lat="43.95427" lon="7.38263">
        <ele>1563</ele>
        <time>2018-04-22T12:06:43Z</time>
      </trkpt>
      <trkpt lat="43.95426" lon="7.38264">
        <ele>1563</ele>
        <time>2018-04-22T12:06:43Z</time>
      </trkpt>
      <trkpt lat="43.95424" lon="7.38265">
        <ele>1563</ele>
        <time>2018-04-22T12:06:43Z</time>
      </trkpt>
      <trkpt lat="43.9542" lon="7.38269">
        <ele>1563</ele>
        <time>2018-04-22T12:06:43Z</time>
      </trkpt>
      <trkpt lat="43.95416" lon="7.38273">
        <ele>1563</ele>
        <time>2018-04-22T12:06:59Z</time>
      </trkpt>
      <trkpt lat="43.95413" lon="7.38275">
        <ele>1563</ele>
        <time>2018-04-22T12:06:59Z</time>
      </trkpt>
      <trkpt lat="43.95411" lon="7.38277">
        <ele>1563</ele>
        <time>2018-04-22T12:06:59Z</time>
      </trkpt>
      <trkpt lat="43.95408" lon="7.38278">
        <ele>1563</ele>
        <time>2018-04-22T12:06:59Z</time>
      </trkpt>
      <trkpt lat="43.95406" lon="7.38273">
        <ele>1563</ele>
        <time>2018-04-22T12:08:35Z</time>
      </trkpt>
      <trkpt lat="43.95406" lon="7.38273">
        <ele>1563</ele>
        <time>2018-04-22T12:08:35Z</time>
      </trkpt>
      <trkpt lat="43.95407" lon="7.38269">
        <ele>1563</ele>
        <time>2018-04-22T12:08:35Z</time>
      </trkpt>
      <trkpt lat="43.95407" lon="7.38264">
        <ele>1563</ele>
        <time>2018-04-22T12:08:35Z</time>
      </trkpt>
      <trkpt lat="43.95407" lon="7.38259">
        <ele>1563</ele>
        <time>2018-04-22T12:08:35Z</time>
      </trkpt>
      <trkpt lat="43.95409" lon="7.38249">
        <ele>1563</ele>
        <time>2018-04-22T12:08:51Z</time>
      </trkpt>
      <trkpt lat="43.95411" lon="7.38242">
        <ele>1563</ele>
        <time>2018-04-22T12:08:51Z</time>
      </trkpt>
      <trkpt lat="43.95413" lon="7.38238">
        <ele>1563</ele>
        <time>2018-04-22T12:08:51Z</time>
      </trkpt>
      <trkpt lat="43.95416" lon="7.38234">
        <ele>1563</ele>
        <time>2018-04-22T12:08:51Z</time>
      </trkpt>
      <trkpt lat="43.95419" lon="7.38229">
        <ele>1563</ele>
        <time>2018-04-22T12:09:07Z</time>
      </trkpt>
      <trkpt lat="43.95422" lon="7.38222">
        <ele>1563</ele>
        <time>2018-04-22T12:09:07Z</time>
      </trkpt>
      <trkpt lat="43.95424" lon="7.38219">
        <ele>1563</ele>
        <time>2018-04-22T12:09:07Z</time>
      </trkpt>
      <trkpt lat="43.95425" lon="7.38215">
        <ele>1563</ele>
        <time>2018-04-22T12:09:07Z</time>
      </trkpt>
      <trkpt lat="43.95426" lon="7.3821">
        <ele>1563</ele>
        <time>2018-04-22T12:09:27Z</time>
      </trkpt>
      <trkpt lat="43.95426" lon="7.38207">
        <ele>1563</ele>
        <time>2018-04-22T12:09:27Z</time>
      </trkpt>
      <trkpt lat="43.95427" lon="7.38205">
        <ele>1563</ele>
        <time>2018-04-22T12:09:27Z</time>
      </trkpt>
      <trkpt lat="43.95428" lon="7.38202">
        <ele>1563</ele>
        <time>2018-04-22T12:09:27Z</time>
      </trkpt>
      <trkpt lat="43.95428" lon="7.38197">
        <ele>1563</ele>
        <time>2018-04-22T12:09:27Z</time>
      </trkpt>
      <trkpt lat="43.95429" lon="7.38194">
        <ele>1563</ele>
        <time>2018-04-22T12:09:47Z</time>
      </trkpt>
      <trkpt lat="43.9543" lon="7.3819">
        <ele>1563</ele>
        <time>2018-04-22T12:09:47Z</time>
      </trkpt>
      <trkpt lat="43.9543" lon="7.38186">
        <ele>1563</ele>
        <time>2018-04-22T12:09:47Z</time>
      </trkpt>
      <trkpt lat="43.95431" lon="7.38183">
        <ele>1563</ele>
        <time>2018-04-22T12:09:47Z</time>
      </trkpt>
      <trkpt lat="43.95431" lon="7.3818">
        <ele>1563</ele>
        <time>2018-04-22T12:09:47Z</time>
      </trkpt>
      <trkpt lat="43.95431" lon="7.38175">
        <ele>1563</ele>
        <time>2018-04-22T12:10:07Z</time>
      </trkpt>
      <trkpt lat="43.95432" lon="7.38172">
        <ele>1563</ele>
        <time>2018-04-22T12:10:07Z</time>
      </trkpt>
      <trkpt lat="43.95433" lon="7.38167">
        <ele>1563</ele>
        <time>2018-04-22T12:10:07Z</time>
      </trkpt>
      <trkpt lat="43.95433" lon="7.38166">
        <ele>1563</ele>
        <time>2018-04-22T12:10:07Z</time>
      </trkpt>
      <trkpt lat="43.95434" lon="7.38161">
        <ele>1563</ele>
        <time>2018-04-22T12:10:07Z</time>
      </trkpt>
      <trkpt lat="43.95435" lon="7.38155">
        <ele>1563</ele>
        <time>2018-04-22T12:10:23Z</time>
      </trkpt>
      <trkpt lat="43.95435" lon="7.38151">
        <ele>1563</ele>
        <time>2018-04-22T12:10:23Z</time>
      </trkpt>
      <trkpt lat="43.95435" lon="7.38147">
        <ele>1563</ele>
        <time>2018-04-22T12:10:23Z</time>
      </trkpt>
      <trkpt lat="43.95436" lon="7.38142">
        <ele>1563</ele>
        <time>2018-04-22T12:10:23Z</time>
      </trkpt>
      <trkpt lat="43.95437" lon="7.38134">
        <ele>1563</ele>
        <time>2018-04-22T12:10:47Z</time>
      </trkpt>
      <trkpt lat="43.95438" lon="7.38131">
        <ele>1563</ele>
        <time>2018-04-22T12:10:47Z</time>
      </trkpt>
      <trkpt lat="43.95439" lon="7.38129">
        <ele>1563</ele>
        <time>2018-04-22T12:10:47Z</time>
      </trkpt>
      <trkpt lat="43.95439" lon="7.38126">
        <ele>1563</ele>
        <time>2018-04-22T12:10:47Z</time>
      </trkpt>
      <trkpt lat="43.9544" lon="7.38123">
        <ele>1556</ele>
        <time>2018-04-22T12:10:47Z</time>
      </trkpt>
      <trkpt lat="43.95441" lon="7.38116">
        <ele>1556</ele>
        <time>2018-04-22T12:11:03Z</time>
      </trkpt>
      <trkpt lat="43.95442" lon="7.3811">
        <ele>1556</ele>
        <time>2018-04-22T12:11:03Z</time>
      </trkpt>
      <trkpt lat="43.95442" lon="7.38106">
        <ele>1556</ele>
        <time>2018-04-22T12:11:03Z</time>
      </trkpt>
      <trkpt lat="43.95442" lon="7.38104">
        <ele>1556</ele>
        <time>2018-04-22T12:11:03Z</time>
      </trkpt>
      <trkpt lat="43.95442" lon="7.38102">
        <ele>1556</ele>
        <time>2018-04-22T12:11:19Z</time>
      </trkpt>
      <trkpt lat="43.95443" lon="7.38097">
        <ele>1556</ele>
        <time>2018-04-22T12:11:19Z</time>
      </trkpt>
      <trkpt lat="43.95443" lon="7.38091">
        <ele>1556</ele>
        <time>2018-04-22T12:11:19Z</time>
      </trkpt>
      <trkpt lat="43.95446" lon="7.38085">
        <ele>1556</ele>
        <time>2018-04-22T12:11:19Z</time>
      </trkpt>
      <trkpt lat="43.95448" lon="7.38079">
        <ele>1556</ele>
        <time>2018-04-22T12:11:43Z</time>
      </trkpt>
      <trkpt lat="43.95448" lon="7.38077">
        <ele>1556</ele>
        <time>2018-04-22T12:11:43Z</time>
      </trkpt>
      <trkpt lat="43.95447" lon="7.38077">
        <ele>1556</ele>
        <time>2018-04-22T12:11:43Z</time>
      </trkpt>
      <trkpt lat="43.95448" lon="7.38072">
        <ele>1556</ele>
        <time>2018-04-22T12:11:43Z</time>
      </trkpt>
      <trkpt lat="43.9545" lon="7.38067">
        <ele>1556</ele>
        <time>2018-04-22T12:11:43Z</time>
      </trkpt>
      <trkpt lat="43.95452" lon="7.38063">
        <ele>1556</ele>
        <time>2018-04-22T12:12:03Z</time>
      </trkpt>
      <trkpt lat="43.95454" lon="7.38059">
        <ele>1556</ele>
        <time>2018-04-22T12:12:03Z</time>
      </trkpt>
      <trkpt lat="43.95455" lon="7.38057">
        <ele>1556</ele>
        <time>2018-04-22T12:12:03Z</time>
      </trkpt>
      <trkpt lat="43.95455" lon="7.38053">
        <ele>1556</ele>
        <time>2018-04-22T12:12:03Z</time>
      </trkpt>
      <trkpt lat="43.95457" lon="7.38049">
        <ele>1556</ele>
        <time>2018-04-22T12:12:03Z</time>
      </trkpt>
      <trkpt lat="43.95457" lon="7.38042">
        <ele>1556</ele>
        <time>2018-04-22T12:12:27Z</time>
      </trkpt>
      <trkpt lat="43.95458" lon="7.38039">
        <ele>1561</ele>
        <time>2018-04-22T12:12:27Z</time>
      </trkpt>
      <trkpt lat="43.95459" lon="7.38038">
        <ele>1593</ele>
        <time>2018-04-22T12:12:27Z</time>
      </trkpt>
      <trkpt lat="43.9546" lon="7.38033">
        <ele>1593</ele>
        <time>2018-04-22T12:12:27Z</time>
      </trkpt>
      <trkpt lat="43.95462" lon="7.38025">
        <ele>1593</ele>
        <time>2018-04-22T12:12:27Z</time>
      </trkpt>
      <trkpt lat="43.95467" lon="7.38014">
        <ele>1593</ele>
        <time>2018-04-22T12:13:03Z</time>
      </trkpt>
      <trkpt lat="43.95468" lon="7.38011">
        <ele>1593</ele>
        <time>2018-04-22T12:13:03Z</time>
      </trkpt>
      <trkpt lat="43.95469" lon="7.38004">
        <ele>1593</ele>
        <time>2018-04-22T12:13:03Z</time>
      </trkpt>
      <trkpt lat="43.95469" lon="7.37997">
        <ele>1593</ele>
        <time>2018-04-22T12:13:03Z</time>
      </trkpt>
      <trkpt lat="43.95468" lon="7.37992">
        <ele>1593</ele>
        <time>2018-04-22T12:13:03Z</time>
      </trkpt>
      <trkpt lat="43.95468" lon="7.37988">
        <ele>1593</ele>
        <time>2018-04-22T12:13:23Z</time>
      </trkpt>
      <trkpt lat="43.95468" lon="7.37984">
        <ele>1593</ele>
        <time>2018-04-22T12:13:23Z</time>
      </trkpt>
      <trkpt lat="43.95469" lon="7.3798">
        <ele>1593</ele>
        <time>2018-04-22T12:13:23Z</time>
      </trkpt>
      <trkpt lat="43.95468" lon="7.37977">
        <ele>1593</ele>
        <time>2018-04-22T12:13:23Z</time>
      </trkpt>
      <trkpt lat="43.95471" lon="7.37971">
        <ele>1593</ele>
        <time>2018-04-22T12:13:23Z</time>
      </trkpt>
      <trkpt lat="43.9547" lon="7.37963">
        <ele>1593</ele>
        <time>2018-04-22T12:13:43Z</time>
      </trkpt>
      <trkpt lat="43.95472" lon="7.37958">
        <ele>1593</ele>
        <time>2018-04-22T12:13:43Z</time>
      </trkpt>
      <trkpt lat="43.95472" lon="7.37958">
        <ele>1605</ele>
        <time>2018-04-22T12:13:43Z</time>
      </trkpt>
      <trkpt lat="43.95473" lon="7.37955">
        <ele>1605</ele>
        <time>2018-04-22T12:13:43Z</time>
      </trkpt>
      <trkpt lat="43.95475" lon="7.37949">
        <ele>1605</ele>
        <time>2018-04-22T12:13:43Z</time>
      </trkpt>
      <trkpt lat="43.95478" lon="7.37945">
        <ele>1605</ele>
        <time>2018-04-22T12:13:59Z</time>
      </trkpt>
      <trkpt lat="43.95479" lon="7.37942">
        <ele>1605</ele>
        <time>2018-04-22T12:13:59Z</time>
      </trkpt>
      <trkpt lat="43.9548" lon="7.37933">
        <ele>1605</ele>
        <time>2018-04-22T12:13:59Z</time>
      </trkpt>
      <trkpt lat="43.95479" lon="7.37926">
        <ele>1605</ele>
        <time>2018-04-22T12:13:59Z</time>
      </trkpt>
      <trkpt lat="43.95478" lon="7.3792">
        <ele>1605</ele>
        <time>2018-04-22T12:14:15Z</time>
      </trkpt>
      <trkpt lat="43.95475" lon="7.37919">
        <ele>1605</ele>
        <time>2018-04-22T12:14:15Z</time>
      </trkpt>
      <trkpt lat="43.95471" lon="7.37914">
        <ele>1605</ele>
        <time>2018-04-22T12:14:15Z</time>
      </trkpt>
      <trkpt lat="43.95469" lon="7.37912">
        <ele>1605</ele>
        <time>2018-04-22T12:14:15Z</time>
      </trkpt>
      <trkpt lat="43.95465" lon="7.37913">
        <ele>1605</ele>
        <time>2018-04-22T12:14:31Z</time>
      </trkpt>
      <trkpt lat="43.95458" lon="7.37911">
        <ele>1584</ele>
        <time>2018-04-22T12:14:31Z</time>
      </trkpt>
      <trkpt lat="43.95457" lon="7.37916">
        <ele>1584</ele>
        <time>2018-04-22T12:14:31Z</time>
      </trkpt>
      <trkpt lat="43.95453" lon="7.37913">
        <ele>1584</ele>
        <time>2018-04-22T12:14:31Z</time>
      </trkpt>
      <trkpt lat="43.95446" lon="7.37913">
        <ele>1584</ele>
        <time>2018-04-22T12:15:39Z</time>
      </trkpt>
      <trkpt lat="43.95446" lon="7.37919">
        <ele>1584</ele>
        <time>2018-04-22T12:15:39Z</time>
      </trkpt>
      <trkpt lat="43.95448" lon="7.37924">
        <ele>1584</ele>
        <time>2018-04-22T12:15:39Z</time>
      </trkpt>
      <trkpt lat="43.95449" lon="7.37927">
        <ele>1584</ele>
        <time>2018-04-22T12:15:39Z</time>
      </trkpt>
      <trkpt lat="43.95451" lon="7.3793">
        <ele>1584</ele>
        <time>2018-04-22T12:15:39Z</time>
      </trkpt>
      <trkpt lat="43.95459" lon="7.37943">
        <ele>1605</ele>
        <time>2018-04-22T12:16:51Z</time>
      </trkpt>
      <trkpt lat="43.9546" lon="7.37944">
        <ele>1605</ele>
        <time>2018-04-22T12:16:51Z</time>
      </trkpt>
      <trkpt lat="43.9546" lon="7.37944">
        <ele>1605</ele>
        <time>2018-04-22T12:16:51Z</time>
      </trkpt>
      <trkpt lat="43.95461" lon="7.37944">
        <ele>1605</ele>
        <time>2018-04-22T12:16:51Z</time>
      </trkpt>
      <trkpt lat="43.95462" lon="7.37945">
        <ele>1605</ele>
        <time>2018-04-22T12:16:51Z</time>
      </trkpt>
      <trkpt lat="43.95468" lon="7.37938">
        <ele>1605</ele>
        <time>2018-04-22T12:32:27Z</time>
      </trkpt>
      <trkpt lat="43.95469" lon="7.37938">
        <ele>1605</ele>
        <time>2018-04-22T12:32:27Z</time>
      </trkpt>
      <trkpt lat="43.95469" lon="7.37938">
        <ele>1605</ele>
        <time>2018-04-22T12:32:27Z</time>
      </trkpt>
      <trkpt lat="43.95469" lon="7.37937">
        <ele>1605</ele>
        <time>2018-04-22T12:32:27Z</time>
      </trkpt>
      <trkpt lat="43.95469" lon="7.37936">
        <ele>1605</ele>
        <time>2018-04-22T12:32:27Z</time>
      </trkpt>
      <trkpt lat="43.95465" lon="7.37934">
        <ele>1605</ele>
        <time>2018-04-22T12:36:23Z</time>
      </trkpt>
      <trkpt lat="43.95464" lon="7.37935">
        <ele>1605</ele>
        <time>2018-04-22T12:36:23Z</time>
      </trkpt>
      <trkpt lat="43.95458" lon="7.37941">
        <ele>1584</ele>
        <time>2018-04-22T12:36:23Z</time>
      </trkpt>
      <trkpt lat="43.95456" lon="7.37949">
        <ele>1584</ele>
        <time>2018-04-22T12:36:23Z</time>
      </trkpt>
      <trkpt lat="43.95455" lon="7.37951">
        <ele>1584</ele>
        <time>2018-04-22T12:36:23Z</time>
      </trkpt>
      <trkpt lat="43.9546" lon="7.37942">
        <ele>1605</ele>
        <time>2018-04-22T12:39:31Z</time>
      </trkpt>
      <trkpt lat="43.9546" lon="7.37942">
        <ele>1605</ele>
        <time>2018-04-22T12:39:31Z</time>
      </trkpt>
      <trkpt lat="43.9546" lon="7.37941">
        <ele>1605</ele>
        <time>2018-04-22T12:39:31Z</time>
      </trkpt>
      <trkpt lat="43.9546" lon="7.37941">
        <ele>1605</ele>
        <time>2018-04-22T12:39:31Z</time>
      </trkpt>
      <trkpt lat="43.95461" lon="7.3794">
        <ele>1605</ele>
        <time>2018-04-22T12:39:31Z</time>
      </trkpt>
      <trkpt lat="43.95468" lon="7.37946">
        <ele>1605</ele>
        <time>2018-04-22T12:50:19Z</time>
      </trkpt>
      <trkpt lat="43.95468" lon="7.37946">
        <ele>1605</ele>
        <time>2018-04-22T12:50:19Z</time>
      </trkpt>
      <trkpt lat="43.95468" lon="7.37946">
        <ele>1605</ele>
        <time>2018-04-22T12:50:19Z</time>
      </trkpt>
      <trkpt lat="43.95469" lon="7.37945">
        <ele>1605</ele>
        <time>2018-04-22T12:50:19Z</time>
      </trkpt>
      <trkpt lat="43.95469" lon="7.37945">
        <ele>1605</ele>
        <time>2018-04-22T12:50:19Z</time>
      </trkpt>
      <trkpt lat="43.95467" lon="7.37934">
        <ele>1605</ele>
        <time>2018-04-22T12:52:55Z</time>
      </trkpt>
      <trkpt lat="43.95467" lon="7.37934">
        <ele>1605</ele>
        <time>2018-04-22T12:52:55Z</time>
      </trkpt>
      <trkpt lat="43.95467" lon="7.37934">
        <ele>1605</ele>
        <time>2018-04-22T12:52:55Z</time>
      </trkpt>
      <trkpt lat="43.95467" lon="7.37933">
        <ele>1605</ele>
        <time>2018-04-22T12:52:55Z</time>
      </trkpt>
      <trkpt lat="43.95467" lon="7.37933">
        <ele>1605</ele>
        <time>2018-04-22T12:52:55Z</time>
      </trkpt>
      <trkpt lat="43.95459" lon="7.37938">
        <ele>1605</ele>
        <time>2018-04-22T12:58:35Z</time>
      </trkpt>
      <trkpt lat="43.95459" lon="7.37938">
        <ele>1605</ele>
        <time>2018-04-22T12:58:35Z</time>
      </trkpt>
      <trkpt lat="43.95459" lon="7.37939">
        <ele>1605</ele>
        <time>2018-04-22T12:58:35Z</time>
      </trkpt>
      <trkpt lat="43.95459" lon="7.37939">
        <ele>1605</ele>
        <time>2018-04-22T12:58:35Z</time>
      </trkpt>
      <trkpt lat="43.95459" lon="7.37939">
        <ele>1605</ele>
        <time>2018-04-22T12:58:35Z</time>
      </trkpt>
      <trkpt lat="43.95462" lon="7.37941">
        <ele>1605</ele>
        <time>2018-04-22T12:59:27Z</time>
      </trkpt>
      <trkpt lat="43.95463" lon="7.37941">
        <ele>1605</ele>
        <time>2018-04-22T12:59:27Z</time>
      </trkpt>
      <trkpt lat="43.95464" lon="7.37943">
        <ele>1605</ele>
        <time>2018-04-22T12:59:27Z</time>
      </trkpt>
      <trkpt lat="43.95466" lon="7.37944">
        <ele>1605</ele>
        <time>2018-04-22T12:59:27Z</time>
      </trkpt>
      <trkpt lat="43.95467" lon="7.37945">
        <ele>1605</ele>
        <time>2018-04-22T12:59:27Z</time>
      </trkpt>
      <trkpt lat="43.95462" lon="7.37939">
        <ele>1605</ele>
        <time>2018-04-22T13:02:39Z</time>
      </trkpt>
      <trkpt lat="43.95462" lon="7.37939">
        <ele>1605</ele>
        <time>2018-04-22T13:02:39Z</time>
      </trkpt>
      <trkpt lat="43.95462" lon="7.37939">
        <ele>1605</ele>
        <time>2018-04-22T13:02:39Z</time>
      </trkpt>
      <trkpt lat="43.95461" lon="7.37938">
        <ele>1605</ele>
        <time>2018-04-22T13:02:39Z</time>
      </trkpt>
      <trkpt lat="43.95461" lon="7.37938">
        <ele>1605</ele>
        <time>2018-04-22T13:02:39Z</time>
      </trkpt>
      <trkpt lat="43.95456" lon="7.37929">
        <ele>1584</ele>
        <time>2018-04-22T13:22:47Z</time>
      </trkpt>
      <trkpt lat="43.95455" lon="7.37928">
        <ele>1584</ele>
        <time>2018-04-22T13:22:47Z</time>
      </trkpt>
      <trkpt lat="43.95455" lon="7.37928">
        <ele>1584</ele>
        <time>2018-04-22T13:22:47Z</time>
      </trkpt>
      <trkpt lat="43.95455" lon="7.37928">
        <ele>1584</ele>
        <time>2018-04-22T13:22:47Z</time>
      </trkpt>
      <trkpt lat="43.95455" lon="7.37927">
        <ele>1584</ele>
        <time>2018-04-22T13:22:47Z</time>
      </trkpt>
      <trkpt lat="43.95461" lon="7.37932">
        <ele>1605</ele>
        <time>2018-04-22T13:54:19Z</time>
      </trkpt>
      <trkpt lat="43.95462" lon="7.37932">
        <ele>1605</ele>
        <time>2018-04-22T13:54:19Z</time>
      </trkpt>
      <trkpt lat="43.95462" lon="7.37932">
        <ele>1605</ele>
        <time>2018-04-22T13:54:19Z</time>
      </trkpt>
      <trkpt lat="43.95462" lon="7.37933">
        <ele>1605</ele>
        <time>2018-04-22T13:54:19Z</time>
      </trkpt>
      <trkpt lat="43.95463" lon="7.37933">
        <ele>1605</ele>
        <time>2018-04-22T13:54:19Z</time>
      </trkpt>
      <trkpt lat="43.9546" lon="7.37936">
        <ele>1605</ele>
        <time>2018-04-22T13:56:11Z</time>
      </trkpt>
      <trkpt lat="43.95459" lon="7.37936">
        <ele>1605</ele>
        <time>2018-04-22T13:56:11Z</time>
      </trkpt>
      <trkpt lat="43.95459" lon="7.37939">
        <ele>1605</ele>
        <time>2018-04-22T13:56:11Z</time>
      </trkpt>
      <trkpt lat="43.95458" lon="7.37943">
        <ele>1584</ele>
        <time>2018-04-22T13:56:11Z</time>
      </trkpt>
      <trkpt lat="43.95457" lon="7.37944">
        <ele>1584</ele>
        <time>2018-04-22T13:56:11Z</time>
      </trkpt>
      <trkpt lat="43.95458" lon="7.37937">
        <ele>1584</ele>
        <time>2018-04-22T13:58:47Z</time>
      </trkpt>
      <trkpt lat="43.95458" lon="7.37936">
        <ele>1584</ele>
        <time>2018-04-22T13:58:47Z</time>
      </trkpt>
      <trkpt lat="43.9546" lon="7.37932">
        <ele>1605</ele>
        <time>2018-04-22T13:58:47Z</time>
      </trkpt>
      <trkpt lat="43.9546" lon="7.37929">
        <ele>1605</ele>
        <time>2018-04-22T13:58:47Z</time>
      </trkpt>
      <trkpt lat="43.95458" lon="7.37924">
        <ele>1584</ele>
        <time>2018-04-22T13:58:47Z</time>
      </trkpt>
      <trkpt lat="43.95456" lon="7.37917">
        <ele>1584</ele>
        <time>2018-04-22T13:59:03Z</time>
      </trkpt>
      <trkpt lat="43.95454" lon="7.37912">
        <ele>1584</ele>
        <time>2018-04-22T13:59:03Z</time>
      </trkpt>
      <trkpt lat="43.95452" lon="7.37908">
        <ele>1584</ele>
        <time>2018-04-22T13:59:03Z</time>
      </trkpt>
      <trkpt lat="43.95451" lon="7.37904">
        <ele>1584</ele>
        <time>2018-04-22T13:59:03Z</time>
      </trkpt>
      <trkpt lat="43.95448" lon="7.37901">
        <ele>1584</ele>
        <time>2018-04-22T13:59:19Z</time>
      </trkpt>
      <trkpt lat="43.95448" lon="7.37896">
        <ele>1584</ele>
        <time>2018-04-22T13:59:19Z</time>
      </trkpt>
      <trkpt lat="43.95447" lon="7.37893">
        <ele>1584</ele>
        <time>2018-04-22T13:59:19Z</time>
      </trkpt>
      <trkpt lat="43.95445" lon="7.37889">
        <ele>1584</ele>
        <time>2018-04-22T13:59:19Z</time>
      </trkpt>
      <trkpt lat="43.95439" lon="7.37883">
        <ele>1584</ele>
        <time>2018-04-22T13:59:39Z</time>
      </trkpt>
      <trkpt lat="43.95436" lon="7.37881">
        <ele>1584</ele>
        <time>2018-04-22T13:59:39Z</time>
      </trkpt>
      <trkpt lat="43.95435" lon="7.37877">
        <ele>1584</ele>
        <time>2018-04-22T13:59:39Z</time>
      </trkpt>
      <trkpt lat="43.95434" lon="7.37874">
        <ele>1613</ele>
        <time>2018-04-22T13:59:39Z</time>
      </trkpt>
      <trkpt lat="43.95433" lon="7.37871">
        <ele>1613</ele>
        <time>2018-04-22T13:59:39Z</time>
      </trkpt>
      <trkpt lat="43.9543" lon="7.37867">
        <ele>1613</ele>
        <time>2018-04-22T13:59:55Z</time>
      </trkpt>
      <trkpt lat="43.95423" lon="7.37864">
        <ele>1613</ele>
        <time>2018-04-22T13:59:55Z</time>
      </trkpt>
      <trkpt lat="43.9542" lon="7.37862">
        <ele>1613</ele>
        <time>2018-04-22T13:59:55Z</time>
      </trkpt>
      <trkpt lat="43.9542" lon="7.37859">
        <ele>1613</ele>
        <time>2018-04-22T13:59:55Z</time>
      </trkpt>
      <trkpt lat="43.95419" lon="7.37858">
        <ele>1613</ele>
        <time>2018-04-22T14:00:11Z</time>
      </trkpt>
      <trkpt lat="43.95416" lon="7.37856">
        <ele>1613</ele>
        <time>2018-04-22T14:00:11Z</time>
      </trkpt>
      <trkpt lat="43.95412" lon="7.37855">
        <ele>1613</ele>
        <time>2018-04-22T14:00:11Z</time>
      </trkpt>
      <trkpt lat="43.95411" lon="7.37853">
        <ele>1613</ele>
        <time>2018-04-22T14:00:11Z</time>
      </trkpt>
      <trkpt lat="43.95408" lon="7.3785">
        <ele>1613</ele>
        <time>2018-04-22T14:00:27Z</time>
      </trkpt>
      <trkpt lat="43.95404" lon="7.37845">
        <ele>1613</ele>
        <time>2018-04-22T14:00:27Z</time>
      </trkpt>
      <trkpt lat="43.95401" lon="7.3784">
        <ele>1613</ele>
        <time>2018-04-22T14:00:27Z</time>
      </trkpt>
      <trkpt lat="43.95397" lon="7.37835">
        <ele>1613</ele>
        <time>2018-04-22T14:00:27Z</time>
      </trkpt>
      <trkpt lat="43.95397" lon="7.37834">
        <ele>1613</ele>
        <time>2018-04-22T14:00:43Z</time>
      </trkpt>
      <trkpt lat="43.95395" lon="7.3783">
        <ele>1613</ele>
        <time>2018-04-22T14:00:43Z</time>
      </trkpt>
      <trkpt lat="43.95393" lon="7.37825">
        <ele>1613</ele>
        <time>2018-04-22T14:00:43Z</time>
      </trkpt>
      <trkpt lat="43.95392" lon="7.37822">
        <ele>1613</ele>
        <time>2018-04-22T14:00:43Z</time>
      </trkpt>
      <trkpt lat="43.95392" lon="7.37817">
        <ele>1613</ele>
        <time>2018-04-22T14:00:59Z</time>
      </trkpt>
      <trkpt lat="43.9539" lon="7.37809">
        <ele>1613</ele>
        <time>2018-04-22T14:00:59Z</time>
      </trkpt>
      <trkpt lat="43.95389" lon="7.37804">
        <ele>1613</ele>
        <time>2018-04-22T14:00:59Z</time>
      </trkpt>
      <trkpt lat="43.95388" lon="7.37802">
        <ele>1613</ele>
        <time>2018-04-22T14:00:59Z</time>
      </trkpt>
      <trkpt lat="43.95386" lon="7.37795">
        <ele>1613</ele>
        <time>2018-04-22T14:01:15Z</time>
      </trkpt>
      <trkpt lat="43.95385" lon="7.3779">
        <ele>1623</ele>
        <time>2018-04-22T14:01:15Z</time>
      </trkpt>
      <trkpt lat="43.9539" lon="7.37782">
        <ele>1623</ele>
        <time>2018-04-22T14:01:15Z</time>
      </trkpt>
      <trkpt lat="43.95394" lon="7.37782">
        <ele>1623</ele>
        <time>2018-04-22T14:01:15Z</time>
      </trkpt>
      <trkpt lat="43.95397" lon="7.37778">
        <ele>1623</ele>
        <time>2018-04-22T14:01:31Z</time>
      </trkpt>
      <trkpt lat="43.95399" lon="7.37774">
        <ele>1623</ele>
        <time>2018-04-22T14:01:31Z</time>
      </trkpt>
      <trkpt lat="43.954" lon="7.37769">
        <ele>1623</ele>
        <time>2018-04-22T14:01:31Z</time>
      </trkpt>
      <trkpt lat="43.95399" lon="7.37764">
        <ele>1623</ele>
        <time>2018-04-22T14:01:31Z</time>
      </trkpt>
      <trkpt lat="43.95398" lon="7.3776">
        <ele>1623</ele>
        <time>2018-04-22T14:01:55Z</time>
      </trkpt>
      <trkpt lat="43.95399" lon="7.37758">
        <ele>1623</ele>
        <time>2018-04-22T14:01:55Z</time>
      </trkpt>
      <trkpt lat="43.954" lon="7.37756">
        <ele>1623</ele>
        <time>2018-04-22T14:01:55Z</time>
      </trkpt>
      <trkpt lat="43.95399" lon="7.37755">
        <ele>1623</ele>
        <time>2018-04-22T14:01:55Z</time>
      </trkpt>
      <trkpt lat="43.95397" lon="7.3775">
        <ele>1623</ele>
        <time>2018-04-22T14:01:55Z</time>
      </trkpt>
      <trkpt lat="43.95394" lon="7.37747">
        <ele>1623</ele>
        <time>2018-04-22T14:02:11Z</time>
      </trkpt>
      <trkpt lat="43.95389" lon="7.37741">
        <ele>1623</ele>
        <time>2018-04-22T14:02:11Z</time>
      </trkpt>
      <trkpt lat="43.95385" lon="7.37738">
        <ele>1623</ele>
        <time>2018-04-22T14:02:11Z</time>
      </trkpt>
      <trkpt lat="43.95381" lon="7.37734">
        <ele>1623</ele>
        <time>2018-04-22T14:02:11Z</time>
      </trkpt>
      <trkpt lat="43.95377" lon="7.37729">
        <ele>1623</ele>
        <time>2018-04-22T14:02:27Z</time>
      </trkpt>
      <trkpt lat="43.95375" lon="7.37725">
        <ele>1565</ele>
        <time>2018-04-22T14:02:27Z</time>
      </trkpt>
      <trkpt lat="43.95372" lon="7.37719">
        <ele>1565</ele>
        <time>2018-04-22T14:02:27Z</time>
      </trkpt>
      <trkpt lat="43.9537" lon="7.37715">
        <ele>1565</ele>
        <time>2018-04-22T14:02:27Z</time>
      </trkpt>
      <trkpt lat="43.95368" lon="7.37711">
        <ele>1565</ele>
        <time>2018-04-22T14:02:43Z</time>
      </trkpt>
      <trkpt lat="43.95365" lon="7.37705">
        <ele>1603</ele>
        <time>2018-04-22T14:02:43Z</time>
      </trkpt>
      <trkpt lat="43.95363" lon="7.37699">
        <ele>1603</ele>
        <time>2018-04-22T14:02:43Z</time>
      </trkpt>
      <trkpt lat="43.95361" lon="7.37694">
        <ele>1603</ele>
        <time>2018-04-22T14:02:43Z</time>
      </trkpt>
      <trkpt lat="43.9536" lon="7.37688">
        <ele>1603</ele>
        <time>2018-04-22T14:03:03Z</time>
      </trkpt>
      <trkpt lat="43.95359" lon="7.37683">
        <ele>1603</ele>
        <time>2018-04-22T14:03:03Z</time>
      </trkpt>
      <trkpt lat="43.95359" lon="7.37679">
        <ele>1603</ele>
        <time>2018-04-22T14:03:03Z</time>
      </trkpt>
      <trkpt lat="43.9536" lon="7.37677">
        <ele>1603</ele>
        <time>2018-04-22T14:03:03Z</time>
      </trkpt>
      <trkpt lat="43.9536" lon="7.37671">
        <ele>1603</ele>
        <time>2018-04-22T14:03:03Z</time>
      </trkpt>
      <trkpt lat="43.95361" lon="7.37665">
        <ele>1603</ele>
        <time>2018-04-22T14:03:19Z</time>
      </trkpt>
      <trkpt lat="43.95361" lon="7.3766">
        <ele>1603</ele>
        <time>2018-04-22T14:03:19Z</time>
      </trkpt>
      <trkpt lat="43.95362" lon="7.37655">
        <ele>1603</ele>
        <time>2018-04-22T14:03:19Z</time>
      </trkpt>
      <trkpt lat="43.95363" lon="7.37649">
        <ele>1603</ele>
        <time>2018-04-22T14:03:19Z</time>
      </trkpt>
      <trkpt lat="43.95364" lon="7.37645">
        <ele>1603</ele>
        <time>2018-04-22T14:03:43Z</time>
      </trkpt>
      <trkpt lat="43.95364" lon="7.37641">
        <ele>1603</ele>
        <time>2018-04-22T14:03:43Z</time>
      </trkpt>
      <trkpt lat="43.95363" lon="7.37638">
        <ele>1603</ele>
        <time>2018-04-22T14:03:43Z</time>
      </trkpt>
      <trkpt lat="43.95361" lon="7.37635">
        <ele>1603</ele>
        <time>2018-04-22T14:03:43Z</time>
      </trkpt>
      <trkpt lat="43.95358" lon="7.37633">
        <ele>1603</ele>
        <time>2018-04-22T14:03:43Z</time>
      </trkpt>
      <trkpt lat="43.95355" lon="7.37631">
        <ele>1603</ele>
        <time>2018-04-22T14:04:03Z</time>
      </trkpt>
      <trkpt lat="43.95354" lon="7.37632">
        <ele>1603</ele>
        <time>2018-04-22T14:04:03Z</time>
      </trkpt>
      <trkpt lat="43.95352" lon="7.37631">
        <ele>1603</ele>
        <time>2018-04-22T14:04:03Z</time>
      </trkpt>
      <trkpt lat="43.95349" lon="7.37628">
        <ele>1603</ele>
        <time>2018-04-22T14:04:03Z</time>
      </trkpt>
      <trkpt lat="43.95347" lon="7.37625">
        <ele>1603</ele>
        <time>2018-04-22T14:04:03Z</time>
      </trkpt>
      <trkpt lat="43.95338" lon="7.37615">
        <ele>1636</ele>
        <time>2018-04-22T14:04:19Z</time>
      </trkpt>
      <trkpt lat="43.95333" lon="7.37612">
        <ele>1636</ele>
        <time>2018-04-22T14:04:19Z</time>
      </trkpt>
      <trkpt lat="43.9533" lon="7.37611">
        <ele>1636</ele>
        <time>2018-04-22T14:04:19Z</time>
      </trkpt>
      <trkpt lat="43.95327" lon="7.37609">
        <ele>1636</ele>
        <time>2018-04-22T14:04:19Z</time>
      </trkpt>
      <trkpt lat="43.95325" lon="7.37607">
        <ele>1636</ele>
        <time>2018-04-22T14:04:35Z</time>
      </trkpt>
      <trkpt lat="43.95323" lon="7.37605">
        <ele>1636</ele>
        <time>2018-04-22T14:04:35Z</time>
      </trkpt>
      <trkpt lat="43.9532" lon="7.37603">
        <ele>1636</ele>
        <time>2018-04-22T14:04:35Z</time>
      </trkpt>
      <trkpt lat="43.95316" lon="7.376">
        <ele>1636</ele>
        <time>2018-04-22T14:04:35Z</time>
      </trkpt>
      <trkpt lat="43.95312" lon="7.37598">
        <ele>1636</ele>
        <time>2018-04-22T14:04:51Z</time>
      </trkpt>
      <trkpt lat="43.95308" lon="7.37595">
        <ele>1636</ele>
        <time>2018-04-22T14:04:51Z</time>
      </trkpt>
      <trkpt lat="43.95305" lon="7.37592">
        <ele>1636</ele>
        <time>2018-04-22T14:04:51Z</time>
      </trkpt>
      <trkpt lat="43.95301" lon="7.37589">
        <ele>1636</ele>
        <time>2018-04-22T14:04:51Z</time>
      </trkpt>
      <trkpt lat="43.95298" lon="7.37586">
        <ele>1636</ele>
        <time>2018-04-22T14:05:07Z</time>
      </trkpt>
      <trkpt lat="43.95296" lon="7.37585">
        <ele>1636</ele>
        <time>2018-04-22T14:05:07Z</time>
      </trkpt>
      <trkpt lat="43.95292" lon="7.37582">
        <ele>1636</ele>
        <time>2018-04-22T14:05:07Z</time>
      </trkpt>
      <trkpt lat="43.95289" lon="7.3758">
        <ele>1593</ele>
        <time>2018-04-22T14:05:07Z</time>
      </trkpt>
      <trkpt lat="43.95285" lon="7.37577">
        <ele>1593</ele>
        <time>2018-04-22T14:05:23Z</time>
      </trkpt>
      <trkpt lat="43.95283" lon="7.37571">
        <ele>1593</ele>
        <time>2018-04-22T14:05:23Z</time>
      </trkpt>
      <trkpt lat="43.95281" lon="7.37567">
        <ele>1593</ele>
        <time>2018-04-22T14:05:23Z</time>
      </trkpt>
      <trkpt lat="43.9528" lon="7.37561">
        <ele>1593</ele>
        <time>2018-04-22T14:05:23Z</time>
      </trkpt>
      <trkpt lat="43.95278" lon="7.37556">
        <ele>1593</ele>
        <time>2018-04-22T14:05:39Z</time>
      </trkpt>
      <trkpt lat="43.95278" lon="7.37551">
        <ele>1593</ele>
        <time>2018-04-22T14:05:39Z</time>
      </trkpt>
      <trkpt lat="43.95277" lon="7.37545">
        <ele>1593</ele>
        <time>2018-04-22T14:05:39Z</time>
      </trkpt>
      <trkpt lat="43.95276" lon="7.37539">
        <ele>1622</ele>
        <time>2018-04-22T14:05:39Z</time>
      </trkpt>
      <trkpt lat="43.95274" lon="7.37534">
        <ele>1622</ele>
        <time>2018-04-22T14:05:59Z</time>
      </trkpt>
      <trkpt lat="43.95274" lon="7.37529">
        <ele>1622</ele>
        <time>2018-04-22T14:05:59Z</time>
      </trkpt>
      <trkpt lat="43.95273" lon="7.37524">
        <ele>1622</ele>
        <time>2018-04-22T14:05:59Z</time>
      </trkpt>
      <trkpt lat="43.95273" lon="7.37523">
        <ele>1622</ele>
        <time>2018-04-22T14:05:59Z</time>
      </trkpt>
      <trkpt lat="43.95272" lon="7.3752">
        <ele>1622</ele>
        <time>2018-04-22T14:05:59Z</time>
      </trkpt>
      <trkpt lat="43.95272" lon="7.37514">
        <ele>1622</ele>
        <time>2018-04-22T14:06:43Z</time>
      </trkpt>
      <trkpt lat="43.95271" lon="7.37512">
        <ele>1622</ele>
        <time>2018-04-22T14:06:43Z</time>
      </trkpt>
      <trkpt lat="43.9527" lon="7.37511">
        <ele>1622</ele>
        <time>2018-04-22T14:06:43Z</time>
      </trkpt>
      <trkpt lat="43.9527" lon="7.3751">
        <ele>1622</ele>
        <time>2018-04-22T14:06:43Z</time>
      </trkpt>
      <trkpt lat="43.95268" lon="7.37506">
        <ele>1622</ele>
        <time>2018-04-22T14:06:43Z</time>
      </trkpt>
      <trkpt lat="43.95261" lon="7.37497">
        <ele>1622</ele>
        <time>2018-04-22T14:06:59Z</time>
      </trkpt>
      <trkpt lat="43.95259" lon="7.37495">
        <ele>1622</ele>
        <time>2018-04-22T14:06:59Z</time>
      </trkpt>
      <trkpt lat="43.95258" lon="7.37493">
        <ele>1622</ele>
        <time>2018-04-22T14:06:59Z</time>
      </trkpt>
      <trkpt lat="43.95255" lon="7.37489">
        <ele>1622</ele>
        <time>2018-04-22T14:06:59Z</time>
      </trkpt>
      <trkpt lat="43.95252" lon="7.37485">
        <ele>1622</ele>
        <time>2018-04-22T14:07:15Z</time>
      </trkpt>
      <trkpt lat="43.9525" lon="7.37483">
        <ele>1622</ele>
        <time>2018-04-22T14:07:15Z</time>
      </trkpt>
      <trkpt lat="43.95243" lon="7.37477">
        <ele>1622</ele>
        <time>2018-04-22T14:07:15Z</time>
      </trkpt>
      <trkpt lat="43.95236" lon="7.37475">
        <ele>1622</ele>
        <time>2018-04-22T14:07:15Z</time>
      </trkpt>
      <trkpt lat="43.95233" lon="7.37476">
        <ele>1622</ele>
        <time>2018-04-22T14:07:31Z</time>
      </trkpt>
      <trkpt lat="43.95231" lon="7.37475">
        <ele>1622</ele>
        <time>2018-04-22T14:07:31Z</time>
      </trkpt>
      <trkpt lat="43.95228" lon="7.37473">
        <ele>1622</ele>
        <time>2018-04-22T14:07:31Z</time>
      </trkpt>
      <trkpt lat="43.9522" lon="7.37466">
        <ele>1622</ele>
        <time>2018-04-22T14:07:31Z</time>
      </trkpt>
      <trkpt lat="43.95215" lon="7.37458">
        <ele>1622</ele>
        <time>2018-04-22T14:07:47Z</time>
      </trkpt>
      <trkpt lat="43.95212" lon="7.37457">
        <ele>1650</ele>
        <time>2018-04-22T14:07:47Z</time>
      </trkpt>
      <trkpt lat="43.95208" lon="7.37452">
        <ele>1632</ele>
        <time>2018-04-22T14:07:47Z</time>
      </trkpt>
      <trkpt lat="43.95203" lon="7.37444">
        <ele>1632</ele>
        <time>2018-04-22T14:07:47Z</time>
      </trkpt>
      <trkpt lat="43.95192" lon="7.37437">
        <ele>1632</ele>
        <time>2018-04-22T14:08:31Z</time>
      </trkpt>
      <trkpt lat="43.95186" lon="7.37434">
        <ele>1632</ele>
        <time>2018-04-22T14:08:31Z</time>
      </trkpt>
      <trkpt lat="43.95182" lon="7.3743">
        <ele>1632</ele>
        <time>2018-04-22T14:08:31Z</time>
      </trkpt>
      <trkpt lat="43.95178" lon="7.37428">
        <ele>1632</ele>
        <time>2018-04-22T14:08:31Z</time>
      </trkpt>
      <trkpt lat="43.95174" lon="7.37427">
        <ele>1632</ele>
        <time>2018-04-22T14:08:31Z</time>
      </trkpt>
      <trkpt lat="43.95166" lon="7.37424">
        <ele>1632</ele>
        <time>2018-04-22T14:08:47Z</time>
      </trkpt>
      <trkpt lat="43.9516" lon="7.37422">
        <ele>1632</ele>
        <time>2018-04-22T14:08:47Z</time>
      </trkpt>
      <trkpt lat="43.95156" lon="7.37421">
        <ele>1632</ele>
        <time>2018-04-22T14:08:47Z</time>
      </trkpt>
      <trkpt lat="43.95153" lon="7.37421">
        <ele>1632</ele>
        <time>2018-04-22T14:08:47Z</time>
      </trkpt>
      <trkpt lat="43.95144" lon="7.37421">
        <ele>1632</ele>
        <time>2018-04-22T14:10:03Z</time>
      </trkpt>
      <trkpt lat="43.95144" lon="7.37421">
        <ele>1632</ele>
        <time>2018-04-22T14:10:03Z</time>
      </trkpt>
      <trkpt lat="43.95143" lon="7.3742">
        <ele>1632</ele>
        <time>2018-04-22T14:10:03Z</time>
      </trkpt>
      <trkpt lat="43.95142" lon="7.37419">
        <ele>1632</ele>
        <time>2018-04-22T14:10:03Z</time>
      </trkpt>
      <trkpt lat="43.95141" lon="7.37419">
        <ele>1632</ele>
        <time>2018-04-22T14:10:03Z</time>
      </trkpt>
      <trkpt lat="43.95139" lon="7.37418">
        <ele>1632</ele>
        <time>2018-04-22T14:10:43Z</time>
      </trkpt>
      <trkpt lat="43.95138" lon="7.37419">
        <ele>1632</ele>
        <time>2018-04-22T14:10:43Z</time>
      </trkpt>
      <trkpt lat="43.95138" lon="7.37418">
        <ele>1632</ele>
        <time>2018-04-22T14:10:43Z</time>
      </trkpt>
      <trkpt lat="43.95135" lon="7.37417">
        <ele>1632</ele>
        <time>2018-04-22T14:10:43Z</time>
      </trkpt>
      <trkpt lat="43.95132" lon="7.37415">
        <ele>1632</ele>
        <time>2018-04-22T14:10:43Z</time>
      </trkpt>
      <trkpt lat="43.95132" lon="7.37415">
        <ele>1632</ele>
        <time>2018-04-22T14:11:03Z</time>
      </trkpt>
      <trkpt lat="43.95131" lon="7.37415">
        <ele>1632</ele>
        <time>2018-04-22T14:11:03Z</time>
      </trkpt>
      <trkpt lat="43.95131" lon="7.37414">
        <ele>1632</ele>
        <time>2018-04-22T14:11:03Z</time>
      </trkpt>
      <trkpt lat="43.95126" lon="7.37409">
        <ele>1632</ele>
        <time>2018-04-22T14:11:03Z</time>
      </trkpt>
      <trkpt lat="43.95121" lon="7.37405">
        <ele>1611</ele>
        <time>2018-04-22T14:11:03Z</time>
      </trkpt>
      <trkpt lat="43.9512" lon="7.37405">
        <ele>1611</ele>
        <time>2018-04-22T14:11:19Z</time>
      </trkpt>
      <trkpt lat="43.95115" lon="7.37402">
        <ele>1611</ele>
        <time>2018-04-22T14:11:19Z</time>
      </trkpt>
      <trkpt lat="43.95111" lon="7.37399">
        <ele>1611</ele>
        <time>2018-04-22T14:11:19Z</time>
      </trkpt>
      <trkpt lat="43.95109" lon="7.37398">
        <ele>1611</ele>
        <time>2018-04-22T14:11:19Z</time>
      </trkpt>
      <trkpt lat="43.95107" lon="7.37398">
        <ele>1611</ele>
        <time>2018-04-22T14:11:39Z</time>
      </trkpt>
      <trkpt lat="43.95106" lon="7.37396">
        <ele>1611</ele>
        <time>2018-04-22T14:11:39Z</time>
      </trkpt>
      <trkpt lat="43.95104" lon="7.37394">
        <ele>1611</ele>
        <time>2018-04-22T14:11:39Z</time>
      </trkpt>
      <trkpt lat="43.95102" lon="7.37391">
        <ele>1611</ele>
        <time>2018-04-22T14:11:39Z</time>
      </trkpt>
      <trkpt lat="43.95102" lon="7.37387">
        <ele>1611</ele>
        <time>2018-04-22T14:11:39Z</time>
      </trkpt>
      <trkpt lat="43.95102" lon="7.37383">
        <ele>1611</ele>
        <time>2018-04-22T14:11:59Z</time>
      </trkpt>
      <trkpt lat="43.95103" lon="7.37381">
        <ele>1611</ele>
        <time>2018-04-22T14:11:59Z</time>
      </trkpt>
      <trkpt lat="43.95104" lon="7.37376">
        <ele>1611</ele>
        <time>2018-04-22T14:11:59Z</time>
      </trkpt>
      <trkpt lat="43.95104" lon="7.37372">
        <ele>1625</ele>
        <time>2018-04-22T14:11:59Z</time>
      </trkpt>
      <trkpt lat="43.95104" lon="7.37367">
        <ele>1625</ele>
        <time>2018-04-22T14:11:59Z</time>
      </trkpt>
      <trkpt lat="43.95104" lon="7.37361">
        <ele>1625</ele>
        <time>2018-04-22T14:12:15Z</time>
      </trkpt>
      <trkpt lat="43.95104" lon="7.37357">
        <ele>1625</ele>
        <time>2018-04-22T14:12:15Z</time>
      </trkpt>
      <trkpt lat="43.95105" lon="7.37351">
        <ele>1625</ele>
        <time>2018-04-22T14:12:15Z</time>
      </trkpt>
      <trkpt lat="43.95104" lon="7.37348">
        <ele>1625</ele>
        <time>2018-04-22T14:12:15Z</time>
      </trkpt>
      <trkpt lat="43.95103" lon="7.37345">
        <ele>1625</ele>
        <time>2018-04-22T14:12:31Z</time>
      </trkpt>
      <trkpt lat="43.95102" lon="7.37338">
        <ele>1625</ele>
        <time>2018-04-22T14:12:31Z</time>
      </trkpt>
      <trkpt lat="43.95098" lon="7.37334">
        <ele>1625</ele>
        <time>2018-04-22T14:12:31Z</time>
      </trkpt>
      <trkpt lat="43.95097" lon="7.37327">
        <ele>1625</ele>
        <time>2018-04-22T14:12:31Z</time>
      </trkpt>
      <trkpt lat="43.95095" lon="7.37321">
        <ele>1625</ele>
        <time>2018-04-22T14:12:47Z</time>
      </trkpt>
      <trkpt lat="43.95093" lon="7.37315">
        <ele>1625</ele>
        <time>2018-04-22T14:12:47Z</time>
      </trkpt>
      <trkpt lat="43.95092" lon="7.37307">
        <ele>1625</ele>
        <time>2018-04-22T14:12:47Z</time>
      </trkpt>
      <trkpt lat="43.95091" lon="7.37301">
        <ele>1625</ele>
        <time>2018-04-22T14:12:47Z</time>
      </trkpt>
      <trkpt lat="43.95089" lon="7.37297">
        <ele>1625</ele>
        <time>2018-04-22T14:13:03Z</time>
      </trkpt>
      <trkpt lat="43.95086" lon="7.37291">
        <ele>1634</ele>
        <time>2018-04-22T14:13:03Z</time>
      </trkpt>
      <trkpt lat="43.95086" lon="7.37282">
        <ele>1634</ele>
        <time>2018-04-22T14:13:03Z</time>
      </trkpt>
      <trkpt lat="43.95084" lon="7.37275">
        <ele>1634</ele>
        <time>2018-04-22T14:13:03Z</time>
      </trkpt>
      <trkpt lat="43.95084" lon="7.37267">
        <ele>1634</ele>
        <time>2018-04-22T14:13:19Z</time>
      </trkpt>
      <trkpt lat="43.95082" lon="7.37262">
        <ele>1634</ele>
        <time>2018-04-22T14:13:19Z</time>
      </trkpt>
      <trkpt lat="43.95079" lon="7.37258">
        <ele>1634</ele>
        <time>2018-04-22T14:13:19Z</time>
      </trkpt>
      <trkpt lat="43.95076" lon="7.37258">
        <ele>1634</ele>
        <time>2018-04-22T14:13:19Z</time>
      </trkpt>
      <trkpt lat="43.95074" lon="7.37257">
        <ele>1634</ele>
        <time>2018-04-22T14:13:39Z</time>
      </trkpt>
      <trkpt lat="43.95072" lon="7.37255">
        <ele>1634</ele>
        <time>2018-04-22T14:13:39Z</time>
      </trkpt>
      <trkpt lat="43.9507" lon="7.37251">
        <ele>1634</ele>
        <time>2018-04-22T14:13:39Z</time>
      </trkpt>
      <trkpt lat="43.95067" lon="7.3725">
        <ele>1634</ele>
        <time>2018-04-22T14:13:39Z</time>
      </trkpt>
      <trkpt lat="43.95061" lon="7.37247">
        <ele>1634</ele>
        <time>2018-04-22T14:13:39Z</time>
      </trkpt>
      <trkpt lat="43.95058" lon="7.37241">
        <ele>1634</ele>
        <time>2018-04-22T14:13:55Z</time>
      </trkpt>
      <trkpt lat="43.95053" lon="7.37236">
        <ele>1634</ele>
        <time>2018-04-22T14:13:55Z</time>
      </trkpt>
      <trkpt lat="43.95045" lon="7.37231">
        <ele>1634</ele>
        <time>2018-04-22T14:13:55Z</time>
      </trkpt>
      <trkpt lat="43.95039" lon="7.37223">
        <ele>1604</ele>
        <time>2018-04-22T14:13:55Z</time>
      </trkpt>
      <trkpt lat="43.95034" lon="7.37218">
        <ele>1604</ele>
        <time>2018-04-22T14:14:11Z</time>
      </trkpt>
      <trkpt lat="43.9503" lon="7.37214">
        <ele>1604</ele>
        <time>2018-04-22T14:14:11Z</time>
      </trkpt>
      <trkpt lat="43.95027" lon="7.37205">
        <ele>1603</ele>
        <time>2018-04-22T14:14:11Z</time>
      </trkpt>
      <trkpt lat="43.95026" lon="7.37196">
        <ele>1603</ele>
        <time>2018-04-22T14:14:11Z</time>
      </trkpt>
      <trkpt lat="43.95025" lon="7.3719">
        <ele>1603</ele>
        <time>2018-04-22T14:14:27Z</time>
      </trkpt>
      <trkpt lat="43.95025" lon="7.37184">
        <ele>1603</ele>
        <time>2018-04-22T14:14:27Z</time>
      </trkpt>
      <trkpt lat="43.95024" lon="7.37178">
        <ele>1603</ele>
        <time>2018-04-22T14:14:27Z</time>
      </trkpt>
      <trkpt lat="43.95023" lon="7.37173">
        <ele>1603</ele>
        <time>2018-04-22T14:14:27Z</time>
      </trkpt>
      <trkpt lat="43.95022" lon="7.3717">
        <ele>1603</ele>
        <time>2018-04-22T14:14:43Z</time>
      </trkpt>
      <trkpt lat="43.95021" lon="7.37165">
        <ele>1603</ele>
        <time>2018-04-22T14:14:43Z</time>
      </trkpt>
      <trkpt lat="43.95019" lon="7.37161">
        <ele>1603</ele>
        <time>2018-04-22T14:14:43Z</time>
      </trkpt>
      <trkpt lat="43.95015" lon="7.37152">
        <ele>1603</ele>
        <time>2018-04-22T14:14:43Z</time>
      </trkpt>
      <trkpt lat="43.95011" lon="7.37148">
        <ele>1603</ele>
        <time>2018-04-22T14:14:59Z</time>
      </trkpt>
      <trkpt lat="43.95006" lon="7.37142">
        <ele>1603</ele>
        <time>2018-04-22T14:14:59Z</time>
      </trkpt>
      <trkpt lat="43.95003" lon="7.37137">
        <ele>1603</ele>
        <time>2018-04-22T14:14:59Z</time>
      </trkpt>
      <trkpt lat="43.94999" lon="7.37134">
        <ele>1603</ele>
        <time>2018-04-22T14:14:59Z</time>
      </trkpt>
      <trkpt lat="43.94997" lon="7.37132">
        <ele>1603</ele>
        <time>2018-04-22T14:15:15Z</time>
      </trkpt>
      <trkpt lat="43.94996" lon="7.37126">
        <ele>1603</ele>
        <time>2018-04-22T14:15:15Z</time>
      </trkpt>
      <trkpt lat="43.94994" lon="7.37121">
        <ele>1605</ele>
        <time>2018-04-22T14:15:15Z</time>
      </trkpt>
      <trkpt lat="43.94991" lon="7.37113">
        <ele>1605</ele>
        <time>2018-04-22T14:15:15Z</time>
      </trkpt>
      <trkpt lat="43.9499" lon="7.37107">
        <ele>1605</ele>
        <time>2018-04-22T14:15:31Z</time>
      </trkpt>
      <trkpt lat="43.94988" lon="7.37104">
        <ele>1605</ele>
        <time>2018-04-22T14:15:31Z</time>
      </trkpt>
      <trkpt lat="43.94984" lon="7.371">
        <ele>1605</ele>
        <time>2018-04-22T14:15:31Z</time>
      </trkpt>
      <trkpt lat="43.9498" lon="7.37095">
        <ele>1605</ele>
        <time>2018-04-22T14:15:31Z</time>
      </trkpt>
      <trkpt lat="43.94976" lon="7.37092">
        <ele>1605</ele>
        <time>2018-04-22T14:15:47Z</time>
      </trkpt>
      <trkpt lat="43.94974" lon="7.3709">
        <ele>1605</ele>
        <time>2018-04-22T14:15:47Z</time>
      </trkpt>
      <trkpt lat="43.9497" lon="7.37088">
        <ele>1605</ele>
        <time>2018-04-22T14:15:47Z</time>
      </trkpt>
      <trkpt lat="43.94967" lon="7.37085">
        <ele>1605</ele>
        <time>2018-04-22T14:15:47Z</time>
      </trkpt>
      <trkpt lat="43.94965" lon="7.37079">
        <ele>1605</ele>
        <time>2018-04-22T14:16:03Z</time>
      </trkpt>
      <trkpt lat="43.94963" lon="7.37076">
        <ele>1605</ele>
        <time>2018-04-22T14:16:03Z</time>
      </trkpt>
      <trkpt lat="43.94959" lon="7.37073">
        <ele>1605</ele>
        <time>2018-04-22T14:16:03Z</time>
      </trkpt>
      <trkpt lat="43.94953" lon="7.37066">
        <ele>1583</ele>
        <time>2018-04-22T14:16:03Z</time>
      </trkpt>
      <trkpt lat="43.9495" lon="7.37063">
        <ele>1583</ele>
        <time>2018-04-22T14:16:19Z</time>
      </trkpt>
      <trkpt lat="43.94945" lon="7.37059">
        <ele>1583</ele>
        <time>2018-04-22T14:16:19Z</time>
      </trkpt>
      <trkpt lat="43.94941" lon="7.37055">
        <ele>1583</ele>
        <time>2018-04-22T14:16:19Z</time>
      </trkpt>
      <trkpt lat="43.94936" lon="7.37051">
        <ele>1583</ele>
        <time>2018-04-22T14:16:19Z</time>
      </trkpt>
      <trkpt lat="43.94934" lon="7.37048">
        <ele>1583</ele>
        <time>2018-04-22T14:16:39Z</time>
      </trkpt>
      <trkpt lat="43.94933" lon="7.37047">
        <ele>1583</ele>
        <time>2018-04-22T14:16:39Z</time>
      </trkpt>
      <trkpt lat="43.9493" lon="7.37043">
        <ele>1583</ele>
        <time>2018-04-22T14:16:39Z</time>
      </trkpt>
      <trkpt lat="43.94928" lon="7.37042">
        <ele>1583</ele>
        <time>2018-04-22T14:16:39Z</time>
      </trkpt>
      <trkpt lat="43.94924" lon="7.37039">
        <ele>1585</ele>
        <time>2018-04-22T14:16:39Z</time>
      </trkpt>
      <trkpt lat="43.94921" lon="7.37036">
        <ele>1585</ele>
        <time>2018-04-22T14:16:55Z</time>
      </trkpt>
      <trkpt lat="43.94913" lon="7.37029">
        <ele>1585</ele>
        <time>2018-04-22T14:16:55Z</time>
      </trkpt>
      <trkpt lat="43.94908" lon="7.37028">
        <ele>1585</ele>
        <time>2018-04-22T14:16:55Z</time>
      </trkpt>
      <trkpt lat="43.94905" lon="7.37026">
        <ele>1585</ele>
        <time>2018-04-22T14:16:55Z</time>
      </trkpt>
      <trkpt lat="43.94899" lon="7.37018">
        <ele>1585</ele>
        <time>2018-04-22T14:17:11Z</time>
      </trkpt>
      <trkpt lat="43.94895" lon="7.37015">
        <ele>1585</ele>
        <time>2018-04-22T14:17:11Z</time>
      </trkpt>
      <trkpt lat="43.94891" lon="7.37013">
        <ele>1585</ele>
        <time>2018-04-22T14:17:11Z</time>
      </trkpt>
      <trkpt lat="43.94887" lon="7.3701">
        <ele>1585</ele>
        <time>2018-04-22T14:17:11Z</time>
      </trkpt>
      <trkpt lat="43.94884" lon="7.37006">
        <ele>1585</ele>
        <time>2018-04-22T14:17:31Z</time>
      </trkpt>
      <trkpt lat="43.94881" lon="7.37005">
        <ele>1585</ele>
        <time>2018-04-22T14:17:31Z</time>
      </trkpt>
      <trkpt lat="43.94879" lon="7.37005">
        <ele>1585</ele>
        <time>2018-04-22T14:17:31Z</time>
      </trkpt>
      <trkpt lat="43.94876" lon="7.37005">
        <ele>1585</ele>
        <time>2018-04-22T14:17:31Z</time>
      </trkpt>
      <trkpt lat="43.94872" lon="7.36999">
        <ele>1571</ele>
        <time>2018-04-22T14:17:31Z</time>
      </trkpt>
      <trkpt lat="43.94868" lon="7.36995">
        <ele>1571</ele>
        <time>2018-04-22T14:17:47Z</time>
      </trkpt>
      <trkpt lat="43.94863" lon="7.3699">
        <ele>1571</ele>
        <time>2018-04-22T14:17:47Z</time>
      </trkpt>
      <trkpt lat="43.9486" lon="7.36987">
        <ele>1571</ele>
        <time>2018-04-22T14:17:47Z</time>
      </trkpt>
      <trkpt lat="43.94857" lon="7.36983">
        <ele>1571</ele>
        <time>2018-04-22T14:17:47Z</time>
      </trkpt>
      <trkpt lat="43.94855" lon="7.36978">
        <ele>1571</ele>
        <time>2018-04-22T14:18:03Z</time>
      </trkpt>
      <trkpt lat="43.94849" lon="7.36968">
        <ele>1571</ele>
        <time>2018-04-22T14:18:03Z</time>
      </trkpt>
      <trkpt lat="43.94846" lon="7.36961">
        <ele>1571</ele>
        <time>2018-04-22T14:18:03Z</time>
      </trkpt>
      <trkpt lat="43.94846" lon="7.3696">
        <ele>1571</ele>
        <time>2018-04-22T14:18:03Z</time>
      </trkpt>
      <trkpt lat="43.9484" lon="7.36959">
        <ele>1571</ele>
        <time>2018-04-22T14:18:51Z</time>
      </trkpt>
      <trkpt lat="43.9484" lon="7.3696">
        <ele>1571</ele>
        <time>2018-04-22T14:18:51Z</time>
      </trkpt>
      <trkpt lat="43.94838" lon="7.36961">
        <ele>1571</ele>
        <time>2018-04-22T14:18:51Z</time>
      </trkpt>
      <trkpt lat="43.94837" lon="7.36963">
        <ele>1571</ele>
        <time>2018-04-22T14:18:51Z</time>
      </trkpt>
      <trkpt lat="43.94832" lon="7.36959">
        <ele>1571</ele>
        <time>2018-04-22T14:18:51Z</time>
      </trkpt>
      <trkpt lat="43.94828" lon="7.36953">
        <ele>1561</ele>
        <time>2018-04-22T14:19:07Z</time>
      </trkpt>
      <trkpt lat="43.94825" lon="7.36945">
        <ele>1561</ele>
        <time>2018-04-22T14:19:07Z</time>
      </trkpt>
      <trkpt lat="43.94825" lon="7.36942">
        <ele>1561</ele>
        <time>2018-04-22T14:19:07Z</time>
      </trkpt>
      <trkpt lat="43.94825" lon="7.36941">
        <ele>1561</ele>
        <time>2018-04-22T14:19:07Z</time>
      </trkpt>
      <trkpt lat="43.94822" lon="7.36944">
        <ele>1561</ele>
        <time>2018-04-22T14:19:47Z</time>
      </trkpt>
      <trkpt lat="43.9482" lon="7.36942">
        <ele>1561</ele>
        <time>2018-04-22T14:19:47Z</time>
      </trkpt>
      <trkpt lat="43.94818" lon="7.36939">
        <ele>1561</ele>
        <time>2018-04-22T14:19:47Z</time>
      </trkpt>
      <trkpt lat="43.94816" lon="7.36935">
        <ele>1561</ele>
        <time>2018-04-22T14:19:47Z</time>
      </trkpt>
      <trkpt lat="43.94814" lon="7.36933">
        <ele>1561</ele>
        <time>2018-04-22T14:19:47Z</time>
      </trkpt>
      <trkpt lat="43.94811" lon="7.36928">
        <ele>1561</ele>
        <time>2018-04-22T14:20:03Z</time>
      </trkpt>
      <trkpt lat="43.94808" lon="7.36923">
        <ele>1561</ele>
        <time>2018-04-22T14:20:03Z</time>
      </trkpt>
      <trkpt lat="43.94805" lon="7.36922">
        <ele>1561</ele>
        <time>2018-04-22T14:20:03Z</time>
      </trkpt>
      <trkpt lat="43.948" lon="7.36918">
        <ele>1561</ele>
        <time>2018-04-22T14:20:03Z</time>
      </trkpt>
      <trkpt lat="43.94795" lon="7.3691">
        <ele>1561</ele>
        <time>2018-04-22T14:20:19Z</time>
      </trkpt>
      <trkpt lat="43.9479" lon="7.36906">
        <ele>1561</ele>
        <time>2018-04-22T14:20:19Z</time>
      </trkpt>
      <trkpt lat="43.94783" lon="7.36898">
        <ele>1561</ele>
        <time>2018-04-22T14:20:19Z</time>
      </trkpt>
      <trkpt lat="43.94779" lon="7.36893">
        <ele>1561</ele>
        <time>2018-04-22T14:20:19Z</time>
      </trkpt>
      <trkpt lat="43.94777" lon="7.36895">
        <ele>1561</ele>
        <time>2018-04-22T14:20:35Z</time>
      </trkpt>
      <trkpt lat="43.94774" lon="7.36892">
        <ele>1561</ele>
        <time>2018-04-22T14:20:35Z</time>
      </trkpt>
      <trkpt lat="43.94771" lon="7.36887">
        <ele>1561</ele>
        <time>2018-04-22T14:20:35Z</time>
      </trkpt>
      <trkpt lat="43.94766" lon="7.36884">
        <ele>1561</ele>
        <time>2018-04-22T14:20:35Z</time>
      </trkpt>
      <trkpt lat="43.94762" lon="7.36881">
        <ele>1561</ele>
        <time>2018-04-22T14:20:51Z</time>
      </trkpt>
      <trkpt lat="43.94758" lon="7.36881">
        <ele>1561</ele>
        <time>2018-04-22T14:20:51Z</time>
      </trkpt>
      <trkpt lat="43.94752" lon="7.36877">
        <ele>1561</ele>
        <time>2018-04-22T14:20:51Z</time>
      </trkpt>
      <trkpt lat="43.94748" lon="7.36873">
        <ele>1542</ele>
        <time>2018-04-22T14:20:51Z</time>
      </trkpt>
      <trkpt lat="43.94744" lon="7.36869">
        <ele>1542</ele>
        <time>2018-04-22T14:21:07Z</time>
      </trkpt>
      <trkpt lat="43.9474" lon="7.36866">
        <ele>1542</ele>
        <time>2018-04-22T14:21:07Z</time>
      </trkpt>
      <trkpt lat="43.94736" lon="7.36866">
        <ele>1542</ele>
        <time>2018-04-22T14:21:07Z</time>
      </trkpt>
      <trkpt lat="43.94732" lon="7.36866">
        <ele>1542</ele>
        <time>2018-04-22T14:21:07Z</time>
      </trkpt>
      <trkpt lat="43.94731" lon="7.36867">
        <ele>1542</ele>
        <time>2018-04-22T14:21:23Z</time>
      </trkpt>
      <trkpt lat="43.94726" lon="7.36864">
        <ele>1542</ele>
        <time>2018-04-22T14:21:23Z</time>
      </trkpt>
      <trkpt lat="43.94722" lon="7.36863">
        <ele>1542</ele>
        <time>2018-04-22T14:21:23Z</time>
      </trkpt>
      <trkpt lat="43.94715" lon="7.36861">
        <ele>1542</ele>
        <time>2018-04-22T14:21:23Z</time>
      </trkpt>
      <trkpt lat="43.94709" lon="7.36858">
        <ele>1542</ele>
        <time>2018-04-22T14:21:39Z</time>
      </trkpt>
      <trkpt lat="43.94704" lon="7.36856">
        <ele>1540</ele>
        <time>2018-04-22T14:21:39Z</time>
      </trkpt>
      <trkpt lat="43.94698" lon="7.36855">
        <ele>1540</ele>
        <time>2018-04-22T14:21:39Z</time>
      </trkpt>
      <trkpt lat="43.94692" lon="7.36853">
        <ele>1540</ele>
        <time>2018-04-22T14:21:39Z</time>
      </trkpt>
      <trkpt lat="43.94687" lon="7.36851">
        <ele>1540</ele>
        <time>2018-04-22T14:21:55Z</time>
      </trkpt>
      <trkpt lat="43.94683" lon="7.36847">
        <ele>1540</ele>
        <time>2018-04-22T14:21:55Z</time>
      </trkpt>
      <trkpt lat="43.9468" lon="7.36846">
        <ele>1540</ele>
        <time>2018-04-22T14:21:55Z</time>
      </trkpt>
      <trkpt lat="43.94675" lon="7.36847">
        <ele>1540</ele>
        <time>2018-04-22T14:21:55Z</time>
      </trkpt>
      <trkpt lat="43.94673" lon="7.36848">
        <ele>1540</ele>
        <time>2018-04-22T14:22:11Z</time>
      </trkpt>
      <trkpt lat="43.94669" lon="7.36848">
        <ele>1540</ele>
        <time>2018-04-22T14:22:11Z</time>
      </trkpt>
      <trkpt lat="43.94661" lon="7.36846">
        <ele>1540</ele>
        <time>2018-04-22T14:22:11Z</time>
      </trkpt>
      <trkpt lat="43.94656" lon="7.36843">
        <ele>1540</ele>
        <time>2018-04-22T14:22:11Z</time>
      </trkpt>
      <trkpt lat="43.9465" lon="7.36839">
        <ele>1540</ele>
        <time>2018-04-22T14:22:27Z</time>
      </trkpt>
      <trkpt lat="43.94644" lon="7.36838">
        <ele>1540</ele>
        <time>2018-04-22T14:22:27Z</time>
      </trkpt>
      <trkpt lat="43.94638" lon="7.36836">
        <ele>1540</ele>
        <time>2018-04-22T14:22:27Z</time>
      </trkpt>
      <trkpt lat="43.94632" lon="7.36833">
        <ele>1540</ele>
        <time>2018-04-22T14:22:27Z</time>
      </trkpt>
      <trkpt lat="43.94628" lon="7.3683">
        <ele>1540</ele>
        <time>2018-04-22T14:22:47Z</time>
      </trkpt>
      <trkpt lat="43.94625" lon="7.36828">
        <ele>1540</ele>
        <time>2018-04-22T14:22:47Z</time>
      </trkpt>
      <trkpt lat="43.94623" lon="7.36825">
        <ele>1542</ele>
        <time>2018-04-22T14:22:47Z</time>
      </trkpt>
      <trkpt lat="43.9462" lon="7.36824">
        <ele>1542</ele>
        <time>2018-04-22T14:22:47Z</time>
      </trkpt>
      <trkpt lat="43.9462" lon="7.36823">
        <ele>1542</ele>
        <time>2018-04-22T14:22:47Z</time>
      </trkpt>
      <trkpt lat="43.94619" lon="7.36824">
        <ele>1542</ele>
        <time>2018-04-22T14:23:07Z</time>
      </trkpt>
      <trkpt lat="43.94615" lon="7.36823">
        <ele>1542</ele>
        <time>2018-04-22T14:23:07Z</time>
      </trkpt>
      <trkpt lat="43.94613" lon="7.36824">
        <ele>1542</ele>
        <time>2018-04-22T14:23:07Z</time>
      </trkpt>
      <trkpt lat="43.94611" lon="7.36824">
        <ele>1542</ele>
        <time>2018-04-22T14:23:07Z</time>
      </trkpt>
      <trkpt lat="43.94607" lon="7.36825">
        <ele>1542</ele>
        <time>2018-04-22T14:23:07Z</time>
      </trkpt>
      <trkpt lat="43.94603" lon="7.36823">
        <ele>1542</ele>
        <time>2018-04-22T14:23:31Z</time>
      </trkpt>
      <trkpt lat="43.94603" lon="7.36823">
        <ele>1542</ele>
        <time>2018-04-22T14:23:31Z</time>
      </trkpt>
      <trkpt lat="43.94603" lon="7.36821">
        <ele>1542</ele>
        <time>2018-04-22T14:23:31Z</time>
      </trkpt>
      <trkpt lat="43.94599" lon="7.36816">
        <ele>1542</ele>
        <time>2018-04-22T14:23:31Z</time>
      </trkpt>
      <trkpt lat="43.94596" lon="7.36811">
        <ele>1542</ele>
        <time>2018-04-22T14:23:31Z</time>
      </trkpt>
      <trkpt lat="43.94592" lon="7.36807">
        <ele>1542</ele>
        <time>2018-04-22T14:23:47Z</time>
      </trkpt>
      <trkpt lat="43.94587" lon="7.36805">
        <ele>1542</ele>
        <time>2018-04-22T14:23:47Z</time>
      </trkpt>
      <trkpt lat="43.94582" lon="7.36804">
        <ele>1542</ele>
        <time>2018-04-22T14:23:47Z</time>
      </trkpt>
      <trkpt lat="43.94577" lon="7.36802">
        <ele>1542</ele>
        <time>2018-04-22T14:23:47Z</time>
      </trkpt>
      <trkpt lat="43.94574" lon="7.36801">
        <ele>1542</ele>
        <time>2018-04-22T14:24:03Z</time>
      </trkpt>
      <trkpt lat="43.94571" lon="7.36801">
        <ele>1542</ele>
        <time>2018-04-22T14:24:03Z</time>
      </trkpt>
      <trkpt lat="43.94566" lon="7.36799">
        <ele>1542</ele>
        <time>2018-04-22T14:24:03Z</time>
      </trkpt>
      <trkpt lat="43.94563" lon="7.36797">
        <ele>1542</ele>
        <time>2018-04-22T14:24:03Z</time>
      </trkpt>
      <trkpt lat="43.94557" lon="7.36795">
        <ele>1542</ele>
        <time>2018-04-22T14:24:19Z</time>
      </trkpt>
      <trkpt lat="43.94555" lon="7.36794">
        <ele>1542</ele>
        <time>2018-04-22T14:24:19Z</time>
      </trkpt>
      <trkpt lat="43.94551" lon="7.36793">
        <ele>1542</ele>
        <time>2018-04-22T14:24:19Z</time>
      </trkpt>
      <trkpt lat="43.94546" lon="7.36793">
        <ele>1542</ele>
        <time>2018-04-22T14:24:19Z</time>
      </trkpt>
      <trkpt lat="43.94542" lon="7.36791">
        <ele>1517</ele>
        <time>2018-04-22T14:24:35Z</time>
      </trkpt>
      <trkpt lat="43.94537" lon="7.3679">
        <ele>1517</ele>
        <time>2018-04-22T14:24:35Z</time>
      </trkpt>
      <trkpt lat="43.94532" lon="7.36786">
        <ele>1517</ele>
        <time>2018-04-22T14:24:35Z</time>
      </trkpt>
      <trkpt lat="43.94526" lon="7.36785">
        <ele>1517</ele>
        <time>2018-04-22T14:24:35Z</time>
      </trkpt>
      <trkpt lat="43.9452" lon="7.36786">
        <ele>1517</ele>
        <time>2018-04-22T14:24:51Z</time>
      </trkpt>
      <trkpt lat="43.94512" lon="7.36785">
        <ele>1517</ele>
        <time>2018-04-22T14:24:51Z</time>
      </trkpt>
      <trkpt lat="43.94507" lon="7.36783">
        <ele>1517</ele>
        <time>2018-04-22T14:24:51Z</time>
      </trkpt>
      <trkpt lat="43.94503" lon="7.36781">
        <ele>1517</ele>
        <time>2018-04-22T14:24:51Z</time>
      </trkpt>
      <trkpt lat="43.94499" lon="7.36779">
        <ele>1517</ele>
        <time>2018-04-22T14:25:07Z</time>
      </trkpt>
      <trkpt lat="43.94495" lon="7.36778">
        <ele>1517</ele>
        <time>2018-04-22T14:25:07Z</time>
      </trkpt>
      <trkpt lat="43.94491" lon="7.36776">
        <ele>1517</ele>
        <time>2018-04-22T14:25:07Z</time>
      </trkpt>
      <trkpt lat="43.94484" lon="7.36773">
        <ele>1517</ele>
        <time>2018-04-22T14:25:07Z</time>
      </trkpt>
      <trkpt lat="43.9448" lon="7.36772">
        <ele>1517</ele>
        <time>2018-04-22T14:25:23Z</time>
      </trkpt>
      <trkpt lat="43.94477" lon="7.36768">
        <ele>1517</ele>
        <time>2018-04-22T14:25:23Z</time>
      </trkpt>
      <trkpt lat="43.94471" lon="7.36765">
        <ele>1517</ele>
        <time>2018-04-22T14:25:23Z</time>
      </trkpt>
      <trkpt lat="43.94466" lon="7.36763">
        <ele>1517</ele>
        <time>2018-04-22T14:25:23Z</time>
      </trkpt>
      <trkpt lat="43.94461" lon="7.3676">
        <ele>1517</ele>
        <time>2018-04-22T14:25:39Z</time>
      </trkpt>
      <trkpt lat="43.94457" lon="7.36759">
        <ele>1509</ele>
        <time>2018-04-22T14:25:39Z</time>
      </trkpt>
      <trkpt lat="43.94451" lon="7.36758">
        <ele>1509</ele>
        <time>2018-04-22T14:25:39Z</time>
      </trkpt>
      <trkpt lat="43.94445" lon="7.36758">
        <ele>1509</ele>
        <time>2018-04-22T14:25:39Z</time>
      </trkpt>
      <trkpt lat="43.9444" lon="7.36758">
        <ele>1509</ele>
        <time>2018-04-22T14:25:55Z</time>
      </trkpt>
      <trkpt lat="43.94434" lon="7.36757">
        <ele>1509</ele>
        <time>2018-04-22T14:25:55Z</time>
      </trkpt>
      <trkpt lat="43.9443" lon="7.36756">
        <ele>1509</ele>
        <time>2018-04-22T14:25:55Z</time>
      </trkpt>
      <trkpt lat="43.94426" lon="7.36756">
        <ele>1509</ele>
        <time>2018-04-22T14:25:55Z</time>
      </trkpt>
      <trkpt lat="43.94421" lon="7.36755">
        <ele>1509</ele>
        <time>2018-04-22T14:26:11Z</time>
      </trkpt>
      <trkpt lat="43.94415" lon="7.36755">
        <ele>1509</ele>
        <time>2018-04-22T14:26:11Z</time>
      </trkpt>
      <trkpt lat="43.94411" lon="7.36756">
        <ele>1509</ele>
        <time>2018-04-22T14:26:11Z</time>
      </trkpt>
      <trkpt lat="43.94406" lon="7.3676">
        <ele>1509</ele>
        <time>2018-04-22T14:26:11Z</time>
      </trkpt>
      <trkpt lat="43.94399" lon="7.36761">
        <ele>1509</ele>
        <time>2018-04-22T14:26:27Z</time>
      </trkpt>
      <trkpt lat="43.94394" lon="7.36762">
        <ele>1509</ele>
        <time>2018-04-22T14:26:27Z</time>
      </trkpt>
      <trkpt lat="43.94389" lon="7.36763">
        <ele>1509</ele>
        <time>2018-04-22T14:26:27Z</time>
      </trkpt>
      <trkpt lat="43.94383" lon="7.36767">
        <ele>1509</ele>
        <time>2018-04-22T14:26:27Z</time>
      </trkpt>
      <trkpt lat="43.94378" lon="7.3677">
        <ele>1509</ele>
        <time>2018-04-22T14:26:43Z</time>
      </trkpt>
      <trkpt lat="43.94375" lon="7.36772">
        <ele>1509</ele>
        <time>2018-04-22T14:26:43Z</time>
      </trkpt>
      <trkpt lat="43.9437" lon="7.36776">
        <ele>1492</ele>
        <time>2018-04-22T14:26:43Z</time>
      </trkpt>
      <trkpt lat="43.94365" lon="7.36784">
        <ele>1492</ele>
        <time>2018-04-22T14:26:43Z</time>
      </trkpt>
      <trkpt lat="43.94361" lon="7.36792">
        <ele>1502</ele>
        <time>2018-04-22T14:26:59Z</time>
      </trkpt>
      <trkpt lat="43.94356" lon="7.36801">
        <ele>1502</ele>
        <time>2018-04-22T14:26:59Z</time>
      </trkpt>
      <trkpt lat="43.94356" lon="7.36806">
        <ele>1502</ele>
        <time>2018-04-22T14:26:59Z</time>
      </trkpt>
      <trkpt lat="43.94352" lon="7.36816">
        <ele>1502</ele>
        <time>2018-04-22T14:26:59Z</time>
      </trkpt>
      <trkpt lat="43.94349" lon="7.36825">
        <ele>1502</ele>
        <time>2018-04-22T14:27:15Z</time>
      </trkpt>
      <trkpt lat="43.94348" lon="7.36831">
        <ele>1502</ele>
        <time>2018-04-22T14:27:15Z</time>
      </trkpt>
      <trkpt lat="43.94346" lon="7.36837">
        <ele>1502</ele>
        <time>2018-04-22T14:27:15Z</time>
      </trkpt>
      <trkpt lat="43.94344" lon="7.36845">
        <ele>1502</ele>
        <time>2018-04-22T14:27:15Z</time>
      </trkpt>
      <trkpt lat="43.94337" lon="7.36847">
        <ele>1502</ele>
        <time>2018-04-22T14:28:07Z</time>
      </trkpt>
      <trkpt lat="43.94337" lon="7.36846">
        <ele>1502</ele>
        <time>2018-04-22T14:28:07Z</time>
      </trkpt>
      <trkpt lat="43.94336" lon="7.36845">
        <ele>1502</ele>
        <time>2018-04-22T14:28:07Z</time>
      </trkpt>
      <trkpt lat="43.94336" lon="7.36844">
        <ele>1502</ele>
        <time>2018-04-22T14:28:07Z</time>
      </trkpt>
      <trkpt lat="43.94335" lon="7.36842">
        <ele>1502</ele>
        <time>2018-04-22T14:28:07Z</time>
      </trkpt>
      <trkpt lat="43.94337" lon="7.3684">
        <ele>1502</ele>
        <time>2018-04-22T14:29:27Z</time>
      </trkpt>
      <trkpt lat="43.94339" lon="7.36844">
        <ele>1502</ele>
        <time>2018-04-22T14:29:27Z</time>
      </trkpt>
      <trkpt lat="43.94341" lon="7.36849">
        <ele>1502</ele>
        <time>2018-04-22T14:29:27Z</time>
      </trkpt>
      <trkpt lat="43.94342" lon="7.36856">
        <ele>1502</ele>
        <time>2018-04-22T14:29:27Z</time>
      </trkpt>
      <trkpt lat="43.94345" lon="7.36868">
        <ele>1502</ele>
        <time>2018-04-22T14:29:27Z</time>
      </trkpt>
      <trkpt lat="43.94349" lon="7.36876">
        <ele>1498</ele>
        <time>2018-04-22T14:29:43Z</time>
      </trkpt>
      <trkpt lat="43.94351" lon="7.36881">
        <ele>1498</ele>
        <time>2018-04-22T14:29:43Z</time>
      </trkpt>
      <trkpt lat="43.94355" lon="7.36885">
        <ele>1498</ele>
        <time>2018-04-22T14:29:43Z</time>
      </trkpt>
      <trkpt lat="43.94358" lon="7.36888">
        <ele>1498</ele>
        <time>2018-04-22T14:29:43Z</time>
      </trkpt>
      <trkpt lat="43.94362" lon="7.36896">
        <ele>1498</ele>
        <time>2018-04-22T14:29:59Z</time>
      </trkpt>
      <trkpt lat="43.94365" lon="7.369">
        <ele>1498</ele>
        <time>2018-04-22T14:29:59Z</time>
      </trkpt>
      <trkpt lat="43.94369" lon="7.36908">
        <ele>1498</ele>
        <time>2018-04-22T14:29:59Z</time>
      </trkpt>
      <trkpt lat="43.94372" lon="7.36916">
        <ele>1498</ele>
        <time>2018-04-22T14:29:59Z</time>
      </trkpt>
      <trkpt lat="43.94374" lon="7.36923">
        <ele>1498</ele>
        <time>2018-04-22T14:30:15Z</time>
      </trkpt>
      <trkpt lat="43.94377" lon="7.36933">
        <ele>1531</ele>
        <time>2018-04-22T14:30:15Z</time>
      </trkpt>
      <trkpt lat="43.94379" lon="7.36941">
        <ele>1531</ele>
        <time>2018-04-22T14:30:15Z</time>
      </trkpt>
      <trkpt lat="43.9438" lon="7.36942">
        <ele>1531</ele>
        <time>2018-04-22T14:30:15Z</time>
      </trkpt>
      <trkpt lat="43.94383" lon="7.36947">
        <ele>1531</ele>
        <time>2018-04-22T14:30:31Z</time>
      </trkpt>
      <trkpt lat="43.94385" lon="7.36954">
        <ele>1531</ele>
        <time>2018-04-22T14:30:31Z</time>
      </trkpt>
      <trkpt lat="43.94386" lon="7.36957">
        <ele>1531</ele>
        <time>2018-04-22T14:30:31Z</time>
      </trkpt>
      <trkpt lat="43.94389" lon="7.36962">
        <ele>1518</ele>
        <time>2018-04-22T14:30:31Z</time>
      </trkpt>
      <trkpt lat="43.9439" lon="7.36966">
        <ele>1518</ele>
        <time>2018-04-22T14:31:43Z</time>
      </trkpt>
      <trkpt lat="43.94387" lon="7.36963">
        <ele>1518</ele>
        <time>2018-04-22T14:31:43Z</time>
      </trkpt>
      <trkpt lat="43.94385" lon="7.3696">
        <ele>1518</ele>
        <time>2018-04-22T14:31:43Z</time>
      </trkpt>
      <trkpt lat="43.94383" lon="7.36956">
        <ele>1531</ele>
        <time>2018-04-22T14:31:43Z</time>
      </trkpt>
      <trkpt lat="43.94382" lon="7.36953">
        <ele>1531</ele>
        <time>2018-04-22T14:31:43Z</time>
      </trkpt>
      <trkpt lat="43.94379" lon="7.36947">
        <ele>1531</ele>
        <time>2018-04-22T14:31:59Z</time>
      </trkpt>
      <trkpt lat="43.94377" lon="7.36944">
        <ele>1531</ele>
        <time>2018-04-22T14:31:59Z</time>
      </trkpt>
      <trkpt lat="43.94376" lon="7.36941">
        <ele>1531</ele>
        <time>2018-04-22T14:31:59Z</time>
      </trkpt>
      <trkpt lat="43.94373" lon="7.36936">
        <ele>1498</ele>
        <time>2018-04-22T14:31:59Z</time>
      </trkpt>
      <trkpt lat="43.94372" lon="7.36932">
        <ele>1498</ele>
        <time>2018-04-22T14:32:15Z</time>
      </trkpt>
      <trkpt lat="43.94369" lon="7.36933">
        <ele>1498</ele>
        <time>2018-04-22T14:32:15Z</time>
      </trkpt>
      <trkpt lat="43.94364" lon="7.36935">
        <ele>1498</ele>
        <time>2018-04-22T14:32:15Z</time>
      </trkpt>
      <trkpt lat="43.94361" lon="7.36934">
        <ele>1498</ele>
        <time>2018-04-22T14:32:15Z</time>
      </trkpt>
      <trkpt lat="43.94356" lon="7.36932">
        <ele>1498</ele>
        <time>2018-04-22T14:32:31Z</time>
      </trkpt>
      <trkpt lat="43.94348" lon="7.3693">
        <ele>1498</ele>
        <time>2018-04-22T14:32:31Z</time>
      </trkpt>
      <trkpt lat="43.94341" lon="7.36927">
        <ele>1498</ele>
        <time>2018-04-22T14:32:31Z</time>
      </trkpt>
      <trkpt lat="43.94335" lon="7.36924">
        <ele>1498</ele>
        <time>2018-04-22T14:32:31Z</time>
      </trkpt>
      <trkpt lat="43.94329" lon="7.36924">
        <ele>1498</ele>
        <time>2018-04-22T14:32:47Z</time>
      </trkpt>
      <trkpt lat="43.94319" lon="7.36924">
        <ele>1498</ele>
        <time>2018-04-22T14:32:47Z</time>
      </trkpt>
      <trkpt lat="43.94314" lon="7.36926">
        <ele>1498</ele>
        <time>2018-04-22T14:32:47Z</time>
      </trkpt>
      <trkpt lat="43.94307" lon="7.36929">
        <ele>1498</ele>
        <time>2018-04-22T14:32:47Z</time>
      </trkpt>
      <trkpt lat="43.94304" lon="7.3693">
        <ele>1498</ele>
        <time>2018-04-22T14:33:07Z</time>
      </trkpt>
      <trkpt lat="43.94303" lon="7.36933">
        <ele>1498</ele>
        <time>2018-04-22T14:33:07Z</time>
      </trkpt>
      <trkpt lat="43.94301" lon="7.36935">
        <ele>1498</ele>
        <time>2018-04-22T14:33:07Z</time>
      </trkpt>
      <trkpt lat="43.94299" lon="7.36937">
        <ele>1498</ele>
        <time>2018-04-22T14:33:07Z</time>
      </trkpt>
      <trkpt lat="43.94295" lon="7.3694">
        <ele>1498</ele>
        <time>2018-04-22T14:33:07Z</time>
      </trkpt>
      <trkpt lat="43.94289" lon="7.36946">
        <ele>1511</ele>
        <time>2018-04-22T14:33:23Z</time>
      </trkpt>
      <trkpt lat="43.94285" lon="7.3695">
        <ele>1511</ele>
        <time>2018-04-22T14:33:23Z</time>
      </trkpt>
      <trkpt lat="43.94281" lon="7.36951">
        <ele>1511</ele>
        <time>2018-04-22T14:33:23Z</time>
      </trkpt>
      <trkpt lat="43.94279" lon="7.36951">
        <ele>1511</ele>
        <time>2018-04-22T14:33:23Z</time>
      </trkpt>
      <trkpt lat="43.94274" lon="7.36954">
        <ele>1511</ele>
        <time>2018-04-22T14:33:39Z</time>
      </trkpt>
      <trkpt lat="43.94269" lon="7.36956">
        <ele>1511</ele>
        <time>2018-04-22T14:33:39Z</time>
      </trkpt>
      <trkpt lat="43.94264" lon="7.36961">
        <ele>1484</ele>
        <time>2018-04-22T14:33:39Z</time>
      </trkpt>
      <trkpt lat="43.94264" lon="7.36966">
        <ele>1484</ele>
        <time>2018-04-22T14:33:39Z</time>
      </trkpt>
      <trkpt lat="43.94269" lon="7.36975">
        <ele>1484</ele>
        <time>2018-04-22T14:36:15Z</time>
      </trkpt>
      <trkpt lat="43.94269" lon="7.36975">
        <ele>1484</ele>
        <time>2018-04-22T14:36:15Z</time>
      </trkpt>
      <trkpt lat="43.94266" lon="7.36977">
        <ele>1484</ele>
        <time>2018-04-22T14:36:15Z</time>
      </trkpt>
      <trkpt lat="43.94266" lon="7.36978">
        <ele>1484</ele>
        <time>2018-04-22T14:36:15Z</time>
      </trkpt>
      <trkpt lat="43.94262" lon="7.36981">
        <ele>1484</ele>
        <time>2018-04-22T14:36:15Z</time>
      </trkpt>
      <trkpt lat="43.94261" lon="7.36982">
        <ele>1484</ele>
        <time>2018-04-22T14:36:31Z</time>
      </trkpt>
      <trkpt lat="43.94259" lon="7.36983">
        <ele>1484</ele>
        <time>2018-04-22T14:36:31Z</time>
      </trkpt>
      <trkpt lat="43.94255" lon="7.36987">
        <ele>1484</ele>
        <time>2018-04-22T14:36:31Z</time>
      </trkpt>
      <trkpt lat="43.94251" lon="7.36991">
        <ele>1484</ele>
        <time>2018-04-22T14:36:31Z</time>
      </trkpt>
      <trkpt lat="43.9425" lon="7.36993">
        <ele>1484</ele>
        <time>2018-04-22T14:36:47Z</time>
      </trkpt>
      <trkpt lat="43.94248" lon="7.36997">
        <ele>1484</ele>
        <time>2018-04-22T14:36:47Z</time>
      </trkpt>
      <trkpt lat="43.94245" lon="7.37004">
        <ele>1484</ele>
        <time>2018-04-22T14:36:47Z</time>
      </trkpt>
      <trkpt lat="43.94241" lon="7.37014">
        <ele>1484</ele>
        <time>2018-04-22T14:36:47Z</time>
      </trkpt>
      <trkpt lat="43.94238" lon="7.37022">
        <ele>1484</ele>
        <time>2018-04-22T14:37:03Z</time>
      </trkpt>
      <trkpt lat="43.94236" lon="7.37028">
        <ele>1484</ele>
        <time>2018-04-22T14:37:03Z</time>
      </trkpt>
      <trkpt lat="43.94234" lon="7.37032">
        <ele>1484</ele>
        <time>2018-04-22T14:37:03Z</time>
      </trkpt>
      <trkpt lat="43.94233" lon="7.37035">
        <ele>1484</ele>
        <time>2018-04-22T14:37:03Z</time>
      </trkpt>
      <trkpt lat="43.94231" lon="7.37039">
        <ele>1484</ele>
        <time>2018-04-22T14:37:19Z</time>
      </trkpt>
      <trkpt lat="43.94229" lon="7.37042">
        <ele>1451</ele>
        <time>2018-04-22T14:37:19Z</time>
      </trkpt>
      <trkpt lat="43.94225" lon="7.37047">
        <ele>1451</ele>
        <time>2018-04-22T14:37:19Z</time>
      </trkpt>
      <trkpt lat="43.94221" lon="7.37053">
        <ele>1451</ele>
        <time>2018-04-22T14:37:19Z</time>
      </trkpt>
      <trkpt lat="43.94218" lon="7.37057">
        <ele>1451</ele>
        <time>2018-04-22T14:37:35Z</time>
      </trkpt>
      <trkpt lat="43.94215" lon="7.37061">
        <ele>1451</ele>
        <time>2018-04-22T14:37:35Z</time>
      </trkpt>
      <trkpt lat="43.9421" lon="7.37066">
        <ele>1451</ele>
        <time>2018-04-22T14:37:35Z</time>
      </trkpt>
      <trkpt lat="43.94204" lon="7.37073">
        <ele>1499</ele>
        <time>2018-04-22T14:37:35Z</time>
      </trkpt>
      <trkpt lat="43.942" lon="7.37077">
        <ele>1499</ele>
        <time>2018-04-22T14:37:51Z</time>
      </trkpt>
      <trkpt lat="43.94197" lon="7.3708">
        <ele>1499</ele>
        <time>2018-04-22T14:37:51Z</time>
      </trkpt>
      <trkpt lat="43.94193" lon="7.37085">
        <ele>1499</ele>
        <time>2018-04-22T14:37:51Z</time>
      </trkpt>
      <trkpt lat="43.9419" lon="7.37089">
        <ele>1499</ele>
        <time>2018-04-22T14:37:51Z</time>
      </trkpt>
      <trkpt lat="43.94187" lon="7.37091">
        <ele>1499</ele>
        <time>2018-04-22T14:38:07Z</time>
      </trkpt>
      <trkpt lat="43.94184" lon="7.37094">
        <ele>1499</ele>
        <time>2018-04-22T14:38:07Z</time>
      </trkpt>
      <trkpt lat="43.94182" lon="7.37096">
        <ele>1499</ele>
        <time>2018-04-22T14:38:07Z</time>
      </trkpt>
      <trkpt lat="43.94177" lon="7.37099">
        <ele>1499</ele>
        <time>2018-04-22T14:38:07Z</time>
      </trkpt>
      <trkpt lat="43.94172" lon="7.37105">
        <ele>1499</ele>
        <time>2018-04-22T14:38:23Z</time>
      </trkpt>
      <trkpt lat="43.9417" lon="7.37107">
        <ele>1499</ele>
        <time>2018-04-22T14:38:23Z</time>
      </trkpt>
      <trkpt lat="43.94167" lon="7.37109">
        <ele>1499</ele>
        <time>2018-04-22T14:38:23Z</time>
      </trkpt>
      <trkpt lat="43.94161" lon="7.37114">
        <ele>1499</ele>
        <time>2018-04-22T14:38:23Z</time>
      </trkpt>
      <trkpt lat="43.94159" lon="7.37117">
        <ele>1499</ele>
        <time>2018-04-22T14:38:39Z</time>
      </trkpt>
      <trkpt lat="43.94155" lon="7.37123">
        <ele>1499</ele>
        <time>2018-04-22T14:38:39Z</time>
      </trkpt>
      <trkpt lat="43.9415" lon="7.37126">
        <ele>1451</ele>
        <time>2018-04-22T14:38:39Z</time>
      </trkpt>
      <trkpt lat="43.94147" lon="7.37129">
        <ele>1451</ele>
        <time>2018-04-22T14:38:39Z</time>
      </trkpt>
      <trkpt lat="43.94144" lon="7.37131">
        <ele>1451</ele>
        <time>2018-04-22T14:38:55Z</time>
      </trkpt>
      <trkpt lat="43.9414" lon="7.37133">
        <ele>1451</ele>
        <time>2018-04-22T14:38:55Z</time>
      </trkpt>
      <trkpt lat="43.94137" lon="7.37133">
        <ele>1451</ele>
        <time>2018-04-22T14:38:55Z</time>
      </trkpt>
      <trkpt lat="43.94131" lon="7.37132">
        <ele>1451</ele>
        <time>2018-04-22T14:38:55Z</time>
      </trkpt>
      <trkpt lat="43.94128" lon="7.37133">
        <ele>1451</ele>
        <time>2018-04-22T14:39:11Z</time>
      </trkpt>
      <trkpt lat="43.94121" lon="7.3713">
        <ele>1472</ele>
        <time>2018-04-22T14:39:11Z</time>
      </trkpt>
      <trkpt lat="43.94117" lon="7.37131">
        <ele>1472</ele>
        <time>2018-04-22T14:39:11Z</time>
      </trkpt>
      <trkpt lat="43.94114" lon="7.37133">
        <ele>1472</ele>
        <time>2018-04-22T14:39:11Z</time>
      </trkpt>
      <trkpt lat="43.94111" lon="7.37132">
        <ele>1472</ele>
        <time>2018-04-22T14:39:27Z</time>
      </trkpt>
      <trkpt lat="43.94101" lon="7.37131">
        <ele>1472</ele>
        <time>2018-04-22T14:39:27Z</time>
      </trkpt>
      <trkpt lat="43.94098" lon="7.3713">
        <ele>1472</ele>
        <time>2018-04-22T14:39:27Z</time>
      </trkpt>
      <trkpt lat="43.94091" lon="7.37127">
        <ele>1472</ele>
        <time>2018-04-22T14:39:27Z</time>
      </trkpt>
      <trkpt lat="43.94085" lon="7.37129">
        <ele>1472</ele>
        <time>2018-04-22T14:39:43Z</time>
      </trkpt>
      <trkpt lat="43.94082" lon="7.37129">
        <ele>1472</ele>
        <time>2018-04-22T14:39:43Z</time>
      </trkpt>
      <trkpt lat="43.94079" lon="7.37133">
        <ele>1472</ele>
        <time>2018-04-22T14:39:43Z</time>
      </trkpt>
      <trkpt lat="43.94075" lon="7.37135">
        <ele>1472</ele>
        <time>2018-04-22T14:39:43Z</time>
      </trkpt>
      <trkpt lat="43.94072" lon="7.37138">
        <ele>1472</ele>
        <time>2018-04-22T14:39:59Z</time>
      </trkpt>
      <trkpt lat="43.94067" lon="7.37147">
        <ele>1472</ele>
        <time>2018-04-22T14:39:59Z</time>
      </trkpt>
      <trkpt lat="43.94064" lon="7.37156">
        <ele>1472</ele>
        <time>2018-04-22T14:39:59Z</time>
      </trkpt>
      <trkpt lat="43.94062" lon="7.37166">
        <ele>1472</ele>
        <time>2018-04-22T14:39:59Z</time>
      </trkpt>
      <trkpt lat="43.94063" lon="7.37167">
        <ele>1472</ele>
        <time>2018-04-22T14:40:15Z</time>
      </trkpt>
      <trkpt lat="43.94063" lon="7.37171">
        <ele>1472</ele>
        <time>2018-04-22T14:40:15Z</time>
      </trkpt>
      <trkpt lat="43.94063" lon="7.37178">
        <ele>1472</ele>
        <time>2018-04-22T14:40:15Z</time>
      </trkpt>
      <trkpt lat="43.94063" lon="7.37185">
        <ele>1472</ele>
        <time>2018-04-22T14:40:15Z</time>
      </trkpt>
      <trkpt lat="43.94063" lon="7.37192">
        <ele>1472</ele>
        <time>2018-04-22T14:40:31Z</time>
      </trkpt>
      <trkpt lat="43.94063" lon="7.37199">
        <ele>1472</ele>
        <time>2018-04-22T14:40:31Z</time>
      </trkpt>
      <trkpt lat="43.94062" lon="7.37205">
        <ele>1472</ele>
        <time>2018-04-22T14:40:31Z</time>
      </trkpt>
      <trkpt lat="43.9406" lon="7.37211">
        <ele>1454</ele>
        <time>2018-04-22T14:40:31Z</time>
      </trkpt>
      <trkpt lat="43.9406" lon="7.37216">
        <ele>1454</ele>
        <time>2018-04-22T14:40:47Z</time>
      </trkpt>
      <trkpt lat="43.9406" lon="7.37222">
        <ele>1454</ele>
        <time>2018-04-22T14:40:47Z</time>
      </trkpt>
      <trkpt lat="43.94059" lon="7.3723">
        <ele>1454</ele>
        <time>2018-04-22T14:40:47Z</time>
      </trkpt>
      <trkpt lat="43.94061" lon="7.37241">
        <ele>1454</ele>
        <time>2018-04-22T14:40:47Z</time>
      </trkpt>
      <trkpt lat="43.94062" lon="7.37249">
        <ele>1454</ele>
        <time>2018-04-22T14:41:03Z</time>
      </trkpt>
      <trkpt lat="43.94063" lon="7.37255">
        <ele>1454</ele>
        <time>2018-04-22T14:41:03Z</time>
      </trkpt>
      <trkpt lat="43.94065" lon="7.37262">
        <ele>1454</ele>
        <time>2018-04-22T14:41:03Z</time>
      </trkpt>
      <trkpt lat="43.94066" lon="7.37272">
        <ele>1454</ele>
        <time>2018-04-22T14:41:03Z</time>
      </trkpt>
      <trkpt lat="43.94067" lon="7.37279">
        <ele>1454</ele>
        <time>2018-04-22T14:41:19Z</time>
      </trkpt>
      <trkpt lat="43.94067" lon="7.37285">
        <ele>1454</ele>
        <time>2018-04-22T14:41:19Z</time>
      </trkpt>
      <trkpt lat="43.94067" lon="7.37294">
        <ele>1447</ele>
        <time>2018-04-22T14:41:19Z</time>
      </trkpt>
      <trkpt lat="43.94068" lon="7.37303">
        <ele>1447</ele>
        <time>2018-04-22T14:41:19Z</time>
      </trkpt>
      <trkpt lat="43.94067" lon="7.3731">
        <ele>1447</ele>
        <time>2018-04-22T14:41:35Z</time>
      </trkpt>
      <trkpt lat="43.94065" lon="7.37317">
        <ele>1447</ele>
        <time>2018-04-22T14:41:35Z</time>
      </trkpt>
      <trkpt lat="43.94064" lon="7.3732">
        <ele>1447</ele>
        <time>2018-04-22T14:41:35Z</time>
      </trkpt>
      <trkpt lat="43.94065" lon="7.37324">
        <ele>1447</ele>
        <time>2018-04-22T14:41:35Z</time>
      </trkpt>
      <trkpt lat="43.94064" lon="7.3733">
        <ele>1447</ele>
        <time>2018-04-22T14:41:51Z</time>
      </trkpt>
      <trkpt lat="43.94062" lon="7.37338">
        <ele>1447</ele>
        <time>2018-04-22T14:41:51Z</time>
      </trkpt>
      <trkpt lat="43.9406" lon="7.37346">
        <ele>1447</ele>
        <time>2018-04-22T14:41:51Z</time>
      </trkpt>
      <trkpt lat="43.94058" lon="7.37352">
        <ele>1447</ele>
        <time>2018-04-22T14:41:51Z</time>
      </trkpt>
      <trkpt lat="43.94057" lon="7.3736">
        <ele>1447</ele>
        <time>2018-04-22T14:42:07Z</time>
      </trkpt>
      <trkpt lat="43.94056" lon="7.37365">
        <ele>1447</ele>
        <time>2018-04-22T14:42:07Z</time>
      </trkpt>
      <trkpt lat="43.94054" lon="7.37374">
        <ele>1447</ele>
        <time>2018-04-22T14:42:07Z</time>
      </trkpt>
      <trkpt lat="43.94055" lon="7.37378">
        <ele>1440</ele>
        <time>2018-04-22T14:42:07Z</time>
      </trkpt>
      <trkpt lat="43.94055" lon="7.37383">
        <ele>1440</ele>
        <time>2018-04-22T14:42:23Z</time>
      </trkpt>
      <trkpt lat="43.94055" lon="7.37389">
        <ele>1440</ele>
        <time>2018-04-22T14:42:23Z</time>
      </trkpt>
      <trkpt lat="43.94056" lon="7.37395">
        <ele>1440</ele>
        <time>2018-04-22T14:42:23Z</time>
      </trkpt>
      <trkpt lat="43.94056" lon="7.374">
        <ele>1440</ele>
        <time>2018-04-22T14:42:23Z</time>
      </trkpt>
      <trkpt lat="43.94057" lon="7.37409">
        <ele>1440</ele>
        <time>2018-04-22T14:42:39Z</time>
      </trkpt>
      <trkpt lat="43.94057" lon="7.37418">
        <ele>1440</ele>
        <time>2018-04-22T14:42:39Z</time>
      </trkpt>
      <trkpt lat="43.94058" lon="7.37423">
        <ele>1440</ele>
        <time>2018-04-22T14:42:39Z</time>
      </trkpt>
      <trkpt lat="43.94058" lon="7.37429">
        <ele>1440</ele>
        <time>2018-04-22T14:42:39Z</time>
      </trkpt>
      <trkpt lat="43.94058" lon="7.37433">
        <ele>1440</ele>
        <time>2018-04-22T14:42:59Z</time>
      </trkpt>
      <trkpt lat="43.94059" lon="7.37433">
        <ele>1440</ele>
        <time>2018-04-22T14:42:59Z</time>
      </trkpt>
      <trkpt lat="43.94059" lon="7.3743">
        <ele>1440</ele>
        <time>2018-04-22T14:42:59Z</time>
      </trkpt>
      <trkpt lat="43.9406" lon="7.37425">
        <ele>1440</ele>
        <time>2018-04-22T14:42:59Z</time>
      </trkpt>
      <trkpt lat="43.94061" lon="7.3742">
        <ele>1440</ele>
        <time>2018-04-22T14:42:59Z</time>
      </trkpt>
      <trkpt lat="43.94061" lon="7.37414">
        <ele>1440</ele>
        <time>2018-04-22T14:43:15Z</time>
      </trkpt>
      <trkpt lat="43.94061" lon="7.37408">
        <ele>1440</ele>
        <time>2018-04-22T14:43:15Z</time>
      </trkpt>
      <trkpt lat="43.94062" lon="7.37403">
        <ele>1440</ele>
        <time>2018-04-22T14:43:15Z</time>
      </trkpt>
      <trkpt lat="43.94058" lon="7.37393">
        <ele>1440</ele>
        <time>2018-04-22T14:43:15Z</time>
      </trkpt>
      <trkpt lat="43.94056" lon="7.37382">
        <ele>1440</ele>
        <time>2018-04-22T14:43:31Z</time>
      </trkpt>
      <trkpt lat="43.94057" lon="7.37376">
        <ele>1440</ele>
        <time>2018-04-22T14:43:31Z</time>
      </trkpt>
      <trkpt lat="43.94056" lon="7.37369">
        <ele>1447</ele>
        <time>2018-04-22T14:43:31Z</time>
      </trkpt>
      <trkpt lat="43.94056" lon="7.37366">
        <ele>1447</ele>
        <time>2018-04-22T14:43:31Z</time>
      </trkpt>
      <trkpt lat="43.94054" lon="7.37363">
        <ele>1447</ele>
        <time>2018-04-22T14:43:47Z</time>
      </trkpt>
      <trkpt lat="43.94053" lon="7.37359">
        <ele>1447</ele>
        <time>2018-04-22T14:43:47Z</time>
      </trkpt>
      <trkpt lat="43.94052" lon="7.37355">
        <ele>1447</ele>
        <time>2018-04-22T14:43:47Z</time>
      </trkpt>
      <trkpt lat="43.94063" lon="7.37351">
        <ele>1447</ele>
        <time>2018-04-22T14:43:47Z</time>
      </trkpt>
      <trkpt lat="43.94075" lon="7.37329">
        <ele>1447</ele>
        <time>2018-04-22T14:44:03Z</time>
      </trkpt>
      <trkpt lat="43.94085" lon="7.37314">
        <ele>1447</ele>
        <time>2018-04-22T14:44:03Z</time>
      </trkpt>
      <trkpt lat="43.94092" lon="7.37306">
        <ele>1447</ele>
        <time>2018-04-22T14:44:03Z</time>
      </trkpt>
      <trkpt lat="43.94095" lon="7.373">
        <ele>1447</ele>
        <time>2018-04-22T14:44:03Z</time>
      </trkpt>
      <trkpt lat="43.94098" lon="7.37294">
        <ele>1447</ele>
        <time>2018-04-22T14:44:19Z</time>
      </trkpt>
      <trkpt lat="43.941" lon="7.37286">
        <ele>1454</ele>
        <time>2018-04-22T14:44:19Z</time>
      </trkpt>
      <trkpt lat="43.94103" lon="7.37279">
        <ele>1454</ele>
        <time>2018-04-22T14:44:19Z</time>
      </trkpt>
      <trkpt lat="43.94105" lon="7.37275">
        <ele>1454</ele>
        <time>2018-04-22T14:44:19Z</time>
      </trkpt>
      <trkpt lat="43.94109" lon="7.37269">
        <ele>1454</ele>
        <time>2018-04-22T14:44:35Z</time>
      </trkpt>
      <trkpt lat="43.94112" lon="7.37259">
        <ele>1454</ele>
        <time>2018-04-22T14:44:35Z</time>
      </trkpt>
      <trkpt lat="43.9411" lon="7.37256">
        <ele>1454</ele>
        <time>2018-04-22T14:44:35Z</time>
      </trkpt>
      <trkpt lat="43.9411" lon="7.37251">
        <ele>1454</ele>
        <time>2018-04-22T14:44:35Z</time>
      </trkpt>
      <trkpt lat="43.94112" lon="7.37244">
        <ele>1454</ele>
        <time>2018-04-22T14:44:51Z</time>
      </trkpt>
      <trkpt lat="43.94113" lon="7.37239">
        <ele>1454</ele>
        <time>2018-04-22T14:44:51Z</time>
      </trkpt>
      <trkpt lat="43.94114" lon="7.37233">
        <ele>1454</ele>
        <time>2018-04-22T14:44:51Z</time>
      </trkpt>
      <trkpt lat="43.94117" lon="7.3723">
        <ele>1454</ele>
        <time>2018-04-22T14:44:51Z</time>
      </trkpt>
      <trkpt lat="43.94118" lon="7.37232">
        <ele>1454</ele>
        <time>2018-04-22T14:45:11Z</time>
      </trkpt>
      <trkpt lat="43.94116" lon="7.37234">
        <ele>1454</ele>
        <time>2018-04-22T14:45:11Z</time>
      </trkpt>
      <trkpt lat="43.94115" lon="7.37236">
        <ele>1454</ele>
        <time>2018-04-22T14:45:11Z</time>
      </trkpt>
      <trkpt lat="43.94119" lon="7.37244">
        <ele>1454</ele>
        <time>2018-04-22T14:45:11Z</time>
      </trkpt>
      <trkpt lat="43.94124" lon="7.37256">
        <ele>1454</ele>
        <time>2018-04-22T14:45:11Z</time>
      </trkpt>
      <trkpt lat="43.94126" lon="7.37265">
        <ele>1407</ele>
        <time>2018-04-22T14:45:27Z</time>
      </trkpt>
      <trkpt lat="43.94129" lon="7.37273">
        <ele>1407</ele>
        <time>2018-04-22T14:45:27Z</time>
      </trkpt>
      <trkpt lat="43.9413" lon="7.37277">
        <ele>1407</ele>
        <time>2018-04-22T14:45:27Z</time>
      </trkpt>
      <trkpt lat="43.94131" lon="7.37285">
        <ele>1407</ele>
        <time>2018-04-22T14:45:27Z</time>
      </trkpt>
      <trkpt lat="43.94132" lon="7.37293">
        <ele>1392</ele>
        <time>2018-04-22T14:45:43Z</time>
      </trkpt>
      <trkpt lat="43.94133" lon="7.37304">
        <ele>1392</ele>
        <time>2018-04-22T14:45:43Z</time>
      </trkpt>
      <trkpt lat="43.94132" lon="7.37311">
        <ele>1392</ele>
        <time>2018-04-22T14:45:43Z</time>
      </trkpt>
      <trkpt lat="43.94132" lon="7.3732">
        <ele>1392</ele>
        <time>2018-04-22T14:45:43Z</time>
      </trkpt>
      <trkpt lat="43.94133" lon="7.3733">
        <ele>1392</ele>
        <time>2018-04-22T14:45:59Z</time>
      </trkpt>
      <trkpt lat="43.94135" lon="7.37338">
        <ele>1392</ele>
        <time>2018-04-22T14:45:59Z</time>
      </trkpt>
      <trkpt lat="43.94137" lon="7.37344">
        <ele>1392</ele>
        <time>2018-04-22T14:45:59Z</time>
      </trkpt>
      <trkpt lat="43.94138" lon="7.37349">
        <ele>1392</ele>
        <time>2018-04-22T14:45:59Z</time>
      </trkpt>
      <trkpt lat="43.94138" lon="7.37354">
        <ele>1392</ele>
        <time>2018-04-22T14:46:15Z</time>
      </trkpt>
      <trkpt lat="43.94136" lon="7.37359">
        <ele>1392</ele>
        <time>2018-04-22T14:46:15Z</time>
      </trkpt>
      <trkpt lat="43.94136" lon="7.37367">
        <ele>1392</ele>
        <time>2018-04-22T14:46:15Z</time>
      </trkpt>
      <trkpt lat="43.94137" lon="7.37373">
        <ele>1392</ele>
        <time>2018-04-22T14:46:15Z</time>
      </trkpt>
      <trkpt lat="43.94137" lon="7.37376">
        <ele>1389</ele>
        <time>2018-04-22T14:46:59Z</time>
      </trkpt>
      <trkpt lat="43.94136" lon="7.3737">
        <ele>1392</ele>
        <time>2018-04-22T14:46:59Z</time>
      </trkpt>
      <trkpt lat="43.94137" lon="7.37363">
        <ele>1392</ele>
        <time>2018-04-22T14:46:59Z</time>
      </trkpt>
      <trkpt lat="43.94137" lon="7.3736">
        <ele>1392</ele>
        <time>2018-04-22T14:46:59Z</time>
      </trkpt>
      <trkpt lat="43.94143" lon="7.37355">
        <ele>1392</ele>
        <time>2018-04-22T14:46:59Z</time>
      </trkpt>
      <trkpt lat="43.94147" lon="7.37351">
        <ele>1392</ele>
        <time>2018-04-22T14:47:15Z</time>
      </trkpt>
      <trkpt lat="43.9415" lon="7.37346">
        <ele>1392</ele>
        <time>2018-04-22T14:47:15Z</time>
      </trkpt>
      <trkpt lat="43.94157" lon="7.37336">
        <ele>1392</ele>
        <time>2018-04-22T14:47:15Z</time>
      </trkpt>
      <trkpt lat="43.94158" lon="7.37332">
        <ele>1392</ele>
        <time>2018-04-22T14:47:15Z</time>
      </trkpt>
      <trkpt lat="43.9416" lon="7.37329">
        <ele>1392</ele>
        <time>2018-04-22T14:47:31Z</time>
      </trkpt>
      <trkpt lat="43.94157" lon="7.3733">
        <ele>1392</ele>
        <time>2018-04-22T14:47:31Z</time>
      </trkpt>
      <trkpt lat="43.94154" lon="7.37331">
        <ele>1392</ele>
        <time>2018-04-22T14:47:31Z</time>
      </trkpt>
      <trkpt lat="43.94148" lon="7.37342">
        <ele>1392</ele>
        <time>2018-04-22T14:47:31Z</time>
      </trkpt>
      <trkpt lat="43.94148" lon="7.37347">
        <ele>1392</ele>
        <time>2018-04-22T14:47:47Z</time>
      </trkpt>
      <trkpt lat="43.94146" lon="7.37355">
        <ele>1392</ele>
        <time>2018-04-22T14:47:47Z</time>
      </trkpt>
      <trkpt lat="43.94146" lon="7.3736">
        <ele>1392</ele>
        <time>2018-04-22T14:47:47Z</time>
      </trkpt>
      <trkpt lat="43.94146" lon="7.37363">
        <ele>1392</ele>
        <time>2018-04-22T14:47:47Z</time>
      </trkpt>
      <trkpt lat="43.94147" lon="7.37369">
        <ele>1392</ele>
        <time>2018-04-22T14:48:03Z</time>
      </trkpt>
      <trkpt lat="43.94149" lon="7.37372">
        <ele>1392</ele>
        <time>2018-04-22T14:48:03Z</time>
      </trkpt>
      <trkpt lat="43.94151" lon="7.37378">
        <ele>1389</ele>
        <time>2018-04-22T14:48:03Z</time>
      </trkpt>
      <trkpt lat="43.94151" lon="7.37383">
        <ele>1389</ele>
        <time>2018-04-22T14:48:03Z</time>
      </trkpt>
      <trkpt lat="43.94156" lon="7.37386">
        <ele>1389</ele>
        <time>2018-04-22T14:48:47Z</time>
      </trkpt>
      <trkpt lat="43.94158" lon="7.37393">
        <ele>1389</ele>
        <time>2018-04-22T14:48:47Z</time>
      </trkpt>
      <trkpt lat="43.94158" lon="7.37399">
        <ele>1389</ele>
        <time>2018-04-22T14:48:47Z</time>
      </trkpt>
      <trkpt lat="43.94158" lon="7.37406">
        <ele>1389</ele>
        <time>2018-04-22T14:48:47Z</time>
      </trkpt>
      <trkpt lat="43.94157" lon="7.37413">
        <ele>1389</ele>
        <time>2018-04-22T14:48:47Z</time>
      </trkpt>
      <trkpt lat="43.94155" lon="7.37417">
        <ele>1389</ele>
        <time>2018-04-22T14:49:03Z</time>
      </trkpt>
      <trkpt lat="43.94151" lon="7.37426">
        <ele>1389</ele>
        <time>2018-04-22T14:49:03Z</time>
      </trkpt>
      <trkpt lat="43.9415" lon="7.37431">
        <ele>1389</ele>
        <time>2018-04-22T14:49:03Z</time>
      </trkpt>
      <trkpt lat="43.94149" lon="7.37438">
        <ele>1389</ele>
        <time>2018-04-22T14:49:03Z</time>
      </trkpt>
      <trkpt lat="43.94145" lon="7.37448">
        <ele>1389</ele>
        <time>2018-04-22T14:49:27Z</time>
      </trkpt>
      <trkpt lat="43.94144" lon="7.37448">
        <ele>1389</ele>
        <time>2018-04-22T14:49:27Z</time>
      </trkpt>
      <trkpt lat="43.94139" lon="7.37453">
        <ele>1389</ele>
        <time>2018-04-22T14:49:27Z</time>
      </trkpt>
      <trkpt lat="43.94139" lon="7.37454">
        <ele>1389</ele>
        <time>2018-04-22T14:49:27Z</time>
      </trkpt>
      <trkpt lat="43.94135" lon="7.37462">
        <ele>1369</ele>
        <time>2018-04-22T14:49:27Z</time>
      </trkpt>
      <trkpt lat="43.94133" lon="7.3747">
        <ele>1369</ele>
        <time>2018-04-22T14:49:43Z</time>
      </trkpt>
      <trkpt lat="43.9413" lon="7.3748">
        <ele>1369</ele>
        <time>2018-04-22T14:49:43Z</time>
      </trkpt>
      <trkpt lat="43.94128" lon="7.37488">
        <ele>1369</ele>
        <time>2018-04-22T14:49:43Z</time>
      </trkpt>
      <trkpt lat="43.94127" lon="7.37494">
        <ele>1369</ele>
        <time>2018-04-22T14:49:43Z</time>
      </trkpt>
      <trkpt lat="43.94126" lon="7.37499">
        <ele>1369</ele>
        <time>2018-04-22T14:49:59Z</time>
      </trkpt>
      <trkpt lat="43.94127" lon="7.37504">
        <ele>1369</ele>
        <time>2018-04-22T14:49:59Z</time>
      </trkpt>
      <trkpt lat="43.94127" lon="7.37511">
        <ele>1369</ele>
        <time>2018-04-22T14:49:59Z</time>
      </trkpt>
      <trkpt lat="43.94127" lon="7.37515">
        <ele>1369</ele>
        <time>2018-04-22T14:49:59Z</time>
      </trkpt>
      <trkpt lat="43.94126" lon="7.37523">
        <ele>1369</ele>
        <time>2018-04-22T14:50:15Z</time>
      </trkpt>
      <trkpt lat="43.94125" lon="7.37526">
        <ele>1421</ele>
        <time>2018-04-22T14:50:15Z</time>
      </trkpt>
      <trkpt lat="43.94122" lon="7.37535">
        <ele>1421</ele>
        <time>2018-04-22T14:50:15Z</time>
      </trkpt>
      <trkpt lat="43.94121" lon="7.37541">
        <ele>1421</ele>
        <time>2018-04-22T14:50:15Z</time>
      </trkpt>
      <trkpt lat="43.94119" lon="7.37546">
        <ele>1384</ele>
        <time>2018-04-22T14:50:31Z</time>
      </trkpt>
      <trkpt lat="43.94117" lon="7.3755">
        <ele>1384</ele>
        <time>2018-04-22T14:50:31Z</time>
      </trkpt>
      <trkpt lat="43.94114" lon="7.37556">
        <ele>1384</ele>
        <time>2018-04-22T14:50:31Z</time>
      </trkpt>
      <trkpt lat="43.94111" lon="7.3756">
        <ele>1384</ele>
        <time>2018-04-22T14:50:31Z</time>
      </trkpt>
      <trkpt lat="43.94105" lon="7.37564">
        <ele>1384</ele>
        <time>2018-04-22T14:50:47Z</time>
      </trkpt>
      <trkpt lat="43.941" lon="7.37569">
        <ele>1384</ele>
        <time>2018-04-22T14:50:47Z</time>
      </trkpt>
      <trkpt lat="43.94096" lon="7.37572">
        <ele>1384</ele>
        <time>2018-04-22T14:50:47Z</time>
      </trkpt>
      <trkpt lat="43.94091" lon="7.37572">
        <ele>1384</ele>
        <time>2018-04-22T14:50:47Z</time>
      </trkpt>
      <trkpt lat="43.94081" lon="7.3757">
        <ele>1384</ele>
        <time>2018-04-22T14:51:03Z</time>
      </trkpt>
      <trkpt lat="43.94073" lon="7.37567">
        <ele>1384</ele>
        <time>2018-04-22T14:51:03Z</time>
      </trkpt>
      <trkpt lat="43.94069" lon="7.37566">
        <ele>1384</ele>
        <time>2018-04-22T14:51:03Z</time>
      </trkpt>
      <trkpt lat="43.94063" lon="7.37561">
        <ele>1384</ele>
        <time>2018-04-22T14:51:03Z</time>
      </trkpt>
      <trkpt lat="43.94058" lon="7.37559">
        <ele>1384</ele>
        <time>2018-04-22T14:51:19Z</time>
      </trkpt>
      <trkpt lat="43.94055" lon="7.37556">
        <ele>1384</ele>
        <time>2018-04-22T14:51:19Z</time>
      </trkpt>
      <trkpt lat="43.9405" lon="7.37553">
        <ele>1384</ele>
        <time>2018-04-22T14:51:19Z</time>
      </trkpt>
      <trkpt lat="43.94049" lon="7.37552">
        <ele>1384</ele>
        <time>2018-04-22T14:51:19Z</time>
      </trkpt>
      <trkpt lat="43.94047" lon="7.37551">
        <ele>1384</ele>
        <time>2018-04-22T14:51:35Z</time>
      </trkpt>
      <trkpt lat="43.94042" lon="7.37551">
        <ele>1378</ele>
        <time>2018-04-22T14:51:35Z</time>
      </trkpt>
      <trkpt lat="43.94038" lon="7.3755">
        <ele>1378</ele>
        <time>2018-04-22T14:51:35Z</time>
      </trkpt>
      <trkpt lat="43.94032" lon="7.37551">
        <ele>1378</ele>
        <time>2018-04-22T14:51:35Z</time>
      </trkpt>
      <trkpt lat="43.94028" lon="7.37552">
        <ele>1378</ele>
        <time>2018-04-22T14:51:51Z</time>
      </trkpt>
      <trkpt lat="43.94021" lon="7.37553">
        <ele>1378</ele>
        <time>2018-04-22T14:51:51Z</time>
      </trkpt>
      <trkpt lat="43.94017" lon="7.37556">
        <ele>1378</ele>
        <time>2018-04-22T14:51:51Z</time>
      </trkpt>
      <trkpt lat="43.94012" lon="7.37559">
        <ele>1378</ele>
        <time>2018-04-22T14:51:51Z</time>
      </trkpt>
      <trkpt lat="43.94003" lon="7.37559">
        <ele>1378</ele>
        <time>2018-04-22T14:52:07Z</time>
      </trkpt>
      <trkpt lat="43.93995" lon="7.37557">
        <ele>1378</ele>
        <time>2018-04-22T14:52:07Z</time>
      </trkpt>
      <trkpt lat="43.93992" lon="7.37557">
        <ele>1378</ele>
        <time>2018-04-22T14:52:07Z</time>
      </trkpt>
      <trkpt lat="43.93987" lon="7.37556">
        <ele>1378</ele>
        <time>2018-04-22T14:52:07Z</time>
      </trkpt>
      <trkpt lat="43.93983" lon="7.37557">
        <ele>1378</ele>
        <time>2018-04-22T14:52:23Z</time>
      </trkpt>
      <trkpt lat="43.93979" lon="7.37557">
        <ele>1378</ele>
        <time>2018-04-22T14:52:23Z</time>
      </trkpt>
      <trkpt lat="43.93973" lon="7.37558">
        <ele>1378</ele>
        <time>2018-04-22T14:52:23Z</time>
      </trkpt>
      <trkpt lat="43.93968" lon="7.37557">
        <ele>1378</ele>
        <time>2018-04-22T14:52:23Z</time>
      </trkpt>
      <trkpt lat="43.93963" lon="7.37558">
        <ele>1378</ele>
        <time>2018-04-22T14:52:39Z</time>
      </trkpt>
      <trkpt lat="43.93959" lon="7.37559">
        <ele>1378</ele>
        <time>2018-04-22T14:52:39Z</time>
      </trkpt>
      <trkpt lat="43.93951" lon="7.3756">
        <ele>1392</ele>
        <time>2018-04-22T14:52:39Z</time>
      </trkpt>
      <trkpt lat="43.93948" lon="7.37561">
        <ele>1392</ele>
        <time>2018-04-22T14:52:39Z</time>
      </trkpt>
      <trkpt lat="43.93946" lon="7.37564">
        <ele>1392</ele>
        <time>2018-04-22T14:52:55Z</time>
      </trkpt>
      <trkpt lat="43.93945" lon="7.37566">
        <ele>1392</ele>
        <time>2018-04-22T14:52:55Z</time>
      </trkpt>
      <trkpt lat="43.93944" lon="7.37568">
        <ele>1392</ele>
        <time>2018-04-22T14:52:55Z</time>
      </trkpt>
      <trkpt lat="43.9394" lon="7.37576">
        <ele>1392</ele>
        <time>2018-04-22T14:52:55Z</time>
      </trkpt>
      <trkpt lat="43.93936" lon="7.37585">
        <ele>1392</ele>
        <time>2018-04-22T14:53:11Z</time>
      </trkpt>
      <trkpt lat="43.93931" lon="7.37596">
        <ele>1392</ele>
        <time>2018-04-22T14:53:11Z</time>
      </trkpt>
      <trkpt lat="43.93928" lon="7.37604">
        <ele>1392</ele>
        <time>2018-04-22T14:53:11Z</time>
      </trkpt>
      <trkpt lat="43.93926" lon="7.37609">
        <ele>1392</ele>
        <time>2018-04-22T14:53:11Z</time>
      </trkpt>
      <trkpt lat="43.93922" lon="7.37615">
        <ele>1392</ele>
        <time>2018-04-22T14:53:27Z</time>
      </trkpt>
      <trkpt lat="43.93918" lon="7.37623">
        <ele>1392</ele>
        <time>2018-04-22T14:53:27Z</time>
      </trkpt>
      <trkpt lat="43.93915" lon="7.37628">
        <ele>1368</ele>
        <time>2018-04-22T14:53:27Z</time>
      </trkpt>
      <trkpt lat="43.93912" lon="7.37634">
        <ele>1368</ele>
        <time>2018-04-22T14:53:27Z</time>
      </trkpt>
      <trkpt lat="43.93911" lon="7.37638">
        <ele>1368</ele>
        <time>2018-04-22T14:53:43Z</time>
      </trkpt>
      <trkpt lat="43.9391" lon="7.37643">
        <ele>1368</ele>
        <time>2018-04-22T14:53:43Z</time>
      </trkpt>
      <trkpt lat="43.93909" lon="7.37654">
        <ele>1368</ele>
        <time>2018-04-22T14:53:43Z</time>
      </trkpt>
      <trkpt lat="43.93909" lon="7.37656">
        <ele>1368</ele>
        <time>2018-04-22T14:53:43Z</time>
      </trkpt>
      <trkpt lat="43.93909" lon="7.37663">
        <ele>1368</ele>
        <time>2018-04-22T14:53:59Z</time>
      </trkpt>
      <trkpt lat="43.93908" lon="7.37673">
        <ele>1368</ele>
        <time>2018-04-22T14:53:59Z</time>
      </trkpt>
      <trkpt lat="43.93907" lon="7.3768">
        <ele>1368</ele>
        <time>2018-04-22T14:53:59Z</time>
      </trkpt>
      <trkpt lat="43.93906" lon="7.37685">
        <ele>1368</ele>
        <time>2018-04-22T14:53:59Z</time>
      </trkpt>
      <trkpt lat="43.93906" lon="7.37696">
        <ele>1368</ele>
        <time>2018-04-22T14:54:15Z</time>
      </trkpt>
      <trkpt lat="43.93906" lon="7.377">
        <ele>1368</ele>
        <time>2018-04-22T14:54:15Z</time>
      </trkpt>
      <trkpt lat="43.93906" lon="7.37704">
        <ele>1368</ele>
        <time>2018-04-22T14:54:15Z</time>
      </trkpt>
      <trkpt lat="43.93907" lon="7.37709">
        <ele>1374</ele>
        <time>2018-04-22T14:54:15Z</time>
      </trkpt>
      <trkpt lat="43.93907" lon="7.37717">
        <ele>1374</ele>
        <time>2018-04-22T14:54:31Z</time>
      </trkpt>
      <trkpt lat="43.93908" lon="7.37723">
        <ele>1374</ele>
        <time>2018-04-22T14:54:31Z</time>
      </trkpt>
      <trkpt lat="43.93908" lon="7.37729">
        <ele>1374</ele>
        <time>2018-04-22T14:54:31Z</time>
      </trkpt>
      <trkpt lat="43.93909" lon="7.37734">
        <ele>1374</ele>
        <time>2018-04-22T14:54:31Z</time>
      </trkpt>
      <trkpt lat="43.9391" lon="7.3774">
        <ele>1374</ele>
        <time>2018-04-22T14:54:51Z</time>
      </trkpt>
      <trkpt lat="43.93911" lon="7.37743">
        <ele>1374</ele>
        <time>2018-04-22T14:54:51Z</time>
      </trkpt>
      <trkpt lat="43.93912" lon="7.37748">
        <ele>1374</ele>
        <time>2018-04-22T14:54:51Z</time>
      </trkpt>
      <trkpt lat="43.93913" lon="7.37752">
        <ele>1374</ele>
        <time>2018-04-22T14:54:51Z</time>
      </trkpt>
      <trkpt lat="43.93915" lon="7.37756">
        <ele>1374</ele>
        <time>2018-04-22T14:54:51Z</time>
      </trkpt>
      <trkpt lat="43.93918" lon="7.37764">
        <ele>1374</ele>
        <time>2018-04-22T14:55:07Z</time>
      </trkpt>
      <trkpt lat="43.93928" lon="7.3777">
        <ele>1374</ele>
        <time>2018-04-22T14:55:07Z</time>
      </trkpt>
      <trkpt lat="43.93928" lon="7.3777">
        <ele>1374</ele>
        <time>2018-04-22T14:55:07Z</time>
      </trkpt>
      <trkpt lat="43.93928" lon="7.3777">
        <ele>1374</ele>
        <time>2018-04-22T14:55:07Z</time>
      </trkpt>
      <trkpt lat="43.93929" lon="7.3777">
        <ele>1374</ele>
        <time>2018-04-22T14:55:31Z</time>
      </trkpt>
      <trkpt lat="43.9393" lon="7.37771">
        <ele>1374</ele>
        <time>2018-04-22T14:55:31Z</time>
      </trkpt>
      <trkpt lat="43.93931" lon="7.37773">
        <ele>1374</ele>
        <time>2018-04-22T14:55:31Z</time>
      </trkpt>
      <trkpt lat="43.93932" lon="7.37778">
        <ele>1374</ele>
        <time>2018-04-22T14:55:31Z</time>
      </trkpt>
      <trkpt lat="43.93934" lon="7.37783">
        <ele>1374</ele>
        <time>2018-04-22T14:55:31Z</time>
      </trkpt>
      <trkpt lat="43.93935" lon="7.37789">
        <ele>1374</ele>
        <time>2018-04-22T14:55:47Z</time>
      </trkpt>
      <trkpt lat="43.93936" lon="7.37795">
        <ele>1388</ele>
        <time>2018-04-22T14:55:47Z</time>
      </trkpt>
      <trkpt lat="43.93937" lon="7.37801">
        <ele>1388</ele>
        <time>2018-04-22T14:55:47Z</time>
      </trkpt>
      <trkpt lat="43.93939" lon="7.3781">
        <ele>1388</ele>
        <time>2018-04-22T14:55:47Z</time>
      </trkpt>
      <trkpt lat="43.93942" lon="7.37821">
        <ele>1388</ele>
        <time>2018-04-22T14:56:03Z</time>
      </trkpt>
      <trkpt lat="43.93944" lon="7.37826">
        <ele>1388</ele>
        <time>2018-04-22T14:56:03Z</time>
      </trkpt>
      <trkpt lat="43.93946" lon="7.37831">
        <ele>1388</ele>
        <time>2018-04-22T14:56:03Z</time>
      </trkpt>
      <trkpt lat="43.93948" lon="7.37837">
        <ele>1388</ele>
        <time>2018-04-22T14:56:03Z</time>
      </trkpt>
      <trkpt lat="43.9395" lon="7.37843">
        <ele>1388</ele>
        <time>2018-04-22T14:56:19Z</time>
      </trkpt>
      <trkpt lat="43.93951" lon="7.37851">
        <ele>1388</ele>
        <time>2018-04-22T14:56:19Z</time>
      </trkpt>
      <trkpt lat="43.93953" lon="7.37855">
        <ele>1388</ele>
        <time>2018-04-22T14:56:19Z</time>
      </trkpt>
      <trkpt lat="43.93955" lon="7.3786">
        <ele>1388</ele>
        <time>2018-04-22T14:56:19Z</time>
      </trkpt>
      <trkpt lat="43.93956" lon="7.37864">
        <ele>1388</ele>
        <time>2018-04-22T14:56:35Z</time>
      </trkpt>
      <trkpt lat="43.9396" lon="7.37875">
        <ele>1356</ele>
        <time>2018-04-22T14:56:35Z</time>
      </trkpt>
      <trkpt lat="43.93963" lon="7.37881">
        <ele>1356</ele>
        <time>2018-04-22T14:56:35Z</time>
      </trkpt>
      <trkpt lat="43.93965" lon="7.37887">
        <ele>1356</ele>
        <time>2018-04-22T14:56:35Z</time>
      </trkpt>
      <trkpt lat="43.93967" lon="7.3789">
        <ele>1356</ele>
        <time>2018-04-22T14:56:51Z</time>
      </trkpt>
      <trkpt lat="43.93968" lon="7.37894">
        <ele>1356</ele>
        <time>2018-04-22T14:56:51Z</time>
      </trkpt>
      <trkpt lat="43.9397" lon="7.37898">
        <ele>1356</ele>
        <time>2018-04-22T14:56:51Z</time>
      </trkpt>
      <trkpt lat="43.93972" lon="7.37902">
        <ele>1356</ele>
        <time>2018-04-22T14:56:51Z</time>
      </trkpt>
      <trkpt lat="43.93974" lon="7.3791">
        <ele>1356</ele>
        <time>2018-04-22T14:57:07Z</time>
      </trkpt>
      <trkpt lat="43.93975" lon="7.37914">
        <ele>1356</ele>
        <time>2018-04-22T14:57:07Z</time>
      </trkpt>
      <trkpt lat="43.93974" lon="7.3792">
        <ele>1356</ele>
        <time>2018-04-22T14:57:07Z</time>
      </trkpt>
      <trkpt lat="43.93971" lon="7.37924">
        <ele>1356</ele>
        <time>2018-04-22T14:57:07Z</time>
      </trkpt>
      <trkpt lat="43.93967" lon="7.37927">
        <ele>1356</ele>
        <time>2018-04-22T14:57:23Z</time>
      </trkpt>
      <trkpt lat="43.93962" lon="7.3793">
        <ele>1356</ele>
        <time>2018-04-22T14:57:23Z</time>
      </trkpt>
      <trkpt lat="43.93958" lon="7.37932">
        <ele>1386</ele>
        <time>2018-04-22T14:57:23Z</time>
      </trkpt>
      <trkpt lat="43.93954" lon="7.37936">
        <ele>1386</ele>
        <time>2018-04-22T14:57:23Z</time>
      </trkpt>
      <trkpt lat="43.93949" lon="7.37938">
        <ele>1386</ele>
        <time>2018-04-22T14:57:39Z</time>
      </trkpt>
      <trkpt lat="43.93945" lon="7.3794">
        <ele>1386</ele>
        <time>2018-04-22T14:57:39Z</time>
      </trkpt>
      <trkpt lat="43.9394" lon="7.37942">
        <ele>1386</ele>
        <time>2018-04-22T14:57:39Z</time>
      </trkpt>
      <trkpt lat="43.93933" lon="7.37945">
        <ele>1386</ele>
        <time>2018-04-22T14:57:39Z</time>
      </trkpt>
      <trkpt lat="43.9393" lon="7.37946">
        <ele>1386</ele>
        <time>2018-04-22T14:57:55Z</time>
      </trkpt>
      <trkpt lat="43.93921" lon="7.37952">
        <ele>1386</ele>
        <time>2018-04-22T14:57:55Z</time>
      </trkpt>
      <trkpt lat="43.93917" lon="7.37955">
        <ele>1386</ele>
        <time>2018-04-22T14:57:55Z</time>
      </trkpt>
      <trkpt lat="43.93914" lon="7.37959">
        <ele>1348</ele>
        <time>2018-04-22T14:57:55Z</time>
      </trkpt>
      <trkpt lat="43.93909" lon="7.37962">
        <ele>1348</ele>
        <time>2018-04-22T14:58:11Z</time>
      </trkpt>
      <trkpt lat="43.93905" lon="7.37963">
        <ele>1348</ele>
        <time>2018-04-22T14:58:11Z</time>
      </trkpt>
      <trkpt lat="43.93902" lon="7.37964">
        <ele>1348</ele>
        <time>2018-04-22T14:58:11Z</time>
      </trkpt>
      <trkpt lat="43.93895" lon="7.37966">
        <ele>1348</ele>
        <time>2018-04-22T14:58:11Z</time>
      </trkpt>
      <trkpt lat="43.9389" lon="7.37966">
        <ele>1348</ele>
        <time>2018-04-22T14:58:27Z</time>
      </trkpt>
      <trkpt lat="43.93885" lon="7.37965">
        <ele>1348</ele>
        <time>2018-04-22T14:58:27Z</time>
      </trkpt>
      <trkpt lat="43.93881" lon="7.37967">
        <ele>1348</ele>
        <time>2018-04-22T14:58:27Z</time>
      </trkpt>
      <trkpt lat="43.93875" lon="7.37971">
        <ele>1381</ele>
        <time>2018-04-22T14:58:27Z</time>
      </trkpt>
      <trkpt lat="43.9387" lon="7.37976">
        <ele>1381</ele>
        <time>2018-04-22T14:58:43Z</time>
      </trkpt>
      <trkpt lat="43.93866" lon="7.3798">
        <ele>1381</ele>
        <time>2018-04-22T14:58:43Z</time>
      </trkpt>
      <trkpt lat="43.93864" lon="7.37983">
        <ele>1381</ele>
        <time>2018-04-22T14:58:43Z</time>
      </trkpt>
      <trkpt lat="43.93862" lon="7.37986">
        <ele>1381</ele>
        <time>2018-04-22T14:58:43Z</time>
      </trkpt>
      <trkpt lat="43.93859" lon="7.3799">
        <ele>1381</ele>
        <time>2018-04-22T14:58:59Z</time>
      </trkpt>
      <trkpt lat="43.93856" lon="7.37994">
        <ele>1381</ele>
        <time>2018-04-22T14:58:59Z</time>
      </trkpt>
      <trkpt lat="43.93853" lon="7.37998">
        <ele>1381</ele>
        <time>2018-04-22T14:58:59Z</time>
      </trkpt>
      <trkpt lat="43.9385" lon="7.38003">
        <ele>1381</ele>
        <time>2018-04-22T14:58:59Z</time>
      </trkpt>
      <trkpt lat="43.93846" lon="7.38006">
        <ele>1381</ele>
        <time>2018-04-22T14:59:15Z</time>
      </trkpt>
      <trkpt lat="43.93844" lon="7.38008">
        <ele>1381</ele>
        <time>2018-04-22T14:59:15Z</time>
      </trkpt>
      <trkpt lat="43.9384" lon="7.38011">
        <ele>1381</ele>
        <time>2018-04-22T14:59:15Z</time>
      </trkpt>
      <trkpt lat="43.93835" lon="7.38015">
        <ele>1381</ele>
        <time>2018-04-22T14:59:15Z</time>
      </trkpt>
      <trkpt lat="43.93831" lon="7.38018">
        <ele>1381</ele>
        <time>2018-04-22T14:59:31Z</time>
      </trkpt>
      <trkpt lat="43.93829" lon="7.38022">
        <ele>1381</ele>
        <time>2018-04-22T14:59:31Z</time>
      </trkpt>
      <trkpt lat="43.93827" lon="7.38026">
        <ele>1381</ele>
        <time>2018-04-22T14:59:31Z</time>
      </trkpt>
      <trkpt lat="43.93827" lon="7.38031">
        <ele>1381</ele>
        <time>2018-04-22T14:59:31Z</time>
      </trkpt>
      <trkpt lat="43.93825" lon="7.38038">
        <ele>1381</ele>
        <time>2018-04-22T14:59:47Z</time>
      </trkpt>
      <trkpt lat="43.93823" lon="7.38046">
        <ele>1359</ele>
        <time>2018-04-22T14:59:47Z</time>
      </trkpt>
      <trkpt lat="43.93822" lon="7.38055">
        <ele>1359</ele>
        <time>2018-04-22T14:59:47Z</time>
      </trkpt>
      <trkpt lat="43.93823" lon="7.38064">
        <ele>1359</ele>
        <time>2018-04-22T14:59:47Z</time>
      </trkpt>
      <trkpt lat="43.93825" lon="7.38071">
        <ele>1359</ele>
        <time>2018-04-22T15:00:03Z</time>
      </trkpt>
      <trkpt lat="43.93827" lon="7.38077">
        <ele>1359</ele>
        <time>2018-04-22T15:00:03Z</time>
      </trkpt>
      <trkpt lat="43.93828" lon="7.38084">
        <ele>1359</ele>
        <time>2018-04-22T15:00:03Z</time>
      </trkpt>
      <trkpt lat="43.93828" lon="7.3809">
        <ele>1359</ele>
        <time>2018-04-22T15:00:03Z</time>
      </trkpt>
      <trkpt lat="43.93828" lon="7.38096">
        <ele>1359</ele>
        <time>2018-04-22T15:00:19Z</time>
      </trkpt>
      <trkpt lat="43.93829" lon="7.38103">
        <ele>1359</ele>
        <time>2018-04-22T15:00:19Z</time>
      </trkpt>
      <trkpt lat="43.9383" lon="7.38111">
        <ele>1359</ele>
        <time>2018-04-22T15:00:19Z</time>
      </trkpt>
      <trkpt lat="43.9383" lon="7.38117">
        <ele>1359</ele>
        <time>2018-04-22T15:00:19Z</time>
      </trkpt>
      <trkpt lat="43.93831" lon="7.38125">
        <ele>1359</ele>
        <time>2018-04-22T15:00:35Z</time>
      </trkpt>
      <trkpt lat="43.93831" lon="7.38132">
        <ele>1353</ele>
        <time>2018-04-22T15:00:35Z</time>
      </trkpt>
      <trkpt lat="43.93831" lon="7.38141">
        <ele>1353</ele>
        <time>2018-04-22T15:00:35Z</time>
      </trkpt>
      <trkpt lat="43.93831" lon="7.38147">
        <ele>1353</ele>
        <time>2018-04-22T15:00:35Z</time>
      </trkpt>
      <trkpt lat="43.93829" lon="7.38157">
        <ele>1353</ele>
        <time>2018-04-22T15:00:51Z</time>
      </trkpt>
      <trkpt lat="43.93828" lon="7.38164">
        <ele>1353</ele>
        <time>2018-04-22T15:00:51Z</time>
      </trkpt>
      <trkpt lat="43.93828" lon="7.38168">
        <ele>1353</ele>
        <time>2018-04-22T15:00:51Z</time>
      </trkpt>
      <trkpt lat="43.93828" lon="7.3817">
        <ele>1353</ele>
        <time>2018-04-22T15:00:51Z</time>
      </trkpt>
      <trkpt lat="43.93829" lon="7.38174">
        <ele>1353</ele>
        <time>2018-04-22T15:01:11Z</time>
      </trkpt>
      <trkpt lat="43.9383" lon="7.38175">
        <ele>1353</ele>
        <time>2018-04-22T15:01:11Z</time>
      </trkpt>
      <trkpt lat="43.93831" lon="7.38178">
        <ele>1353</ele>
        <time>2018-04-22T15:01:11Z</time>
      </trkpt>
      <trkpt lat="43.93832" lon="7.38184">
        <ele>1353</ele>
        <time>2018-04-22T15:01:11Z</time>
      </trkpt>
      <trkpt lat="43.93833" lon="7.38188">
        <ele>1353</ele>
        <time>2018-04-22T15:01:11Z</time>
      </trkpt>
      <trkpt lat="43.93834" lon="7.38193">
        <ele>1353</ele>
        <time>2018-04-22T15:01:27Z</time>
      </trkpt>
      <trkpt lat="43.93836" lon="7.382">
        <ele>1353</ele>
        <time>2018-04-22T15:01:27Z</time>
      </trkpt>
      <trkpt lat="43.93837" lon="7.38206">
        <ele>1353</ele>
        <time>2018-04-22T15:01:27Z</time>
      </trkpt>
      <trkpt lat="43.93838" lon="7.38214">
        <ele>1352</ele>
        <time>2018-04-22T15:01:27Z</time>
      </trkpt>
      <trkpt lat="43.93839" lon="7.38221">
        <ele>1352</ele>
        <time>2018-04-22T15:01:43Z</time>
      </trkpt>
      <trkpt lat="43.9384" lon="7.38226">
        <ele>1352</ele>
        <time>2018-04-22T15:01:43Z</time>
      </trkpt>
      <trkpt lat="43.93841" lon="7.38233">
        <ele>1352</ele>
        <time>2018-04-22T15:01:43Z</time>
      </trkpt>
      <trkpt lat="43.93842" lon="7.38239">
        <ele>1352</ele>
        <time>2018-04-22T15:01:43Z</time>
      </trkpt>
      <trkpt lat="43.93843" lon="7.38244">
        <ele>1352</ele>
        <time>2018-04-22T15:01:59Z</time>
      </trkpt>
      <trkpt lat="43.93844" lon="7.38251">
        <ele>1352</ele>
        <time>2018-04-22T15:01:59Z</time>
      </trkpt>
      <trkpt lat="43.93844" lon="7.38257">
        <ele>1352</ele>
        <time>2018-04-22T15:01:59Z</time>
      </trkpt>
      <trkpt lat="43.93844" lon="7.38262">
        <ele>1352</ele>
        <time>2018-04-22T15:01:59Z</time>
      </trkpt>
      <trkpt lat="43.93843" lon="7.3828">
        <ele>1352</ele>
        <time>2018-04-22T15:02:59Z</time>
      </trkpt>
      <trkpt lat="43.93844" lon="7.38281">
        <ele>1352</ele>
        <time>2018-04-22T15:02:59Z</time>
      </trkpt>
      <trkpt lat="43.93845" lon="7.38282">
        <ele>1352</ele>
        <time>2018-04-22T15:02:59Z</time>
      </trkpt>
      <trkpt lat="43.93844" lon="7.38288">
        <ele>1352</ele>
        <time>2018-04-22T15:02:59Z</time>
      </trkpt>
      <trkpt lat="43.93845" lon="7.38291">
        <ele>1352</ele>
        <time>2018-04-22T15:02:59Z</time>
      </trkpt>
      <trkpt lat="43.93847" lon="7.383">
        <ele>1335</ele>
        <time>2018-04-22T15:03:31Z</time>
      </trkpt>
      <trkpt lat="43.93852" lon="7.38296">
        <ele>1335</ele>
        <time>2018-04-22T15:03:31Z</time>
      </trkpt>
      <trkpt lat="43.93854" lon="7.38294">
        <ele>1335</ele>
        <time>2018-04-22T15:03:31Z</time>
      </trkpt>
      <trkpt lat="43.93856" lon="7.38292">
        <ele>1335</ele>
        <time>2018-04-22T15:03:31Z</time>
      </trkpt>
      <trkpt lat="43.93858" lon="7.38289">
        <ele>1352</ele>
        <time>2018-04-22T15:03:31Z</time>
      </trkpt>
      <trkpt lat="43.9386" lon="7.38287">
        <ele>1352</ele>
        <time>2018-04-22T15:03:47Z</time>
      </trkpt>
      <trkpt lat="43.93862" lon="7.38283">
        <ele>1352</ele>
        <time>2018-04-22T15:03:47Z</time>
      </trkpt>
      <trkpt lat="43.93864" lon="7.38279">
        <ele>1352</ele>
        <time>2018-04-22T15:03:47Z</time>
      </trkpt>
      <trkpt lat="43.93866" lon="7.38273">
        <ele>1352</ele>
        <time>2018-04-22T15:03:47Z</time>
      </trkpt>
      <trkpt lat="43.93868" lon="7.3827">
        <ele>1352</ele>
        <time>2018-04-22T15:04:03Z</time>
      </trkpt>
      <trkpt lat="43.9387" lon="7.38266">
        <ele>1352</ele>
        <time>2018-04-22T15:04:03Z</time>
      </trkpt>
      <trkpt lat="43.93874" lon="7.38259">
        <ele>1352</ele>
        <time>2018-04-22T15:04:03Z</time>
      </trkpt>
      <trkpt lat="43.93876" lon="7.38253">
        <ele>1311</ele>
        <time>2018-04-22T15:04:03Z</time>
      </trkpt>
      <trkpt lat="43.93878" lon="7.38247">
        <ele>1311</ele>
        <time>2018-04-22T15:04:19Z</time>
      </trkpt>
      <trkpt lat="43.93881" lon="7.3824">
        <ele>1311</ele>
        <time>2018-04-22T15:04:19Z</time>
      </trkpt>
      <trkpt lat="43.93882" lon="7.38235">
        <ele>1311</ele>
        <time>2018-04-22T15:04:19Z</time>
      </trkpt>
      <trkpt lat="43.93882" lon="7.38234">
        <ele>1311</ele>
        <time>2018-04-22T15:04:19Z</time>
      </trkpt>
      <trkpt lat="43.93883" lon="7.3824">
        <ele>1311</ele>
        <time>2018-04-22T15:04:35Z</time>
      </trkpt>
      <trkpt lat="43.93882" lon="7.38245">
        <ele>1311</ele>
        <time>2018-04-22T15:04:35Z</time>
      </trkpt>
      <trkpt lat="43.93883" lon="7.38251">
        <ele>1311</ele>
        <time>2018-04-22T15:04:35Z</time>
      </trkpt>
      <trkpt lat="43.93882" lon="7.38255">
        <ele>1311</ele>
        <time>2018-04-22T15:04:35Z</time>
      </trkpt>
      <trkpt lat="43.93882" lon="7.38262">
        <ele>1311</ele>
        <time>2018-04-22T15:04:51Z</time>
      </trkpt>
      <trkpt lat="43.93883" lon="7.38267">
        <ele>1311</ele>
        <time>2018-04-22T15:04:51Z</time>
      </trkpt>
      <trkpt lat="43.93882" lon="7.38272">
        <ele>1311</ele>
        <time>2018-04-22T15:04:51Z</time>
      </trkpt>
      <trkpt lat="43.93881" lon="7.38278">
        <ele>1311</ele>
        <time>2018-04-22T15:04:51Z</time>
      </trkpt>
      <trkpt lat="43.93881" lon="7.38285">
        <ele>1311</ele>
        <time>2018-04-22T15:05:11Z</time>
      </trkpt>
      <trkpt lat="43.93884" lon="7.38285">
        <ele>1311</ele>
        <time>2018-04-22T15:05:11Z</time>
      </trkpt>
      <trkpt lat="43.93887" lon="7.38285">
        <ele>1311</ele>
        <time>2018-04-22T15:05:11Z</time>
      </trkpt>
      <trkpt lat="43.93889" lon="7.38281">
        <ele>1311</ele>
        <time>2018-04-22T15:05:11Z</time>
      </trkpt>
      <trkpt lat="43.93889" lon="7.38278">
        <ele>1311</ele>
        <time>2018-04-22T15:05:11Z</time>
      </trkpt>
      <trkpt lat="43.93891" lon="7.38281">
        <ele>1311</ele>
        <time>2018-04-22T15:05:27Z</time>
      </trkpt>
      <trkpt lat="43.93891" lon="7.38287">
        <ele>1311</ele>
        <time>2018-04-22T15:05:27Z</time>
      </trkpt>
      <trkpt lat="43.93895" lon="7.3829">
        <ele>1311</ele>
        <time>2018-04-22T15:05:27Z</time>
      </trkpt>
      <trkpt lat="43.93897" lon="7.38291">
        <ele>1311</ele>
        <time>2018-04-22T15:05:27Z</time>
      </trkpt>
      <trkpt lat="43.93898" lon="7.38294">
        <ele>1303</ele>
        <time>2018-04-22T15:05:43Z</time>
      </trkpt>
      <trkpt lat="43.939" lon="7.38297">
        <ele>1303</ele>
        <time>2018-04-22T15:05:43Z</time>
      </trkpt>
      <trkpt lat="43.93902" lon="7.38302">
        <ele>1303</ele>
        <time>2018-04-22T15:05:43Z</time>
      </trkpt>
      <trkpt lat="43.93906" lon="7.38303">
        <ele>1303</ele>
        <time>2018-04-22T15:05:43Z</time>
      </trkpt>
      <trkpt lat="43.93909" lon="7.38301">
        <ele>1303</ele>
        <time>2018-04-22T15:05:59Z</time>
      </trkpt>
      <trkpt lat="43.93909" lon="7.38294">
        <ele>1303</ele>
        <time>2018-04-22T15:05:59Z</time>
      </trkpt>
      <trkpt lat="43.93912" lon="7.38283">
        <ele>1311</ele>
        <time>2018-04-22T15:05:59Z</time>
      </trkpt>
      <trkpt lat="43.93915" lon="7.38275">
        <ele>1311</ele>
        <time>2018-04-22T15:05:59Z</time>
      </trkpt>
      <trkpt lat="43.93918" lon="7.38263">
        <ele>1311</ele>
        <time>2018-04-22T15:06:15Z</time>
      </trkpt>
      <trkpt lat="43.93919" lon="7.38265">
        <ele>1311</ele>
        <time>2018-04-22T15:06:15Z</time>
      </trkpt>
      <trkpt lat="43.93918" lon="7.38272">
        <ele>1311</ele>
        <time>2018-04-22T15:06:15Z</time>
      </trkpt>
      <trkpt lat="43.93917" lon="7.3828">
        <ele>1311</ele>
        <time>2018-04-22T15:06:15Z</time>
      </trkpt>
      <trkpt lat="43.93916" lon="7.38286">
        <ele>1311</ele>
        <time>2018-04-22T15:06:31Z</time>
      </trkpt>
      <trkpt lat="43.93917" lon="7.38292">
        <ele>1303</ele>
        <time>2018-04-22T15:06:31Z</time>
      </trkpt>
      <trkpt lat="43.93918" lon="7.38297">
        <ele>1303</ele>
        <time>2018-04-22T15:06:31Z</time>
      </trkpt>
      <trkpt lat="43.93919" lon="7.38303">
        <ele>1303</ele>
        <time>2018-04-22T15:06:31Z</time>
      </trkpt>
      <trkpt lat="43.93923" lon="7.38313">
        <ele>1303</ele>
        <time>2018-04-22T15:07:35Z</time>
      </trkpt>
      <trkpt lat="43.93924" lon="7.38312">
        <ele>1303</ele>
        <time>2018-04-22T15:07:35Z</time>
      </trkpt>
      <trkpt lat="43.93925" lon="7.38306">
        <ele>1303</ele>
        <time>2018-04-22T15:07:35Z</time>
      </trkpt>
      <trkpt lat="43.93926" lon="7.38301">
        <ele>1303</ele>
        <time>2018-04-22T15:07:35Z</time>
      </trkpt>
      <trkpt lat="43.93928" lon="7.38294">
        <ele>1303</ele>
        <time>2018-04-22T15:07:35Z</time>
      </trkpt>
      <trkpt lat="43.93929" lon="7.38292">
        <ele>1303</ele>
        <time>2018-04-22T15:07:51Z</time>
      </trkpt>
      <trkpt lat="43.9393" lon="7.38291">
        <ele>1311</ele>
        <time>2018-04-22T15:07:51Z</time>
      </trkpt>
      <trkpt lat="43.93933" lon="7.38286">
        <ele>1311</ele>
        <time>2018-04-22T15:07:51Z</time>
      </trkpt>
      <trkpt lat="43.93937" lon="7.38283">
        <ele>1311</ele>
        <time>2018-04-22T15:07:51Z</time>
      </trkpt>
      <trkpt lat="43.93943" lon="7.38278">
        <ele>1311</ele>
        <time>2018-04-22T15:08:07Z</time>
      </trkpt>
      <trkpt lat="43.93952" lon="7.38271">
        <ele>1311</ele>
        <time>2018-04-22T15:08:07Z</time>
      </trkpt>
      <trkpt lat="43.9396" lon="7.3826">
        <ele>1269</ele>
        <time>2018-04-22T15:08:07Z</time>
      </trkpt>
      <trkpt lat="43.93963" lon="7.38245">
        <ele>1269</ele>
        <time>2018-04-22T15:08:07Z</time>
      </trkpt>
      <trkpt lat="43.93963" lon="7.38235">
        <ele>1269</ele>
        <time>2018-04-22T15:08:23Z</time>
      </trkpt>
      <trkpt lat="43.93962" lon="7.38224">
        <ele>1269</ele>
        <time>2018-04-22T15:08:23Z</time>
      </trkpt>
      <trkpt lat="43.93961" lon="7.38216">
        <ele>1269</ele>
        <time>2018-04-22T15:08:23Z</time>
      </trkpt>
      <trkpt lat="43.93961" lon="7.3821">
        <ele>1269</ele>
        <time>2018-04-22T15:08:23Z</time>
      </trkpt>
      <trkpt lat="43.93961" lon="7.38202">
        <ele>1258</ele>
        <time>2018-04-22T15:08:39Z</time>
      </trkpt>
      <trkpt lat="43.93961" lon="7.38192">
        <ele>1258</ele>
        <time>2018-04-22T15:08:39Z</time>
      </trkpt>
      <trkpt lat="43.93961" lon="7.38185">
        <ele>1258</ele>
        <time>2018-04-22T15:08:39Z</time>
      </trkpt>
      <trkpt lat="43.93961" lon="7.38175">
        <ele>1258</ele>
        <time>2018-04-22T15:08:39Z</time>
      </trkpt>
      <trkpt lat="43.93961" lon="7.38172">
        <ele>1258</ele>
        <time>2018-04-22T15:08:55Z</time>
      </trkpt>
      <trkpt lat="43.93964" lon="7.38174">
        <ele>1258</ele>
        <time>2018-04-22T15:08:55Z</time>
      </trkpt>
      <trkpt lat="43.93968" lon="7.38176">
        <ele>1258</ele>
        <time>2018-04-22T15:08:55Z</time>
      </trkpt>
      <trkpt lat="43.93968" lon="7.38182">
        <ele>1258</ele>
        <time>2018-04-22T15:08:55Z</time>
      </trkpt>
      <trkpt lat="43.93967" lon="7.3819">
        <ele>1258</ele>
        <time>2018-04-22T15:09:11Z</time>
      </trkpt>
      <trkpt lat="43.93968" lon="7.38195">
        <ele>1258</ele>
        <time>2018-04-22T15:09:11Z</time>
      </trkpt>
      <trkpt lat="43.93972" lon="7.38201">
        <ele>1258</ele>
        <time>2018-04-22T15:09:11Z</time>
      </trkpt>
      <trkpt lat="43.93983" lon="7.38206">
        <ele>1258</ele>
        <time>2018-04-22T15:09:11Z</time>
      </trkpt>
      <trkpt lat="43.93986" lon="7.38207">
        <ele>1258</ele>
        <time>2018-04-22T15:09:27Z</time>
      </trkpt>
      <trkpt lat="43.9399" lon="7.38203">
        <ele>1258</ele>
        <time>2018-04-22T15:09:27Z</time>
      </trkpt>
      <trkpt lat="43.93992" lon="7.38199">
        <ele>1258</ele>
        <time>2018-04-22T15:09:27Z</time>
      </trkpt>
      <trkpt lat="43.93994" lon="7.38194">
        <ele>1258</ele>
        <time>2018-04-22T15:09:27Z</time>
      </trkpt>
      <trkpt lat="43.93997" lon="7.3819">
        <ele>1258</ele>
        <time>2018-04-22T15:09:43Z</time>
      </trkpt>
      <trkpt lat="43.93998" lon="7.38189">
        <ele>1258</ele>
        <time>2018-04-22T15:09:43Z</time>
      </trkpt>
      <trkpt lat="43.94001" lon="7.38191">
        <ele>1258</ele>
        <time>2018-04-22T15:09:43Z</time>
      </trkpt>
      <trkpt lat="43.94009" lon="7.38194">
        <ele>1258</ele>
        <time>2018-04-22T15:09:43Z</time>
      </trkpt>
      <trkpt lat="43.94013" lon="7.38196">
        <ele>1258</ele>
        <time>2018-04-22T15:09:59Z</time>
      </trkpt>
      <trkpt lat="43.94017" lon="7.382">
        <ele>1258</ele>
        <time>2018-04-22T15:09:59Z</time>
      </trkpt>
      <trkpt lat="43.9402" lon="7.38204">
        <ele>1258</ele>
        <time>2018-04-22T15:09:59Z</time>
      </trkpt>
      <trkpt lat="43.94025" lon="7.38208">
        <ele>1258</ele>
        <time>2018-04-22T15:09:59Z</time>
      </trkpt>
      <trkpt lat="43.94027" lon="7.38212">
        <ele>1269</ele>
        <time>2018-04-22T15:10:15Z</time>
      </trkpt>
      <trkpt lat="43.94031" lon="7.38219">
        <ele>1269</ele>
        <time>2018-04-22T15:10:15Z</time>
      </trkpt>
      <trkpt lat="43.94034" lon="7.38229">
        <ele>1269</ele>
        <time>2018-04-22T15:10:15Z</time>
      </trkpt>
      <trkpt lat="43.94035" lon="7.38237">
        <ele>1269</ele>
        <time>2018-04-22T15:10:15Z</time>
      </trkpt>
      <trkpt lat="43.94036" lon="7.38242">
        <ele>1269</ele>
        <time>2018-04-22T15:10:31Z</time>
      </trkpt>
      <trkpt lat="43.94037" lon="7.38247">
        <ele>1269</ele>
        <time>2018-04-22T15:10:31Z</time>
      </trkpt>
      <trkpt lat="43.94039" lon="7.38251">
        <ele>1269</ele>
        <time>2018-04-22T15:10:31Z</time>
      </trkpt>
      <trkpt lat="43.94039" lon="7.38256">
        <ele>1269</ele>
        <time>2018-04-22T15:10:31Z</time>
      </trkpt>
      <trkpt lat="43.9404" lon="7.38262">
        <ele>1269</ele>
        <time>2018-04-22T15:10:55Z</time>
      </trkpt>
      <trkpt lat="43.94041" lon="7.38265">
        <ele>1269</ele>
        <time>2018-04-22T15:10:55Z</time>
      </trkpt>
      <trkpt lat="43.94041" lon="7.38267">
        <ele>1269</ele>
        <time>2018-04-22T15:10:55Z</time>
      </trkpt>
      <trkpt lat="43.94041" lon="7.38269">
        <ele>1269</ele>
        <time>2018-04-22T15:10:55Z</time>
      </trkpt>
      <trkpt lat="43.94042" lon="7.38273">
        <ele>1220</ele>
        <time>2018-04-22T15:10:55Z</time>
      </trkpt>
      <trkpt lat="43.94042" lon="7.3828">
        <ele>1220</ele>
        <time>2018-04-22T15:11:15Z</time>
      </trkpt>
      <trkpt lat="43.94043" lon="7.38284">
        <ele>1220</ele>
        <time>2018-04-22T15:11:15Z</time>
      </trkpt>
      <trkpt lat="43.94044" lon="7.38288">
        <ele>1220</ele>
        <time>2018-04-22T15:11:15Z</time>
      </trkpt>
      <trkpt lat="43.94044" lon="7.38292">
        <ele>1220</ele>
        <time>2018-04-22T15:11:15Z</time>
      </trkpt>
      <trkpt lat="43.94045" lon="7.38299">
        <ele>1229</ele>
        <time>2018-04-22T15:11:15Z</time>
      </trkpt>
      <trkpt lat="43.94047" lon="7.38302">
        <ele>1229</ele>
        <time>2018-04-22T15:11:35Z</time>
      </trkpt>
      <trkpt lat="43.94049" lon="7.38307">
        <ele>1229</ele>
        <time>2018-04-22T15:11:35Z</time>
      </trkpt>
      <trkpt lat="43.94049" lon="7.38308">
        <ele>1229</ele>
        <time>2018-04-22T15:11:35Z</time>
      </trkpt>
      <trkpt lat="43.94051" lon="7.3831">
        <ele>1229</ele>
        <time>2018-04-22T15:11:35Z</time>
      </trkpt>
      <trkpt lat="43.94053" lon="7.38314">
        <ele>1229</ele>
        <time>2018-04-22T15:11:35Z</time>
      </trkpt>
      <trkpt lat="43.94055" lon="7.38321">
        <ele>1229</ele>
        <time>2018-04-22T15:11:51Z</time>
      </trkpt>
      <trkpt lat="43.94058" lon="7.38327">
        <ele>1229</ele>
        <time>2018-04-22T15:11:51Z</time>
      </trkpt>
      <trkpt lat="43.94062" lon="7.38331">
        <ele>1229</ele>
        <time>2018-04-22T15:11:51Z</time>
      </trkpt>
      <trkpt lat="43.94063" lon="7.38335">
        <ele>1229</ele>
        <time>2018-04-22T15:11:51Z</time>
      </trkpt>
      <trkpt lat="43.94064" lon="7.38341">
        <ele>1229</ele>
        <time>2018-04-22T15:12:07Z</time>
      </trkpt>
      <trkpt lat="43.94067" lon="7.38349">
        <ele>1229</ele>
        <time>2018-04-22T15:12:07Z</time>
      </trkpt>
      <trkpt lat="43.94069" lon="7.38354">
        <ele>1229</ele>
        <time>2018-04-22T15:12:07Z</time>
      </trkpt>
      <trkpt lat="43.94071" lon="7.38359">
        <ele>1229</ele>
        <time>2018-04-22T15:12:07Z</time>
      </trkpt>
      <trkpt lat="43.94074" lon="7.38365">
        <ele>1229</ele>
        <time>2018-04-22T15:12:23Z</time>
      </trkpt>
      <trkpt lat="43.94077" lon="7.38371">
        <ele>1229</ele>
        <time>2018-04-22T15:12:23Z</time>
      </trkpt>
      <trkpt lat="43.94078" lon="7.38374">
        <ele>1229</ele>
        <time>2018-04-22T15:12:23Z</time>
      </trkpt>
      <trkpt lat="43.94079" lon="7.3838">
        <ele>1213</ele>
        <time>2018-04-22T15:12:23Z</time>
      </trkpt>
      <trkpt lat="43.94083" lon="7.38383">
        <ele>1213</ele>
        <time>2018-04-22T15:12:47Z</time>
      </trkpt>
      <trkpt lat="43.94084" lon="7.38381">
        <ele>1213</ele>
        <time>2018-04-22T15:12:47Z</time>
      </trkpt>
      <trkpt lat="43.94086" lon="7.38377">
        <ele>1213</ele>
        <time>2018-04-22T15:12:47Z</time>
      </trkpt>
      <trkpt lat="43.94086" lon="7.38377">
        <ele>1213</ele>
        <time>2018-04-22T15:12:47Z</time>
      </trkpt>
      <trkpt lat="43.94086" lon="7.38374">
        <ele>1229</ele>
        <time>2018-04-22T15:12:47Z</time>
      </trkpt>
      <trkpt lat="43.94088" lon="7.38373">
        <ele>1229</ele>
        <time>2018-04-22T15:13:03Z</time>
      </trkpt>
      <trkpt lat="43.9409" lon="7.3837">
        <ele>1229</ele>
        <time>2018-04-22T15:13:03Z</time>
      </trkpt>
      <trkpt lat="43.94092" lon="7.38368">
        <ele>1229</ele>
        <time>2018-04-22T15:13:03Z</time>
      </trkpt>
      <trkpt lat="43.94096" lon="7.38368">
        <ele>1229</ele>
        <time>2018-04-22T15:13:03Z</time>
      </trkpt>
      <trkpt lat="43.94098" lon="7.38366">
        <ele>1229</ele>
        <time>2018-04-22T15:13:19Z</time>
      </trkpt>
      <trkpt lat="43.94101" lon="7.38361">
        <ele>1229</ele>
        <time>2018-04-22T15:13:19Z</time>
      </trkpt>
      <trkpt lat="43.94104" lon="7.38359">
        <ele>1229</ele>
        <time>2018-04-22T15:13:19Z</time>
      </trkpt>
      <trkpt lat="43.94106" lon="7.38356">
        <ele>1229</ele>
        <time>2018-04-22T15:13:19Z</time>
      </trkpt>
      <trkpt lat="43.94111" lon="7.38352">
        <ele>1229</ele>
        <time>2018-04-22T15:13:35Z</time>
      </trkpt>
      <trkpt lat="43.9412" lon="7.38343">
        <ele>1229</ele>
        <time>2018-04-22T15:13:35Z</time>
      </trkpt>
      <trkpt lat="43.94125" lon="7.38335">
        <ele>1184</ele>
        <time>2018-04-22T15:13:35Z</time>
      </trkpt>
      <trkpt lat="43.9413" lon="7.38328">
        <ele>1184</ele>
        <time>2018-04-22T15:13:35Z</time>
      </trkpt>
      <trkpt lat="43.94137" lon="7.3832">
        <ele>1184</ele>
        <time>2018-04-22T15:14:11Z</time>
      </trkpt>
      <trkpt lat="43.94137" lon="7.38311">
        <ele>1184</ele>
        <time>2018-04-22T15:14:11Z</time>
      </trkpt>
      <trkpt lat="43.94137" lon="7.38307">
        <ele>1184</ele>
        <time>2018-04-22T15:14:11Z</time>
      </trkpt>
      <trkpt lat="43.94136" lon="7.38303">
        <ele>1184</ele>
        <time>2018-04-22T15:14:11Z</time>
      </trkpt>
      <trkpt lat="43.94135" lon="7.38299">
        <ele>1184</ele>
        <time>2018-04-22T15:14:11Z</time>
      </trkpt>
      <trkpt lat="43.94137" lon="7.38296">
        <ele>1184</ele>
        <time>2018-04-22T15:15:07Z</time>
      </trkpt>
      <trkpt lat="43.94137" lon="7.383">
        <ele>1184</ele>
        <time>2018-04-22T15:15:07Z</time>
      </trkpt>
      <trkpt lat="43.94142" lon="7.383">
        <ele>1184</ele>
        <time>2018-04-22T15:15:07Z</time>
      </trkpt>
      <trkpt lat="43.94151" lon="7.38304">
        <ele>1184</ele>
        <time>2018-04-22T15:15:07Z</time>
      </trkpt>
      <trkpt lat="43.94156" lon="7.38312">
        <ele>1184</ele>
        <time>2018-04-22T15:15:07Z</time>
      </trkpt>
      <trkpt lat="43.94157" lon="7.38311">
        <ele>1184</ele>
        <time>2018-04-22T15:15:55Z</time>
      </trkpt>
      <trkpt lat="43.94155" lon="7.38305">
        <ele>1184</ele>
        <time>2018-04-22T15:15:55Z</time>
      </trkpt>
      <trkpt lat="43.94153" lon="7.383">
        <ele>1184</ele>
        <time>2018-04-22T15:15:55Z</time>
      </trkpt>
      <trkpt lat="43.9415" lon="7.38295">
        <ele>1184</ele>
        <time>2018-04-22T15:15:55Z</time>
      </trkpt>
      <trkpt lat="43.94148" lon="7.38293">
        <ele>1184</ele>
        <time>2018-04-22T15:15:55Z</time>
      </trkpt>
      <trkpt lat="43.94147" lon="7.38286">
        <ele>1166</ele>
        <time>2018-04-22T15:16:23Z</time>
      </trkpt>
      <trkpt lat="43.94148" lon="7.38286">
        <ele>1166</ele>
        <time>2018-04-22T15:16:23Z</time>
      </trkpt>
      <trkpt lat="43.94145" lon="7.38279">
        <ele>1166</ele>
        <time>2018-04-22T15:16:23Z</time>
      </trkpt>
      <trkpt lat="43.94144" lon="7.38277">
        <ele>1166</ele>
        <time>2018-04-22T15:16:23Z</time>
      </trkpt>
      <trkpt lat="43.94144" lon="7.38276">
        <ele>1166</ele>
        <time>2018-04-22T15:16:23Z</time>
      </trkpt>
      <trkpt lat="43.94142" lon="7.3827">
        <ele>1166</ele>
        <time>2018-04-22T15:16:47Z</time>
      </trkpt>
      <trkpt lat="43.94142" lon="7.38267">
        <ele>1166</ele>
        <time>2018-04-22T15:16:47Z</time>
      </trkpt>
      <trkpt lat="43.9414" lon="7.38264">
        <ele>1166</ele>
        <time>2018-04-22T15:16:47Z</time>
      </trkpt>
      <trkpt lat="43.94141" lon="7.38263">
        <ele>1166</ele>
        <time>2018-04-22T15:16:47Z</time>
      </trkpt>
      <trkpt lat="43.94143" lon="7.38256">
        <ele>1166</ele>
        <time>2018-04-22T15:16:47Z</time>
      </trkpt>
      <trkpt lat="43.94146" lon="7.38246">
        <ele>1166</ele>
        <time>2018-04-22T15:17:03Z</time>
      </trkpt>
      <trkpt lat="43.94145" lon="7.38237">
        <ele>1166</ele>
        <time>2018-04-22T15:17:03Z</time>
      </trkpt>
      <trkpt lat="43.94143" lon="7.38232">
        <ele>1166</ele>
        <time>2018-04-22T15:17:03Z</time>
      </trkpt>
      <trkpt lat="43.94143" lon="7.38225">
        <ele>1166</ele>
        <time>2018-04-22T15:17:03Z</time>
      </trkpt>
      <trkpt lat="43.9414" lon="7.38217">
        <ele>1166</ele>
        <time>2018-04-22T15:17:19Z</time>
      </trkpt>
      <trkpt lat="43.94139" lon="7.38206">
        <ele>1190</ele>
        <time>2018-04-22T15:17:19Z</time>
      </trkpt>
      <trkpt lat="43.94138" lon="7.38195">
        <ele>1190</ele>
        <time>2018-04-22T15:17:19Z</time>
      </trkpt>
      <trkpt lat="43.94136" lon="7.38188">
        <ele>1190</ele>
        <time>2018-04-22T15:17:19Z</time>
      </trkpt>
      <trkpt lat="43.94136" lon="7.38184">
        <ele>1190</ele>
        <time>2018-04-22T15:17:35Z</time>
      </trkpt>
      <trkpt lat="43.94134" lon="7.38186">
        <ele>1190</ele>
        <time>2018-04-22T15:17:35Z</time>
      </trkpt>
      <trkpt lat="43.94134" lon="7.38195">
        <ele>1190</ele>
        <time>2018-04-22T15:17:35Z</time>
      </trkpt>
      <trkpt lat="43.94135" lon="7.38201">
        <ele>1190</ele>
        <time>2018-04-22T15:17:35Z</time>
      </trkpt>
      <trkpt lat="43.94136" lon="7.38203">
        <ele>1190</ele>
        <time>2018-04-22T15:18:03Z</time>
      </trkpt>
      <trkpt lat="43.94136" lon="7.3821">
        <ele>1166</ele>
        <time>2018-04-22T15:18:03Z</time>
      </trkpt>
      <trkpt lat="43.94137" lon="7.38218">
        <ele>1166</ele>
        <time>2018-04-22T15:18:03Z</time>
      </trkpt>
      <trkpt lat="43.94136" lon="7.38229">
        <ele>1166</ele>
        <time>2018-04-22T15:18:03Z</time>
      </trkpt>
      <trkpt lat="43.94138" lon="7.3823">
        <ele>1166</ele>
        <time>2018-04-22T15:18:03Z</time>
      </trkpt>
      <trkpt lat="43.9414" lon="7.38228">
        <ele>1166</ele>
        <time>2018-04-22T15:18:23Z</time>
      </trkpt>
      <trkpt lat="43.9414" lon="7.38227">
        <ele>1166</ele>
        <time>2018-04-22T15:18:23Z</time>
      </trkpt>
      <trkpt lat="43.9414" lon="7.38225">
        <ele>1166</ele>
        <time>2018-04-22T15:18:23Z</time>
      </trkpt>
      <trkpt lat="43.94138" lon="7.38221">
        <ele>1166</ele>
        <time>2018-04-22T15:18:23Z</time>
      </trkpt>
      <trkpt lat="43.94139" lon="7.38215">
        <ele>1166</ele>
        <time>2018-04-22T15:18:23Z</time>
      </trkpt>
      <trkpt lat="43.94141" lon="7.38214">
        <ele>1166</ele>
        <time>2018-04-22T15:18:51Z</time>
      </trkpt>
      <trkpt lat="43.94142" lon="7.38218">
        <ele>1166</ele>
        <time>2018-04-22T15:18:51Z</time>
      </trkpt>
      <trkpt lat="43.94142" lon="7.38222">
        <ele>1166</ele>
        <time>2018-04-22T15:18:51Z</time>
      </trkpt>
      <trkpt lat="43.94146" lon="7.38226">
        <ele>1166</ele>
        <time>2018-04-22T15:18:51Z</time>
      </trkpt>
      <trkpt lat="43.94148" lon="7.38228">
        <ele>1166</ele>
        <time>2018-04-22T15:18:51Z</time>
      </trkpt>
      <trkpt lat="43.9415" lon="7.38229">
        <ele>1166</ele>
        <time>2018-04-22T15:19:11Z</time>
      </trkpt>
      <trkpt lat="43.94152" lon="7.3823">
        <ele>1166</ele>
        <time>2018-04-22T15:19:11Z</time>
      </trkpt>
      <trkpt lat="43.94154" lon="7.38232">
        <ele>1166</ele>
        <time>2018-04-22T15:19:11Z</time>
      </trkpt>
      <trkpt lat="43.94157" lon="7.38231">
        <ele>1166</ele>
        <time>2018-04-22T15:19:11Z</time>
      </trkpt>
      <trkpt lat="43.94159" lon="7.38232">
        <ele>1166</ele>
        <time>2018-04-22T15:19:11Z</time>
      </trkpt>
      <trkpt lat="43.94164" lon="7.38227">
        <ele>1166</ele>
        <time>2018-04-22T15:19:27Z</time>
      </trkpt>
      <trkpt lat="43.94169" lon="7.38224">
        <ele>1166</ele>
        <time>2018-04-22T15:19:27Z</time>
      </trkpt>
      <trkpt lat="43.94171" lon="7.38225">
        <ele>1166</ele>
        <time>2018-04-22T15:19:27Z</time>
      </trkpt>
      <trkpt lat="43.94173" lon="7.38217">
        <ele>1166</ele>
        <time>2018-04-22T15:19:27Z</time>
      </trkpt>
      <trkpt lat="43.94175" lon="7.3822">
        <ele>1166</ele>
        <time>2018-04-22T15:19:43Z</time>
      </trkpt>
      <trkpt lat="43.94176" lon="7.38228">
        <ele>1166</ele>
        <time>2018-04-22T15:19:43Z</time>
      </trkpt>
      <trkpt lat="43.94181" lon="7.38231">
        <ele>1166</ele>
        <time>2018-04-22T15:19:43Z</time>
      </trkpt>
      <trkpt lat="43.94183" lon="7.38237">
        <ele>1166</ele>
        <time>2018-04-22T15:19:43Z</time>
      </trkpt>
      <trkpt lat="43.94187" lon="7.3824">
        <ele>1166</ele>
        <time>2018-04-22T15:19:59Z</time>
      </trkpt>
      <trkpt lat="43.94195" lon="7.38242">
        <ele>1166</ele>
        <time>2018-04-22T15:19:59Z</time>
      </trkpt>
      <trkpt lat="43.94202" lon="7.38243">
        <ele>1166</ele>
        <time>2018-04-22T15:19:59Z</time>
      </trkpt>
      <trkpt lat="43.94206" lon="7.38243">
        <ele>1166</ele>
        <time>2018-04-22T15:19:59Z</time>
      </trkpt>
      <trkpt lat="43.94211" lon="7.38248">
        <ele>1130</ele>
        <time>2018-04-22T15:20:15Z</time>
      </trkpt>
      <trkpt lat="43.94217" lon="7.38258">
        <ele>1130</ele>
        <time>2018-04-22T15:20:15Z</time>
      </trkpt>
      <trkpt lat="43.94217" lon="7.38262">
        <ele>1130</ele>
        <time>2018-04-22T15:20:15Z</time>
      </trkpt>
      <trkpt lat="43.94223" lon="7.38268">
        <ele>1130</ele>
        <time>2018-04-22T15:20:15Z</time>
      </trkpt>
      <trkpt lat="43.94231" lon="7.38274">
        <ele>1130</ele>
        <time>2018-04-22T15:20:31Z</time>
      </trkpt>
      <trkpt lat="43.94234" lon="7.38281">
        <ele>1130</ele>
        <time>2018-04-22T15:20:31Z</time>
      </trkpt>
      <trkpt lat="43.94236" lon="7.38288">
        <ele>1130</ele>
        <time>2018-04-22T15:20:31Z</time>
      </trkpt>
      <trkpt lat="43.94238" lon="7.3829">
        <ele>1130</ele>
        <time>2018-04-22T15:20:31Z</time>
      </trkpt>
      <trkpt lat="43.94243" lon="7.383">
        <ele>1121</ele>
        <time>2018-04-22T15:21:23Z</time>
      </trkpt>
      <trkpt lat="43.94245" lon="7.38298">
        <ele>1121</ele>
        <time>2018-04-22T15:21:23Z</time>
      </trkpt>
      <trkpt lat="43.94247" lon="7.38299">
        <ele>1121</ele>
        <time>2018-04-22T15:21:23Z</time>
      </trkpt>
      <trkpt lat="43.94247" lon="7.38306">
        <ele>1121</ele>
        <time>2018-04-22T15:21:23Z</time>
      </trkpt>
      <trkpt lat="43.94248" lon="7.38311">
        <ele>1121</ele>
        <time>2018-04-22T15:21:23Z</time>
      </trkpt>
      <trkpt lat="43.94248" lon="7.38314">
        <ele>1121</ele>
        <time>2018-04-22T15:21:39Z</time>
      </trkpt>
      <trkpt lat="43.94248" lon="7.38321">
        <ele>1121</ele>
        <time>2018-04-22T15:21:39Z</time>
      </trkpt>
      <trkpt lat="43.94246" lon="7.38327">
        <ele>1121</ele>
        <time>2018-04-22T15:21:39Z</time>
      </trkpt>
      <trkpt lat="43.94244" lon="7.38334">
        <ele>1121</ele>
        <time>2018-04-22T15:21:39Z</time>
      </trkpt>
      <trkpt lat="43.94242" lon="7.38339">
        <ele>1121</ele>
        <time>2018-04-22T15:21:59Z</time>
      </trkpt>
      <trkpt lat="43.94244" lon="7.38343">
        <ele>1121</ele>
        <time>2018-04-22T15:21:59Z</time>
      </trkpt>
      <trkpt lat="43.94244" lon="7.38345">
        <ele>1121</ele>
        <time>2018-04-22T15:21:59Z</time>
      </trkpt>
      <trkpt lat="43.94243" lon="7.38347">
        <ele>1121</ele>
        <time>2018-04-22T15:21:59Z</time>
      </trkpt>
      <trkpt lat="43.9424" lon="7.38353">
        <ele>1121</ele>
        <time>2018-04-22T15:21:59Z</time>
      </trkpt>
      <trkpt lat="43.94237" lon="7.38356">
        <ele>1121</ele>
        <time>2018-04-22T15:22:15Z</time>
      </trkpt>
      <trkpt lat="43.94236" lon="7.38359">
        <ele>1121</ele>
        <time>2018-04-22T15:22:15Z</time>
      </trkpt>
      <trkpt lat="43.94234" lon="7.38364">
        <ele>1121</ele>
        <time>2018-04-22T15:22:15Z</time>
      </trkpt>
      <trkpt lat="43.9423" lon="7.38372">
        <ele>1121</ele>
        <time>2018-04-22T15:22:15Z</time>
      </trkpt>
      <trkpt lat="43.94229" lon="7.3838">
        <ele>1105</ele>
        <time>2018-04-22T15:22:31Z</time>
      </trkpt>
      <trkpt lat="43.94225" lon="7.38388">
        <ele>1105</ele>
        <time>2018-04-22T15:22:31Z</time>
      </trkpt>
      <trkpt lat="43.94223" lon="7.38394">
        <ele>1105</ele>
        <time>2018-04-22T15:22:31Z</time>
      </trkpt>
      <trkpt lat="43.94221" lon="7.38401">
        <ele>1105</ele>
        <time>2018-04-22T15:22:31Z</time>
      </trkpt>
      <trkpt lat="43.94219" lon="7.38406">
        <ele>1105</ele>
        <time>2018-04-22T15:22:47Z</time>
      </trkpt>
      <trkpt lat="43.94214" lon="7.38415">
        <ele>1105</ele>
        <time>2018-04-22T15:22:47Z</time>
      </trkpt>
      <trkpt lat="43.94211" lon="7.38422">
        <ele>1105</ele>
        <time>2018-04-22T15:22:47Z</time>
      </trkpt>
      <trkpt lat="43.94211" lon="7.38425">
        <ele>1105</ele>
        <time>2018-04-22T15:22:47Z</time>
      </trkpt>
      <trkpt lat="43.94209" lon="7.38435">
        <ele>1105</ele>
        <time>2018-04-22T15:23:19Z</time>
      </trkpt>
      <trkpt lat="43.94209" lon="7.38437">
        <ele>1105</ele>
        <time>2018-04-22T15:23:19Z</time>
      </trkpt>
      <trkpt lat="43.94209" lon="7.3844">
        <ele>1105</ele>
        <time>2018-04-22T15:23:19Z</time>
      </trkpt>
      <trkpt lat="43.94208" lon="7.38446">
        <ele>1169</ele>
        <time>2018-04-22T15:23:19Z</time>
      </trkpt>
      <trkpt lat="43.94206" lon="7.3845">
        <ele>1169</ele>
        <time>2018-04-22T15:23:19Z</time>
      </trkpt>
      <trkpt lat="43.94204" lon="7.38455">
        <ele>1169</ele>
        <time>2018-04-22T15:23:35Z</time>
      </trkpt>
      <trkpt lat="43.94202" lon="7.3846">
        <ele>1143</ele>
        <time>2018-04-22T15:23:35Z</time>
      </trkpt>
      <trkpt lat="43.942" lon="7.38464">
        <ele>1143</ele>
        <time>2018-04-22T15:23:35Z</time>
      </trkpt>
      <trkpt lat="43.94199" lon="7.38468">
        <ele>1143</ele>
        <time>2018-04-22T15:23:35Z</time>
      </trkpt>
      <trkpt lat="43.94203" lon="7.38461">
        <ele>1143</ele>
        <time>2018-04-22T15:25:59Z</time>
      </trkpt>
      <trkpt lat="43.94209" lon="7.38471">
        <ele>1084</ele>
        <time>2018-04-22T15:25:59Z</time>
      </trkpt>
      <trkpt lat="43.94209" lon="7.38472">
        <ele>1084</ele>
        <time>2018-04-22T15:25:59Z</time>
      </trkpt>
      <trkpt lat="43.9421" lon="7.38473">
        <ele>1084</ele>
        <time>2018-04-22T15:25:59Z</time>
      </trkpt>
      <trkpt lat="43.94211" lon="7.38475">
        <ele>1084</ele>
        <time>2018-04-22T15:25:59Z</time>
      </trkpt>
      <trkpt lat="43.94214" lon="7.38485">
        <ele>1084</ele>
        <time>2018-04-22T15:26:39Z</time>
      </trkpt>
      <trkpt lat="43.94214" lon="7.38486">
        <ele>1084</ele>
        <time>2018-04-22T15:26:39Z</time>
      </trkpt>
      <trkpt lat="43.94211" lon="7.38487">
        <ele>1084</ele>
        <time>2018-04-22T15:26:39Z</time>
      </trkpt>
      <trkpt lat="43.94208" lon="7.38488">
        <ele>1143</ele>
        <time>2018-04-22T15:26:39Z</time>
      </trkpt>
      <trkpt lat="43.94204" lon="7.38487">
        <ele>1143</ele>
        <time>2018-04-22T15:26:39Z</time>
      </trkpt>
      <trkpt lat="43.94204" lon="7.38486">
        <ele>1143</ele>
        <time>2018-04-22T15:27:03Z</time>
      </trkpt>
      <trkpt lat="43.94205" lon="7.38487">
        <ele>1143</ele>
        <time>2018-04-22T15:27:03Z</time>
      </trkpt>
      <trkpt lat="43.94203" lon="7.38489">
        <ele>1143</ele>
        <time>2018-04-22T15:27:03Z</time>
      </trkpt>
      <trkpt lat="43.94201" lon="7.38491">
        <ele>1143</ele>
        <time>2018-04-22T15:27:03Z</time>
      </trkpt>
      <trkpt lat="43.94195" lon="7.38496">
        <ele>1143</ele>
        <time>2018-04-22T15:27:03Z</time>
      </trkpt>
      <trkpt lat="43.94191" lon="7.38501">
        <ele>1143</ele>
        <time>2018-04-22T15:27:19Z</time>
      </trkpt>
      <trkpt lat="43.94188" lon="7.38506">
        <ele>1143</ele>
        <time>2018-04-22T15:27:19Z</time>
      </trkpt>
      <trkpt lat="43.94184" lon="7.38513">
        <ele>1143</ele>
        <time>2018-04-22T15:27:19Z</time>
      </trkpt>
      <trkpt lat="43.94181" lon="7.38519">
        <ele>1143</ele>
        <time>2018-04-22T15:27:19Z</time>
      </trkpt>
      <trkpt lat="43.9418" lon="7.38522">
        <ele>1143</ele>
        <time>2018-04-22T15:27:39Z</time>
      </trkpt>
      <trkpt lat="43.94179" lon="7.38525">
        <ele>1143</ele>
        <time>2018-04-22T15:27:39Z</time>
      </trkpt>
      <trkpt lat="43.9418" lon="7.38528">
        <ele>1143</ele>
        <time>2018-04-22T15:27:39Z</time>
      </trkpt>
      <trkpt lat="43.94179" lon="7.38533">
        <ele>1143</ele>
        <time>2018-04-22T15:27:39Z</time>
      </trkpt>
      <trkpt lat="43.94178" lon="7.38539">
        <ele>1143</ele>
        <time>2018-04-22T15:27:39Z</time>
      </trkpt>
      <trkpt lat="43.94174" lon="7.3855">
        <ele>1108</ele>
        <time>2018-04-22T15:27:55Z</time>
      </trkpt>
      <trkpt lat="43.94173" lon="7.38559">
        <ele>1108</ele>
        <time>2018-04-22T15:27:55Z</time>
      </trkpt>
      <trkpt lat="43.94175" lon="7.38563">
        <ele>1108</ele>
        <time>2018-04-22T15:27:55Z</time>
      </trkpt>
      <trkpt lat="43.94177" lon="7.38569">
        <ele>1108</ele>
        <time>2018-04-22T15:27:55Z</time>
      </trkpt>
      <trkpt lat="43.94178" lon="7.38578">
        <ele>1108</ele>
        <time>2018-04-22T15:28:11Z</time>
      </trkpt>
      <trkpt lat="43.94179" lon="7.38583">
        <ele>1108</ele>
        <time>2018-04-22T15:28:11Z</time>
      </trkpt>
      <trkpt lat="43.94176" lon="7.38589">
        <ele>1108</ele>
        <time>2018-04-22T15:28:11Z</time>
      </trkpt>
      <trkpt lat="43.94175" lon="7.3859">
        <ele>1108</ele>
        <time>2018-04-22T15:28:11Z</time>
      </trkpt>
      <trkpt lat="43.94173" lon="7.3859">
        <ele>1108</ele>
        <time>2018-04-22T15:28:31Z</time>
      </trkpt>
      <trkpt lat="43.9417" lon="7.38591">
        <ele>1108</ele>
        <time>2018-04-22T15:28:31Z</time>
      </trkpt>
      <trkpt lat="43.94169" lon="7.38592">
        <ele>1108</ele>
        <time>2018-04-22T15:28:31Z</time>
      </trkpt>
      <trkpt lat="43.94167" lon="7.38598">
        <ele>1108</ele>
        <time>2018-04-22T15:28:31Z</time>
      </trkpt>
      <trkpt lat="43.94167" lon="7.38599">
        <ele>1108</ele>
        <time>2018-04-22T15:28:31Z</time>
      </trkpt>
      <trkpt lat="43.94165" lon="7.38603">
        <ele>1108</ele>
        <time>2018-04-22T15:28:55Z</time>
      </trkpt>
      <trkpt lat="43.94165" lon="7.38603">
        <ele>1108</ele>
        <time>2018-04-22T15:28:55Z</time>
      </trkpt>
      <trkpt lat="43.94165" lon="7.38608">
        <ele>1108</ele>
        <time>2018-04-22T15:28:55Z</time>
      </trkpt>
      <trkpt lat="43.94165" lon="7.3861">
        <ele>1108</ele>
        <time>2018-04-22T15:28:55Z</time>
      </trkpt>
      <trkpt lat="43.94166" lon="7.38616">
        <ele>1108</ele>
        <time>2018-04-22T15:28:55Z</time>
      </trkpt>
      <trkpt lat="43.94167" lon="7.3862">
        <ele>1108</ele>
        <time>2018-04-22T15:29:11Z</time>
      </trkpt>
      <trkpt lat="43.94168" lon="7.38627">
        <ele>1083</ele>
        <time>2018-04-22T15:29:11Z</time>
      </trkpt>
      <trkpt lat="43.94169" lon="7.38632">
        <ele>1083</ele>
        <time>2018-04-22T15:29:11Z</time>
      </trkpt>
      <trkpt lat="43.9417" lon="7.38634">
        <ele>1083</ele>
        <time>2018-04-22T15:29:11Z</time>
      </trkpt>
      <trkpt lat="43.94171" lon="7.38643">
        <ele>1083</ele>
        <time>2018-04-22T15:29:27Z</time>
      </trkpt>
      <trkpt lat="43.9417" lon="7.38649">
        <ele>1083</ele>
        <time>2018-04-22T15:29:27Z</time>
      </trkpt>
      <trkpt lat="43.94169" lon="7.38651">
        <ele>1083</ele>
        <time>2018-04-22T15:29:27Z</time>
      </trkpt>
      <trkpt lat="43.94167" lon="7.38658">
        <ele>1083</ele>
        <time>2018-04-22T15:29:27Z</time>
      </trkpt>
      <trkpt lat="43.94165" lon="7.38665">
        <ele>1083</ele>
        <time>2018-04-22T15:29:43Z</time>
      </trkpt>
      <trkpt lat="43.94163" lon="7.38672">
        <ele>1083</ele>
        <time>2018-04-22T15:29:43Z</time>
      </trkpt>
      <trkpt lat="43.94162" lon="7.38677">
        <ele>1083</ele>
        <time>2018-04-22T15:29:43Z</time>
      </trkpt>
      <trkpt lat="43.94162" lon="7.38684">
        <ele>1083</ele>
        <time>2018-04-22T15:29:43Z</time>
      </trkpt>
      <trkpt lat="43.94158" lon="7.38693">
        <ele>1083</ele>
        <time>2018-04-22T15:29:59Z</time>
      </trkpt>
      <trkpt lat="43.94155" lon="7.387">
        <ele>1083</ele>
        <time>2018-04-22T15:29:59Z</time>
      </trkpt>
      <trkpt lat="43.94153" lon="7.38708">
        <ele>1083</ele>
        <time>2018-04-22T15:29:59Z</time>
      </trkpt>
      <trkpt lat="43.94152" lon="7.3871">
        <ele>1062</ele>
        <time>2018-04-22T15:29:59Z</time>
      </trkpt>
      <trkpt lat="43.94153" lon="7.38708">
        <ele>1083</ele>
        <time>2018-04-22T15:30:19Z</time>
      </trkpt>
      <trkpt lat="43.94154" lon="7.38706">
        <ele>1083</ele>
        <time>2018-04-22T15:30:19Z</time>
      </trkpt>
      <trkpt lat="43.94152" lon="7.38712">
        <ele>1062</ele>
        <time>2018-04-22T15:30:19Z</time>
      </trkpt>
      <trkpt lat="43.9415" lon="7.38718">
        <ele>1062</ele>
        <time>2018-04-22T15:30:19Z</time>
      </trkpt>
      <trkpt lat="43.94146" lon="7.38724">
        <ele>1062</ele>
        <time>2018-04-22T15:30:19Z</time>
      </trkpt>
      <trkpt lat="43.94141" lon="7.3873">
        <ele>1062</ele>
        <time>2018-04-22T15:30:35Z</time>
      </trkpt>
      <trkpt lat="43.94138" lon="7.38736">
        <ele>1062</ele>
        <time>2018-04-22T15:30:35Z</time>
      </trkpt>
      <trkpt lat="43.94134" lon="7.38741">
        <ele>1062</ele>
        <time>2018-04-22T15:30:35Z</time>
      </trkpt>
      <trkpt lat="43.94131" lon="7.38746">
        <ele>1062</ele>
        <time>2018-04-22T15:30:35Z</time>
      </trkpt>
      <trkpt lat="43.94126" lon="7.38756">
        <ele>1062</ele>
        <time>2018-04-22T15:30:51Z</time>
      </trkpt>
      <trkpt lat="43.94122" lon="7.38764">
        <ele>1104</ele>
        <time>2018-04-22T15:30:51Z</time>
      </trkpt>
      <trkpt lat="43.9412" lon="7.38768">
        <ele>1104</ele>
        <time>2018-04-22T15:30:51Z</time>
      </trkpt>
      <trkpt lat="43.94118" lon="7.3877">
        <ele>1104</ele>
        <time>2018-04-22T15:30:51Z</time>
      </trkpt>
      <trkpt lat="43.94116" lon="7.38777">
        <ele>1104</ele>
        <time>2018-04-22T15:31:07Z</time>
      </trkpt>
      <trkpt lat="43.94114" lon="7.38783">
        <ele>1104</ele>
        <time>2018-04-22T15:31:07Z</time>
      </trkpt>
      <trkpt lat="43.94113" lon="7.38788">
        <ele>1104</ele>
        <time>2018-04-22T15:31:07Z</time>
      </trkpt>
      <trkpt lat="43.9411" lon="7.38794">
        <ele>1072</ele>
        <time>2018-04-22T15:31:07Z</time>
      </trkpt>
      <trkpt lat="43.94108" lon="7.38801">
        <ele>1072</ele>
        <time>2018-04-22T15:31:23Z</time>
      </trkpt>
      <trkpt lat="43.94108" lon="7.38809">
        <ele>1072</ele>
        <time>2018-04-22T15:31:23Z</time>
      </trkpt>
      <trkpt lat="43.94108" lon="7.38815">
        <ele>1072</ele>
        <time>2018-04-22T15:31:23Z</time>
      </trkpt>
      <trkpt lat="43.94107" lon="7.38816">
        <ele>1072</ele>
        <time>2018-04-22T15:31:23Z</time>
      </trkpt>
      <trkpt lat="43.94106" lon="7.3882">
        <ele>1072</ele>
        <time>2018-04-22T15:31:39Z</time>
      </trkpt>
      <trkpt lat="43.94104" lon="7.38823">
        <ele>1072</ele>
        <time>2018-04-22T15:31:39Z</time>
      </trkpt>
      <trkpt lat="43.94096" lon="7.38826">
        <ele>1072</ele>
        <time>2018-04-22T15:31:39Z</time>
      </trkpt>
      <trkpt lat="43.94089" lon="7.38823">
        <ele>1072</ele>
        <time>2018-04-22T15:31:39Z</time>
      </trkpt>
      <trkpt lat="43.94085" lon="7.38818">
        <ele>1072</ele>
        <time>2018-04-22T15:31:55Z</time>
      </trkpt>
      <trkpt lat="43.94081" lon="7.38814">
        <ele>1072</ele>
        <time>2018-04-22T15:31:55Z</time>
      </trkpt>
      <trkpt lat="43.94077" lon="7.3881">
        <ele>1072</ele>
        <time>2018-04-22T15:31:55Z</time>
      </trkpt>
      <trkpt lat="43.94073" lon="7.38809">
        <ele>1072</ele>
        <time>2018-04-22T15:31:55Z</time>
      </trkpt>
      <trkpt lat="43.94073" lon="7.38812">
        <ele>1072</ele>
        <time>2018-04-22T15:32:11Z</time>
      </trkpt>
      <trkpt lat="43.94076" lon="7.38817">
        <ele>1072</ele>
        <time>2018-04-22T15:32:11Z</time>
      </trkpt>
      <trkpt lat="43.94079" lon="7.38822">
        <ele>1072</ele>
        <time>2018-04-22T15:32:11Z</time>
      </trkpt>
      <trkpt lat="43.94083" lon="7.38827">
        <ele>1072</ele>
        <time>2018-04-22T15:32:11Z</time>
      </trkpt>
      <trkpt lat="43.94082" lon="7.38831">
        <ele>1072</ele>
        <time>2018-04-22T15:32:27Z</time>
      </trkpt>
      <trkpt lat="43.94078" lon="7.38835">
        <ele>1072</ele>
        <time>2018-04-22T15:32:27Z</time>
      </trkpt>
      <trkpt lat="43.94077" lon="7.38842">
        <ele>1072</ele>
        <time>2018-04-22T15:32:27Z</time>
      </trkpt>
      <trkpt lat="43.94077" lon="7.38852">
        <ele>1072</ele>
        <time>2018-04-22T15:32:27Z</time>
      </trkpt>
      <trkpt lat="43.94078" lon="7.38858">
        <ele>1072</ele>
        <time>2018-04-22T15:32:43Z</time>
      </trkpt>
      <trkpt lat="43.94077" lon="7.38866">
        <ele>1072</ele>
        <time>2018-04-22T15:32:43Z</time>
      </trkpt>
      <trkpt lat="43.94077" lon="7.38871">
        <ele>1072</ele>
        <time>2018-04-22T15:32:43Z</time>
      </trkpt>
      <trkpt lat="43.94081" lon="7.38871">
        <ele>1072</ele>
        <time>2018-04-22T15:32:43Z</time>
      </trkpt>
      <trkpt lat="43.94084" lon="7.3887">
        <ele>1072</ele>
        <time>2018-04-22T15:32:59Z</time>
      </trkpt>
      <trkpt lat="43.94086" lon="7.38877">
        <ele>1072</ele>
        <time>2018-04-22T15:32:59Z</time>
      </trkpt>
      <trkpt lat="43.94088" lon="7.38882">
        <ele>1072</ele>
        <time>2018-04-22T15:32:59Z</time>
      </trkpt>
      <trkpt lat="43.94091" lon="7.38889">
        <ele>1072</ele>
        <time>2018-04-22T15:32:59Z</time>
      </trkpt>
      <trkpt lat="43.94095" lon="7.389">
        <ele>1072</ele>
        <time>2018-04-22T15:33:15Z</time>
      </trkpt>
      <trkpt lat="43.94099" lon="7.38907">
        <ele>1072</ele>
        <time>2018-04-22T15:33:15Z</time>
      </trkpt>
      <trkpt lat="43.94102" lon="7.38911">
        <ele>1072</ele>
        <time>2018-04-22T15:33:15Z</time>
      </trkpt>
      <trkpt lat="43.94104" lon="7.3892">
        <ele>1072</ele>
        <time>2018-04-22T15:33:15Z</time>
      </trkpt>
      <trkpt lat="43.94105" lon="7.38925">
        <ele>1072</ele>
        <time>2018-04-22T15:33:31Z</time>
      </trkpt>
      <trkpt lat="43.94106" lon="7.38931">
        <ele>1072</ele>
        <time>2018-04-22T15:33:31Z</time>
      </trkpt>
      <trkpt lat="43.94106" lon="7.38935">
        <ele>1072</ele>
        <time>2018-04-22T15:33:31Z</time>
      </trkpt>
      <trkpt lat="43.94106" lon="7.3894">
        <ele>1072</ele>
        <time>2018-04-22T15:33:31Z</time>
      </trkpt>
      <trkpt lat="43.94105" lon="7.38942">
        <ele>1072</ele>
        <time>2018-04-22T15:33:47Z</time>
      </trkpt>
      <trkpt lat="43.94105" lon="7.3895">
        <ele>1072</ele>
        <time>2018-04-22T15:33:47Z</time>
      </trkpt>
      <trkpt lat="43.94104" lon="7.38951">
        <ele>1072</ele>
        <time>2018-04-22T15:33:47Z</time>
      </trkpt>
      <trkpt lat="43.94101" lon="7.38956">
        <ele>1072</ele>
        <time>2018-04-22T15:33:47Z</time>
      </trkpt>
      <trkpt lat="43.941" lon="7.38961">
        <ele>1057</ele>
        <time>2018-04-22T15:34:03Z</time>
      </trkpt>
      <trkpt lat="43.941" lon="7.38965">
        <ele>1057</ele>
        <time>2018-04-22T15:34:03Z</time>
      </trkpt>
      <trkpt lat="43.94099" lon="7.38969">
        <ele>1057</ele>
        <time>2018-04-22T15:34:03Z</time>
      </trkpt>
      <trkpt lat="43.94097" lon="7.38977">
        <ele>1057</ele>
        <time>2018-04-22T15:34:03Z</time>
      </trkpt>
      <trkpt lat="43.94095" lon="7.38985">
        <ele>1057</ele>
        <time>2018-04-22T15:34:19Z</time>
      </trkpt>
      <trkpt lat="43.94093" lon="7.38993">
        <ele>1057</ele>
        <time>2018-04-22T15:34:19Z</time>
      </trkpt>
      <trkpt lat="43.94088" lon="7.39001">
        <ele>1057</ele>
        <time>2018-04-22T15:34:19Z</time>
      </trkpt>
      <trkpt lat="43.94086" lon="7.39006">
        <ele>1057</ele>
        <time>2018-04-22T15:34:19Z</time>
      </trkpt>
      <trkpt lat="43.94081" lon="7.39015">
        <ele>1057</ele>
        <time>2018-04-22T15:34:35Z</time>
      </trkpt>
      <trkpt lat="43.94075" lon="7.3902">
        <ele>1057</ele>
        <time>2018-04-22T15:34:35Z</time>
      </trkpt>
      <trkpt lat="43.94069" lon="7.39028">
        <ele>1057</ele>
        <time>2018-04-22T15:34:35Z</time>
      </trkpt>
      <trkpt lat="43.94069" lon="7.39028">
        <ele>1057</ele>
        <time>2018-04-22T15:34:35Z</time>
      </trkpt>
      <trkpt lat="43.94067" lon="7.39032">
        <ele>1057</ele>
        <time>2018-04-22T15:34:51Z</time>
      </trkpt>
      <trkpt lat="43.94067" lon="7.39037">
        <ele>1057</ele>
        <time>2018-04-22T15:34:51Z</time>
      </trkpt>
      <trkpt lat="43.94067" lon="7.39044">
        <ele>1033</ele>
        <time>2018-04-22T15:34:51Z</time>
      </trkpt>
      <trkpt lat="43.94062" lon="7.39052">
        <ele>1033</ele>
        <time>2018-04-22T15:34:51Z</time>
      </trkpt>
      <trkpt lat="43.9406" lon="7.39058">
        <ele>1033</ele>
        <time>2018-04-22T15:35:07Z</time>
      </trkpt>
      <trkpt lat="43.94058" lon="7.39063">
        <ele>1033</ele>
        <time>2018-04-22T15:35:07Z</time>
      </trkpt>
      <trkpt lat="43.94056" lon="7.39066">
        <ele>1033</ele>
        <time>2018-04-22T15:35:07Z</time>
      </trkpt>
      <trkpt lat="43.94054" lon="7.39073">
        <ele>1033</ele>
        <time>2018-04-22T15:35:07Z</time>
      </trkpt>
      <trkpt lat="43.94055" lon="7.39077">
        <ele>1033</ele>
        <time>2018-04-22T15:35:23Z</time>
      </trkpt>
      <trkpt lat="43.94054" lon="7.3908">
        <ele>1033</ele>
        <time>2018-04-22T15:35:23Z</time>
      </trkpt>
      <trkpt lat="43.94055" lon="7.39084">
        <ele>1033</ele>
        <time>2018-04-22T15:35:23Z</time>
      </trkpt>
      <trkpt lat="43.94054" lon="7.39091">
        <ele>1033</ele>
        <time>2018-04-22T15:35:23Z</time>
      </trkpt>
      <trkpt lat="43.94051" lon="7.391">
        <ele>1033</ele>
        <time>2018-04-22T15:35:39Z</time>
      </trkpt>
      <trkpt lat="43.94047" lon="7.39108">
        <ele>1033</ele>
        <time>2018-04-22T15:35:39Z</time>
      </trkpt>
      <trkpt lat="43.94046" lon="7.39113">
        <ele>1033</ele>
        <time>2018-04-22T15:35:39Z</time>
      </trkpt>
      <trkpt lat="43.94043" lon="7.39117">
        <ele>1033</ele>
        <time>2018-04-22T15:35:39Z</time>
      </trkpt>
      <trkpt lat="43.9404" lon="7.39119">
        <ele>1072</ele>
        <time>2018-04-22T15:35:55Z</time>
      </trkpt>
      <trkpt lat="43.94037" lon="7.39122">
        <ele>1072</ele>
        <time>2018-04-22T15:35:55Z</time>
      </trkpt>
      <trkpt lat="43.94034" lon="7.39124">
        <ele>1072</ele>
        <time>2018-04-22T15:35:55Z</time>
      </trkpt>
      <trkpt lat="43.9403" lon="7.39129">
        <ele>1028</ele>
        <time>2018-04-22T15:35:55Z</time>
      </trkpt>
      <trkpt lat="43.94031" lon="7.3913">
        <ele>1028</ele>
        <time>2018-04-22T15:36:23Z</time>
      </trkpt>
      <trkpt lat="43.94028" lon="7.39131">
        <ele>1028</ele>
        <time>2018-04-22T15:36:23Z</time>
      </trkpt>
      <trkpt lat="43.94023" lon="7.39132">
        <ele>1028</ele>
        <time>2018-04-22T15:36:23Z</time>
      </trkpt>
      <trkpt lat="43.94019" lon="7.39133">
        <ele>1028</ele>
        <time>2018-04-22T15:36:23Z</time>
      </trkpt>
      <trkpt lat="43.94013" lon="7.39132">
        <ele>1028</ele>
        <time>2018-04-22T15:36:23Z</time>
      </trkpt>
      <trkpt lat="43.9401" lon="7.39133">
        <ele>1028</ele>
        <time>2018-04-22T15:36:39Z</time>
      </trkpt>
      <trkpt lat="43.94005" lon="7.39135">
        <ele>1028</ele>
        <time>2018-04-22T15:36:39Z</time>
      </trkpt>
      <trkpt lat="43.94" lon="7.39136">
        <ele>1028</ele>
        <time>2018-04-22T15:36:39Z</time>
      </trkpt>
      <trkpt lat="43.93997" lon="7.39136">
        <ele>1028</ele>
        <time>2018-04-22T15:36:39Z</time>
      </trkpt>
      <trkpt lat="43.93992" lon="7.39137">
        <ele>1028</ele>
        <time>2018-04-22T15:36:55Z</time>
      </trkpt>
      <trkpt lat="43.9399" lon="7.39139">
        <ele>1028</ele>
        <time>2018-04-22T15:36:55Z</time>
      </trkpt>
      <trkpt lat="43.93986" lon="7.39141">
        <ele>1028</ele>
        <time>2018-04-22T15:36:55Z</time>
      </trkpt>
      <trkpt lat="43.93979" lon="7.39144">
        <ele>1028</ele>
        <time>2018-04-22T15:36:55Z</time>
      </trkpt>
      <trkpt lat="43.93976" lon="7.39141">
        <ele>1028</ele>
        <time>2018-04-22T15:37:11Z</time>
      </trkpt>
      <trkpt lat="43.93968" lon="7.39139">
        <ele>1028</ele>
        <time>2018-04-22T15:37:11Z</time>
      </trkpt>
      <trkpt lat="43.93962" lon="7.39136">
        <ele>1028</ele>
        <time>2018-04-22T15:37:11Z</time>
      </trkpt>
      <trkpt lat="43.93957" lon="7.39133">
        <ele>1023</ele>
        <time>2018-04-22T15:37:11Z</time>
      </trkpt>
      <trkpt lat="43.93952" lon="7.39133">
        <ele>1023</ele>
        <time>2018-04-22T15:37:35Z</time>
      </trkpt>
      <trkpt lat="43.93952" lon="7.39134">
        <ele>1023</ele>
        <time>2018-04-22T15:37:35Z</time>
      </trkpt>
      <trkpt lat="43.93951" lon="7.39136">
        <ele>1023</ele>
        <time>2018-04-22T15:37:35Z</time>
      </trkpt>
      <trkpt lat="43.93948" lon="7.39134">
        <ele>1023</ele>
        <time>2018-04-22T15:37:35Z</time>
      </trkpt>
      <trkpt lat="43.93944" lon="7.39132">
        <ele>1023</ele>
        <time>2018-04-22T15:37:35Z</time>
      </trkpt>
      <trkpt lat="43.93941" lon="7.39132">
        <ele>1023</ele>
        <time>2018-04-22T15:37:55Z</time>
      </trkpt>
      <trkpt lat="43.93938" lon="7.39132">
        <ele>1023</ele>
        <time>2018-04-22T15:37:55Z</time>
      </trkpt>
      <trkpt lat="43.93935" lon="7.3913">
        <ele>1023</ele>
        <time>2018-04-22T15:37:55Z</time>
      </trkpt>
      <trkpt lat="43.93933" lon="7.39128">
        <ele>1023</ele>
        <time>2018-04-22T15:37:55Z</time>
      </trkpt>
      <trkpt lat="43.93929" lon="7.39126">
        <ele>1023</ele>
        <time>2018-04-22T15:37:55Z</time>
      </trkpt>
      <trkpt lat="43.93926" lon="7.39124">
        <ele>1061</ele>
        <time>2018-04-22T15:38:15Z</time>
      </trkpt>
      <trkpt lat="43.93922" lon="7.39122">
        <ele>1061</ele>
        <time>2018-04-22T15:38:15Z</time>
      </trkpt>
      <trkpt lat="43.93919" lon="7.3912">
        <ele>1061</ele>
        <time>2018-04-22T15:38:15Z</time>
      </trkpt>
      <trkpt lat="43.93918" lon="7.3912">
        <ele>1061</ele>
        <time>2018-04-22T15:38:15Z</time>
      </trkpt>
      <trkpt lat="43.93916" lon="7.3912">
        <ele>1061</ele>
        <time>2018-04-22T15:38:15Z</time>
      </trkpt>
      <trkpt lat="43.9392" lon="7.39126">
        <ele>1023</ele>
        <time>2018-04-22T15:39:19Z</time>
      </trkpt>
      <trkpt lat="43.9392" lon="7.39126">
        <ele>1023</ele>
        <time>2018-04-22T15:39:19Z</time>
      </trkpt>
      <trkpt lat="43.93922" lon="7.39128">
        <ele>1023</ele>
        <time>2018-04-22T15:39:19Z</time>
      </trkpt>
      <trkpt lat="43.93922" lon="7.39129">
        <ele>1023</ele>
        <time>2018-04-22T15:39:19Z</time>
      </trkpt>
      <trkpt lat="43.93923" lon="7.3913">
        <ele>1023</ele>
        <time>2018-04-22T15:39:19Z</time>
      </trkpt>
      <trkpt lat="43.93926" lon="7.39134">
        <ele>1023</ele>
        <time>2018-04-22T15:39:35Z</time>
      </trkpt>
      <trkpt lat="43.93928" lon="7.39136">
        <ele>1023</ele>
        <time>2018-04-22T15:39:35Z</time>
      </trkpt>
      <trkpt lat="43.93929" lon="7.39137">
        <ele>1023</ele>
        <time>2018-04-22T15:39:35Z</time>
      </trkpt>
      <trkpt lat="43.93934" lon="7.39144">
        <ele>1023</ele>
        <time>2018-04-22T15:39:35Z</time>
      </trkpt>
      <trkpt lat="43.93938" lon="7.39149">
        <ele>1023</ele>
        <time>2018-04-22T15:39:51Z</time>
      </trkpt>
      <trkpt lat="43.93942" lon="7.39156">
        <ele>1023</ele>
        <time>2018-04-22T15:39:51Z</time>
      </trkpt>
      <trkpt lat="43.93945" lon="7.39161">
        <ele>1023</ele>
        <time>2018-04-22T15:39:51Z</time>
      </trkpt>
      <trkpt lat="43.93949" lon="7.39173">
        <ele>1023</ele>
        <time>2018-04-22T15:39:51Z</time>
      </trkpt>
      <trkpt lat="43.93957" lon="7.39207">
        <ele>1023</ele>
        <time>2018-04-22T15:40:31Z</time>
      </trkpt>
      <trkpt lat="43.9396" lon="7.39215">
        <ele>990</ele>
        <time>2018-04-22T15:40:31Z</time>
      </trkpt>
      <trkpt lat="43.93962" lon="7.39218">
        <ele>990</ele>
        <time>2018-04-22T15:40:31Z</time>
      </trkpt>
      <trkpt lat="43.93967" lon="7.39227">
        <ele>990</ele>
        <time>2018-04-22T15:40:31Z</time>
      </trkpt>
      <trkpt lat="43.93973" lon="7.39237">
        <ele>990</ele>
        <time>2018-04-22T15:40:31Z</time>
      </trkpt>
      <trkpt lat="43.93975" lon="7.39242">
        <ele>990</ele>
        <time>2018-04-22T15:40:47Z</time>
      </trkpt>
      <trkpt lat="43.93977" lon="7.39249">
        <ele>990</ele>
        <time>2018-04-22T15:40:47Z</time>
      </trkpt>
      <trkpt lat="43.93977" lon="7.39253">
        <ele>990</ele>
        <time>2018-04-22T15:40:47Z</time>
      </trkpt>
      <trkpt lat="43.93974" lon="7.3926">
        <ele>990</ele>
        <time>2018-04-22T15:40:47Z</time>
      </trkpt>
      <trkpt lat="43.9397" lon="7.39264">
        <ele>990</ele>
        <time>2018-04-22T15:41:03Z</time>
      </trkpt>
      <trkpt lat="43.93963" lon="7.39273">
        <ele>990</ele>
        <time>2018-04-22T15:41:03Z</time>
      </trkpt>
      <trkpt lat="43.93953" lon="7.39278">
        <ele>1025</ele>
        <time>2018-04-22T15:41:03Z</time>
      </trkpt>
      <trkpt lat="43.93949" lon="7.39278">
        <ele>1025</ele>
        <time>2018-04-22T15:41:03Z</time>
      </trkpt>
      <trkpt lat="43.93944" lon="7.3928">
        <ele>1025</ele>
        <time>2018-04-22T15:41:19Z</time>
      </trkpt>
      <trkpt lat="43.93939" lon="7.39282">
        <ele>1025</ele>
        <time>2018-04-22T15:41:19Z</time>
      </trkpt>
      <trkpt lat="43.93934" lon="7.39287">
        <ele>1025</ele>
        <time>2018-04-22T15:41:19Z</time>
      </trkpt>
      <trkpt lat="43.93932" lon="7.39292">
        <ele>996</ele>
        <time>2018-04-22T15:41:19Z</time>
      </trkpt>
      <trkpt lat="43.93928" lon="7.39301">
        <ele>996</ele>
        <time>2018-04-22T15:41:35Z</time>
      </trkpt>
      <trkpt lat="43.93925" lon="7.39303">
        <ele>996</ele>
        <time>2018-04-22T15:41:35Z</time>
      </trkpt>
      <trkpt lat="43.93921" lon="7.39308">
        <ele>996</ele>
        <time>2018-04-22T15:41:35Z</time>
      </trkpt>
      <trkpt lat="43.93919" lon="7.3931">
        <ele>996</ele>
        <time>2018-04-22T15:41:35Z</time>
      </trkpt>
      <trkpt lat="43.93916" lon="7.39314">
        <ele>996</ele>
        <time>2018-04-22T15:41:51Z</time>
      </trkpt>
      <trkpt lat="43.93913" lon="7.39317">
        <ele>996</ele>
        <time>2018-04-22T15:41:51Z</time>
      </trkpt>
      <trkpt lat="43.93911" lon="7.3932">
        <ele>996</ele>
        <time>2018-04-22T15:41:51Z</time>
      </trkpt>
      <trkpt lat="43.93909" lon="7.39326">
        <ele>996</ele>
        <time>2018-04-22T15:41:51Z</time>
      </trkpt>
      <trkpt lat="43.93904" lon="7.3933">
        <ele>996</ele>
        <time>2018-04-22T15:42:07Z</time>
      </trkpt>
      <trkpt lat="43.93902" lon="7.39335">
        <ele>996</ele>
        <time>2018-04-22T15:42:07Z</time>
      </trkpt>
      <trkpt lat="43.93899" lon="7.3934">
        <ele>996</ele>
        <time>2018-04-22T15:42:07Z</time>
      </trkpt>
      <trkpt lat="43.93894" lon="7.39345">
        <ele>996</ele>
        <time>2018-04-22T15:42:07Z</time>
      </trkpt>
      <trkpt lat="43.9389" lon="7.39349">
        <ele>996</ele>
        <time>2018-04-22T15:42:27Z</time>
      </trkpt>
      <trkpt lat="43.93891" lon="7.39352">
        <ele>996</ele>
        <time>2018-04-22T15:42:27Z</time>
      </trkpt>
      <trkpt lat="43.93891" lon="7.39355">
        <ele>996</ele>
        <time>2018-04-22T15:42:27Z</time>
      </trkpt>
      <trkpt lat="43.93888" lon="7.39361">
        <ele>996</ele>
        <time>2018-04-22T15:42:27Z</time>
      </trkpt>
      <trkpt lat="43.93884" lon="7.39366">
        <ele>996</ele>
        <time>2018-04-22T15:42:27Z</time>
      </trkpt>
      <trkpt lat="43.93882" lon="7.39371">
        <ele>996</ele>
        <time>2018-04-22T15:42:43Z</time>
      </trkpt>
      <trkpt lat="43.93881" lon="7.39376">
        <ele>967</ele>
        <time>2018-04-22T15:42:43Z</time>
      </trkpt>
      <trkpt lat="43.9388" lon="7.39381">
        <ele>967</ele>
        <time>2018-04-22T15:42:43Z</time>
      </trkpt>
      <trkpt lat="43.93877" lon="7.39386">
        <ele>967</ele>
        <time>2018-04-22T15:42:43Z</time>
      </trkpt>
      <trkpt lat="43.93875" lon="7.39391">
        <ele>1006</ele>
        <time>2018-04-22T15:42:59Z</time>
      </trkpt>
      <trkpt lat="43.93873" lon="7.39396">
        <ele>1006</ele>
        <time>2018-04-22T15:42:59Z</time>
      </trkpt>
      <trkpt lat="43.9387" lon="7.39403">
        <ele>1006</ele>
        <time>2018-04-22T15:42:59Z</time>
      </trkpt>
      <trkpt lat="43.93867" lon="7.39409">
        <ele>1006</ele>
        <time>2018-04-22T15:42:59Z</time>
      </trkpt>
      <trkpt lat="43.93864" lon="7.39415">
        <ele>1006</ele>
        <time>2018-04-22T15:43:15Z</time>
      </trkpt>
      <trkpt lat="43.93861" lon="7.3942">
        <ele>1006</ele>
        <time>2018-04-22T15:43:15Z</time>
      </trkpt>
      <trkpt lat="43.93859" lon="7.39425">
        <ele>1006</ele>
        <time>2018-04-22T15:43:15Z</time>
      </trkpt>
      <trkpt lat="43.93854" lon="7.39434">
        <ele>1006</ele>
        <time>2018-04-22T15:43:15Z</time>
      </trkpt>
      <trkpt lat="43.93853" lon="7.39439">
        <ele>1006</ele>
        <time>2018-04-22T15:43:35Z</time>
      </trkpt>
      <trkpt lat="43.93853" lon="7.3944">
        <ele>1006</ele>
        <time>2018-04-22T15:43:35Z</time>
      </trkpt>
      <trkpt lat="43.93854" lon="7.39443">
        <ele>1006</ele>
        <time>2018-04-22T15:43:35Z</time>
      </trkpt>
      <trkpt lat="43.93853" lon="7.39447">
        <ele>1006</ele>
        <time>2018-04-22T15:43:35Z</time>
      </trkpt>
      <trkpt lat="43.93847" lon="7.39453">
        <ele>1006</ele>
        <time>2018-04-22T15:43:35Z</time>
      </trkpt>
      <trkpt lat="43.93844" lon="7.39457">
        <ele>1006</ele>
        <time>2018-04-22T15:43:51Z</time>
      </trkpt>
      <trkpt lat="43.93843" lon="7.39461">
        <ele>968</ele>
        <time>2018-04-22T15:43:51Z</time>
      </trkpt>
      <trkpt lat="43.9384" lon="7.39463">
        <ele>968</ele>
        <time>2018-04-22T15:43:51Z</time>
      </trkpt>
      <trkpt lat="43.93837" lon="7.39465">
        <ele>968</ele>
        <time>2018-04-22T15:43:51Z</time>
      </trkpt>
      <trkpt lat="43.93831" lon="7.39467">
        <ele>968</ele>
        <time>2018-04-22T15:44:07Z</time>
      </trkpt>
      <trkpt lat="43.93825" lon="7.39471">
        <ele>968</ele>
        <time>2018-04-22T15:44:07Z</time>
      </trkpt>
      <trkpt lat="43.93823" lon="7.39474">
        <ele>968</ele>
        <time>2018-04-22T15:44:07Z</time>
      </trkpt>
      <trkpt lat="43.93824" lon="7.39478">
        <ele>968</ele>
        <time>2018-04-22T15:44:07Z</time>
      </trkpt>
      <trkpt lat="43.93821" lon="7.39483">
        <ele>968</ele>
        <time>2018-04-22T15:44:23Z</time>
      </trkpt>
      <trkpt lat="43.93818" lon="7.39487">
        <ele>968</ele>
        <time>2018-04-22T15:44:23Z</time>
      </trkpt>
      <trkpt lat="43.93813" lon="7.39494">
        <ele>968</ele>
        <time>2018-04-22T15:44:23Z</time>
      </trkpt>
      <trkpt lat="43.93808" lon="7.39501">
        <ele>968</ele>
        <time>2018-04-22T15:44:23Z</time>
      </trkpt>
      <trkpt lat="43.93806" lon="7.39505">
        <ele>968</ele>
        <time>2018-04-22T15:44:39Z</time>
      </trkpt>
      <trkpt lat="43.93803" lon="7.39509">
        <ele>968</ele>
        <time>2018-04-22T15:44:39Z</time>
      </trkpt>
      <trkpt lat="43.938" lon="7.39512">
        <ele>968</ele>
        <time>2018-04-22T15:44:39Z</time>
      </trkpt>
      <trkpt lat="43.93796" lon="7.39516">
        <ele>968</ele>
        <time>2018-04-22T15:44:39Z</time>
      </trkpt>
      <trkpt lat="43.93792" lon="7.39521">
        <ele>1005</ele>
        <time>2018-04-22T15:44:55Z</time>
      </trkpt>
      <trkpt lat="43.9379" lon="7.39526">
        <ele>1005</ele>
        <time>2018-04-22T15:44:55Z</time>
      </trkpt>
      <trkpt lat="43.9379" lon="7.39529">
        <ele>1005</ele>
        <time>2018-04-22T15:44:55Z</time>
      </trkpt>
      <trkpt lat="43.93787" lon="7.39534">
        <ele>1005</ele>
        <time>2018-04-22T15:44:55Z</time>
      </trkpt>
      <trkpt lat="43.93785" lon="7.39539">
        <ele>1005</ele>
        <time>2018-04-22T15:45:11Z</time>
      </trkpt>
      <trkpt lat="43.9378" lon="7.39546">
        <ele>970</ele>
        <time>2018-04-22T15:45:11Z</time>
      </trkpt>
      <trkpt lat="43.93776" lon="7.39554">
        <ele>970</ele>
        <time>2018-04-22T15:45:11Z</time>
      </trkpt>
      <trkpt lat="43.93775" lon="7.39559">
        <ele>970</ele>
        <time>2018-04-22T15:45:11Z</time>
      </trkpt>
      <trkpt lat="43.93771" lon="7.39565">
        <ele>970</ele>
        <time>2018-04-22T15:45:27Z</time>
      </trkpt>
      <trkpt lat="43.93769" lon="7.39569">
        <ele>970</ele>
        <time>2018-04-22T15:45:27Z</time>
      </trkpt>
      <trkpt lat="43.93765" lon="7.39572">
        <ele>970</ele>
        <time>2018-04-22T15:45:27Z</time>
      </trkpt>
      <trkpt lat="43.9376" lon="7.39576">
        <ele>970</ele>
        <time>2018-04-22T15:45:27Z</time>
      </trkpt>
      <trkpt lat="43.93757" lon="7.39576">
        <ele>970</ele>
        <time>2018-04-22T15:45:43Z</time>
      </trkpt>
      <trkpt lat="43.93752" lon="7.3958">
        <ele>970</ele>
        <time>2018-04-22T15:45:43Z</time>
      </trkpt>
      <trkpt lat="43.93747" lon="7.39585">
        <ele>970</ele>
        <time>2018-04-22T15:45:43Z</time>
      </trkpt>
      <trkpt lat="43.93744" lon="7.39589">
        <ele>970</ele>
        <time>2018-04-22T15:45:43Z</time>
      </trkpt>
      <trkpt lat="43.93745" lon="7.39595">
        <ele>970</ele>
        <time>2018-04-22T15:46:23Z</time>
      </trkpt>
      <trkpt lat="43.93746" lon="7.39601">
        <ele>970</ele>
        <time>2018-04-22T15:46:23Z</time>
      </trkpt>
      <trkpt lat="43.93748" lon="7.39608">
        <ele>970</ele>
        <time>2018-04-22T15:46:23Z</time>
      </trkpt>
      <trkpt lat="43.93749" lon="7.39616">
        <ele>970</ele>
        <time>2018-04-22T15:46:23Z</time>
      </trkpt>
      <trkpt lat="43.93749" lon="7.39624">
        <ele>970</ele>
        <time>2018-04-22T15:46:23Z</time>
      </trkpt>
      <trkpt lat="43.93749" lon="7.39632">
        <ele>967</ele>
        <time>2018-04-22T15:46:39Z</time>
      </trkpt>
      <trkpt lat="43.9375" lon="7.39639">
        <ele>967</ele>
        <time>2018-04-22T15:46:39Z</time>
      </trkpt>
      <trkpt lat="43.9375" lon="7.39646">
        <ele>967</ele>
        <time>2018-04-22T15:46:39Z</time>
      </trkpt>
      <trkpt lat="43.93752" lon="7.39656">
        <ele>967</ele>
        <time>2018-04-22T15:46:39Z</time>
      </trkpt>
      <trkpt lat="43.93766" lon="7.3967">
        <ele>967</ele>
        <time>2018-04-22T15:47:07Z</time>
      </trkpt>
      <trkpt lat="43.93767" lon="7.3967">
        <ele>967</ele>
        <time>2018-04-22T15:47:07Z</time>
      </trkpt>
      <trkpt lat="43.93767" lon="7.39672">
        <ele>967</ele>
        <time>2018-04-22T15:47:07Z</time>
      </trkpt>
      <trkpt lat="43.93769" lon="7.39674">
        <ele>967</ele>
        <time>2018-04-22T15:47:07Z</time>
      </trkpt>
      <trkpt lat="43.9377" lon="7.39683">
        <ele>967</ele>
        <time>2018-04-22T15:47:07Z</time>
      </trkpt>
      <trkpt lat="43.93772" lon="7.39689">
        <ele>967</ele>
        <time>2018-04-22T15:47:23Z</time>
      </trkpt>
      <trkpt lat="43.93773" lon="7.39692">
        <ele>967</ele>
        <time>2018-04-22T15:47:23Z</time>
      </trkpt>
      <trkpt lat="43.93775" lon="7.39698">
        <ele>967</ele>
        <time>2018-04-22T15:47:23Z</time>
      </trkpt>
      <trkpt lat="43.93777" lon="7.39702">
        <ele>967</ele>
        <time>2018-04-22T15:47:23Z</time>
      </trkpt>
      <trkpt lat="43.93779" lon="7.39703">
        <ele>967</ele>
        <time>2018-04-22T15:47:39Z</time>
      </trkpt>
      <trkpt lat="43.93781" lon="7.39706">
        <ele>967</ele>
        <time>2018-04-22T15:47:39Z</time>
      </trkpt>
      <trkpt lat="43.93784" lon="7.39709">
        <ele>984</ele>
        <time>2018-04-22T15:47:39Z</time>
      </trkpt>
      <trkpt lat="43.93788" lon="7.39712">
        <ele>984</ele>
        <time>2018-04-22T15:47:39Z</time>
      </trkpt>
      <trkpt lat="43.93791" lon="7.39717">
        <ele>984</ele>
        <time>2018-04-22T15:47:55Z</time>
      </trkpt>
      <trkpt lat="43.93794" lon="7.39718">
        <ele>935</ele>
        <time>2018-04-22T15:47:55Z</time>
      </trkpt>
      <trkpt lat="43.93798" lon="7.39719">
        <ele>935</ele>
        <time>2018-04-22T15:47:55Z</time>
      </trkpt>
      <trkpt lat="43.93801" lon="7.39716">
        <ele>935</ele>
        <time>2018-04-22T15:47:55Z</time>
      </trkpt>
      <trkpt lat="43.93806" lon="7.39719">
        <ele>935</ele>
        <time>2018-04-22T15:48:11Z</time>
      </trkpt>
      <trkpt lat="43.93812" lon="7.39724">
        <ele>935</ele>
        <time>2018-04-22T15:48:11Z</time>
      </trkpt>
      <trkpt lat="43.9382" lon="7.39728">
        <ele>935</ele>
        <time>2018-04-22T15:48:11Z</time>
      </trkpt>
      <trkpt lat="43.93826" lon="7.39731">
        <ele>935</ele>
        <time>2018-04-22T15:48:11Z</time>
      </trkpt>
      <trkpt lat="43.9383" lon="7.39729">
        <ele>935</ele>
        <time>2018-04-22T15:48:27Z</time>
      </trkpt>
      <trkpt lat="43.93833" lon="7.39725">
        <ele>935</ele>
        <time>2018-04-22T15:48:27Z</time>
      </trkpt>
      <trkpt lat="43.93841" lon="7.39725">
        <ele>935</ele>
        <time>2018-04-22T15:48:27Z</time>
      </trkpt>
      <trkpt lat="43.93847" lon="7.39722">
        <ele>935</ele>
        <time>2018-04-22T15:48:27Z</time>
      </trkpt>
      <trkpt lat="43.93854" lon="7.39724">
        <ele>935</ele>
        <time>2018-04-22T15:48:43Z</time>
      </trkpt>
      <trkpt lat="43.93859" lon="7.39723">
        <ele>935</ele>
        <time>2018-04-22T15:48:43Z</time>
      </trkpt>
      <trkpt lat="43.93864" lon="7.39726">
        <ele>935</ele>
        <time>2018-04-22T15:48:43Z</time>
      </trkpt>
      <trkpt lat="43.9387" lon="7.39731">
        <ele>935</ele>
        <time>2018-04-22T15:48:43Z</time>
      </trkpt>
      <trkpt lat="43.93876" lon="7.39737">
        <ele>926</ele>
        <time>2018-04-22T15:48:59Z</time>
      </trkpt>
      <trkpt lat="43.93879" lon="7.39742">
        <ele>926</ele>
        <time>2018-04-22T15:48:59Z</time>
      </trkpt>
      <trkpt lat="43.93885" lon="7.39747">
        <ele>926</ele>
        <time>2018-04-22T15:48:59Z</time>
      </trkpt>
      <trkpt lat="43.93889" lon="7.39752">
        <ele>926</ele>
        <time>2018-04-22T15:48:59Z</time>
      </trkpt>
      <trkpt lat="43.93891" lon="7.39758">
        <ele>926</ele>
        <time>2018-04-22T15:49:15Z</time>
      </trkpt>
      <trkpt lat="43.93894" lon="7.39764">
        <ele>926</ele>
        <time>2018-04-22T15:49:15Z</time>
      </trkpt>
      <trkpt lat="43.93897" lon="7.39769">
        <ele>926</ele>
        <time>2018-04-22T15:49:15Z</time>
      </trkpt>
      <trkpt lat="43.939" lon="7.39778">
        <ele>926</ele>
        <time>2018-04-22T15:49:15Z</time>
      </trkpt>
      <trkpt lat="43.93903" lon="7.39783">
        <ele>926</ele>
        <time>2018-04-22T15:49:31Z</time>
      </trkpt>
      <trkpt lat="43.93906" lon="7.39791">
        <ele>926</ele>
        <time>2018-04-22T15:49:31Z</time>
      </trkpt>
      <trkpt lat="43.93908" lon="7.39797">
        <ele>916</ele>
        <time>2018-04-22T15:49:31Z</time>
      </trkpt>
      <trkpt lat="43.93909" lon="7.39803">
        <ele>916</ele>
        <time>2018-04-22T15:49:31Z</time>
      </trkpt>
      <trkpt lat="43.93911" lon="7.39811">
        <ele>916</ele>
        <time>2018-04-22T15:49:47Z</time>
      </trkpt>
      <trkpt lat="43.93913" lon="7.39817">
        <ele>916</ele>
        <time>2018-04-22T15:49:47Z</time>
      </trkpt>
      <trkpt lat="43.93917" lon="7.39827">
        <ele>916</ele>
        <time>2018-04-22T15:49:47Z</time>
      </trkpt>
      <trkpt lat="43.93918" lon="7.39834">
        <ele>916</ele>
        <time>2018-04-22T15:49:47Z</time>
      </trkpt>
      <trkpt lat="43.9392" lon="7.39839">
        <ele>916</ele>
        <time>2018-04-22T15:50:03Z</time>
      </trkpt>
      <trkpt lat="43.93922" lon="7.39844">
        <ele>916</ele>
        <time>2018-04-22T15:50:03Z</time>
      </trkpt>
      <trkpt lat="43.93924" lon="7.39849">
        <ele>916</ele>
        <time>2018-04-22T15:50:03Z</time>
      </trkpt>
      <trkpt lat="43.93925" lon="7.39856">
        <ele>916</ele>
        <time>2018-04-22T15:50:03Z</time>
      </trkpt>
      <trkpt lat="43.93927" lon="7.39862">
        <ele>916</ele>
        <time>2018-04-22T15:50:19Z</time>
      </trkpt>
      <trkpt lat="43.93929" lon="7.39868">
        <ele>916</ele>
        <time>2018-04-22T15:50:19Z</time>
      </trkpt>
      <trkpt lat="43.9393" lon="7.39875">
        <ele>916</ele>
        <time>2018-04-22T15:50:19Z</time>
      </trkpt>
      <trkpt lat="43.93931" lon="7.39881">
        <ele>912</ele>
        <time>2018-04-22T15:50:19Z</time>
      </trkpt>
      <trkpt lat="43.93931" lon="7.39887">
        <ele>912</ele>
        <time>2018-04-22T15:50:35Z</time>
      </trkpt>
      <trkpt lat="43.93931" lon="7.39892">
        <ele>912</ele>
        <time>2018-04-22T15:50:35Z</time>
      </trkpt>
      <trkpt lat="43.93932" lon="7.39898">
        <ele>912</ele>
        <time>2018-04-22T15:50:35Z</time>
      </trkpt>
      <trkpt lat="43.93933" lon="7.39902">
        <ele>912</ele>
        <time>2018-04-22T15:50:35Z</time>
      </trkpt>
      <trkpt lat="43.93933" lon="7.39903">
        <ele>912</ele>
        <time>2018-04-22T15:50:51Z</time>
      </trkpt>
      <trkpt lat="43.93934" lon="7.39907">
        <ele>912</ele>
        <time>2018-04-22T15:50:51Z</time>
      </trkpt>
      <trkpt lat="43.93934" lon="7.39916">
        <ele>912</ele>
        <time>2018-04-22T15:50:51Z</time>
      </trkpt>
      <trkpt lat="43.93934" lon="7.39923">
        <ele>912</ele>
        <time>2018-04-22T15:50:51Z</time>
      </trkpt>
      <trkpt lat="43.93936" lon="7.39928">
        <ele>912</ele>
        <time>2018-04-22T15:51:07Z</time>
      </trkpt>
      <trkpt lat="43.93935" lon="7.39933">
        <ele>912</ele>
        <time>2018-04-22T15:51:07Z</time>
      </trkpt>
      <trkpt lat="43.93934" lon="7.39939">
        <ele>912</ele>
        <time>2018-04-22T15:51:07Z</time>
      </trkpt>
      <trkpt lat="43.93931" lon="7.39947">
        <ele>912</ele>
        <time>2018-04-22T15:51:07Z</time>
      </trkpt>
      <trkpt lat="43.93931" lon="7.39954">
        <ele>912</ele>
        <time>2018-04-22T15:51:23Z</time>
      </trkpt>
      <trkpt lat="43.9393" lon="7.39961">
        <ele>898</ele>
        <time>2018-04-22T15:51:23Z</time>
      </trkpt>
      <trkpt lat="43.93929" lon="7.39964">
        <ele>898</ele>
        <time>2018-04-22T15:51:23Z</time>
      </trkpt>
      <trkpt lat="43.93928" lon="7.39967">
        <ele>898</ele>
        <time>2018-04-22T15:51:23Z</time>
      </trkpt>
      <trkpt lat="43.93924" lon="7.39973">
        <ele>898</ele>
        <time>2018-04-22T15:51:39Z</time>
      </trkpt>
      <trkpt lat="43.93917" lon="7.39976">
        <ele>898</ele>
        <time>2018-04-22T15:51:39Z</time>
      </trkpt>
      <trkpt lat="43.93912" lon="7.39979">
        <ele>898</ele>
        <time>2018-04-22T15:51:39Z</time>
      </trkpt>
      <trkpt lat="43.93912" lon="7.39981">
        <ele>898</ele>
        <time>2018-04-22T15:51:39Z</time>
      </trkpt>
      <trkpt lat="43.93908" lon="7.39986">
        <ele>898</ele>
        <time>2018-04-22T15:51:55Z</time>
      </trkpt>
      <trkpt lat="43.93906" lon="7.39989">
        <ele>898</ele>
        <time>2018-04-22T15:51:55Z</time>
      </trkpt>
      <trkpt lat="43.93901" lon="7.39996">
        <ele>898</ele>
        <time>2018-04-22T15:51:55Z</time>
      </trkpt>
      <trkpt lat="43.93896" lon="7.4">
        <ele>898</ele>
        <time>2018-04-22T15:51:55Z</time>
      </trkpt>
      <trkpt lat="43.93889" lon="7.40003">
        <ele>898</ele>
        <time>2018-04-22T15:52:11Z</time>
      </trkpt>
      <trkpt lat="43.93884" lon="7.40004">
        <ele>898</ele>
        <time>2018-04-22T15:52:11Z</time>
      </trkpt>
      <trkpt lat="43.93877" lon="7.40008">
        <ele>898</ele>
        <time>2018-04-22T15:52:11Z</time>
      </trkpt>
      <trkpt lat="43.93874" lon="7.40008">
        <ele>900</ele>
        <time>2018-04-22T15:52:11Z</time>
      </trkpt>
      <trkpt lat="43.93869" lon="7.40009">
        <ele>900</ele>
        <time>2018-04-22T15:52:27Z</time>
      </trkpt>
      <trkpt lat="43.93867" lon="7.40013">
        <ele>900</ele>
        <time>2018-04-22T15:52:27Z</time>
      </trkpt>
      <trkpt lat="43.93862" lon="7.40024">
        <ele>900</ele>
        <time>2018-04-22T15:52:27Z</time>
      </trkpt>
      <trkpt lat="43.9386" lon="7.40024">
        <ele>900</ele>
        <time>2018-04-22T15:52:27Z</time>
      </trkpt>
      <trkpt lat="43.93858" lon="7.40025">
        <ele>900</ele>
        <time>2018-04-22T15:52:43Z</time>
      </trkpt>
      <trkpt lat="43.93855" lon="7.40024">
        <ele>900</ele>
        <time>2018-04-22T15:52:43Z</time>
      </trkpt>
      <trkpt lat="43.93851" lon="7.40026">
        <ele>900</ele>
        <time>2018-04-22T15:52:43Z</time>
      </trkpt>
      <trkpt lat="43.93847" lon="7.4003">
        <ele>900</ele>
        <time>2018-04-22T15:52:43Z</time>
      </trkpt>
      <trkpt lat="43.93842" lon="7.40033">
        <ele>900</ele>
        <time>2018-04-22T15:52:59Z</time>
      </trkpt>
      <trkpt lat="43.93836" lon="7.40038">
        <ele>900</ele>
        <time>2018-04-22T15:52:59Z</time>
      </trkpt>
      <trkpt lat="43.9383" lon="7.40041">
        <ele>900</ele>
        <time>2018-04-22T15:52:59Z</time>
      </trkpt>
      <trkpt lat="43.93823" lon="7.40044">
        <ele>890</ele>
        <time>2018-04-22T15:52:59Z</time>
      </trkpt>
      <trkpt lat="43.93819" lon="7.40044">
        <ele>890</ele>
        <time>2018-04-22T15:53:19Z</time>
      </trkpt>
      <trkpt lat="43.93815" lon="7.40046">
        <ele>890</ele>
        <time>2018-04-22T15:53:19Z</time>
      </trkpt>
      <trkpt lat="43.93812" lon="7.40047">
        <ele>890</ele>
        <time>2018-04-22T15:53:19Z</time>
      </trkpt>
      <trkpt lat="43.93811" lon="7.40045">
        <ele>890</ele>
        <time>2018-04-22T15:53:19Z</time>
      </trkpt>
      <trkpt lat="43.93808" lon="7.40046">
        <ele>890</ele>
        <time>2018-04-22T15:53:19Z</time>
      </trkpt>
      <trkpt lat="43.93805" lon="7.40052">
        <ele>890</ele>
        <time>2018-04-22T15:55:07Z</time>
      </trkpt>
      <trkpt lat="43.93799" lon="7.40052">
        <ele>890</ele>
        <time>2018-04-22T15:55:07Z</time>
      </trkpt>
      <trkpt lat="43.93794" lon="7.40053">
        <ele>890</ele>
        <time>2018-04-22T15:55:07Z</time>
      </trkpt>
      <trkpt lat="43.9379" lon="7.40055">
        <ele>875</ele>
        <time>2018-04-22T15:55:07Z</time>
      </trkpt>
      <trkpt lat="43.93786" lon="7.40056">
        <ele>875</ele>
        <time>2018-04-22T15:55:07Z</time>
      </trkpt>
      <trkpt lat="43.93785" lon="7.40056">
        <ele>875</ele>
        <time>2018-04-22T15:55:23Z</time>
      </trkpt>
      <trkpt lat="43.93783" lon="7.40057">
        <ele>875</ele>
        <time>2018-04-22T15:55:23Z</time>
      </trkpt>
      <trkpt lat="43.93778" lon="7.40059">
        <ele>875</ele>
        <time>2018-04-22T15:55:23Z</time>
      </trkpt>
      <trkpt lat="43.93775" lon="7.40061">
        <ele>875</ele>
        <time>2018-04-22T15:55:23Z</time>
      </trkpt>
      <trkpt lat="43.93779" lon="7.4006">
        <ele>875</ele>
        <time>2018-04-22T15:56:03Z</time>
      </trkpt>
      <trkpt lat="43.93779" lon="7.40064">
        <ele>875</ele>
        <time>2018-04-22T15:56:03Z</time>
      </trkpt>
      <trkpt lat="43.93777" lon="7.40069">
        <ele>875</ele>
        <time>2018-04-22T15:56:03Z</time>
      </trkpt>
      <trkpt lat="43.93775" lon="7.40073">
        <ele>875</ele>
        <time>2018-04-22T15:56:03Z</time>
      </trkpt>
      <trkpt lat="43.93773" lon="7.40077">
        <ele>875</ele>
        <time>2018-04-22T15:56:03Z</time>
      </trkpt>
      <trkpt lat="43.93771" lon="7.40081">
        <ele>875</ele>
        <time>2018-04-22T15:56:19Z</time>
      </trkpt>
      <trkpt lat="43.93769" lon="7.40085">
        <ele>875</ele>
        <time>2018-04-22T15:56:19Z</time>
      </trkpt>
      <trkpt lat="43.93767" lon="7.40086">
        <ele>875</ele>
        <time>2018-04-22T15:56:19Z</time>
      </trkpt>
      <trkpt lat="43.9376" lon="7.40093">
        <ele>875</ele>
        <time>2018-04-22T15:56:19Z</time>
      </trkpt>
      <trkpt lat="43.93754" lon="7.40098">
        <ele>875</ele>
        <time>2018-04-22T15:56:35Z</time>
      </trkpt>
      <trkpt lat="43.93751" lon="7.401">
        <ele>875</ele>
        <time>2018-04-22T15:56:35Z</time>
      </trkpt>
      <trkpt lat="43.93747" lon="7.40107">
        <ele>875</ele>
        <time>2018-04-22T15:56:35Z</time>
      </trkpt>
      <trkpt lat="43.93743" lon="7.40112">
        <ele>875</ele>
        <time>2018-04-22T15:56:35Z</time>
      </trkpt>
      <trkpt lat="43.93739" lon="7.40118">
        <ele>875</ele>
        <time>2018-04-22T15:56:51Z</time>
      </trkpt>
      <trkpt lat="43.93737" lon="7.40122">
        <ele>875</ele>
        <time>2018-04-22T15:56:51Z</time>
      </trkpt>
      <trkpt lat="43.93734" lon="7.40127">
        <ele>879</ele>
        <time>2018-04-22T15:56:51Z</time>
      </trkpt>
      <trkpt lat="43.93731" lon="7.40133">
        <ele>879</ele>
        <time>2018-04-22T15:56:51Z</time>
      </trkpt>
      <trkpt lat="43.93728" lon="7.40139">
        <ele>879</ele>
        <time>2018-04-22T15:57:07Z</time>
      </trkpt>
      <trkpt lat="43.93727" lon="7.40147">
        <ele>879</ele>
        <time>2018-04-22T15:57:07Z</time>
      </trkpt>
      <trkpt lat="43.93724" lon="7.40157">
        <ele>879</ele>
        <time>2018-04-22T15:57:07Z</time>
      </trkpt>
      <trkpt lat="43.93723" lon="7.40165">
        <ele>879</ele>
        <time>2018-04-22T15:57:07Z</time>
      </trkpt>
      <trkpt lat="43.93723" lon="7.40172">
        <ele>879</ele>
        <time>2018-04-22T15:57:23Z</time>
      </trkpt>
      <trkpt lat="43.93723" lon="7.40181">
        <ele>879</ele>
        <time>2018-04-22T15:57:23Z</time>
      </trkpt>
      <trkpt lat="43.93723" lon="7.40187">
        <ele>879</ele>
        <time>2018-04-22T15:57:23Z</time>
      </trkpt>
      <trkpt lat="43.93723" lon="7.40195">
        <ele>879</ele>
        <time>2018-04-22T15:57:23Z</time>
      </trkpt>
      <trkpt lat="43.93724" lon="7.40199">
        <ele>879</ele>
        <time>2018-04-22T15:57:39Z</time>
      </trkpt>
      <trkpt lat="43.93724" lon="7.40202">
        <ele>879</ele>
        <time>2018-04-22T15:57:39Z</time>
      </trkpt>
      <trkpt lat="43.93724" lon="7.40208">
        <ele>879</ele>
        <time>2018-04-22T15:57:39Z</time>
      </trkpt>
      <trkpt lat="43.93723" lon="7.40216">
        <ele>875</ele>
        <time>2018-04-22T15:57:39Z</time>
      </trkpt>
      <trkpt lat="43.93722" lon="7.40224">
        <ele>875</ele>
        <time>2018-04-22T15:57:55Z</time>
      </trkpt>
      <trkpt lat="43.9372" lon="7.40232">
        <ele>875</ele>
        <time>2018-04-22T15:57:55Z</time>
      </trkpt>
      <trkpt lat="43.9372" lon="7.4024">
        <ele>875</ele>
        <time>2018-04-22T15:57:55Z</time>
      </trkpt>
      <trkpt lat="43.93719" lon="7.40247">
        <ele>875</ele>
        <time>2018-04-22T15:57:55Z</time>
      </trkpt>
      <trkpt lat="43.9372" lon="7.40254">
        <ele>875</ele>
        <time>2018-04-22T15:58:11Z</time>
      </trkpt>
      <trkpt lat="43.93721" lon="7.40259">
        <ele>875</ele>
        <time>2018-04-22T15:58:11Z</time>
      </trkpt>
      <trkpt lat="43.93723" lon="7.40267">
        <ele>875</ele>
        <time>2018-04-22T15:58:11Z</time>
      </trkpt>
      <trkpt lat="43.93727" lon="7.40269">
        <ele>875</ele>
        <time>2018-04-22T15:58:11Z</time>
      </trkpt>
      <trkpt lat="43.93731" lon="7.40276">
        <ele>875</ele>
        <time>2018-04-22T15:58:27Z</time>
      </trkpt>
      <trkpt lat="43.93735" lon="7.40281">
        <ele>875</ele>
        <time>2018-04-22T15:58:27Z</time>
      </trkpt>
      <trkpt lat="43.93739" lon="7.40288">
        <ele>875</ele>
        <time>2018-04-22T15:58:27Z</time>
      </trkpt>
      <trkpt lat="43.93743" lon="7.40294">
        <ele>862</ele>
        <time>2018-04-22T15:58:27Z</time>
      </trkpt>
      <trkpt lat="43.93746" lon="7.40299">
        <ele>862</ele>
        <time>2018-04-22T15:58:43Z</time>
      </trkpt>
      <trkpt lat="43.9375" lon="7.40305">
        <ele>862</ele>
        <time>2018-04-22T15:58:43Z</time>
      </trkpt>
      <trkpt lat="43.93753" lon="7.40307">
        <ele>862</ele>
        <time>2018-04-22T15:58:43Z</time>
      </trkpt>
      <trkpt lat="43.93757" lon="7.40314">
        <ele>862</ele>
        <time>2018-04-22T15:58:43Z</time>
      </trkpt>
      <trkpt lat="43.9376" lon="7.40318">
        <ele>862</ele>
        <time>2018-04-22T15:58:59Z</time>
      </trkpt>
      <trkpt lat="43.93764" lon="7.40323">
        <ele>862</ele>
        <time>2018-04-22T15:58:59Z</time>
      </trkpt>
      <trkpt lat="43.93768" lon="7.40328">
        <ele>862</ele>
        <time>2018-04-22T15:58:59Z</time>
      </trkpt>
      <trkpt lat="43.93773" lon="7.40336">
        <ele>862</ele>
        <time>2018-04-22T15:58:59Z</time>
      </trkpt>
      <trkpt lat="43.93777" lon="7.40342">
        <ele>862</ele>
        <time>2018-04-22T15:59:15Z</time>
      </trkpt>
      <trkpt lat="43.93779" lon="7.40347">
        <ele>862</ele>
        <time>2018-04-22T15:59:15Z</time>
      </trkpt>
      <trkpt lat="43.93782" lon="7.40353">
        <ele>862</ele>
        <time>2018-04-22T15:59:15Z</time>
      </trkpt>
      <trkpt lat="43.93787" lon="7.40359">
        <ele>862</ele>
        <time>2018-04-22T15:59:15Z</time>
      </trkpt>
      <trkpt lat="43.9379" lon="7.40364">
        <ele>862</ele>
        <time>2018-04-22T15:59:31Z</time>
      </trkpt>
      <trkpt lat="43.93793" lon="7.40371">
        <ele>887</ele>
        <time>2018-04-22T15:59:31Z</time>
      </trkpt>
      <trkpt lat="43.93797" lon="7.40375">
        <ele>872</ele>
        <time>2018-04-22T15:59:31Z</time>
      </trkpt>
      <trkpt lat="43.93801" lon="7.40379">
        <ele>872</ele>
        <time>2018-04-22T15:59:31Z</time>
      </trkpt>
      <trkpt lat="43.93805" lon="7.40385">
        <ele>872</ele>
        <time>2018-04-22T15:59:47Z</time>
      </trkpt>
      <trkpt lat="43.93809" lon="7.40391">
        <ele>872</ele>
        <time>2018-04-22T15:59:47Z</time>
      </trkpt>
      <trkpt lat="43.93812" lon="7.40395">
        <ele>872</ele>
        <time>2018-04-22T15:59:47Z</time>
      </trkpt>
      <trkpt lat="43.93815" lon="7.40399">
        <ele>872</ele>
        <time>2018-04-22T15:59:47Z</time>
      </trkpt>
      <trkpt lat="43.93817" lon="7.40405">
        <ele>872</ele>
        <time>2018-04-22T16:00:03Z</time>
      </trkpt>
      <trkpt lat="43.9382" lon="7.4041">
        <ele>872</ele>
        <time>2018-04-22T16:00:03Z</time>
      </trkpt>
      <trkpt lat="43.93823" lon="7.40416">
        <ele>872</ele>
        <time>2018-04-22T16:00:03Z</time>
      </trkpt>
      <trkpt lat="43.93827" lon="7.40421">
        <ele>872</ele>
        <time>2018-04-22T16:00:03Z</time>
      </trkpt>
      <trkpt lat="43.93832" lon="7.40427">
        <ele>872</ele>
        <time>2018-04-22T16:00:19Z</time>
      </trkpt>
      <trkpt lat="43.93835" lon="7.40431">
        <ele>872</ele>
        <time>2018-04-22T16:00:19Z</time>
      </trkpt>
      <trkpt lat="43.93838" lon="7.40436">
        <ele>872</ele>
        <time>2018-04-22T16:00:19Z</time>
      </trkpt>
      <trkpt lat="43.93841" lon="7.40442">
        <ele>872</ele>
        <time>2018-04-22T16:00:19Z</time>
      </trkpt>
      <trkpt lat="43.93844" lon="7.40447">
        <ele>872</ele>
        <time>2018-04-22T16:00:35Z</time>
      </trkpt>
      <trkpt lat="43.93847" lon="7.40453">
        <ele>872</ele>
        <time>2018-04-22T16:00:35Z</time>
      </trkpt>
      <trkpt lat="43.9385" lon="7.40457">
        <ele>872</ele>
        <time>2018-04-22T16:00:35Z</time>
      </trkpt>
      <trkpt lat="43.93854" lon="7.40462">
        <ele>853</ele>
        <time>2018-04-22T16:00:35Z</time>
      </trkpt>
      <trkpt lat="43.93856" lon="7.40468">
        <ele>853</ele>
        <time>2018-04-22T16:00:51Z</time>
      </trkpt>
      <trkpt lat="43.9386" lon="7.40473">
        <ele>853</ele>
        <time>2018-04-22T16:00:51Z</time>
      </trkpt>
      <trkpt lat="43.93862" lon="7.40477">
        <ele>853</ele>
        <time>2018-04-22T16:00:51Z</time>
      </trkpt>
      <trkpt lat="43.93865" lon="7.40483">
        <ele>853</ele>
        <time>2018-04-22T16:00:51Z</time>
      </trkpt>
      <trkpt lat="43.93868" lon="7.40488">
        <ele>853</ele>
        <time>2018-04-22T16:01:07Z</time>
      </trkpt>
      <trkpt lat="43.93871" lon="7.40495">
        <ele>853</ele>
        <time>2018-04-22T16:01:07Z</time>
      </trkpt>
      <trkpt lat="43.93873" lon="7.405">
        <ele>853</ele>
        <time>2018-04-22T16:01:07Z</time>
      </trkpt>
      <trkpt lat="43.93875" lon="7.40501">
        <ele>853</ele>
        <time>2018-04-22T16:01:07Z</time>
      </trkpt>
      <trkpt lat="43.93879" lon="7.40504">
        <ele>875</ele>
        <time>2018-04-22T16:01:23Z</time>
      </trkpt>
      <trkpt lat="43.93884" lon="7.40507">
        <ele>875</ele>
        <time>2018-04-22T16:01:23Z</time>
      </trkpt>
      <trkpt lat="43.9389" lon="7.40509">
        <ele>875</ele>
        <time>2018-04-22T16:01:23Z</time>
      </trkpt>
      <trkpt lat="43.93896" lon="7.4051">
        <ele>875</ele>
        <time>2018-04-22T16:01:23Z</time>
      </trkpt>
      <trkpt lat="43.93901" lon="7.40512">
        <ele>875</ele>
        <time>2018-04-22T16:01:39Z</time>
      </trkpt>
      <trkpt lat="43.93905" lon="7.40522">
        <ele>875</ele>
        <time>2018-04-22T16:01:39Z</time>
      </trkpt>
      <trkpt lat="43.93905" lon="7.4053">
        <ele>875</ele>
        <time>2018-04-22T16:01:39Z</time>
      </trkpt>
      <trkpt lat="43.93904" lon="7.40536">
        <ele>875</ele>
        <time>2018-04-22T16:01:39Z</time>
      </trkpt>
      <trkpt lat="43.93903" lon="7.40542">
        <ele>875</ele>
        <time>2018-04-22T16:01:55Z</time>
      </trkpt>
      <trkpt lat="43.93901" lon="7.40547">
        <ele>860</ele>
        <time>2018-04-22T16:01:55Z</time>
      </trkpt>
      <trkpt lat="43.939" lon="7.40553">
        <ele>860</ele>
        <time>2018-04-22T16:01:55Z</time>
      </trkpt>
      <trkpt lat="43.939" lon="7.4056">
        <ele>860</ele>
        <time>2018-04-22T16:01:55Z</time>
      </trkpt>
      <trkpt lat="43.939" lon="7.40565">
        <ele>860</ele>
        <time>2018-04-22T16:02:11Z</time>
      </trkpt>
      <trkpt lat="43.939" lon="7.40572">
        <ele>860</ele>
        <time>2018-04-22T16:02:11Z</time>
      </trkpt>
      <trkpt lat="43.93901" lon="7.40579">
        <ele>860</ele>
        <time>2018-04-22T16:02:11Z</time>
      </trkpt>
      <trkpt lat="43.93902" lon="7.40584">
        <ele>860</ele>
        <time>2018-04-22T16:02:11Z</time>
      </trkpt>
      <trkpt lat="43.93904" lon="7.4059">
        <ele>860</ele>
        <time>2018-04-22T16:02:27Z</time>
      </trkpt>
      <trkpt lat="43.93905" lon="7.40596">
        <ele>860</ele>
        <time>2018-04-22T16:02:27Z</time>
      </trkpt>
      <trkpt lat="43.93908" lon="7.40602">
        <ele>860</ele>
        <time>2018-04-22T16:02:27Z</time>
      </trkpt>
      <trkpt lat="43.9391" lon="7.40607">
        <ele>860</ele>
        <time>2018-04-22T16:02:27Z</time>
      </trkpt>
      <trkpt lat="43.93913" lon="7.40613">
        <ele>860</ele>
        <time>2018-04-22T16:02:43Z</time>
      </trkpt>
      <trkpt lat="43.93916" lon="7.40616">
        <ele>860</ele>
        <time>2018-04-22T16:02:43Z</time>
      </trkpt>
      <trkpt lat="43.93918" lon="7.4062">
        <ele>860</ele>
        <time>2018-04-22T16:02:43Z</time>
      </trkpt>
      <trkpt lat="43.93921" lon="7.40622">
        <ele>860</ele>
        <time>2018-04-22T16:02:43Z</time>
      </trkpt>
      <trkpt lat="43.93924" lon="7.40626">
        <ele>844</ele>
        <time>2018-04-22T16:02:59Z</time>
      </trkpt>
      <trkpt lat="43.93928" lon="7.40632">
        <ele>844</ele>
        <time>2018-04-22T16:02:59Z</time>
      </trkpt>
      <trkpt lat="43.93931" lon="7.40639">
        <ele>844</ele>
        <time>2018-04-22T16:02:59Z</time>
      </trkpt>
      <trkpt lat="43.93933" lon="7.40645">
        <ele>844</ele>
        <time>2018-04-22T16:02:59Z</time>
      </trkpt>
      <trkpt lat="43.93935" lon="7.40651">
        <ele>844</ele>
        <time>2018-04-22T16:03:15Z</time>
      </trkpt>
      <trkpt lat="43.93938" lon="7.4066">
        <ele>844</ele>
        <time>2018-04-22T16:03:15Z</time>
      </trkpt>
      <trkpt lat="43.93941" lon="7.40665">
        <ele>844</ele>
        <time>2018-04-22T16:03:15Z</time>
      </trkpt>
      <trkpt lat="43.93944" lon="7.40671">
        <ele>844</ele>
        <time>2018-04-22T16:03:15Z</time>
      </trkpt>
      <trkpt lat="43.93948" lon="7.40679">
        <ele>844</ele>
        <time>2018-04-22T16:03:31Z</time>
      </trkpt>
      <trkpt lat="43.93953" lon="7.40677">
        <ele>844</ele>
        <time>2018-04-22T16:03:31Z</time>
      </trkpt>
      <trkpt lat="43.93957" lon="7.40676">
        <ele>844</ele>
        <time>2018-04-22T16:03:31Z</time>
      </trkpt>
      <trkpt lat="43.93961" lon="7.40677">
        <ele>868</ele>
        <time>2018-04-22T16:03:31Z</time>
      </trkpt>
      <trkpt lat="43.9397" lon="7.40671">
        <ele>868</ele>
        <time>2018-04-22T16:03:47Z</time>
      </trkpt>
      <trkpt lat="43.93974" lon="7.4067">
        <ele>868</ele>
        <time>2018-04-22T16:03:47Z</time>
      </trkpt>
      <trkpt lat="43.93978" lon="7.40669">
        <ele>868</ele>
        <time>2018-04-22T16:03:47Z</time>
      </trkpt>
      <trkpt lat="43.93984" lon="7.4067">
        <ele>868</ele>
        <time>2018-04-22T16:03:47Z</time>
      </trkpt>
      <trkpt lat="43.93986" lon="7.40671">
        <ele>868</ele>
        <time>2018-04-22T16:04:03Z</time>
      </trkpt>
      <trkpt lat="43.93985" lon="7.40678">
        <ele>868</ele>
        <time>2018-04-22T16:04:03Z</time>
      </trkpt>
      <trkpt lat="43.93983" lon="7.40686">
        <ele>868</ele>
        <time>2018-04-22T16:04:03Z</time>
      </trkpt>
      <trkpt lat="43.9398" lon="7.40695">
        <ele>868</ele>
        <time>2018-04-22T16:04:03Z</time>
      </trkpt>
      <trkpt lat="43.93978" lon="7.40703">
        <ele>868</ele>
        <time>2018-04-22T16:04:19Z</time>
      </trkpt>
      <trkpt lat="43.93975" lon="7.40712">
        <ele>852</ele>
        <time>2018-04-22T16:04:19Z</time>
      </trkpt>
      <trkpt lat="43.93975" lon="7.40719">
        <ele>852</ele>
        <time>2018-04-22T16:04:19Z</time>
      </trkpt>
      <trkpt lat="43.93975" lon="7.40728">
        <ele>852</ele>
        <time>2018-04-22T16:04:19Z</time>
      </trkpt>
      <trkpt lat="43.9398" lon="7.40746">
        <ele>852</ele>
        <time>2018-04-22T16:05:03Z</time>
      </trkpt>
      <trkpt lat="43.93981" lon="7.40746">
        <ele>852</ele>
        <time>2018-04-22T16:05:03Z</time>
      </trkpt>
      <trkpt lat="43.93981" lon="7.40746">
        <ele>852</ele>
        <time>2018-04-22T16:05:03Z</time>
      </trkpt>
      <trkpt lat="43.93981" lon="7.40746">
        <ele>852</ele>
        <time>2018-04-22T16:05:03Z</time>
      </trkpt>
      <trkpt lat="43.93982" lon="7.40745">
        <ele>852</ele>
        <time>2018-04-22T16:05:03Z</time>
      </trkpt>
      <trkpt lat="43.93983" lon="7.40746">
        <ele>852</ele>
        <time>2018-04-22T16:06:35Z</time>
      </trkpt>
      <trkpt lat="43.93984" lon="7.40748">
        <ele>852</ele>
        <time>2018-04-22T16:06:35Z</time>
      </trkpt>
      <trkpt lat="43.93984" lon="7.40752">
        <ele>852</ele>
        <time>2018-04-22T16:06:35Z</time>
      </trkpt>
      <trkpt lat="43.93985" lon="7.40755">
        <ele>852</ele>
        <time>2018-04-22T16:06:35Z</time>
      </trkpt>
      <trkpt lat="43.93986" lon="7.40763">
        <ele>852</ele>
        <time>2018-04-22T16:06:35Z</time>
      </trkpt>
      <trkpt lat="43.93987" lon="7.40773">
        <ele>852</ele>
        <time>2018-04-22T16:07:15Z</time>
      </trkpt>
      <trkpt lat="43.93986" lon="7.40774">
        <ele>852</ele>
        <time>2018-04-22T16:07:15Z</time>
      </trkpt>
      <trkpt lat="43.93985" lon="7.40774">
        <ele>852</ele>
        <time>2018-04-22T16:07:15Z</time>
      </trkpt>
      <trkpt lat="43.93985" lon="7.4078">
        <ele>852</ele>
        <time>2018-04-22T16:07:15Z</time>
      </trkpt>
      <trkpt lat="43.93986" lon="7.40785">
        <ele>852</ele>
        <time>2018-04-22T16:07:15Z</time>
      </trkpt>
      <trkpt lat="43.93988" lon="7.40787">
        <ele>852</ele>
        <time>2018-04-22T16:07:31Z</time>
      </trkpt>
      <trkpt lat="43.9399" lon="7.40792">
        <ele>837</ele>
        <time>2018-04-22T16:07:31Z</time>
      </trkpt>
      <trkpt lat="43.93991" lon="7.40796">
        <ele>837</ele>
        <time>2018-04-22T16:07:31Z</time>
      </trkpt>
      <trkpt lat="43.93992" lon="7.40801">
        <ele>837</ele>
        <time>2018-04-22T16:07:31Z</time>
      </trkpt>
      <trkpt lat="43.93994" lon="7.4081">
        <ele>837</ele>
        <time>2018-04-22T16:07:55Z</time>
      </trkpt>
      <trkpt lat="43.93994" lon="7.40811">
        <ele>837</ele>
        <time>2018-04-22T16:07:55Z</time>
      </trkpt>
      <trkpt lat="43.93995" lon="7.40812">
        <ele>837</ele>
        <time>2018-04-22T16:07:55Z</time>
      </trkpt>
      <trkpt lat="43.93995" lon="7.40818">
        <ele>837</ele>
        <time>2018-04-22T16:07:55Z</time>
      </trkpt>
      <trkpt lat="43.93996" lon="7.40821">
        <ele>837</ele>
        <time>2018-04-22T16:07:55Z</time>
      </trkpt>
      <trkpt lat="43.93997" lon="7.4083">
        <ele>837</ele>
        <time>2018-04-22T16:08:19Z</time>
      </trkpt>
      <trkpt lat="43.93998" lon="7.40832">
        <ele>837</ele>
        <time>2018-04-22T16:08:19Z</time>
      </trkpt>
      <trkpt lat="43.93999" lon="7.40835">
        <ele>837</ele>
        <time>2018-04-22T16:08:19Z</time>
      </trkpt>
      <trkpt lat="43.93999" lon="7.40836">
        <ele>837</ele>
        <time>2018-04-22T16:08:19Z</time>
      </trkpt>
      <trkpt lat="43.94" lon="7.4084">
        <ele>837</ele>
        <time>2018-04-22T16:08:19Z</time>
      </trkpt>
      <trkpt lat="43.94" lon="7.4084">
        <ele>837</ele>
        <time>2018-04-22T16:08:35Z</time>
      </trkpt>
      <trkpt lat="43.94001" lon="7.40846">
        <ele>837</ele>
        <time>2018-04-22T16:08:35Z</time>
      </trkpt>
      <trkpt lat="43.94003" lon="7.40848">
        <ele>837</ele>
        <time>2018-04-22T16:08:35Z</time>
      </trkpt>
      <trkpt lat="43.94004" lon="7.40852">
        <ele>837</ele>
        <time>2018-04-22T16:08:35Z</time>
      </trkpt>
      <trkpt lat="43.94006" lon="7.40856">
        <ele>837</ele>
        <time>2018-04-22T16:08:51Z</time>
      </trkpt>
      <trkpt lat="43.94009" lon="7.4086">
        <ele>837</ele>
        <time>2018-04-22T16:08:51Z</time>
      </trkpt>
      <trkpt lat="43.94011" lon="7.40865">
        <ele>837</ele>
        <time>2018-04-22T16:08:51Z</time>
      </trkpt>
      <trkpt lat="43.94012" lon="7.40868">
        <ele>837</ele>
        <time>2018-04-22T16:08:51Z</time>
      </trkpt>
      <trkpt lat="43.94014" lon="7.40871">
        <ele>837</ele>
        <time>2018-04-22T16:09:11Z</time>
      </trkpt>
      <trkpt lat="43.94015" lon="7.40873">
        <ele>837</ele>
        <time>2018-04-22T16:09:11Z</time>
      </trkpt>
      <trkpt lat="43.94016" lon="7.40877">
        <ele>814</ele>
        <time>2018-04-22T16:09:11Z</time>
      </trkpt>
      <trkpt lat="43.94017" lon="7.40881">
        <ele>814</ele>
        <time>2018-04-22T16:09:11Z</time>
      </trkpt>
      <trkpt lat="43.9402" lon="7.40888">
        <ele>814</ele>
        <time>2018-04-22T16:09:11Z</time>
      </trkpt>
      <trkpt lat="43.94022" lon="7.40892">
        <ele>814</ele>
        <time>2018-04-22T16:09:27Z</time>
      </trkpt>
      <trkpt lat="43.94024" lon="7.40896">
        <ele>814</ele>
        <time>2018-04-22T16:09:27Z</time>
      </trkpt>
      <trkpt lat="43.94026" lon="7.40901">
        <ele>814</ele>
        <time>2018-04-22T16:09:27Z</time>
      </trkpt>
      <trkpt lat="43.94028" lon="7.40906">
        <ele>814</ele>
        <time>2018-04-22T16:09:27Z</time>
      </trkpt>
      <trkpt lat="43.94029" lon="7.40912">
        <ele>814</ele>
        <time>2018-04-22T16:09:47Z</time>
      </trkpt>
      <trkpt lat="43.9403" lon="7.40917">
        <ele>814</ele>
        <time>2018-04-22T16:09:47Z</time>
      </trkpt>
      <trkpt lat="43.94031" lon="7.40918">
        <ele>814</ele>
        <time>2018-04-22T16:09:47Z</time>
      </trkpt>
      <trkpt lat="43.94032" lon="7.40923">
        <ele>814</ele>
        <time>2018-04-22T16:09:47Z</time>
      </trkpt>
      <trkpt lat="43.94034" lon="7.40929">
        <ele>814</ele>
        <time>2018-04-22T16:09:47Z</time>
      </trkpt>
      <trkpt lat="43.94038" lon="7.40945">
        <ele>814</ele>
        <time>2018-04-22T16:10:31Z</time>
      </trkpt>
      <trkpt lat="43.94039" lon="7.40948">
        <ele>814</ele>
        <time>2018-04-22T16:10:31Z</time>
      </trkpt>
      <trkpt lat="43.94039" lon="7.40948">
        <ele>814</ele>
        <time>2018-04-22T16:10:31Z</time>
      </trkpt>
      <trkpt lat="43.94039" lon="7.40948">
        <ele>814</ele>
        <time>2018-04-22T16:10:31Z</time>
      </trkpt>
      <trkpt lat="43.9404" lon="7.40947">
        <ele>814</ele>
        <time>2018-04-22T16:10:31Z</time>
      </trkpt>
      <trkpt lat="43.94041" lon="7.40949">
        <ele>814</ele>
        <time>2018-04-22T16:10:59Z</time>
      </trkpt>
      <trkpt lat="43.94042" lon="7.40952">
        <ele>846</ele>
        <time>2018-04-22T16:10:59Z</time>
      </trkpt>
      <trkpt lat="43.94044" lon="7.40956">
        <ele>846</ele>
        <time>2018-04-22T16:10:59Z</time>
      </trkpt>
      <trkpt lat="43.94044" lon="7.40961">
        <ele>821</ele>
        <time>2018-04-22T16:10:59Z</time>
      </trkpt>
      <trkpt lat="43.94045" lon="7.40964">
        <ele>821</ele>
        <time>2018-04-22T16:10:59Z</time>
      </trkpt>
      <trkpt lat="43.94046" lon="7.40966">
        <ele>821</ele>
        <time>2018-04-22T16:11:19Z</time>
      </trkpt>
      <trkpt lat="43.94047" lon="7.4097">
        <ele>821</ele>
        <time>2018-04-22T16:11:19Z</time>
      </trkpt>
      <trkpt lat="43.9405" lon="7.40972">
        <ele>821</ele>
        <time>2018-04-22T16:11:19Z</time>
      </trkpt>
      <trkpt lat="43.94051" lon="7.40976">
        <ele>821</ele>
        <time>2018-04-22T16:11:19Z</time>
      </trkpt>
      <trkpt lat="43.94053" lon="7.40981">
        <ele>821</ele>
        <time>2018-04-22T16:11:19Z</time>
      </trkpt>
      <trkpt lat="43.94055" lon="7.40985">
        <ele>821</ele>
        <time>2018-04-22T16:11:35Z</time>
      </trkpt>
      <trkpt lat="43.94057" lon="7.4099">
        <ele>821</ele>
        <time>2018-04-22T16:11:35Z</time>
      </trkpt>
      <trkpt lat="43.94059" lon="7.40995">
        <ele>821</ele>
        <time>2018-04-22T16:11:35Z</time>
      </trkpt>
      <trkpt lat="43.9406" lon="7.40997">
        <ele>821</ele>
        <time>2018-04-22T16:11:35Z</time>
      </trkpt>
      <trkpt lat="43.94062" lon="7.41002">
        <ele>821</ele>
        <time>2018-04-22T16:11:51Z</time>
      </trkpt>
      <trkpt lat="43.94064" lon="7.41008">
        <ele>821</ele>
        <time>2018-04-22T16:11:51Z</time>
      </trkpt>
      <trkpt lat="43.94066" lon="7.41011">
        <ele>821</ele>
        <time>2018-04-22T16:11:51Z</time>
      </trkpt>
      <trkpt lat="43.94065" lon="7.41014">
        <ele>821</ele>
        <time>2018-04-22T16:11:51Z</time>
      </trkpt>
      <trkpt lat="43.94067" lon="7.41017">
        <ele>821</ele>
        <time>2018-04-22T16:12:07Z</time>
      </trkpt>
      <trkpt lat="43.94069" lon="7.4102">
        <ele>821</ele>
        <time>2018-04-22T16:12:07Z</time>
      </trkpt>
      <trkpt lat="43.94071" lon="7.41024">
        <ele>821</ele>
        <time>2018-04-22T16:12:07Z</time>
      </trkpt>
      <trkpt lat="43.94072" lon="7.41028">
        <ele>821</ele>
        <time>2018-04-22T16:12:07Z</time>
      </trkpt>
      <trkpt lat="43.94074" lon="7.41032">
        <ele>821</ele>
        <time>2018-04-22T16:12:23Z</time>
      </trkpt>
      <trkpt lat="43.94076" lon="7.41037">
        <ele>821</ele>
        <time>2018-04-22T16:12:23Z</time>
      </trkpt>
      <trkpt lat="43.94078" lon="7.41041">
        <ele>821</ele>
        <time>2018-04-22T16:12:23Z</time>
      </trkpt>
      <trkpt lat="43.94081" lon="7.41044">
        <ele>803</ele>
        <time>2018-04-22T16:12:23Z</time>
      </trkpt>
      <trkpt lat="43.94084" lon="7.41048">
        <ele>803</ele>
        <time>2018-04-22T16:12:39Z</time>
      </trkpt>
      <trkpt lat="43.94087" lon="7.41051">
        <ele>803</ele>
        <time>2018-04-22T16:12:39Z</time>
      </trkpt>
      <trkpt lat="43.94089" lon="7.41056">
        <ele>803</ele>
        <time>2018-04-22T16:12:39Z</time>
      </trkpt>
      <trkpt lat="43.94091" lon="7.41059">
        <ele>803</ele>
        <time>2018-04-22T16:12:39Z</time>
      </trkpt>
      <trkpt lat="43.94094" lon="7.41064">
        <ele>803</ele>
        <time>2018-04-22T16:12:55Z</time>
      </trkpt>
      <trkpt lat="43.94098" lon="7.41068">
        <ele>803</ele>
        <time>2018-04-22T16:12:55Z</time>
      </trkpt>
      <trkpt lat="43.94103" lon="7.4107">
        <ele>803</ele>
        <time>2018-04-22T16:12:55Z</time>
      </trkpt>
      <trkpt lat="43.94107" lon="7.41074">
        <ele>803</ele>
        <time>2018-04-22T16:12:55Z</time>
      </trkpt>
      <trkpt lat="43.94109" lon="7.41076">
        <ele>803</ele>
        <time>2018-04-22T16:13:11Z</time>
      </trkpt>
      <trkpt lat="43.94113" lon="7.41078">
        <ele>803</ele>
        <time>2018-04-22T16:13:11Z</time>
      </trkpt>
      <trkpt lat="43.94116" lon="7.41076">
        <ele>803</ele>
        <time>2018-04-22T16:13:11Z</time>
      </trkpt>
      <trkpt lat="43.9412" lon="7.41077">
        <ele>803</ele>
        <time>2018-04-22T16:13:11Z</time>
      </trkpt>
      <trkpt lat="43.94124" lon="7.41077">
        <ele>803</ele>
        <time>2018-04-22T16:13:27Z</time>
      </trkpt>
      <trkpt lat="43.94125" lon="7.41077">
        <ele>822</ele>
        <time>2018-04-22T16:13:27Z</time>
      </trkpt>
      <trkpt lat="43.9413" lon="7.41079">
        <ele>822</ele>
        <time>2018-04-22T16:13:27Z</time>
      </trkpt>
      <trkpt lat="43.94133" lon="7.41079">
        <ele>822</ele>
        <time>2018-04-22T16:13:27Z</time>
      </trkpt>
      <trkpt lat="43.94138" lon="7.4108">
        <ele>822</ele>
        <time>2018-04-22T16:13:43Z</time>
      </trkpt>
      <trkpt lat="43.94141" lon="7.41079">
        <ele>822</ele>
        <time>2018-04-22T16:13:43Z</time>
      </trkpt>
      <trkpt lat="43.94144" lon="7.41082">
        <ele>822</ele>
        <time>2018-04-22T16:13:43Z</time>
      </trkpt>
      <trkpt lat="43.94151" lon="7.4109">
        <ele>822</ele>
        <time>2018-04-22T16:13:43Z</time>
      </trkpt>
      <trkpt lat="43.94152" lon="7.41095">
        <ele>822</ele>
        <time>2018-04-22T16:13:59Z</time>
      </trkpt>
      <trkpt lat="43.94154" lon="7.41102">
        <ele>822</ele>
        <time>2018-04-22T16:13:59Z</time>
      </trkpt>
      <trkpt lat="43.94154" lon="7.41107">
        <ele>822</ele>
        <time>2018-04-22T16:13:59Z</time>
      </trkpt>
      <trkpt lat="43.94152" lon="7.41109">
        <ele>822</ele>
        <time>2018-04-22T16:13:59Z</time>
      </trkpt>
      <trkpt lat="43.9415" lon="7.41114">
        <ele>822</ele>
        <time>2018-04-22T16:14:15Z</time>
      </trkpt>
      <trkpt lat="43.94148" lon="7.4112">
        <ele>822</ele>
        <time>2018-04-22T16:14:15Z</time>
      </trkpt>
      <trkpt lat="43.94146" lon="7.41125">
        <ele>811</ele>
        <time>2018-04-22T16:14:15Z</time>
      </trkpt>
      <trkpt lat="43.94143" lon="7.4113">
        <ele>811</ele>
        <time>2018-04-22T16:14:15Z</time>
      </trkpt>
      <trkpt lat="43.94139" lon="7.41134">
        <ele>811</ele>
        <time>2018-04-22T16:14:59Z</time>
      </trkpt>
      <trkpt lat="43.94138" lon="7.41136">
        <ele>811</ele>
        <time>2018-04-22T16:14:59Z</time>
      </trkpt>
      <trkpt lat="43.94139" lon="7.41139">
        <ele>811</ele>
        <time>2018-04-22T16:14:59Z</time>
      </trkpt>
      <trkpt lat="43.94138" lon="7.41143">
        <ele>811</ele>
        <time>2018-04-22T16:14:59Z</time>
      </trkpt>
      <trkpt lat="43.94138" lon="7.41148">
        <ele>811</ele>
        <time>2018-04-22T16:14:59Z</time>
      </trkpt>
      <trkpt lat="43.94138" lon="7.41151">
        <ele>811</ele>
        <time>2018-04-22T16:15:15Z</time>
      </trkpt>
      <trkpt lat="43.94138" lon="7.41154">
        <ele>811</ele>
        <time>2018-04-22T16:15:15Z</time>
      </trkpt>
      <trkpt lat="43.94138" lon="7.41162">
        <ele>811</ele>
        <time>2018-04-22T16:15:15Z</time>
      </trkpt>
      <trkpt lat="43.94139" lon="7.41169">
        <ele>811</ele>
        <time>2018-04-22T16:15:15Z</time>
      </trkpt>
      <trkpt lat="43.9414" lon="7.41173">
        <ele>811</ele>
        <time>2018-04-22T16:15:31Z</time>
      </trkpt>
      <trkpt lat="43.94141" lon="7.41177">
        <ele>811</ele>
        <time>2018-04-22T16:15:31Z</time>
      </trkpt>
      <trkpt lat="43.94142" lon="7.4118">
        <ele>811</ele>
        <time>2018-04-22T16:15:31Z</time>
      </trkpt>
      <trkpt lat="43.94144" lon="7.41185">
        <ele>811</ele>
        <time>2018-04-22T16:15:31Z</time>
      </trkpt>
      <trkpt lat="43.94147" lon="7.41203">
        <ele>811</ele>
        <time>2018-04-22T16:16:23Z</time>
      </trkpt>
      <trkpt lat="43.94146" lon="7.41206">
        <ele>811</ele>
        <time>2018-04-22T16:16:23Z</time>
      </trkpt>
      <trkpt lat="43.94144" lon="7.41208">
        <ele>811</ele>
        <time>2018-04-22T16:16:23Z</time>
      </trkpt>
      <trkpt lat="43.94141" lon="7.41214">
        <ele>806</ele>
        <time>2018-04-22T16:16:23Z</time>
      </trkpt>
      <trkpt lat="43.94138" lon="7.41217">
        <ele>806</ele>
        <time>2018-04-22T16:16:23Z</time>
      </trkpt>
      <trkpt lat="43.94134" lon="7.4122">
        <ele>806</ele>
        <time>2018-04-22T16:16:43Z</time>
      </trkpt>
      <trkpt lat="43.94131" lon="7.41224">
        <ele>806</ele>
        <time>2018-04-22T16:16:43Z</time>
      </trkpt>
      <trkpt lat="43.94128" lon="7.41224">
        <ele>806</ele>
        <time>2018-04-22T16:16:43Z</time>
      </trkpt>
      <trkpt lat="43.94126" lon="7.41222">
        <ele>806</ele>
        <time>2018-04-22T16:16:43Z</time>
      </trkpt>
      <trkpt lat="43.94124" lon="7.41224">
        <ele>785</ele>
        <time>2018-04-22T16:16:43Z</time>
      </trkpt>
      <trkpt lat="43.94118" lon="7.41233">
        <ele>785</ele>
        <time>2018-04-22T16:17:11Z</time>
      </trkpt>
      <trkpt lat="43.94118" lon="7.41234">
        <ele>785</ele>
        <time>2018-04-22T16:17:11Z</time>
      </trkpt>
      <trkpt lat="43.9412" lon="7.41236">
        <ele>785</ele>
        <time>2018-04-22T16:17:11Z</time>
      </trkpt>
      <trkpt lat="43.94119" lon="7.41238">
        <ele>785</ele>
        <time>2018-04-22T16:17:11Z</time>
      </trkpt>
      <trkpt lat="43.94117" lon="7.41241">
        <ele>785</ele>
        <time>2018-04-22T16:17:11Z</time>
      </trkpt>
      <trkpt lat="43.94114" lon="7.41246">
        <ele>785</ele>
        <time>2018-04-22T16:17:35Z</time>
      </trkpt>
      <trkpt lat="43.94113" lon="7.41251">
        <ele>785</ele>
        <time>2018-04-22T16:17:35Z</time>
      </trkpt>
      <trkpt lat="43.94111" lon="7.41254">
        <ele>785</ele>
        <time>2018-04-22T16:17:35Z</time>
      </trkpt>
      <trkpt lat="43.9411" lon="7.41255">
        <ele>785</ele>
        <time>2018-04-22T16:17:35Z</time>
      </trkpt>
      <trkpt lat="43.94108" lon="7.41259">
        <ele>785</ele>
        <time>2018-04-22T16:17:35Z</time>
      </trkpt>
    </trkseg>
  </trk>
</gpx>